<?xml version="1.0" encoding="UTF-8" standalone="no" ?>
<gpx xmlns="http://www.topografix.com/GPX/1/1" xmlns:xsi="http://www.w3.org/2001/XMLSchema-instance" xsi:schemaLocation="http://www.topografix.com/GPX/1/1 http://www.topografix.com/GPX/1/1/gpx.xsd" version="1.1" creator="VisuGPX - https://www.visugpx.com">
  <metadata>
    <name>Course à pied dans l'après-midi</name>
  </metadata>
  <trk>
    <name><![CDATA[Course à pied dans l'après-midi_1]]></name>
    <trkseg>
      <trkpt lat="43.5345" lon="1.49551">
        <ele>149</ele>
        <time>2023-03-22T16:12:21Z</time>
      </trkpt>
      <trkpt lat="43.5345" lon="1.49551">
        <ele>149</ele>
        <time>2023-03-22T16:12:22Z</time>
      </trkpt>
      <trkpt lat="43.5345" lon="1.49551">
        <ele>149</ele>
        <time>2023-03-22T16:12:23Z</time>
      </trkpt>
      <trkpt lat="43.5345" lon="1.49551">
        <ele>148</ele>
        <time>2023-03-22T16:12:24Z</time>
      </trkpt>
      <trkpt lat="43.5345" lon="1.49551">
        <ele>148</ele>
        <time>2023-03-22T16:12:25Z</time>
      </trkpt>
      <trkpt lat="43.5345" lon="1.49551">
        <ele>148</ele>
        <time>2023-03-22T16:12:26Z</time>
      </trkpt>
      <trkpt lat="43.5345" lon="1.49551">
        <ele>148</ele>
        <time>2023-03-22T16:12:27Z</time>
      </trkpt>
      <trkpt lat="43.5345" lon="1.49551">
        <ele>148</ele>
        <time>2023-03-22T16:12:28Z</time>
      </trkpt>
      <trkpt lat="43.5345" lon="1.49551">
        <ele>148</ele>
        <time>2023-03-22T16:12:29Z</time>
      </trkpt>
      <trkpt lat="43.5345" lon="1.49551">
        <ele>148</ele>
        <time>2023-03-22T16:12:30Z</time>
      </trkpt>
      <trkpt lat="43.5345" lon="1.49551">
        <ele>148</ele>
        <time>2023-03-22T16:12:31Z</time>
      </trkpt>
      <trkpt lat="43.5345" lon="1.49551">
        <ele>148</ele>
        <time>2023-03-22T16:12:32Z</time>
      </trkpt>
      <trkpt lat="43.5345" lon="1.49551">
        <ele>148</ele>
        <time>2023-03-22T16:12:33Z</time>
      </trkpt>
      <trkpt lat="43.5345" lon="1.49551">
        <ele>148</ele>
        <time>2023-03-22T16:12:34Z</time>
      </trkpt>
      <trkpt lat="43.5345" lon="1.49551">
        <ele>148</ele>
        <time>2023-03-22T16:12:35Z</time>
      </trkpt>
      <trkpt lat="43.5345" lon="1.49551">
        <ele>149</ele>
        <time>2023-03-22T16:12:36Z</time>
      </trkpt>
      <trkpt lat="43.5345" lon="1.49551">
        <ele>149</ele>
        <time>2023-03-22T16:12:37Z</time>
      </trkpt>
      <trkpt lat="43.5345" lon="1.49551">
        <ele>149</ele>
        <time>2023-03-22T16:12:38Z</time>
      </trkpt>
      <trkpt lat="43.5345" lon="1.49551">
        <ele>149</ele>
        <time>2023-03-22T16:12:39Z</time>
      </trkpt>
      <trkpt lat="43.5345" lon="1.49551">
        <ele>149</ele>
        <time>2023-03-22T16:12:40Z</time>
      </trkpt>
      <trkpt lat="43.5345" lon="1.49551">
        <ele>149</ele>
        <time>2023-03-22T16:12:41Z</time>
      </trkpt>
      <trkpt lat="43.5345" lon="1.49551">
        <ele>149</ele>
        <time>2023-03-22T16:12:42Z</time>
      </trkpt>
      <trkpt lat="43.5345" lon="1.49551">
        <ele>149</ele>
        <time>2023-03-22T16:12:43Z</time>
      </trkpt>
      <trkpt lat="43.5345" lon="1.49551">
        <ele>149</ele>
        <time>2023-03-22T16:12:44Z</time>
      </trkpt>
      <trkpt lat="43.5345" lon="1.49551">
        <ele>149</ele>
        <time>2023-03-22T16:12:45Z</time>
      </trkpt>
      <trkpt lat="43.5345" lon="1.49551">
        <ele>149</ele>
        <time>2023-03-22T16:12:46Z</time>
      </trkpt>
      <trkpt lat="43.5345" lon="1.49551">
        <ele>148</ele>
        <time>2023-03-22T16:12:47Z</time>
      </trkpt>
      <trkpt lat="43.5345" lon="1.49551">
        <ele>148</ele>
        <time>2023-03-22T16:12:48Z</time>
      </trkpt>
      <trkpt lat="43.5345" lon="1.49551">
        <ele>149</ele>
        <time>2023-03-22T16:12:49Z</time>
      </trkpt>
      <trkpt lat="43.5345" lon="1.49551">
        <ele>149</ele>
        <time>2023-03-22T16:12:50Z</time>
      </trkpt>
      <trkpt lat="43.5345" lon="1.49551">
        <ele>149</ele>
        <time>2023-03-22T16:12:51Z</time>
      </trkpt>
      <trkpt lat="43.5345" lon="1.49551">
        <ele>149</ele>
        <time>2023-03-22T16:12:52Z</time>
      </trkpt>
      <trkpt lat="43.5345" lon="1.49551">
        <ele>149</ele>
        <time>2023-03-22T16:12:53Z</time>
      </trkpt>
      <trkpt lat="43.5345" lon="1.49551">
        <ele>149</ele>
        <time>2023-03-22T16:12:54Z</time>
      </trkpt>
      <trkpt lat="43.5345" lon="1.49551">
        <ele>149</ele>
        <time>2023-03-22T16:12:55Z</time>
      </trkpt>
      <trkpt lat="43.5345" lon="1.49551">
        <ele>149</ele>
        <time>2023-03-22T16:12:56Z</time>
      </trkpt>
      <trkpt lat="43.5345" lon="1.49551">
        <ele>149</ele>
        <time>2023-03-22T16:12:57Z</time>
      </trkpt>
      <trkpt lat="43.5345" lon="1.49551">
        <ele>149</ele>
        <time>2023-03-22T16:12:58Z</time>
      </trkpt>
      <trkpt lat="43.5345" lon="1.49551">
        <ele>149</ele>
        <time>2023-03-22T16:12:59Z</time>
      </trkpt>
      <trkpt lat="43.5345" lon="1.49551">
        <ele>149</ele>
        <time>2023-03-22T16:13:00Z</time>
      </trkpt>
      <trkpt lat="43.5345" lon="1.49551">
        <ele>149</ele>
        <time>2023-03-22T16:13:01Z</time>
      </trkpt>
      <trkpt lat="43.5345" lon="1.49551">
        <ele>149</ele>
        <time>2023-03-22T16:13:02Z</time>
      </trkpt>
      <trkpt lat="43.5345" lon="1.49551">
        <ele>149</ele>
        <time>2023-03-22T16:13:03Z</time>
      </trkpt>
      <trkpt lat="43.5345" lon="1.49551">
        <ele>149</ele>
        <time>2023-03-22T16:13:04Z</time>
      </trkpt>
      <trkpt lat="43.5345" lon="1.49551">
        <ele>149</ele>
        <time>2023-03-22T16:13:05Z</time>
      </trkpt>
      <trkpt lat="43.5345" lon="1.49551">
        <ele>149</ele>
        <time>2023-03-22T16:13:06Z</time>
      </trkpt>
      <trkpt lat="43.5345" lon="1.49551">
        <ele>149</ele>
        <time>2023-03-22T16:13:07Z</time>
      </trkpt>
      <trkpt lat="43.5345" lon="1.49551">
        <ele>149</ele>
        <time>2023-03-22T16:13:08Z</time>
      </trkpt>
      <trkpt lat="43.5345" lon="1.49551">
        <ele>149</ele>
        <time>2023-03-22T16:13:09Z</time>
      </trkpt>
      <trkpt lat="43.5345" lon="1.49551">
        <ele>149</ele>
        <time>2023-03-22T16:13:10Z</time>
      </trkpt>
      <trkpt lat="43.5345" lon="1.49551">
        <ele>149</ele>
        <time>2023-03-22T16:13:11Z</time>
      </trkpt>
      <trkpt lat="43.5345" lon="1.49551">
        <ele>149</ele>
        <time>2023-03-22T16:13:12Z</time>
      </trkpt>
      <trkpt lat="43.5345" lon="1.49551">
        <ele>149</ele>
        <time>2023-03-22T16:13:13Z</time>
      </trkpt>
      <trkpt lat="43.5345" lon="1.49551">
        <ele>150</ele>
        <time>2023-03-22T16:13:14Z</time>
      </trkpt>
      <trkpt lat="43.5345" lon="1.49551">
        <ele>150</ele>
        <time>2023-03-22T16:13:15Z</time>
      </trkpt>
      <trkpt lat="43.5345" lon="1.49551">
        <ele>150</ele>
        <time>2023-03-22T16:13:16Z</time>
      </trkpt>
      <trkpt lat="43.5345" lon="1.49551">
        <ele>150</ele>
        <time>2023-03-22T16:13:17Z</time>
      </trkpt>
      <trkpt lat="43.5345" lon="1.49551">
        <ele>150</ele>
        <time>2023-03-22T16:13:18Z</time>
      </trkpt>
      <trkpt lat="43.5345" lon="1.49551">
        <ele>150</ele>
        <time>2023-03-22T16:13:19Z</time>
      </trkpt>
      <trkpt lat="43.5345" lon="1.49551">
        <ele>150</ele>
        <time>2023-03-22T16:13:20Z</time>
      </trkpt>
      <trkpt lat="43.5345" lon="1.49551">
        <ele>150</ele>
        <time>2023-03-22T16:13:21Z</time>
      </trkpt>
      <trkpt lat="43.5345" lon="1.49551">
        <ele>150</ele>
        <time>2023-03-22T16:13:22Z</time>
      </trkpt>
      <trkpt lat="43.5345" lon="1.49551">
        <ele>150</ele>
        <time>2023-03-22T16:13:23Z</time>
      </trkpt>
      <trkpt lat="43.5345" lon="1.49551">
        <ele>150</ele>
        <time>2023-03-22T16:13:24Z</time>
      </trkpt>
      <trkpt lat="43.5345" lon="1.49551">
        <ele>150</ele>
        <time>2023-03-22T16:13:25Z</time>
      </trkpt>
      <trkpt lat="43.5345" lon="1.49551">
        <ele>150</ele>
        <time>2023-03-22T16:13:26Z</time>
      </trkpt>
      <trkpt lat="43.5345" lon="1.49551">
        <ele>150</ele>
        <time>2023-03-22T16:13:27Z</time>
      </trkpt>
      <trkpt lat="43.5345" lon="1.49551">
        <ele>150</ele>
        <time>2023-03-22T16:13:28Z</time>
      </trkpt>
      <trkpt lat="43.5345" lon="1.49551">
        <ele>150</ele>
        <time>2023-03-22T16:13:29Z</time>
      </trkpt>
      <trkpt lat="43.5345" lon="1.49551">
        <ele>150</ele>
        <time>2023-03-22T16:13:30Z</time>
      </trkpt>
      <trkpt lat="43.5345" lon="1.49551">
        <ele>150</ele>
        <time>2023-03-22T16:13:31Z</time>
      </trkpt>
      <trkpt lat="43.5345" lon="1.49551">
        <ele>150</ele>
        <time>2023-03-22T16:13:32Z</time>
      </trkpt>
      <trkpt lat="43.5345" lon="1.49551">
        <ele>150</ele>
        <time>2023-03-22T16:13:33Z</time>
      </trkpt>
      <trkpt lat="43.5345" lon="1.49551">
        <ele>151</ele>
        <time>2023-03-22T16:13:34Z</time>
      </trkpt>
      <trkpt lat="43.5345" lon="1.49551">
        <ele>151</ele>
        <time>2023-03-22T16:13:35Z</time>
      </trkpt>
      <trkpt lat="43.5345" lon="1.49551">
        <ele>151</ele>
        <time>2023-03-22T16:13:36Z</time>
      </trkpt>
      <trkpt lat="43.5345" lon="1.49551">
        <ele>151</ele>
        <time>2023-03-22T16:13:37Z</time>
      </trkpt>
      <trkpt lat="43.5345" lon="1.49551">
        <ele>151</ele>
        <time>2023-03-22T16:13:38Z</time>
      </trkpt>
      <trkpt lat="43.5345" lon="1.49551">
        <ele>151</ele>
        <time>2023-03-22T16:13:39Z</time>
      </trkpt>
      <trkpt lat="43.5345" lon="1.49551">
        <ele>151</ele>
        <time>2023-03-22T16:13:40Z</time>
      </trkpt>
      <trkpt lat="43.5345" lon="1.49551">
        <ele>151</ele>
        <time>2023-03-22T16:13:41Z</time>
      </trkpt>
      <trkpt lat="43.5345" lon="1.49551">
        <ele>151</ele>
        <time>2023-03-22T16:13:42Z</time>
      </trkpt>
      <trkpt lat="43.5345" lon="1.49551">
        <ele>151</ele>
        <time>2023-03-22T16:13:43Z</time>
      </trkpt>
      <trkpt lat="43.5345" lon="1.49551">
        <ele>151</ele>
        <time>2023-03-22T16:13:44Z</time>
      </trkpt>
      <trkpt lat="43.5345" lon="1.49551">
        <ele>151</ele>
        <time>2023-03-22T16:13:45Z</time>
      </trkpt>
      <trkpt lat="43.5345" lon="1.49551">
        <ele>151</ele>
        <time>2023-03-22T16:13:46Z</time>
      </trkpt>
      <trkpt lat="43.5345" lon="1.49551">
        <ele>151</ele>
        <time>2023-03-22T16:13:47Z</time>
      </trkpt>
      <trkpt lat="43.5345" lon="1.49551">
        <ele>151</ele>
        <time>2023-03-22T16:13:48Z</time>
      </trkpt>
      <trkpt lat="43.5345" lon="1.49551">
        <ele>151</ele>
        <time>2023-03-22T16:13:49Z</time>
      </trkpt>
      <trkpt lat="43.5345" lon="1.49551">
        <ele>151</ele>
        <time>2023-03-22T16:13:50Z</time>
      </trkpt>
      <trkpt lat="43.5345" lon="1.49551">
        <ele>151</ele>
        <time>2023-03-22T16:13:51Z</time>
      </trkpt>
      <trkpt lat="43.5345" lon="1.49551">
        <ele>151</ele>
        <time>2023-03-22T16:13:52Z</time>
      </trkpt>
      <trkpt lat="43.5345" lon="1.49551">
        <ele>151</ele>
        <time>2023-03-22T16:13:53Z</time>
      </trkpt>
      <trkpt lat="43.5345" lon="1.49551">
        <ele>152</ele>
        <time>2023-03-22T16:13:54Z</time>
      </trkpt>
      <trkpt lat="43.5345" lon="1.49551">
        <ele>152</ele>
        <time>2023-03-22T16:13:55Z</time>
      </trkpt>
      <trkpt lat="43.5345" lon="1.49551">
        <ele>152</ele>
        <time>2023-03-22T16:13:56Z</time>
      </trkpt>
      <trkpt lat="43.5345" lon="1.49551">
        <ele>152</ele>
        <time>2023-03-22T16:13:57Z</time>
      </trkpt>
      <trkpt lat="43.5345" lon="1.49551">
        <ele>152</ele>
        <time>2023-03-22T16:13:58Z</time>
      </trkpt>
      <trkpt lat="43.5345" lon="1.49551">
        <ele>152</ele>
        <time>2023-03-22T16:13:59Z</time>
      </trkpt>
      <trkpt lat="43.5345" lon="1.49551">
        <ele>152</ele>
        <time>2023-03-22T16:14:00Z</time>
      </trkpt>
      <trkpt lat="43.5345" lon="1.49551">
        <ele>152</ele>
        <time>2023-03-22T16:14:01Z</time>
      </trkpt>
      <trkpt lat="43.5345" lon="1.49551">
        <ele>152</ele>
        <time>2023-03-22T16:14:02Z</time>
      </trkpt>
      <trkpt lat="43.5345" lon="1.49551">
        <ele>152</ele>
        <time>2023-03-22T16:14:03Z</time>
      </trkpt>
      <trkpt lat="43.5345" lon="1.49551">
        <ele>152</ele>
        <time>2023-03-22T16:14:04Z</time>
      </trkpt>
      <trkpt lat="43.5345" lon="1.49551">
        <ele>152</ele>
        <time>2023-03-22T16:14:05Z</time>
      </trkpt>
      <trkpt lat="43.5345" lon="1.49551">
        <ele>152</ele>
        <time>2023-03-22T16:14:06Z</time>
      </trkpt>
      <trkpt lat="43.5345" lon="1.49551">
        <ele>152</ele>
        <time>2023-03-22T16:14:07Z</time>
      </trkpt>
      <trkpt lat="43.5345" lon="1.49551">
        <ele>152</ele>
        <time>2023-03-22T16:14:08Z</time>
      </trkpt>
      <trkpt lat="43.5345" lon="1.49551">
        <ele>152</ele>
        <time>2023-03-22T16:14:09Z</time>
      </trkpt>
      <trkpt lat="43.5345" lon="1.49551">
        <ele>152</ele>
        <time>2023-03-22T16:14:10Z</time>
      </trkpt>
      <trkpt lat="43.5345" lon="1.49551">
        <ele>152</ele>
        <time>2023-03-22T16:14:11Z</time>
      </trkpt>
      <trkpt lat="43.5345" lon="1.49551">
        <ele>152</ele>
        <time>2023-03-22T16:14:12Z</time>
      </trkpt>
      <trkpt lat="43.5345" lon="1.49551">
        <ele>152</ele>
        <time>2023-03-22T16:14:13Z</time>
      </trkpt>
      <trkpt lat="43.5345" lon="1.49551">
        <ele>152</ele>
        <time>2023-03-22T16:14:14Z</time>
      </trkpt>
      <trkpt lat="43.5345" lon="1.49551">
        <ele>152</ele>
        <time>2023-03-22T16:14:15Z</time>
      </trkpt>
      <trkpt lat="43.5345" lon="1.49551">
        <ele>152</ele>
        <time>2023-03-22T16:14:16Z</time>
      </trkpt>
      <trkpt lat="43.5345" lon="1.49551">
        <ele>152</ele>
        <time>2023-03-22T16:14:17Z</time>
      </trkpt>
      <trkpt lat="43.5345" lon="1.49551">
        <ele>151</ele>
        <time>2023-03-22T16:14:18Z</time>
      </trkpt>
      <trkpt lat="43.5345" lon="1.49551">
        <ele>151</ele>
        <time>2023-03-22T16:14:19Z</time>
      </trkpt>
      <trkpt lat="43.5345" lon="1.49551">
        <ele>151</ele>
        <time>2023-03-22T16:14:20Z</time>
      </trkpt>
      <trkpt lat="43.5345" lon="1.49551">
        <ele>151</ele>
        <time>2023-03-22T16:14:21Z</time>
      </trkpt>
      <trkpt lat="43.5345" lon="1.49551">
        <ele>151</ele>
        <time>2023-03-22T16:14:22Z</time>
      </trkpt>
      <trkpt lat="43.5345" lon="1.49551">
        <ele>151</ele>
        <time>2023-03-22T16:14:23Z</time>
      </trkpt>
      <trkpt lat="43.5345" lon="1.49551">
        <ele>151</ele>
        <time>2023-03-22T16:14:24Z</time>
      </trkpt>
      <trkpt lat="43.5345" lon="1.49551">
        <ele>151</ele>
        <time>2023-03-22T16:14:25Z</time>
      </trkpt>
      <trkpt lat="43.5345" lon="1.49551">
        <ele>151</ele>
        <time>2023-03-22T16:14:26Z</time>
      </trkpt>
      <trkpt lat="43.5345" lon="1.49551">
        <ele>151</ele>
        <time>2023-03-22T16:14:27Z</time>
      </trkpt>
      <trkpt lat="43.5345" lon="1.49551">
        <ele>151</ele>
        <time>2023-03-22T16:14:28Z</time>
      </trkpt>
      <trkpt lat="43.5345" lon="1.49551">
        <ele>150</ele>
        <time>2023-03-22T16:14:29Z</time>
      </trkpt>
      <trkpt lat="43.5345" lon="1.49551">
        <ele>150</ele>
        <time>2023-03-22T16:14:30Z</time>
      </trkpt>
      <trkpt lat="43.5345" lon="1.49551">
        <ele>150</ele>
        <time>2023-03-22T16:14:31Z</time>
      </trkpt>
      <trkpt lat="43.5345" lon="1.49551">
        <ele>150</ele>
        <time>2023-03-22T16:14:32Z</time>
      </trkpt>
      <trkpt lat="43.5345" lon="1.49551">
        <ele>150</ele>
        <time>2023-03-22T16:14:33Z</time>
      </trkpt>
      <trkpt lat="43.5345" lon="1.49551">
        <ele>150</ele>
        <time>2023-03-22T16:14:34Z</time>
      </trkpt>
      <trkpt lat="43.5345" lon="1.49551">
        <ele>150</ele>
        <time>2023-03-22T16:14:35Z</time>
      </trkpt>
      <trkpt lat="43.5345" lon="1.49551">
        <ele>150</ele>
        <time>2023-03-22T16:14:36Z</time>
      </trkpt>
      <trkpt lat="43.5345" lon="1.49551">
        <ele>149</ele>
        <time>2023-03-22T16:14:37Z</time>
      </trkpt>
      <trkpt lat="43.5345" lon="1.49551">
        <ele>149</ele>
        <time>2023-03-22T16:14:38Z</time>
      </trkpt>
      <trkpt lat="43.5345" lon="1.49551">
        <ele>149</ele>
        <time>2023-03-22T16:14:39Z</time>
      </trkpt>
      <trkpt lat="43.5345" lon="1.49551">
        <ele>149</ele>
        <time>2023-03-22T16:14:40Z</time>
      </trkpt>
      <trkpt lat="43.5345" lon="1.49551">
        <ele>149</ele>
        <time>2023-03-22T16:14:41Z</time>
      </trkpt>
      <trkpt lat="43.5345" lon="1.49551">
        <ele>149</ele>
        <time>2023-03-22T16:14:42Z</time>
      </trkpt>
      <trkpt lat="43.5345" lon="1.49551">
        <ele>149</ele>
        <time>2023-03-22T16:14:43Z</time>
      </trkpt>
      <trkpt lat="43.5345" lon="1.49551">
        <ele>149</ele>
        <time>2023-03-22T16:14:44Z</time>
      </trkpt>
      <trkpt lat="43.5345" lon="1.49551">
        <ele>148</ele>
        <time>2023-03-22T16:14:45Z</time>
      </trkpt>
      <trkpt lat="43.5345" lon="1.49551">
        <ele>148</ele>
        <time>2023-03-22T16:14:46Z</time>
      </trkpt>
      <trkpt lat="43.5345" lon="1.49551">
        <ele>148</ele>
        <time>2023-03-22T16:14:47Z</time>
      </trkpt>
      <trkpt lat="43.5345" lon="1.49551">
        <ele>148</ele>
        <time>2023-03-22T16:14:48Z</time>
      </trkpt>
      <trkpt lat="43.5345" lon="1.49551">
        <ele>148</ele>
        <time>2023-03-22T16:14:49Z</time>
      </trkpt>
      <trkpt lat="43.5345" lon="1.49551">
        <ele>148</ele>
        <time>2023-03-22T16:14:50Z</time>
      </trkpt>
      <trkpt lat="43.5345" lon="1.49551">
        <ele>147</ele>
        <time>2023-03-22T16:14:51Z</time>
      </trkpt>
      <trkpt lat="43.5345" lon="1.49551">
        <ele>147</ele>
        <time>2023-03-22T16:14:52Z</time>
      </trkpt>
      <trkpt lat="43.5345" lon="1.49551">
        <ele>147</ele>
        <time>2023-03-22T16:14:53Z</time>
      </trkpt>
      <trkpt lat="43.5345" lon="1.49551">
        <ele>147</ele>
        <time>2023-03-22T16:14:54Z</time>
      </trkpt>
      <trkpt lat="43.5345" lon="1.49551">
        <ele>147</ele>
        <time>2023-03-22T16:14:55Z</time>
      </trkpt>
      <trkpt lat="43.5345" lon="1.49551">
        <ele>146</ele>
        <time>2023-03-22T16:14:56Z</time>
      </trkpt>
      <trkpt lat="43.5345" lon="1.49551">
        <ele>146</ele>
        <time>2023-03-22T16:14:57Z</time>
      </trkpt>
      <trkpt lat="43.5345" lon="1.49551">
        <ele>146</ele>
        <time>2023-03-22T16:14:58Z</time>
      </trkpt>
      <trkpt lat="43.5345" lon="1.49551">
        <ele>146</ele>
        <time>2023-03-22T16:14:59Z</time>
      </trkpt>
      <trkpt lat="43.5345" lon="1.49551">
        <ele>146</ele>
        <time>2023-03-22T16:15:00Z</time>
      </trkpt>
      <trkpt lat="43.5345" lon="1.49551">
        <ele>145</ele>
        <time>2023-03-22T16:15:01Z</time>
      </trkpt>
      <trkpt lat="43.5345" lon="1.49551">
        <ele>145</ele>
        <time>2023-03-22T16:15:02Z</time>
      </trkpt>
      <trkpt lat="43.5345" lon="1.49551">
        <ele>145</ele>
        <time>2023-03-22T16:15:03Z</time>
      </trkpt>
      <trkpt lat="43.5345" lon="1.49551">
        <ele>145</ele>
        <time>2023-03-22T16:15:04Z</time>
      </trkpt>
      <trkpt lat="43.5345" lon="1.49551">
        <ele>145</ele>
        <time>2023-03-22T16:15:05Z</time>
      </trkpt>
      <trkpt lat="43.5345" lon="1.49551">
        <ele>145</ele>
        <time>2023-03-22T16:15:06Z</time>
      </trkpt>
      <trkpt lat="43.5345" lon="1.49551">
        <ele>145</ele>
        <time>2023-03-22T16:15:07Z</time>
      </trkpt>
      <trkpt lat="43.5345" lon="1.49551">
        <ele>145</ele>
        <time>2023-03-22T16:15:08Z</time>
      </trkpt>
      <trkpt lat="43.5345" lon="1.49551">
        <ele>145</ele>
        <time>2023-03-22T16:15:09Z</time>
      </trkpt>
      <trkpt lat="43.5345" lon="1.49551">
        <ele>145</ele>
        <time>2023-03-22T16:15:10Z</time>
      </trkpt>
      <trkpt lat="43.5345" lon="1.49551">
        <ele>145</ele>
        <time>2023-03-22T16:15:11Z</time>
      </trkpt>
      <trkpt lat="43.5345" lon="1.49551">
        <ele>145</ele>
        <time>2023-03-22T16:15:12Z</time>
      </trkpt>
      <trkpt lat="43.5345" lon="1.49551">
        <ele>145</ele>
        <time>2023-03-22T16:15:13Z</time>
      </trkpt>
      <trkpt lat="43.5345" lon="1.49551">
        <ele>145</ele>
        <time>2023-03-22T16:15:14Z</time>
      </trkpt>
      <trkpt lat="43.5345" lon="1.49551">
        <ele>145</ele>
        <time>2023-03-22T16:15:15Z</time>
      </trkpt>
      <trkpt lat="43.5345" lon="1.49551">
        <ele>145</ele>
        <time>2023-03-22T16:15:16Z</time>
      </trkpt>
      <trkpt lat="43.5345" lon="1.49551">
        <ele>145</ele>
        <time>2023-03-22T16:15:17Z</time>
      </trkpt>
      <trkpt lat="43.5345" lon="1.49551">
        <ele>145</ele>
        <time>2023-03-22T16:15:18Z</time>
      </trkpt>
      <trkpt lat="43.5345" lon="1.49551">
        <ele>145</ele>
        <time>2023-03-22T16:15:19Z</time>
      </trkpt>
      <trkpt lat="43.5345" lon="1.49551">
        <ele>145</ele>
        <time>2023-03-22T16:15:20Z</time>
      </trkpt>
      <trkpt lat="43.5345" lon="1.49551">
        <ele>144</ele>
        <time>2023-03-22T16:15:21Z</time>
      </trkpt>
      <trkpt lat="43.5345" lon="1.49551">
        <ele>144</ele>
        <time>2023-03-22T16:15:22Z</time>
      </trkpt>
      <trkpt lat="43.5345" lon="1.49551">
        <ele>144</ele>
        <time>2023-03-22T16:15:23Z</time>
      </trkpt>
      <trkpt lat="43.5345" lon="1.49551">
        <ele>144</ele>
        <time>2023-03-22T16:15:24Z</time>
      </trkpt>
      <trkpt lat="43.5345" lon="1.49551">
        <ele>144</ele>
        <time>2023-03-22T16:15:25Z</time>
      </trkpt>
      <trkpt lat="43.5345" lon="1.49551">
        <ele>144</ele>
        <time>2023-03-22T16:15:26Z</time>
      </trkpt>
      <trkpt lat="43.5345" lon="1.49551">
        <ele>144</ele>
        <time>2023-03-22T16:15:27Z</time>
      </trkpt>
      <trkpt lat="43.5345" lon="1.49551">
        <ele>144</ele>
        <time>2023-03-22T16:15:28Z</time>
      </trkpt>
      <trkpt lat="43.5345" lon="1.49551">
        <ele>144</ele>
        <time>2023-03-22T16:15:29Z</time>
      </trkpt>
      <trkpt lat="43.5345" lon="1.49551">
        <ele>144</ele>
        <time>2023-03-22T16:15:30Z</time>
      </trkpt>
      <trkpt lat="43.5345" lon="1.49551">
        <ele>144</ele>
        <time>2023-03-22T16:15:31Z</time>
      </trkpt>
      <trkpt lat="43.5345" lon="1.49551">
        <ele>144</ele>
        <time>2023-03-22T16:15:32Z</time>
      </trkpt>
      <trkpt lat="43.5345" lon="1.49551">
        <ele>145</ele>
        <time>2023-03-22T16:15:33Z</time>
      </trkpt>
      <trkpt lat="43.5345" lon="1.49551">
        <ele>145</ele>
        <time>2023-03-22T16:15:34Z</time>
      </trkpt>
      <trkpt lat="43.5345" lon="1.49551">
        <ele>145</ele>
        <time>2023-03-22T16:15:35Z</time>
      </trkpt>
      <trkpt lat="43.5345" lon="1.49551">
        <ele>145</ele>
        <time>2023-03-22T16:15:36Z</time>
      </trkpt>
      <trkpt lat="43.5345" lon="1.49551">
        <ele>145</ele>
        <time>2023-03-22T16:15:37Z</time>
      </trkpt>
      <trkpt lat="43.5345" lon="1.49551">
        <ele>145</ele>
        <time>2023-03-22T16:15:38Z</time>
      </trkpt>
      <trkpt lat="43.5345" lon="1.49551">
        <ele>145</ele>
        <time>2023-03-22T16:15:39Z</time>
      </trkpt>
      <trkpt lat="43.5345" lon="1.49551">
        <ele>145</ele>
        <time>2023-03-22T16:15:40Z</time>
      </trkpt>
      <trkpt lat="43.5345" lon="1.49551">
        <ele>145</ele>
        <time>2023-03-22T16:15:41Z</time>
      </trkpt>
      <trkpt lat="43.5345" lon="1.49551">
        <ele>145</ele>
        <time>2023-03-22T16:15:42Z</time>
      </trkpt>
      <trkpt lat="43.5345" lon="1.49551">
        <ele>145</ele>
        <time>2023-03-22T16:15:43Z</time>
      </trkpt>
      <trkpt lat="43.5345" lon="1.49551">
        <ele>145</ele>
        <time>2023-03-22T16:15:44Z</time>
      </trkpt>
      <trkpt lat="43.5345" lon="1.49551">
        <ele>145</ele>
        <time>2023-03-22T16:15:45Z</time>
      </trkpt>
      <trkpt lat="43.5345" lon="1.49551">
        <ele>145</ele>
        <time>2023-03-22T16:15:46Z</time>
      </trkpt>
      <trkpt lat="43.5345" lon="1.49551">
        <ele>145</ele>
        <time>2023-03-22T16:15:47Z</time>
      </trkpt>
      <trkpt lat="43.5345" lon="1.49551">
        <ele>145</ele>
        <time>2023-03-22T16:15:48Z</time>
      </trkpt>
      <trkpt lat="43.5345" lon="1.49551">
        <ele>145</ele>
        <time>2023-03-22T16:15:49Z</time>
      </trkpt>
      <trkpt lat="43.5345" lon="1.49551">
        <ele>145</ele>
        <time>2023-03-22T16:15:50Z</time>
      </trkpt>
      <trkpt lat="43.5345" lon="1.49551">
        <ele>145</ele>
        <time>2023-03-22T16:15:51Z</time>
      </trkpt>
      <trkpt lat="43.5345" lon="1.49551">
        <ele>145</ele>
        <time>2023-03-22T16:15:52Z</time>
      </trkpt>
      <trkpt lat="43.5345" lon="1.49551">
        <ele>145</ele>
        <time>2023-03-22T16:15:53Z</time>
      </trkpt>
      <trkpt lat="43.5345" lon="1.49551">
        <ele>145</ele>
        <time>2023-03-22T16:15:54Z</time>
      </trkpt>
      <trkpt lat="43.5345" lon="1.49551">
        <ele>145</ele>
        <time>2023-03-22T16:15:55Z</time>
      </trkpt>
      <trkpt lat="43.5345" lon="1.49551">
        <ele>144</ele>
        <time>2023-03-22T16:15:56Z</time>
      </trkpt>
      <trkpt lat="43.5345" lon="1.49551">
        <ele>144</ele>
        <time>2023-03-22T16:15:57Z</time>
      </trkpt>
      <trkpt lat="43.5345" lon="1.49551">
        <ele>144</ele>
        <time>2023-03-22T16:15:58Z</time>
      </trkpt>
      <trkpt lat="43.5345" lon="1.49551">
        <ele>144</ele>
        <time>2023-03-22T16:15:59Z</time>
      </trkpt>
      <trkpt lat="43.5345" lon="1.49551">
        <ele>144</ele>
        <time>2023-03-22T16:16:00Z</time>
      </trkpt>
      <trkpt lat="43.5345" lon="1.49551">
        <ele>144</ele>
        <time>2023-03-22T16:16:01Z</time>
      </trkpt>
      <trkpt lat="43.5345" lon="1.49551">
        <ele>144</ele>
        <time>2023-03-22T16:16:02Z</time>
      </trkpt>
      <trkpt lat="43.5345" lon="1.49551">
        <ele>144</ele>
        <time>2023-03-22T16:16:03Z</time>
      </trkpt>
      <trkpt lat="43.5345" lon="1.49551">
        <ele>144</ele>
        <time>2023-03-22T16:16:04Z</time>
      </trkpt>
      <trkpt lat="43.5345" lon="1.49551">
        <ele>144</ele>
        <time>2023-03-22T16:16:05Z</time>
      </trkpt>
      <trkpt lat="43.5345" lon="1.49551">
        <ele>145</ele>
        <time>2023-03-22T16:16:06Z</time>
      </trkpt>
      <trkpt lat="43.5345" lon="1.49551">
        <ele>145</ele>
        <time>2023-03-22T16:16:07Z</time>
      </trkpt>
      <trkpt lat="43.5345" lon="1.49551">
        <ele>145</ele>
        <time>2023-03-22T16:16:08Z</time>
      </trkpt>
      <trkpt lat="43.5345" lon="1.49551">
        <ele>145</ele>
        <time>2023-03-22T16:16:09Z</time>
      </trkpt>
      <trkpt lat="43.5345" lon="1.49551">
        <ele>145</ele>
        <time>2023-03-22T16:16:10Z</time>
      </trkpt>
      <trkpt lat="43.5345" lon="1.49551">
        <ele>144</ele>
        <time>2023-03-22T16:16:11Z</time>
      </trkpt>
      <trkpt lat="43.5345" lon="1.49551">
        <ele>144</ele>
        <time>2023-03-22T16:16:12Z</time>
      </trkpt>
      <trkpt lat="43.5345" lon="1.49551">
        <ele>144</ele>
        <time>2023-03-22T16:16:13Z</time>
      </trkpt>
      <trkpt lat="43.5345" lon="1.49551">
        <ele>144</ele>
        <time>2023-03-22T16:16:14Z</time>
      </trkpt>
      <trkpt lat="43.5345" lon="1.49551">
        <ele>144</ele>
        <time>2023-03-22T16:16:15Z</time>
      </trkpt>
      <trkpt lat="43.5345" lon="1.49551">
        <ele>144</ele>
        <time>2023-03-22T16:16:16Z</time>
      </trkpt>
      <trkpt lat="43.5345" lon="1.49551">
        <ele>144</ele>
        <time>2023-03-22T16:16:17Z</time>
      </trkpt>
      <trkpt lat="43.5345" lon="1.49551">
        <ele>144</ele>
        <time>2023-03-22T16:16:18Z</time>
      </trkpt>
      <trkpt lat="43.5345" lon="1.49551">
        <ele>144</ele>
        <time>2023-03-22T16:16:19Z</time>
      </trkpt>
      <trkpt lat="43.5345" lon="1.49551">
        <ele>144</ele>
        <time>2023-03-22T16:16:20Z</time>
      </trkpt>
      <trkpt lat="43.5345" lon="1.49551">
        <ele>145</ele>
        <time>2023-03-22T16:16:21Z</time>
      </trkpt>
      <trkpt lat="43.5345" lon="1.49551">
        <ele>145</ele>
        <time>2023-03-22T16:16:22Z</time>
      </trkpt>
      <trkpt lat="43.5345" lon="1.49551">
        <ele>145</ele>
        <time>2023-03-22T16:16:23Z</time>
      </trkpt>
      <trkpt lat="43.5345" lon="1.49551">
        <ele>145</ele>
        <time>2023-03-22T16:16:24Z</time>
      </trkpt>
      <trkpt lat="43.5345" lon="1.49551">
        <ele>145</ele>
        <time>2023-03-22T16:16:25Z</time>
      </trkpt>
      <trkpt lat="43.5345" lon="1.49551">
        <ele>145</ele>
        <time>2023-03-22T16:16:26Z</time>
      </trkpt>
      <trkpt lat="43.5345" lon="1.49551">
        <ele>145</ele>
        <time>2023-03-22T16:16:27Z</time>
      </trkpt>
      <trkpt lat="43.5345" lon="1.49551">
        <ele>145</ele>
        <time>2023-03-22T16:16:29Z</time>
      </trkpt>
      <trkpt lat="43.5345" lon="1.49551">
        <ele>145</ele>
        <time>2023-03-22T16:16:30Z</time>
      </trkpt>
      <trkpt lat="43.5345" lon="1.49551">
        <ele>145</ele>
        <time>2023-03-22T16:16:31Z</time>
      </trkpt>
      <trkpt lat="43.5345" lon="1.49551">
        <ele>145</ele>
        <time>2023-03-22T16:16:32Z</time>
      </trkpt>
      <trkpt lat="43.5345" lon="1.49551">
        <ele>144</ele>
        <time>2023-03-22T16:16:33Z</time>
      </trkpt>
      <trkpt lat="43.5345" lon="1.49551">
        <ele>144</ele>
        <time>2023-03-22T16:16:34Z</time>
      </trkpt>
      <trkpt lat="43.5345" lon="1.49551">
        <ele>144</ele>
        <time>2023-03-22T16:16:35Z</time>
      </trkpt>
      <trkpt lat="43.5345" lon="1.49551">
        <ele>145</ele>
        <time>2023-03-22T16:16:36Z</time>
      </trkpt>
      <trkpt lat="43.5345" lon="1.49551">
        <ele>145</ele>
        <time>2023-03-22T16:16:37Z</time>
      </trkpt>
      <trkpt lat="43.5345" lon="1.49551">
        <ele>145</ele>
        <time>2023-03-22T16:16:38Z</time>
      </trkpt>
      <trkpt lat="43.5345" lon="1.49551">
        <ele>145</ele>
        <time>2023-03-22T16:16:39Z</time>
      </trkpt>
      <trkpt lat="43.5345" lon="1.49551">
        <ele>145</ele>
        <time>2023-03-22T16:16:40Z</time>
      </trkpt>
      <trkpt lat="43.5345" lon="1.49551">
        <ele>145</ele>
        <time>2023-03-22T16:16:41Z</time>
      </trkpt>
      <trkpt lat="43.5345" lon="1.49551">
        <ele>145</ele>
        <time>2023-03-22T16:16:42Z</time>
      </trkpt>
      <trkpt lat="43.5345" lon="1.49551">
        <ele>145</ele>
        <time>2023-03-22T16:16:43Z</time>
      </trkpt>
      <trkpt lat="43.5345" lon="1.49551">
        <ele>145</ele>
        <time>2023-03-22T16:16:44Z</time>
      </trkpt>
      <trkpt lat="43.5345" lon="1.49551">
        <ele>145</ele>
        <time>2023-03-22T16:16:45Z</time>
      </trkpt>
      <trkpt lat="43.5345" lon="1.49551">
        <ele>145</ele>
        <time>2023-03-22T16:16:46Z</time>
      </trkpt>
      <trkpt lat="43.5345" lon="1.49551">
        <ele>145</ele>
        <time>2023-03-22T16:16:47Z</time>
      </trkpt>
      <trkpt lat="43.5345" lon="1.49551">
        <ele>144</ele>
        <time>2023-03-22T16:16:48Z</time>
      </trkpt>
      <trkpt lat="43.5345" lon="1.49551">
        <ele>145</ele>
        <time>2023-03-22T16:16:49Z</time>
      </trkpt>
      <trkpt lat="43.5345" lon="1.49551">
        <ele>145</ele>
        <time>2023-03-22T16:16:50Z</time>
      </trkpt>
      <trkpt lat="43.5345" lon="1.49551">
        <ele>145</ele>
        <time>2023-03-22T16:16:51Z</time>
      </trkpt>
      <trkpt lat="43.5345" lon="1.49551">
        <ele>145</ele>
        <time>2023-03-22T16:16:52Z</time>
      </trkpt>
      <trkpt lat="43.5345" lon="1.49551">
        <ele>145</ele>
        <time>2023-03-22T16:16:53Z</time>
      </trkpt>
      <trkpt lat="43.5345" lon="1.49551">
        <ele>145</ele>
        <time>2023-03-22T16:16:54Z</time>
      </trkpt>
      <trkpt lat="43.53447" lon="1.49552">
        <ele>145</ele>
        <time>2023-03-22T16:16:55Z</time>
      </trkpt>
      <trkpt lat="43.53444" lon="1.49554">
        <ele>145</ele>
        <time>2023-03-22T16:16:56Z</time>
      </trkpt>
      <trkpt lat="43.53441" lon="1.49555">
        <ele>145</ele>
        <time>2023-03-22T16:16:57Z</time>
      </trkpt>
      <trkpt lat="43.53438" lon="1.49556">
        <ele>145</ele>
        <time>2023-03-22T16:16:58Z</time>
      </trkpt>
      <trkpt lat="43.53435" lon="1.49557">
        <ele>145</ele>
        <time>2023-03-22T16:16:59Z</time>
      </trkpt>
      <trkpt lat="43.53432" lon="1.49558">
        <ele>145</ele>
        <time>2023-03-22T16:17:00Z</time>
      </trkpt>
      <trkpt lat="43.53428" lon="1.49559">
        <ele>145</ele>
        <time>2023-03-22T16:17:01Z</time>
      </trkpt>
      <trkpt lat="43.53427" lon="1.49559">
        <ele>145</ele>
        <time>2023-03-22T16:17:02Z</time>
      </trkpt>
      <trkpt lat="43.53426" lon="1.4956">
        <ele>145</ele>
        <time>2023-03-22T16:17:03Z</time>
      </trkpt>
      <trkpt lat="43.53425" lon="1.4956">
        <ele>145</ele>
        <time>2023-03-22T16:17:04Z</time>
      </trkpt>
      <trkpt lat="43.53424" lon="1.49561">
        <ele>145</ele>
        <time>2023-03-22T16:17:05Z</time>
      </trkpt>
      <trkpt lat="43.53416" lon="1.49565">
        <ele>145</ele>
        <time>2023-03-22T16:17:06Z</time>
      </trkpt>
      <trkpt lat="43.53414" lon="1.49566">
        <ele>145</ele>
        <time>2023-03-22T16:17:07Z</time>
      </trkpt>
      <trkpt lat="43.53411" lon="1.49567">
        <ele>145</ele>
        <time>2023-03-22T16:17:08Z</time>
      </trkpt>
      <trkpt lat="43.53409" lon="1.49568">
        <ele>145</ele>
        <time>2023-03-22T16:17:09Z</time>
      </trkpt>
      <trkpt lat="43.53407" lon="1.49569">
        <ele>145</ele>
        <time>2023-03-22T16:17:10Z</time>
      </trkpt>
      <trkpt lat="43.53405" lon="1.4957">
        <ele>145</ele>
        <time>2023-03-22T16:17:11Z</time>
      </trkpt>
      <trkpt lat="43.53402" lon="1.49571">
        <ele>145</ele>
        <time>2023-03-22T16:17:12Z</time>
      </trkpt>
      <trkpt lat="43.534" lon="1.49572">
        <ele>145</ele>
        <time>2023-03-22T16:17:13Z</time>
      </trkpt>
      <trkpt lat="43.53398" lon="1.49573">
        <ele>145</ele>
        <time>2023-03-22T16:17:14Z</time>
      </trkpt>
      <trkpt lat="43.53396" lon="1.49575">
        <ele>145</ele>
        <time>2023-03-22T16:17:15Z</time>
      </trkpt>
      <trkpt lat="43.53394" lon="1.49576">
        <ele>145</ele>
        <time>2023-03-22T16:17:16Z</time>
      </trkpt>
      <trkpt lat="43.53392" lon="1.49577">
        <ele>145</ele>
        <time>2023-03-22T16:17:17Z</time>
      </trkpt>
      <trkpt lat="43.5339" lon="1.49578">
        <ele>145</ele>
        <time>2023-03-22T16:17:18Z</time>
      </trkpt>
      <trkpt lat="43.53387" lon="1.4958">
        <ele>145</ele>
        <time>2023-03-22T16:17:19Z</time>
      </trkpt>
      <trkpt lat="43.53385" lon="1.49581">
        <ele>145</ele>
        <time>2023-03-22T16:17:20Z</time>
      </trkpt>
      <trkpt lat="43.53382" lon="1.49582">
        <ele>145</ele>
        <time>2023-03-22T16:17:21Z</time>
      </trkpt>
      <trkpt lat="43.53381" lon="1.49583">
        <ele>145</ele>
        <time>2023-03-22T16:17:22Z</time>
      </trkpt>
      <trkpt lat="43.53379" lon="1.49584">
        <ele>145</ele>
        <time>2023-03-22T16:17:23Z</time>
      </trkpt>
      <trkpt lat="43.53377" lon="1.49585">
        <ele>145</ele>
        <time>2023-03-22T16:17:24Z</time>
      </trkpt>
      <trkpt lat="43.53376" lon="1.49586">
        <ele>145</ele>
        <time>2023-03-22T16:17:25Z</time>
      </trkpt>
      <trkpt lat="43.53374" lon="1.49588">
        <ele>145</ele>
        <time>2023-03-22T16:17:26Z</time>
      </trkpt>
      <trkpt lat="43.53371" lon="1.4959">
        <ele>145</ele>
        <time>2023-03-22T16:17:27Z</time>
      </trkpt>
      <trkpt lat="43.53368" lon="1.49592">
        <ele>145</ele>
        <time>2023-03-22T16:17:28Z</time>
      </trkpt>
      <trkpt lat="43.53365" lon="1.49594">
        <ele>145</ele>
        <time>2023-03-22T16:17:29Z</time>
      </trkpt>
      <trkpt lat="43.53364" lon="1.49596">
        <ele>146</ele>
        <time>2023-03-22T16:17:30Z</time>
      </trkpt>
      <trkpt lat="43.53362" lon="1.49598">
        <ele>146</ele>
        <time>2023-03-22T16:17:31Z</time>
      </trkpt>
      <trkpt lat="43.5336" lon="1.49599">
        <ele>146</ele>
        <time>2023-03-22T16:17:32Z</time>
      </trkpt>
      <trkpt lat="43.53359" lon="1.49601">
        <ele>146</ele>
        <time>2023-03-22T16:17:33Z</time>
      </trkpt>
      <trkpt lat="43.53357" lon="1.49603">
        <ele>146</ele>
        <time>2023-03-22T16:17:34Z</time>
      </trkpt>
      <trkpt lat="43.53357" lon="1.49606">
        <ele>146</ele>
        <time>2023-03-22T16:17:35Z</time>
      </trkpt>
      <trkpt lat="43.53356" lon="1.49609">
        <ele>146</ele>
        <time>2023-03-22T16:17:36Z</time>
      </trkpt>
      <trkpt lat="43.53356" lon="1.49612">
        <ele>146</ele>
        <time>2023-03-22T16:17:37Z</time>
      </trkpt>
      <trkpt lat="43.53355" lon="1.49615">
        <ele>146</ele>
        <time>2023-03-22T16:17:38Z</time>
      </trkpt>
      <trkpt lat="43.53355" lon="1.49618">
        <ele>146</ele>
        <time>2023-03-22T16:17:39Z</time>
      </trkpt>
      <trkpt lat="43.53355" lon="1.49619">
        <ele>146</ele>
        <time>2023-03-22T16:17:40Z</time>
      </trkpt>
      <trkpt lat="43.53355" lon="1.49621">
        <ele>146</ele>
        <time>2023-03-22T16:17:41Z</time>
      </trkpt>
      <trkpt lat="43.53356" lon="1.49622">
        <ele>146</ele>
        <time>2023-03-22T16:17:42Z</time>
      </trkpt>
      <trkpt lat="43.53356" lon="1.49624">
        <ele>146</ele>
        <time>2023-03-22T16:17:43Z</time>
      </trkpt>
      <trkpt lat="43.53356" lon="1.49625">
        <ele>146</ele>
        <time>2023-03-22T16:17:44Z</time>
      </trkpt>
      <trkpt lat="43.53357" lon="1.49635">
        <ele>146</ele>
        <time>2023-03-22T16:17:45Z</time>
      </trkpt>
      <trkpt lat="43.53357" lon="1.49637">
        <ele>146</ele>
        <time>2023-03-22T16:17:46Z</time>
      </trkpt>
      <trkpt lat="43.53358" lon="1.49638">
        <ele>146</ele>
        <time>2023-03-22T16:17:47Z</time>
      </trkpt>
      <trkpt lat="43.53358" lon="1.4964">
        <ele>146</ele>
        <time>2023-03-22T16:17:48Z</time>
      </trkpt>
      <trkpt lat="43.53357" lon="1.4965">
        <ele>146</ele>
        <time>2023-03-22T16:17:49Z</time>
      </trkpt>
      <trkpt lat="43.53355" lon="1.49652">
        <ele>146</ele>
        <time>2023-03-22T16:17:50Z</time>
      </trkpt>
      <trkpt lat="43.53353" lon="1.49654">
        <ele>146</ele>
        <time>2023-03-22T16:17:51Z</time>
      </trkpt>
      <trkpt lat="43.53351" lon="1.49656">
        <ele>146</ele>
        <time>2023-03-22T16:17:52Z</time>
      </trkpt>
      <trkpt lat="43.53348" lon="1.49656">
        <ele>146</ele>
        <time>2023-03-22T16:17:53Z</time>
      </trkpt>
      <trkpt lat="43.53346" lon="1.49657">
        <ele>146</ele>
        <time>2023-03-22T16:17:54Z</time>
      </trkpt>
      <trkpt lat="43.53344" lon="1.49658">
        <ele>146</ele>
        <time>2023-03-22T16:17:55Z</time>
      </trkpt>
      <trkpt lat="43.53341" lon="1.49658">
        <ele>146</ele>
        <time>2023-03-22T16:17:56Z</time>
      </trkpt>
      <trkpt lat="43.53336" lon="1.4966">
        <ele>146</ele>
        <time>2023-03-22T16:17:57Z</time>
      </trkpt>
      <trkpt lat="43.53336" lon="1.4966">
        <ele>147</ele>
        <time>2023-03-22T16:17:58Z</time>
      </trkpt>
      <trkpt lat="43.53333" lon="1.49661">
        <ele>147</ele>
        <time>2023-03-22T16:17:59Z</time>
      </trkpt>
      <trkpt lat="43.53331" lon="1.49662">
        <ele>146</ele>
        <time>2023-03-22T16:18:00Z</time>
      </trkpt>
      <trkpt lat="43.53329" lon="1.49664">
        <ele>146</ele>
        <time>2023-03-22T16:18:01Z</time>
      </trkpt>
      <trkpt lat="43.53326" lon="1.49665">
        <ele>146</ele>
        <time>2023-03-22T16:18:02Z</time>
      </trkpt>
      <trkpt lat="43.53324" lon="1.49666">
        <ele>147</ele>
        <time>2023-03-22T16:18:03Z</time>
      </trkpt>
      <trkpt lat="43.53322" lon="1.49667">
        <ele>147</ele>
        <time>2023-03-22T16:18:04Z</time>
      </trkpt>
      <trkpt lat="43.5332" lon="1.49668">
        <ele>147</ele>
        <time>2023-03-22T16:18:05Z</time>
      </trkpt>
      <trkpt lat="43.53318" lon="1.49669">
        <ele>147</ele>
        <time>2023-03-22T16:18:06Z</time>
      </trkpt>
      <trkpt lat="43.53316" lon="1.4967">
        <ele>147</ele>
        <time>2023-03-22T16:18:07Z</time>
      </trkpt>
      <trkpt lat="43.53314" lon="1.49671">
        <ele>147</ele>
        <time>2023-03-22T16:18:08Z</time>
      </trkpt>
      <trkpt lat="43.53311" lon="1.49672">
        <ele>147</ele>
        <time>2023-03-22T16:18:09Z</time>
      </trkpt>
      <trkpt lat="43.53309" lon="1.49673">
        <ele>147</ele>
        <time>2023-03-22T16:18:10Z</time>
      </trkpt>
      <trkpt lat="43.53307" lon="1.49674">
        <ele>148</ele>
        <time>2023-03-22T16:18:11Z</time>
      </trkpt>
      <trkpt lat="43.53305" lon="1.49676">
        <ele>148</ele>
        <time>2023-03-22T16:18:12Z</time>
      </trkpt>
      <trkpt lat="43.53303" lon="1.49677">
        <ele>148</ele>
        <time>2023-03-22T16:18:13Z</time>
      </trkpt>
      <trkpt lat="43.533" lon="1.49678">
        <ele>148</ele>
        <time>2023-03-22T16:18:14Z</time>
      </trkpt>
      <trkpt lat="43.53298" lon="1.49679">
        <ele>148</ele>
        <time>2023-03-22T16:18:15Z</time>
      </trkpt>
      <trkpt lat="43.53296" lon="1.4968">
        <ele>148</ele>
        <time>2023-03-22T16:18:16Z</time>
      </trkpt>
      <trkpt lat="43.53294" lon="1.49681">
        <ele>148</ele>
        <time>2023-03-22T16:18:17Z</time>
      </trkpt>
      <trkpt lat="43.53291" lon="1.49681">
        <ele>148</ele>
        <time>2023-03-22T16:18:18Z</time>
      </trkpt>
      <trkpt lat="43.53289" lon="1.49682">
        <ele>147</ele>
        <time>2023-03-22T16:18:19Z</time>
      </trkpt>
      <trkpt lat="43.53287" lon="1.49683">
        <ele>147</ele>
        <time>2023-03-22T16:18:20Z</time>
      </trkpt>
      <trkpt lat="43.53285" lon="1.49684">
        <ele>147</ele>
        <time>2023-03-22T16:18:21Z</time>
      </trkpt>
      <trkpt lat="43.53283" lon="1.49685">
        <ele>147</ele>
        <time>2023-03-22T16:18:22Z</time>
      </trkpt>
      <trkpt lat="43.5328" lon="1.49687">
        <ele>147</ele>
        <time>2023-03-22T16:18:23Z</time>
      </trkpt>
      <trkpt lat="43.53278" lon="1.49688">
        <ele>147</ele>
        <time>2023-03-22T16:18:24Z</time>
      </trkpt>
      <trkpt lat="43.53276" lon="1.4969">
        <ele>147</ele>
        <time>2023-03-22T16:18:25Z</time>
      </trkpt>
      <trkpt lat="43.53274" lon="1.49691">
        <ele>147</ele>
        <time>2023-03-22T16:18:26Z</time>
      </trkpt>
      <trkpt lat="43.53271" lon="1.49692">
        <ele>147</ele>
        <time>2023-03-22T16:18:27Z</time>
      </trkpt>
      <trkpt lat="43.53269" lon="1.49693">
        <ele>148</ele>
        <time>2023-03-22T16:18:28Z</time>
      </trkpt>
      <trkpt lat="43.53265" lon="1.49694">
        <ele>148</ele>
        <time>2023-03-22T16:18:29Z</time>
      </trkpt>
      <trkpt lat="43.53263" lon="1.49695">
        <ele>148</ele>
        <time>2023-03-22T16:18:30Z</time>
      </trkpt>
      <trkpt lat="43.53262" lon="1.49697">
        <ele>148</ele>
        <time>2023-03-22T16:18:31Z</time>
      </trkpt>
      <trkpt lat="43.53262" lon="1.49697">
        <ele>148</ele>
        <time>2023-03-22T16:18:32Z</time>
      </trkpt>
      <trkpt lat="43.5326" lon="1.49698">
        <ele>148</ele>
        <time>2023-03-22T16:18:33Z</time>
      </trkpt>
      <trkpt lat="43.53255" lon="1.49701">
        <ele>148</ele>
        <time>2023-03-22T16:18:34Z</time>
      </trkpt>
      <trkpt lat="43.53252" lon="1.49702">
        <ele>147</ele>
        <time>2023-03-22T16:18:35Z</time>
      </trkpt>
      <trkpt lat="43.53252" lon="1.49702">
        <ele>147</ele>
        <time>2023-03-22T16:18:36Z</time>
      </trkpt>
      <trkpt lat="43.5325" lon="1.49703">
        <ele>147</ele>
        <time>2023-03-22T16:18:37Z</time>
      </trkpt>
      <trkpt lat="43.53248" lon="1.49704">
        <ele>148</ele>
        <time>2023-03-22T16:18:38Z</time>
      </trkpt>
      <trkpt lat="43.53246" lon="1.49705">
        <ele>148</ele>
        <time>2023-03-22T16:18:39Z</time>
      </trkpt>
      <trkpt lat="43.53244" lon="1.49706">
        <ele>148</ele>
        <time>2023-03-22T16:18:40Z</time>
      </trkpt>
      <trkpt lat="43.53239" lon="1.4971">
        <ele>148</ele>
        <time>2023-03-22T16:18:41Z</time>
      </trkpt>
      <trkpt lat="43.53237" lon="1.49712">
        <ele>148</ele>
        <time>2023-03-22T16:18:42Z</time>
      </trkpt>
      <trkpt lat="43.53237" lon="1.49712">
        <ele>148</ele>
        <time>2023-03-22T16:18:43Z</time>
      </trkpt>
      <trkpt lat="43.53235" lon="1.49713">
        <ele>148</ele>
        <time>2023-03-22T16:18:44Z</time>
      </trkpt>
      <trkpt lat="43.53231" lon="1.49716">
        <ele>148</ele>
        <time>2023-03-22T16:18:45Z</time>
      </trkpt>
      <trkpt lat="43.53229" lon="1.49718">
        <ele>148</ele>
        <time>2023-03-22T16:18:46Z</time>
      </trkpt>
      <trkpt lat="43.53229" lon="1.49718">
        <ele>149</ele>
        <time>2023-03-22T16:18:47Z</time>
      </trkpt>
      <trkpt lat="43.53224" lon="1.49722">
        <ele>149</ele>
        <time>2023-03-22T16:18:48Z</time>
      </trkpt>
      <trkpt lat="43.53222" lon="1.49723">
        <ele>149</ele>
        <time>2023-03-22T16:18:49Z</time>
      </trkpt>
      <trkpt lat="43.53222" lon="1.49723">
        <ele>149</ele>
        <time>2023-03-22T16:18:50Z</time>
      </trkpt>
      <trkpt lat="43.5322" lon="1.49724">
        <ele>149</ele>
        <time>2023-03-22T16:18:51Z</time>
      </trkpt>
      <trkpt lat="43.53218" lon="1.49726">
        <ele>149</ele>
        <time>2023-03-22T16:18:52Z</time>
      </trkpt>
      <trkpt lat="43.53216" lon="1.49727">
        <ele>149</ele>
        <time>2023-03-22T16:18:53Z</time>
      </trkpt>
      <trkpt lat="43.53214" lon="1.49728">
        <ele>149</ele>
        <time>2023-03-22T16:18:54Z</time>
      </trkpt>
      <trkpt lat="43.5321" lon="1.4973">
        <ele>149</ele>
        <time>2023-03-22T16:18:55Z</time>
      </trkpt>
      <trkpt lat="43.53208" lon="1.49731">
        <ele>148</ele>
        <time>2023-03-22T16:18:56Z</time>
      </trkpt>
      <trkpt lat="43.53206" lon="1.49732">
        <ele>148</ele>
        <time>2023-03-22T16:18:57Z</time>
      </trkpt>
      <trkpt lat="43.53206" lon="1.49732">
        <ele>148</ele>
        <time>2023-03-22T16:18:58Z</time>
      </trkpt>
      <trkpt lat="43.53204" lon="1.49733">
        <ele>148</ele>
        <time>2023-03-22T16:18:59Z</time>
      </trkpt>
      <trkpt lat="43.53202" lon="1.49735">
        <ele>149</ele>
        <time>2023-03-22T16:19:00Z</time>
      </trkpt>
      <trkpt lat="43.532" lon="1.49737">
        <ele>149</ele>
        <time>2023-03-22T16:19:01Z</time>
      </trkpt>
      <trkpt lat="43.53198" lon="1.49738">
        <ele>149</ele>
        <time>2023-03-22T16:19:02Z</time>
      </trkpt>
      <trkpt lat="43.53196" lon="1.4974">
        <ele>149</ele>
        <time>2023-03-22T16:19:03Z</time>
      </trkpt>
      <trkpt lat="43.53194" lon="1.49742">
        <ele>149</ele>
        <time>2023-03-22T16:19:04Z</time>
      </trkpt>
      <trkpt lat="43.53192" lon="1.49745">
        <ele>149</ele>
        <time>2023-03-22T16:19:05Z</time>
      </trkpt>
      <trkpt lat="43.53189" lon="1.49747">
        <ele>149</ele>
        <time>2023-03-22T16:19:06Z</time>
      </trkpt>
      <trkpt lat="43.53189" lon="1.49748">
        <ele>149</ele>
        <time>2023-03-22T16:19:07Z</time>
      </trkpt>
      <trkpt lat="43.53189" lon="1.49749">
        <ele>149</ele>
        <time>2023-03-22T16:19:08Z</time>
      </trkpt>
      <trkpt lat="43.53188" lon="1.49751">
        <ele>149</ele>
        <time>2023-03-22T16:19:09Z</time>
      </trkpt>
      <trkpt lat="43.53188" lon="1.49752">
        <ele>149</ele>
        <time>2023-03-22T16:19:10Z</time>
      </trkpt>
      <trkpt lat="43.53188" lon="1.49753">
        <ele>149</ele>
        <time>2023-03-22T16:19:11Z</time>
      </trkpt>
      <trkpt lat="43.53186" lon="1.49762">
        <ele>149</ele>
        <time>2023-03-22T16:19:12Z</time>
      </trkpt>
      <trkpt lat="43.53187" lon="1.49763">
        <ele>149</ele>
        <time>2023-03-22T16:19:13Z</time>
      </trkpt>
      <trkpt lat="43.53187" lon="1.49764">
        <ele>149</ele>
        <time>2023-03-22T16:19:14Z</time>
      </trkpt>
      <trkpt lat="43.53187" lon="1.49766">
        <ele>149</ele>
        <time>2023-03-22T16:19:15Z</time>
      </trkpt>
      <trkpt lat="43.53188" lon="1.49767">
        <ele>149</ele>
        <time>2023-03-22T16:19:16Z</time>
      </trkpt>
      <trkpt lat="43.53191" lon="1.49779">
        <ele>149</ele>
        <time>2023-03-22T16:19:17Z</time>
      </trkpt>
      <trkpt lat="43.53192" lon="1.49783">
        <ele>149</ele>
        <time>2023-03-22T16:19:18Z</time>
      </trkpt>
      <trkpt lat="43.53193" lon="1.49788">
        <ele>149</ele>
        <time>2023-03-22T16:19:19Z</time>
      </trkpt>
      <trkpt lat="43.53193" lon="1.49788">
        <ele>149</ele>
        <time>2023-03-22T16:19:20Z</time>
      </trkpt>
      <trkpt lat="43.53195" lon="1.49795">
        <ele>149</ele>
        <time>2023-03-22T16:19:21Z</time>
      </trkpt>
      <trkpt lat="43.53195" lon="1.49795">
        <ele>149</ele>
        <time>2023-03-22T16:19:22Z</time>
      </trkpt>
      <trkpt lat="43.53197" lon="1.49801">
        <ele>149</ele>
        <time>2023-03-22T16:19:23Z</time>
      </trkpt>
      <trkpt lat="43.53197" lon="1.49805">
        <ele>149</ele>
        <time>2023-03-22T16:19:24Z</time>
      </trkpt>
      <trkpt lat="43.53197" lon="1.49805">
        <ele>149</ele>
        <time>2023-03-22T16:19:25Z</time>
      </trkpt>
      <trkpt lat="43.53198" lon="1.49808">
        <ele>149</ele>
        <time>2023-03-22T16:19:26Z</time>
      </trkpt>
      <trkpt lat="43.53198" lon="1.49811">
        <ele>149</ele>
        <time>2023-03-22T16:19:27Z</time>
      </trkpt>
      <trkpt lat="43.53199" lon="1.49814">
        <ele>149</ele>
        <time>2023-03-22T16:19:28Z</time>
      </trkpt>
      <trkpt lat="43.532" lon="1.49817">
        <ele>149</ele>
        <time>2023-03-22T16:19:29Z</time>
      </trkpt>
      <trkpt lat="43.532" lon="1.4982">
        <ele>149</ele>
        <time>2023-03-22T16:19:30Z</time>
      </trkpt>
      <trkpt lat="43.53201" lon="1.49823">
        <ele>149</ele>
        <time>2023-03-22T16:19:31Z</time>
      </trkpt>
      <trkpt lat="43.53202" lon="1.49826">
        <ele>149</ele>
        <time>2023-03-22T16:19:32Z</time>
      </trkpt>
      <trkpt lat="43.53203" lon="1.49829">
        <ele>149</ele>
        <time>2023-03-22T16:19:33Z</time>
      </trkpt>
      <trkpt lat="43.53204" lon="1.49833">
        <ele>149</ele>
        <time>2023-03-22T16:19:34Z</time>
      </trkpt>
      <trkpt lat="43.53205" lon="1.49836">
        <ele>149</ele>
        <time>2023-03-22T16:19:35Z</time>
      </trkpt>
      <trkpt lat="43.53206" lon="1.49839">
        <ele>149</ele>
        <time>2023-03-22T16:19:36Z</time>
      </trkpt>
      <trkpt lat="43.53207" lon="1.49842">
        <ele>149</ele>
        <time>2023-03-22T16:19:37Z</time>
      </trkpt>
      <trkpt lat="43.53208" lon="1.49846">
        <ele>149</ele>
        <time>2023-03-22T16:19:38Z</time>
      </trkpt>
      <trkpt lat="43.53209" lon="1.49849">
        <ele>149</ele>
        <time>2023-03-22T16:19:39Z</time>
      </trkpt>
      <trkpt lat="43.5321" lon="1.49852">
        <ele>149</ele>
        <time>2023-03-22T16:19:40Z</time>
      </trkpt>
      <trkpt lat="43.53211" lon="1.49855">
        <ele>149</ele>
        <time>2023-03-22T16:19:41Z</time>
      </trkpt>
      <trkpt lat="43.53212" lon="1.49858">
        <ele>149</ele>
        <time>2023-03-22T16:19:42Z</time>
      </trkpt>
      <trkpt lat="43.53212" lon="1.49861">
        <ele>149</ele>
        <time>2023-03-22T16:19:43Z</time>
      </trkpt>
      <trkpt lat="43.53214" lon="1.49864">
        <ele>149</ele>
        <time>2023-03-22T16:19:44Z</time>
      </trkpt>
      <trkpt lat="43.53215" lon="1.49867">
        <ele>149</ele>
        <time>2023-03-22T16:19:45Z</time>
      </trkpt>
      <trkpt lat="43.53216" lon="1.49871">
        <ele>149</ele>
        <time>2023-03-22T16:19:46Z</time>
      </trkpt>
      <trkpt lat="43.53217" lon="1.49874">
        <ele>149</ele>
        <time>2023-03-22T16:19:47Z</time>
      </trkpt>
      <trkpt lat="43.53218" lon="1.49877">
        <ele>149</ele>
        <time>2023-03-22T16:19:48Z</time>
      </trkpt>
      <trkpt lat="43.53219" lon="1.4988">
        <ele>149</ele>
        <time>2023-03-22T16:19:49Z</time>
      </trkpt>
      <trkpt lat="43.5322" lon="1.49883">
        <ele>149</ele>
        <time>2023-03-22T16:19:50Z</time>
      </trkpt>
      <trkpt lat="43.53221" lon="1.49886">
        <ele>149</ele>
        <time>2023-03-22T16:19:51Z</time>
      </trkpt>
      <trkpt lat="43.53222" lon="1.49889">
        <ele>149</ele>
        <time>2023-03-22T16:19:52Z</time>
      </trkpt>
      <trkpt lat="43.53223" lon="1.49892">
        <ele>149</ele>
        <time>2023-03-22T16:19:53Z</time>
      </trkpt>
      <trkpt lat="43.53224" lon="1.49895">
        <ele>149</ele>
        <time>2023-03-22T16:19:54Z</time>
      </trkpt>
      <trkpt lat="43.53225" lon="1.49899">
        <ele>149</ele>
        <time>2023-03-22T16:19:55Z</time>
      </trkpt>
      <trkpt lat="43.53226" lon="1.49902">
        <ele>149</ele>
        <time>2023-03-22T16:19:56Z</time>
      </trkpt>
      <trkpt lat="43.53227" lon="1.49905">
        <ele>149</ele>
        <time>2023-03-22T16:19:57Z</time>
      </trkpt>
      <trkpt lat="43.53227" lon="1.49908">
        <ele>149</ele>
        <time>2023-03-22T16:19:58Z</time>
      </trkpt>
      <trkpt lat="43.53228" lon="1.49911">
        <ele>149</ele>
        <time>2023-03-22T16:19:59Z</time>
      </trkpt>
      <trkpt lat="43.53229" lon="1.49914">
        <ele>149</ele>
        <time>2023-03-22T16:20:00Z</time>
      </trkpt>
      <trkpt lat="43.5323" lon="1.49917">
        <ele>149</ele>
        <time>2023-03-22T16:20:01Z</time>
      </trkpt>
      <trkpt lat="43.53231" lon="1.4992">
        <ele>149</ele>
        <time>2023-03-22T16:20:02Z</time>
      </trkpt>
      <trkpt lat="43.53232" lon="1.49923">
        <ele>149</ele>
        <time>2023-03-22T16:20:03Z</time>
      </trkpt>
      <trkpt lat="43.53233" lon="1.49926">
        <ele>149</ele>
        <time>2023-03-22T16:20:04Z</time>
      </trkpt>
      <trkpt lat="43.53234" lon="1.49929">
        <ele>149</ele>
        <time>2023-03-22T16:20:05Z</time>
      </trkpt>
      <trkpt lat="43.53235" lon="1.49933">
        <ele>149</ele>
        <time>2023-03-22T16:20:06Z</time>
      </trkpt>
      <trkpt lat="43.53236" lon="1.49936">
        <ele>149</ele>
        <time>2023-03-22T16:20:07Z</time>
      </trkpt>
      <trkpt lat="43.53237" lon="1.49939">
        <ele>149</ele>
        <time>2023-03-22T16:20:08Z</time>
      </trkpt>
      <trkpt lat="43.53238" lon="1.49942">
        <ele>149</ele>
        <time>2023-03-22T16:20:09Z</time>
      </trkpt>
      <trkpt lat="43.53239" lon="1.49946">
        <ele>149</ele>
        <time>2023-03-22T16:20:10Z</time>
      </trkpt>
      <trkpt lat="43.5324" lon="1.49949">
        <ele>149</ele>
        <time>2023-03-22T16:20:11Z</time>
      </trkpt>
      <trkpt lat="43.53241" lon="1.49952">
        <ele>149</ele>
        <time>2023-03-22T16:20:12Z</time>
      </trkpt>
      <trkpt lat="43.53242" lon="1.49956">
        <ele>149</ele>
        <time>2023-03-22T16:20:13Z</time>
      </trkpt>
      <trkpt lat="43.53243" lon="1.49959">
        <ele>149</ele>
        <time>2023-03-22T16:20:14Z</time>
      </trkpt>
      <trkpt lat="43.53244" lon="1.49962">
        <ele>149</ele>
        <time>2023-03-22T16:20:15Z</time>
      </trkpt>
      <trkpt lat="43.53246" lon="1.49968">
        <ele>149</ele>
        <time>2023-03-22T16:20:16Z</time>
      </trkpt>
      <trkpt lat="43.53246" lon="1.49968">
        <ele>149</ele>
        <time>2023-03-22T16:20:17Z</time>
      </trkpt>
      <trkpt lat="43.53247" lon="1.49971">
        <ele>149</ele>
        <time>2023-03-22T16:20:18Z</time>
      </trkpt>
      <trkpt lat="43.53248" lon="1.49974">
        <ele>149</ele>
        <time>2023-03-22T16:20:19Z</time>
      </trkpt>
      <trkpt lat="43.5325" lon="1.4998">
        <ele>149</ele>
        <time>2023-03-22T16:20:20Z</time>
      </trkpt>
      <trkpt lat="43.53251" lon="1.49983">
        <ele>149</ele>
        <time>2023-03-22T16:20:21Z</time>
      </trkpt>
      <trkpt lat="43.53252" lon="1.49987">
        <ele>149</ele>
        <time>2023-03-22T16:20:22Z</time>
      </trkpt>
      <trkpt lat="43.53252" lon="1.49987">
        <ele>149</ele>
        <time>2023-03-22T16:20:23Z</time>
      </trkpt>
      <trkpt lat="43.53253" lon="1.4999">
        <ele>149</ele>
        <time>2023-03-22T16:20:24Z</time>
      </trkpt>
      <trkpt lat="43.53254" lon="1.49993">
        <ele>149</ele>
        <time>2023-03-22T16:20:25Z</time>
      </trkpt>
      <trkpt lat="43.53255" lon="1.49996">
        <ele>149</ele>
        <time>2023-03-22T16:20:26Z</time>
      </trkpt>
      <trkpt lat="43.53256" lon="1.50002">
        <ele>149</ele>
        <time>2023-03-22T16:20:27Z</time>
      </trkpt>
      <trkpt lat="43.53256" lon="1.50002">
        <ele>149</ele>
        <time>2023-03-22T16:20:28Z</time>
      </trkpt>
      <trkpt lat="43.53257" lon="1.50005">
        <ele>149</ele>
        <time>2023-03-22T16:20:29Z</time>
      </trkpt>
      <trkpt lat="43.53259" lon="1.50012">
        <ele>149</ele>
        <time>2023-03-22T16:20:30Z</time>
      </trkpt>
      <trkpt lat="43.53259" lon="1.50012">
        <ele>149</ele>
        <time>2023-03-22T16:20:31Z</time>
      </trkpt>
      <trkpt lat="43.5326" lon="1.50018">
        <ele>149</ele>
        <time>2023-03-22T16:20:32Z</time>
      </trkpt>
      <trkpt lat="43.5326" lon="1.50018">
        <ele>149</ele>
        <time>2023-03-22T16:20:33Z</time>
      </trkpt>
      <trkpt lat="43.53261" lon="1.50021">
        <ele>149</ele>
        <time>2023-03-22T16:20:34Z</time>
      </trkpt>
      <trkpt lat="43.53263" lon="1.50028">
        <ele>149</ele>
        <time>2023-03-22T16:20:35Z</time>
      </trkpt>
      <trkpt lat="43.53263" lon="1.50028">
        <ele>149</ele>
        <time>2023-03-22T16:20:36Z</time>
      </trkpt>
      <trkpt lat="43.53264" lon="1.50031">
        <ele>149</ele>
        <time>2023-03-22T16:20:37Z</time>
      </trkpt>
      <trkpt lat="43.53265" lon="1.50034">
        <ele>149</ele>
        <time>2023-03-22T16:20:38Z</time>
      </trkpt>
      <trkpt lat="43.53266" lon="1.50038">
        <ele>149</ele>
        <time>2023-03-22T16:20:39Z</time>
      </trkpt>
      <trkpt lat="43.53267" lon="1.50041">
        <ele>149</ele>
        <time>2023-03-22T16:20:40Z</time>
      </trkpt>
      <trkpt lat="43.53268" lon="1.50047">
        <ele>149</ele>
        <time>2023-03-22T16:20:41Z</time>
      </trkpt>
      <trkpt lat="43.53269" lon="1.5005">
        <ele>149</ele>
        <time>2023-03-22T16:20:42Z</time>
      </trkpt>
      <trkpt lat="43.53269" lon="1.5005">
        <ele>149</ele>
        <time>2023-03-22T16:20:43Z</time>
      </trkpt>
      <trkpt lat="43.5327" lon="1.50053">
        <ele>149</ele>
        <time>2023-03-22T16:20:44Z</time>
      </trkpt>
      <trkpt lat="43.53271" lon="1.50057">
        <ele>149</ele>
        <time>2023-03-22T16:20:45Z</time>
      </trkpt>
      <trkpt lat="43.53272" lon="1.5006">
        <ele>149</ele>
        <time>2023-03-22T16:20:46Z</time>
      </trkpt>
      <trkpt lat="43.53272" lon="1.50063">
        <ele>149</ele>
        <time>2023-03-22T16:20:47Z</time>
      </trkpt>
      <trkpt lat="43.53274" lon="1.5007">
        <ele>149</ele>
        <time>2023-03-22T16:20:48Z</time>
      </trkpt>
      <trkpt lat="43.53275" lon="1.50073">
        <ele>149</ele>
        <time>2023-03-22T16:20:49Z</time>
      </trkpt>
      <trkpt lat="43.53276" lon="1.50076">
        <ele>149</ele>
        <time>2023-03-22T16:20:50Z</time>
      </trkpt>
      <trkpt lat="43.53276" lon="1.50076">
        <ele>149</ele>
        <time>2023-03-22T16:20:51Z</time>
      </trkpt>
      <trkpt lat="43.53277" lon="1.50079">
        <ele>149</ele>
        <time>2023-03-22T16:20:52Z</time>
      </trkpt>
      <trkpt lat="43.53278" lon="1.50082">
        <ele>149</ele>
        <time>2023-03-22T16:20:53Z</time>
      </trkpt>
      <trkpt lat="43.5328" lon="1.50088">
        <ele>149</ele>
        <time>2023-03-22T16:20:54Z</time>
      </trkpt>
      <trkpt lat="43.5328" lon="1.50088">
        <ele>149</ele>
        <time>2023-03-22T16:20:55Z</time>
      </trkpt>
      <trkpt lat="43.53281" lon="1.50091">
        <ele>149</ele>
        <time>2023-03-22T16:20:56Z</time>
      </trkpt>
      <trkpt lat="43.53281" lon="1.50094">
        <ele>149</ele>
        <time>2023-03-22T16:20:57Z</time>
      </trkpt>
      <trkpt lat="43.53282" lon="1.50097">
        <ele>149</ele>
        <time>2023-03-22T16:20:58Z</time>
      </trkpt>
      <trkpt lat="43.53285" lon="1.50103">
        <ele>149</ele>
        <time>2023-03-22T16:20:59Z</time>
      </trkpt>
      <trkpt lat="43.53286" lon="1.50106">
        <ele>149</ele>
        <time>2023-03-22T16:21:00Z</time>
      </trkpt>
      <trkpt lat="43.53287" lon="1.50109">
        <ele>149</ele>
        <time>2023-03-22T16:21:01Z</time>
      </trkpt>
      <trkpt lat="43.53287" lon="1.50109">
        <ele>149</ele>
        <time>2023-03-22T16:21:02Z</time>
      </trkpt>
      <trkpt lat="43.53288" lon="1.50112">
        <ele>149</ele>
        <time>2023-03-22T16:21:03Z</time>
      </trkpt>
      <trkpt lat="43.53289" lon="1.50115">
        <ele>149</ele>
        <time>2023-03-22T16:21:04Z</time>
      </trkpt>
      <trkpt lat="43.53291" lon="1.5012">
        <ele>149</ele>
        <time>2023-03-22T16:21:05Z</time>
      </trkpt>
      <trkpt lat="43.53293" lon="1.50123">
        <ele>149</ele>
        <time>2023-03-22T16:21:06Z</time>
      </trkpt>
      <trkpt lat="43.53294" lon="1.50126">
        <ele>149</ele>
        <time>2023-03-22T16:21:07Z</time>
      </trkpt>
      <trkpt lat="43.53295" lon="1.50129">
        <ele>149</ele>
        <time>2023-03-22T16:21:08Z</time>
      </trkpt>
      <trkpt lat="43.53295" lon="1.50129">
        <ele>148</ele>
        <time>2023-03-22T16:21:09Z</time>
      </trkpt>
      <trkpt lat="43.53296" lon="1.50132">
        <ele>148</ele>
        <time>2023-03-22T16:21:10Z</time>
      </trkpt>
      <trkpt lat="43.53297" lon="1.50135">
        <ele>148</ele>
        <time>2023-03-22T16:21:11Z</time>
      </trkpt>
      <trkpt lat="43.53298" lon="1.50138">
        <ele>148</ele>
        <time>2023-03-22T16:21:12Z</time>
      </trkpt>
      <trkpt lat="43.533" lon="1.50144">
        <ele>148</ele>
        <time>2023-03-22T16:21:13Z</time>
      </trkpt>
      <trkpt lat="43.533" lon="1.50147">
        <ele>148</ele>
        <time>2023-03-22T16:21:14Z</time>
      </trkpt>
      <trkpt lat="43.533" lon="1.50151">
        <ele>148</ele>
        <time>2023-03-22T16:21:15Z</time>
      </trkpt>
      <trkpt lat="43.533" lon="1.50151">
        <ele>148</ele>
        <time>2023-03-22T16:21:16Z</time>
      </trkpt>
      <trkpt lat="43.533" lon="1.50158">
        <ele>148</ele>
        <time>2023-03-22T16:21:17Z</time>
      </trkpt>
      <trkpt lat="43.533" lon="1.50158">
        <ele>148</ele>
        <time>2023-03-22T16:21:18Z</time>
      </trkpt>
      <trkpt lat="43.53301" lon="1.50162">
        <ele>148</ele>
        <time>2023-03-22T16:21:19Z</time>
      </trkpt>
      <trkpt lat="43.53301" lon="1.50165">
        <ele>148</ele>
        <time>2023-03-22T16:21:20Z</time>
      </trkpt>
      <trkpt lat="43.533" lon="1.50168">
        <ele>148</ele>
        <time>2023-03-22T16:21:21Z</time>
      </trkpt>
      <trkpt lat="43.53298" lon="1.50171">
        <ele>148</ele>
        <time>2023-03-22T16:21:22Z</time>
      </trkpt>
      <trkpt lat="43.53297" lon="1.50174">
        <ele>148</ele>
        <time>2023-03-22T16:21:23Z</time>
      </trkpt>
      <trkpt lat="43.53296" lon="1.50178">
        <ele>148</ele>
        <time>2023-03-22T16:21:24Z</time>
      </trkpt>
      <trkpt lat="43.53294" lon="1.5018">
        <ele>148</ele>
        <time>2023-03-22T16:21:25Z</time>
      </trkpt>
      <trkpt lat="43.53293" lon="1.50183">
        <ele>148</ele>
        <time>2023-03-22T16:21:26Z</time>
      </trkpt>
      <trkpt lat="43.53291" lon="1.50185">
        <ele>148</ele>
        <time>2023-03-22T16:21:27Z</time>
      </trkpt>
      <trkpt lat="43.53289" lon="1.50188">
        <ele>148</ele>
        <time>2023-03-22T16:21:28Z</time>
      </trkpt>
      <trkpt lat="43.53288" lon="1.5019">
        <ele>148</ele>
        <time>2023-03-22T16:21:29Z</time>
      </trkpt>
      <trkpt lat="43.53286" lon="1.50192">
        <ele>147</ele>
        <time>2023-03-22T16:21:30Z</time>
      </trkpt>
      <trkpt lat="43.53284" lon="1.50195">
        <ele>147</ele>
        <time>2023-03-22T16:21:31Z</time>
      </trkpt>
      <trkpt lat="43.53281" lon="1.502">
        <ele>147</ele>
        <time>2023-03-22T16:21:32Z</time>
      </trkpt>
      <trkpt lat="43.53279" lon="1.50203">
        <ele>147</ele>
        <time>2023-03-22T16:21:33Z</time>
      </trkpt>
      <trkpt lat="43.53279" lon="1.50203">
        <ele>147</ele>
        <time>2023-03-22T16:21:34Z</time>
      </trkpt>
      <trkpt lat="43.53278" lon="1.50205">
        <ele>147</ele>
        <time>2023-03-22T16:21:35Z</time>
      </trkpt>
      <trkpt lat="43.53277" lon="1.50208">
        <ele>147</ele>
        <time>2023-03-22T16:21:36Z</time>
      </trkpt>
      <trkpt lat="43.53275" lon="1.50211">
        <ele>147</ele>
        <time>2023-03-22T16:21:37Z</time>
      </trkpt>
      <trkpt lat="43.53274" lon="1.50213">
        <ele>147</ele>
        <time>2023-03-22T16:21:38Z</time>
      </trkpt>
      <trkpt lat="43.53274" lon="1.50216">
        <ele>147</ele>
        <time>2023-03-22T16:21:39Z</time>
      </trkpt>
      <trkpt lat="43.53274" lon="1.5022">
        <ele>147</ele>
        <time>2023-03-22T16:21:40Z</time>
      </trkpt>
      <trkpt lat="43.53274" lon="1.50223">
        <ele>147</ele>
        <time>2023-03-22T16:21:41Z</time>
      </trkpt>
      <trkpt lat="43.53274" lon="1.50226">
        <ele>147</ele>
        <time>2023-03-22T16:21:42Z</time>
      </trkpt>
      <trkpt lat="43.53274" lon="1.5023">
        <ele>147</ele>
        <time>2023-03-22T16:21:43Z</time>
      </trkpt>
      <trkpt lat="43.53275" lon="1.50233">
        <ele>147</ele>
        <time>2023-03-22T16:21:44Z</time>
      </trkpt>
      <trkpt lat="43.53275" lon="1.50236">
        <ele>146</ele>
        <time>2023-03-22T16:21:45Z</time>
      </trkpt>
      <trkpt lat="43.53276" lon="1.5024">
        <ele>146</ele>
        <time>2023-03-22T16:21:46Z</time>
      </trkpt>
      <trkpt lat="43.53276" lon="1.50243">
        <ele>146</ele>
        <time>2023-03-22T16:21:47Z</time>
      </trkpt>
      <trkpt lat="43.53277" lon="1.50246">
        <ele>145</ele>
        <time>2023-03-22T16:21:48Z</time>
      </trkpt>
      <trkpt lat="43.53277" lon="1.50249">
        <ele>145</ele>
        <time>2023-03-22T16:21:49Z</time>
      </trkpt>
      <trkpt lat="43.53278" lon="1.50252">
        <ele>145</ele>
        <time>2023-03-22T16:21:50Z</time>
      </trkpt>
      <trkpt lat="43.53279" lon="1.50256">
        <ele>146</ele>
        <time>2023-03-22T16:21:51Z</time>
      </trkpt>
      <trkpt lat="43.53279" lon="1.50259">
        <ele>146</ele>
        <time>2023-03-22T16:21:52Z</time>
      </trkpt>
      <trkpt lat="43.5328" lon="1.50262">
        <ele>146</ele>
        <time>2023-03-22T16:21:53Z</time>
      </trkpt>
      <trkpt lat="43.53281" lon="1.50265">
        <ele>146</ele>
        <time>2023-03-22T16:21:54Z</time>
      </trkpt>
      <trkpt lat="43.53282" lon="1.50268">
        <ele>146</ele>
        <time>2023-03-22T16:21:55Z</time>
      </trkpt>
      <trkpt lat="43.53282" lon="1.50272">
        <ele>146</ele>
        <time>2023-03-22T16:21:56Z</time>
      </trkpt>
      <trkpt lat="43.53283" lon="1.50275">
        <ele>146</ele>
        <time>2023-03-22T16:21:57Z</time>
      </trkpt>
      <trkpt lat="43.53284" lon="1.50279">
        <ele>146</ele>
        <time>2023-03-22T16:21:58Z</time>
      </trkpt>
      <trkpt lat="43.53285" lon="1.50282">
        <ele>146</ele>
        <time>2023-03-22T16:21:59Z</time>
      </trkpt>
      <trkpt lat="43.53285" lon="1.50285">
        <ele>146</ele>
        <time>2023-03-22T16:22:00Z</time>
      </trkpt>
      <trkpt lat="43.53286" lon="1.50289">
        <ele>146</ele>
        <time>2023-03-22T16:22:01Z</time>
      </trkpt>
      <trkpt lat="43.53287" lon="1.50292">
        <ele>146</ele>
        <time>2023-03-22T16:22:02Z</time>
      </trkpt>
      <trkpt lat="43.53288" lon="1.50295">
        <ele>146</ele>
        <time>2023-03-22T16:22:03Z</time>
      </trkpt>
      <trkpt lat="43.53288" lon="1.50299">
        <ele>146</ele>
        <time>2023-03-22T16:22:04Z</time>
      </trkpt>
      <trkpt lat="43.53289" lon="1.50302">
        <ele>146</ele>
        <time>2023-03-22T16:22:05Z</time>
      </trkpt>
      <trkpt lat="43.5329" lon="1.50305">
        <ele>145</ele>
        <time>2023-03-22T16:22:06Z</time>
      </trkpt>
      <trkpt lat="43.53291" lon="1.50309">
        <ele>145</ele>
        <time>2023-03-22T16:22:07Z</time>
      </trkpt>
      <trkpt lat="43.53292" lon="1.50312">
        <ele>145</ele>
        <time>2023-03-22T16:22:08Z</time>
      </trkpt>
      <trkpt lat="43.53294" lon="1.50318">
        <ele>145</ele>
        <time>2023-03-22T16:22:09Z</time>
      </trkpt>
      <trkpt lat="43.53294" lon="1.50318">
        <ele>145</ele>
        <time>2023-03-22T16:22:10Z</time>
      </trkpt>
      <trkpt lat="43.53295" lon="1.50322">
        <ele>145</ele>
        <time>2023-03-22T16:22:11Z</time>
      </trkpt>
      <trkpt lat="43.53295" lon="1.50325">
        <ele>145</ele>
        <time>2023-03-22T16:22:12Z</time>
      </trkpt>
      <trkpt lat="43.53297" lon="1.50328">
        <ele>145</ele>
        <time>2023-03-22T16:22:13Z</time>
      </trkpt>
      <trkpt lat="43.53297" lon="1.50332">
        <ele>146</ele>
        <time>2023-03-22T16:22:14Z</time>
      </trkpt>
      <trkpt lat="43.53298" lon="1.50335">
        <ele>146</ele>
        <time>2023-03-22T16:22:15Z</time>
      </trkpt>
      <trkpt lat="43.53299" lon="1.50338">
        <ele>146</ele>
        <time>2023-03-22T16:22:16Z</time>
      </trkpt>
      <trkpt lat="43.533" lon="1.50341">
        <ele>146</ele>
        <time>2023-03-22T16:22:17Z</time>
      </trkpt>
      <trkpt lat="43.53301" lon="1.50344">
        <ele>146</ele>
        <time>2023-03-22T16:22:18Z</time>
      </trkpt>
      <trkpt lat="43.53301" lon="1.50347">
        <ele>145</ele>
        <time>2023-03-22T16:22:19Z</time>
      </trkpt>
      <trkpt lat="43.53303" lon="1.50351">
        <ele>145</ele>
        <time>2023-03-22T16:22:20Z</time>
      </trkpt>
      <trkpt lat="43.53304" lon="1.50354">
        <ele>145</ele>
        <time>2023-03-22T16:22:21Z</time>
      </trkpt>
      <trkpt lat="43.53306" lon="1.5036">
        <ele>145</ele>
        <time>2023-03-22T16:22:22Z</time>
      </trkpt>
      <trkpt lat="43.53306" lon="1.5036">
        <ele>145</ele>
        <time>2023-03-22T16:22:23Z</time>
      </trkpt>
      <trkpt lat="43.53308" lon="1.50363">
        <ele>145</ele>
        <time>2023-03-22T16:22:24Z</time>
      </trkpt>
      <trkpt lat="43.53309" lon="1.50369">
        <ele>145</ele>
        <time>2023-03-22T16:22:25Z</time>
      </trkpt>
      <trkpt lat="43.5331" lon="1.50372">
        <ele>145</ele>
        <time>2023-03-22T16:22:26Z</time>
      </trkpt>
      <trkpt lat="43.53311" lon="1.50376">
        <ele>145</ele>
        <time>2023-03-22T16:22:27Z</time>
      </trkpt>
      <trkpt lat="43.53312" lon="1.50379">
        <ele>145</ele>
        <time>2023-03-22T16:22:28Z</time>
      </trkpt>
      <trkpt lat="43.53314" lon="1.50382">
        <ele>145</ele>
        <time>2023-03-22T16:22:29Z</time>
      </trkpt>
      <trkpt lat="43.53314" lon="1.50382">
        <ele>145</ele>
        <time>2023-03-22T16:22:30Z</time>
      </trkpt>
      <trkpt lat="43.53315" lon="1.50388">
        <ele>145</ele>
        <time>2023-03-22T16:22:31Z</time>
      </trkpt>
      <trkpt lat="43.53316" lon="1.50391">
        <ele>145</ele>
        <time>2023-03-22T16:22:32Z</time>
      </trkpt>
      <trkpt lat="43.53316" lon="1.50391">
        <ele>145</ele>
        <time>2023-03-22T16:22:33Z</time>
      </trkpt>
      <trkpt lat="43.53319" lon="1.50397">
        <ele>145</ele>
        <time>2023-03-22T16:22:34Z</time>
      </trkpt>
      <trkpt lat="43.5332" lon="1.504">
        <ele>145</ele>
        <time>2023-03-22T16:22:35Z</time>
      </trkpt>
      <trkpt lat="43.5332" lon="1.504">
        <ele>145</ele>
        <time>2023-03-22T16:22:36Z</time>
      </trkpt>
      <trkpt lat="43.53322" lon="1.50407">
        <ele>145</ele>
        <time>2023-03-22T16:22:37Z</time>
      </trkpt>
      <trkpt lat="43.53323" lon="1.5041">
        <ele>145</ele>
        <time>2023-03-22T16:22:38Z</time>
      </trkpt>
      <trkpt lat="43.53324" lon="1.50413">
        <ele>145</ele>
        <time>2023-03-22T16:22:39Z</time>
      </trkpt>
      <trkpt lat="43.53325" lon="1.50416">
        <ele>145</ele>
        <time>2023-03-22T16:22:40Z</time>
      </trkpt>
      <trkpt lat="43.53326" lon="1.50419">
        <ele>145</ele>
        <time>2023-03-22T16:22:41Z</time>
      </trkpt>
      <trkpt lat="43.53327" lon="1.50422">
        <ele>145</ele>
        <time>2023-03-22T16:22:42Z</time>
      </trkpt>
      <trkpt lat="43.53327" lon="1.50422">
        <ele>145</ele>
        <time>2023-03-22T16:22:43Z</time>
      </trkpt>
      <trkpt lat="43.53328" lon="1.50425">
        <ele>145</ele>
        <time>2023-03-22T16:22:44Z</time>
      </trkpt>
      <trkpt lat="43.53329" lon="1.50428">
        <ele>145</ele>
        <time>2023-03-22T16:22:45Z</time>
      </trkpt>
      <trkpt lat="43.53331" lon="1.50431">
        <ele>145</ele>
        <time>2023-03-22T16:22:46Z</time>
      </trkpt>
      <trkpt lat="43.53333" lon="1.50437">
        <ele>145</ele>
        <time>2023-03-22T16:22:47Z</time>
      </trkpt>
      <trkpt lat="43.53334" lon="1.5044">
        <ele>145</ele>
        <time>2023-03-22T16:22:48Z</time>
      </trkpt>
      <trkpt lat="43.53334" lon="1.5044">
        <ele>145</ele>
        <time>2023-03-22T16:22:49Z</time>
      </trkpt>
      <trkpt lat="43.53336" lon="1.50444">
        <ele>145</ele>
        <time>2023-03-22T16:22:50Z</time>
      </trkpt>
      <trkpt lat="43.53337" lon="1.50447">
        <ele>144</ele>
        <time>2023-03-22T16:22:51Z</time>
      </trkpt>
      <trkpt lat="43.53338" lon="1.5045">
        <ele>144</ele>
        <time>2023-03-22T16:22:52Z</time>
      </trkpt>
      <trkpt lat="43.53341" lon="1.50453">
        <ele>145</ele>
        <time>2023-03-22T16:22:53Z</time>
      </trkpt>
      <trkpt lat="43.53343" lon="1.50455">
        <ele>145</ele>
        <time>2023-03-22T16:22:54Z</time>
      </trkpt>
      <trkpt lat="43.53344" lon="1.50458">
        <ele>145</ele>
        <time>2023-03-22T16:22:55Z</time>
      </trkpt>
      <trkpt lat="43.53344" lon="1.50458">
        <ele>145</ele>
        <time>2023-03-22T16:22:56Z</time>
      </trkpt>
      <trkpt lat="43.53345" lon="1.50461">
        <ele>145</ele>
        <time>2023-03-22T16:22:57Z</time>
      </trkpt>
      <trkpt lat="43.53346" lon="1.50465">
        <ele>145</ele>
        <time>2023-03-22T16:22:58Z</time>
      </trkpt>
      <trkpt lat="43.53347" lon="1.50468">
        <ele>145</ele>
        <time>2023-03-22T16:22:59Z</time>
      </trkpt>
      <trkpt lat="43.53348" lon="1.50471">
        <ele>145</ele>
        <time>2023-03-22T16:23:00Z</time>
      </trkpt>
      <trkpt lat="43.53348" lon="1.50474">
        <ele>145</ele>
        <time>2023-03-22T16:23:01Z</time>
      </trkpt>
      <trkpt lat="43.53349" lon="1.50477">
        <ele>145</ele>
        <time>2023-03-22T16:23:02Z</time>
      </trkpt>
      <trkpt lat="43.5335" lon="1.5048">
        <ele>145</ele>
        <time>2023-03-22T16:23:03Z</time>
      </trkpt>
      <trkpt lat="43.53351" lon="1.50483">
        <ele>145</ele>
        <time>2023-03-22T16:23:04Z</time>
      </trkpt>
      <trkpt lat="43.53352" lon="1.50486">
        <ele>145</ele>
        <time>2023-03-22T16:23:05Z</time>
      </trkpt>
      <trkpt lat="43.53352" lon="1.50489">
        <ele>145</ele>
        <time>2023-03-22T16:23:06Z</time>
      </trkpt>
      <trkpt lat="43.53353" lon="1.50495">
        <ele>145</ele>
        <time>2023-03-22T16:23:07Z</time>
      </trkpt>
      <trkpt lat="43.53351" lon="1.50497">
        <ele>145</ele>
        <time>2023-03-22T16:23:08Z</time>
      </trkpt>
      <trkpt lat="43.53351" lon="1.50497">
        <ele>145</ele>
        <time>2023-03-22T16:23:09Z</time>
      </trkpt>
      <trkpt lat="43.53349" lon="1.50499">
        <ele>145</ele>
        <time>2023-03-22T16:23:10Z</time>
      </trkpt>
      <trkpt lat="43.53346" lon="1.50499">
        <ele>145</ele>
        <time>2023-03-22T16:23:11Z</time>
      </trkpt>
      <trkpt lat="43.5334" lon="1.505">
        <ele>145</ele>
        <time>2023-03-22T16:23:12Z</time>
      </trkpt>
      <trkpt lat="43.53337" lon="1.50501">
        <ele>145</ele>
        <time>2023-03-22T16:23:13Z</time>
      </trkpt>
      <trkpt lat="43.53334" lon="1.50503">
        <ele>145</ele>
        <time>2023-03-22T16:23:14Z</time>
      </trkpt>
      <trkpt lat="43.53334" lon="1.50503">
        <ele>145</ele>
        <time>2023-03-22T16:23:15Z</time>
      </trkpt>
      <trkpt lat="43.53329" lon="1.50504">
        <ele>146</ele>
        <time>2023-03-22T16:23:16Z</time>
      </trkpt>
      <trkpt lat="43.53326" lon="1.50505">
        <ele>146</ele>
        <time>2023-03-22T16:23:17Z</time>
      </trkpt>
      <trkpt lat="43.53326" lon="1.50505">
        <ele>146</ele>
        <time>2023-03-22T16:23:18Z</time>
      </trkpt>
      <trkpt lat="43.53321" lon="1.50508">
        <ele>146</ele>
        <time>2023-03-22T16:23:19Z</time>
      </trkpt>
      <trkpt lat="43.53321" lon="1.50508">
        <ele>146</ele>
        <time>2023-03-22T16:23:20Z</time>
      </trkpt>
      <trkpt lat="43.53318" lon="1.50511">
        <ele>146</ele>
        <time>2023-03-22T16:23:21Z</time>
      </trkpt>
      <trkpt lat="43.53315" lon="1.50512">
        <ele>145</ele>
        <time>2023-03-22T16:23:22Z</time>
      </trkpt>
      <trkpt lat="43.53309" lon="1.50515">
        <ele>145</ele>
        <time>2023-03-22T16:23:23Z</time>
      </trkpt>
      <trkpt lat="43.53307" lon="1.50516">
        <ele>145</ele>
        <time>2023-03-22T16:23:24Z</time>
      </trkpt>
      <trkpt lat="43.53307" lon="1.50516">
        <ele>145</ele>
        <time>2023-03-22T16:23:25Z</time>
      </trkpt>
      <trkpt lat="43.53302" lon="1.50518">
        <ele>145</ele>
        <time>2023-03-22T16:23:26Z</time>
      </trkpt>
      <trkpt lat="43.53302" lon="1.50518">
        <ele>145</ele>
        <time>2023-03-22T16:23:27Z</time>
      </trkpt>
      <trkpt lat="43.53297" lon="1.5052">
        <ele>145</ele>
        <time>2023-03-22T16:23:28Z</time>
      </trkpt>
      <trkpt lat="43.53297" lon="1.5052">
        <ele>145</ele>
        <time>2023-03-22T16:23:29Z</time>
      </trkpt>
      <trkpt lat="43.53294" lon="1.50521">
        <ele>145</ele>
        <time>2023-03-22T16:23:30Z</time>
      </trkpt>
      <trkpt lat="43.53292" lon="1.50521">
        <ele>145</ele>
        <time>2023-03-22T16:23:31Z</time>
      </trkpt>
      <trkpt lat="43.53289" lon="1.50521">
        <ele>145</ele>
        <time>2023-03-22T16:23:32Z</time>
      </trkpt>
      <trkpt lat="43.53287" lon="1.50521">
        <ele>145</ele>
        <time>2023-03-22T16:23:33Z</time>
      </trkpt>
      <trkpt lat="43.53283" lon="1.50521">
        <ele>146</ele>
        <time>2023-03-22T16:23:34Z</time>
      </trkpt>
      <trkpt lat="43.53281" lon="1.50521">
        <ele>146</ele>
        <time>2023-03-22T16:23:35Z</time>
      </trkpt>
      <trkpt lat="43.53279" lon="1.50521">
        <ele>146</ele>
        <time>2023-03-22T16:23:36Z</time>
      </trkpt>
      <trkpt lat="43.53279" lon="1.50521">
        <ele>146</ele>
        <time>2023-03-22T16:23:37Z</time>
      </trkpt>
      <trkpt lat="43.53275" lon="1.50521">
        <ele>146</ele>
        <time>2023-03-22T16:23:38Z</time>
      </trkpt>
      <trkpt lat="43.53275" lon="1.50521">
        <ele>146</ele>
        <time>2023-03-22T16:23:39Z</time>
      </trkpt>
      <trkpt lat="43.53272" lon="1.50522">
        <ele>146</ele>
        <time>2023-03-22T16:23:40Z</time>
      </trkpt>
      <trkpt lat="43.5327" lon="1.50523">
        <ele>146</ele>
        <time>2023-03-22T16:23:41Z</time>
      </trkpt>
      <trkpt lat="43.53265" lon="1.50525">
        <ele>146</ele>
        <time>2023-03-22T16:23:42Z</time>
      </trkpt>
      <trkpt lat="43.53263" lon="1.50524">
        <ele>146</ele>
        <time>2023-03-22T16:23:43Z</time>
      </trkpt>
      <trkpt lat="43.53263" lon="1.50524">
        <ele>146</ele>
        <time>2023-03-22T16:23:44Z</time>
      </trkpt>
      <trkpt lat="43.53259" lon="1.50524">
        <ele>146</ele>
        <time>2023-03-22T16:23:45Z</time>
      </trkpt>
      <trkpt lat="43.53259" lon="1.50524">
        <ele>146</ele>
        <time>2023-03-22T16:23:46Z</time>
      </trkpt>
      <trkpt lat="43.53256" lon="1.50524">
        <ele>146</ele>
        <time>2023-03-22T16:23:47Z</time>
      </trkpt>
      <trkpt lat="43.53254" lon="1.50524">
        <ele>146</ele>
        <time>2023-03-22T16:23:48Z</time>
      </trkpt>
      <trkpt lat="43.53251" lon="1.50524">
        <ele>145</ele>
        <time>2023-03-22T16:23:49Z</time>
      </trkpt>
      <trkpt lat="43.53246" lon="1.50524">
        <ele>145</ele>
        <time>2023-03-22T16:23:50Z</time>
      </trkpt>
      <trkpt lat="43.53243" lon="1.50525">
        <ele>145</ele>
        <time>2023-03-22T16:23:51Z</time>
      </trkpt>
      <trkpt lat="43.53241" lon="1.50526">
        <ele>145</ele>
        <time>2023-03-22T16:23:52Z</time>
      </trkpt>
      <trkpt lat="43.53238" lon="1.50527">
        <ele>145</ele>
        <time>2023-03-22T16:23:53Z</time>
      </trkpt>
      <trkpt lat="43.53235" lon="1.50528">
        <ele>146</ele>
        <time>2023-03-22T16:23:54Z</time>
      </trkpt>
      <trkpt lat="43.53235" lon="1.50528">
        <ele>146</ele>
        <time>2023-03-22T16:23:55Z</time>
      </trkpt>
      <trkpt lat="43.53233" lon="1.50529">
        <ele>146</ele>
        <time>2023-03-22T16:23:56Z</time>
      </trkpt>
      <trkpt lat="43.5323" lon="1.50529">
        <ele>146</ele>
        <time>2023-03-22T16:23:57Z</time>
      </trkpt>
      <trkpt lat="43.53227" lon="1.50529">
        <ele>146</ele>
        <time>2023-03-22T16:23:58Z</time>
      </trkpt>
      <trkpt lat="43.53222" lon="1.50528">
        <ele>146</ele>
        <time>2023-03-22T16:23:59Z</time>
      </trkpt>
      <trkpt lat="43.5322" lon="1.50529">
        <ele>146</ele>
        <time>2023-03-22T16:24:00Z</time>
      </trkpt>
      <trkpt lat="43.53217" lon="1.50529">
        <ele>146</ele>
        <time>2023-03-22T16:24:01Z</time>
      </trkpt>
      <trkpt lat="43.53215" lon="1.5053">
        <ele>146</ele>
        <time>2023-03-22T16:24:02Z</time>
      </trkpt>
      <trkpt lat="43.53215" lon="1.5053">
        <ele>146</ele>
        <time>2023-03-22T16:24:03Z</time>
      </trkpt>
      <trkpt lat="43.5321" lon="1.50532">
        <ele>145</ele>
        <time>2023-03-22T16:24:04Z</time>
      </trkpt>
      <trkpt lat="43.5321" lon="1.50532">
        <ele>145</ele>
        <time>2023-03-22T16:24:05Z</time>
      </trkpt>
      <trkpt lat="43.53206" lon="1.50533">
        <ele>145</ele>
        <time>2023-03-22T16:24:06Z</time>
      </trkpt>
      <trkpt lat="43.53206" lon="1.50533">
        <ele>145</ele>
        <time>2023-03-22T16:24:07Z</time>
      </trkpt>
      <trkpt lat="43.53203" lon="1.50533">
        <ele>145</ele>
        <time>2023-03-22T16:24:08Z</time>
      </trkpt>
      <trkpt lat="43.53201" lon="1.50534">
        <ele>145</ele>
        <time>2023-03-22T16:24:09Z</time>
      </trkpt>
      <trkpt lat="43.53199" lon="1.50535">
        <ele>145</ele>
        <time>2023-03-22T16:24:10Z</time>
      </trkpt>
      <trkpt lat="43.53197" lon="1.50536">
        <ele>145</ele>
        <time>2023-03-22T16:24:11Z</time>
      </trkpt>
      <trkpt lat="43.53194" lon="1.50537">
        <ele>145</ele>
        <time>2023-03-22T16:24:12Z</time>
      </trkpt>
      <trkpt lat="43.53189" lon="1.5054">
        <ele>145</ele>
        <time>2023-03-22T16:24:13Z</time>
      </trkpt>
      <trkpt lat="43.53187" lon="1.50541">
        <ele>145</ele>
        <time>2023-03-22T16:24:14Z</time>
      </trkpt>
      <trkpt lat="43.53185" lon="1.50542">
        <ele>145</ele>
        <time>2023-03-22T16:24:15Z</time>
      </trkpt>
      <trkpt lat="43.53185" lon="1.50542">
        <ele>145</ele>
        <time>2023-03-22T16:24:16Z</time>
      </trkpt>
      <trkpt lat="43.5318" lon="1.50543">
        <ele>145</ele>
        <time>2023-03-22T16:24:17Z</time>
      </trkpt>
      <trkpt lat="43.5318" lon="1.50543">
        <ele>145</ele>
        <time>2023-03-22T16:24:18Z</time>
      </trkpt>
      <trkpt lat="43.53178" lon="1.50543">
        <ele>145</ele>
        <time>2023-03-22T16:24:19Z</time>
      </trkpt>
      <trkpt lat="43.53175" lon="1.50543">
        <ele>145</ele>
        <time>2023-03-22T16:24:20Z</time>
      </trkpt>
      <trkpt lat="43.5317" lon="1.50544">
        <ele>145</ele>
        <time>2023-03-22T16:24:21Z</time>
      </trkpt>
      <trkpt lat="43.53167" lon="1.50544">
        <ele>145</ele>
        <time>2023-03-22T16:24:22Z</time>
      </trkpt>
      <trkpt lat="43.53165" lon="1.50545">
        <ele>145</ele>
        <time>2023-03-22T16:24:23Z</time>
      </trkpt>
      <trkpt lat="43.53162" lon="1.50546">
        <ele>145</ele>
        <time>2023-03-22T16:24:24Z</time>
      </trkpt>
      <trkpt lat="43.5316" lon="1.50547">
        <ele>145</ele>
        <time>2023-03-22T16:24:25Z</time>
      </trkpt>
      <trkpt lat="43.5316" lon="1.50547">
        <ele>145</ele>
        <time>2023-03-22T16:24:26Z</time>
      </trkpt>
      <trkpt lat="43.53155" lon="1.50548">
        <ele>145</ele>
        <time>2023-03-22T16:24:27Z</time>
      </trkpt>
      <trkpt lat="43.53155" lon="1.50548">
        <ele>145</ele>
        <time>2023-03-22T16:24:28Z</time>
      </trkpt>
      <trkpt lat="43.53153" lon="1.50549">
        <ele>146</ele>
        <time>2023-03-22T16:24:29Z</time>
      </trkpt>
      <trkpt lat="43.53149" lon="1.5055">
        <ele>146</ele>
        <time>2023-03-22T16:24:30Z</time>
      </trkpt>
      <trkpt lat="43.53146" lon="1.50552">
        <ele>146</ele>
        <time>2023-03-22T16:24:31Z</time>
      </trkpt>
      <trkpt lat="43.53144" lon="1.50553">
        <ele>146</ele>
        <time>2023-03-22T16:24:32Z</time>
      </trkpt>
      <trkpt lat="43.53144" lon="1.50553">
        <ele>146</ele>
        <time>2023-03-22T16:24:33Z</time>
      </trkpt>
      <trkpt lat="43.53142" lon="1.50554">
        <ele>146</ele>
        <time>2023-03-22T16:24:34Z</time>
      </trkpt>
      <trkpt lat="43.53137" lon="1.50557">
        <ele>146</ele>
        <time>2023-03-22T16:24:35Z</time>
      </trkpt>
      <trkpt lat="43.53135" lon="1.50558">
        <ele>146</ele>
        <time>2023-03-22T16:24:36Z</time>
      </trkpt>
      <trkpt lat="43.53132" lon="1.5056">
        <ele>146</ele>
        <time>2023-03-22T16:24:37Z</time>
      </trkpt>
      <trkpt lat="43.5313" lon="1.50561">
        <ele>146</ele>
        <time>2023-03-22T16:24:38Z</time>
      </trkpt>
      <trkpt lat="43.53128" lon="1.50562">
        <ele>146</ele>
        <time>2023-03-22T16:24:39Z</time>
      </trkpt>
      <trkpt lat="43.53128" lon="1.50562">
        <ele>146</ele>
        <time>2023-03-22T16:24:40Z</time>
      </trkpt>
      <trkpt lat="43.53125" lon="1.50564">
        <ele>146</ele>
        <time>2023-03-22T16:24:41Z</time>
      </trkpt>
      <trkpt lat="43.5312" lon="1.50567">
        <ele>146</ele>
        <time>2023-03-22T16:24:42Z</time>
      </trkpt>
      <trkpt lat="43.5312" lon="1.50567">
        <ele>146</ele>
        <time>2023-03-22T16:24:43Z</time>
      </trkpt>
      <trkpt lat="43.53115" lon="1.50569">
        <ele>146</ele>
        <time>2023-03-22T16:24:44Z</time>
      </trkpt>
      <trkpt lat="43.53115" lon="1.50569">
        <ele>146</ele>
        <time>2023-03-22T16:24:45Z</time>
      </trkpt>
      <trkpt lat="43.53113" lon="1.5057">
        <ele>145</ele>
        <time>2023-03-22T16:24:46Z</time>
      </trkpt>
      <trkpt lat="43.53111" lon="1.50571">
        <ele>145</ele>
        <time>2023-03-22T16:24:47Z</time>
      </trkpt>
      <trkpt lat="43.53108" lon="1.50572">
        <ele>145</ele>
        <time>2023-03-22T16:24:48Z</time>
      </trkpt>
      <trkpt lat="43.53106" lon="1.50573">
        <ele>145</ele>
        <time>2023-03-22T16:24:49Z</time>
      </trkpt>
      <trkpt lat="43.53103" lon="1.50574">
        <ele>145</ele>
        <time>2023-03-22T16:24:50Z</time>
      </trkpt>
      <trkpt lat="43.53101" lon="1.50576">
        <ele>145</ele>
        <time>2023-03-22T16:24:51Z</time>
      </trkpt>
      <trkpt lat="43.53099" lon="1.50577">
        <ele>145</ele>
        <time>2023-03-22T16:24:52Z</time>
      </trkpt>
      <trkpt lat="43.53097" lon="1.50578">
        <ele>145</ele>
        <time>2023-03-22T16:24:53Z</time>
      </trkpt>
      <trkpt lat="43.53095" lon="1.50579">
        <ele>145</ele>
        <time>2023-03-22T16:24:54Z</time>
      </trkpt>
      <trkpt lat="43.53093" lon="1.5058">
        <ele>145</ele>
        <time>2023-03-22T16:24:55Z</time>
      </trkpt>
      <trkpt lat="43.53091" lon="1.50581">
        <ele>146</ele>
        <time>2023-03-22T16:24:56Z</time>
      </trkpt>
      <trkpt lat="43.53086" lon="1.50584">
        <ele>146</ele>
        <time>2023-03-22T16:24:57Z</time>
      </trkpt>
      <trkpt lat="43.53083" lon="1.50584">
        <ele>146</ele>
        <time>2023-03-22T16:24:58Z</time>
      </trkpt>
      <trkpt lat="43.53083" lon="1.50584">
        <ele>146</ele>
        <time>2023-03-22T16:24:59Z</time>
      </trkpt>
      <trkpt lat="43.53081" lon="1.50585">
        <ele>146</ele>
        <time>2023-03-22T16:25:00Z</time>
      </trkpt>
      <trkpt lat="43.53076" lon="1.50588">
        <ele>145</ele>
        <time>2023-03-22T16:25:01Z</time>
      </trkpt>
      <trkpt lat="43.53074" lon="1.50589">
        <ele>145</ele>
        <time>2023-03-22T16:25:02Z</time>
      </trkpt>
      <trkpt lat="43.53074" lon="1.50589">
        <ele>145</ele>
        <time>2023-03-22T16:25:03Z</time>
      </trkpt>
      <trkpt lat="43.53071" lon="1.50591">
        <ele>145</ele>
        <time>2023-03-22T16:25:04Z</time>
      </trkpt>
      <trkpt lat="43.53067" lon="1.50593">
        <ele>145</ele>
        <time>2023-03-22T16:25:05Z</time>
      </trkpt>
      <trkpt lat="43.53067" lon="1.50593">
        <ele>145</ele>
        <time>2023-03-22T16:25:06Z</time>
      </trkpt>
      <trkpt lat="43.53062" lon="1.50596">
        <ele>145</ele>
        <time>2023-03-22T16:25:07Z</time>
      </trkpt>
      <trkpt lat="43.53061" lon="1.50597">
        <ele>145</ele>
        <time>2023-03-22T16:25:08Z</time>
      </trkpt>
      <trkpt lat="43.53059" lon="1.50598">
        <ele>145</ele>
        <time>2023-03-22T16:25:09Z</time>
      </trkpt>
      <trkpt lat="43.53059" lon="1.50598">
        <ele>145</ele>
        <time>2023-03-22T16:25:10Z</time>
      </trkpt>
      <trkpt lat="43.53055" lon="1.506">
        <ele>145</ele>
        <time>2023-03-22T16:25:11Z</time>
      </trkpt>
      <trkpt lat="43.53055" lon="1.506">
        <ele>145</ele>
        <time>2023-03-22T16:25:12Z</time>
      </trkpt>
      <trkpt lat="43.53052" lon="1.50601">
        <ele>146</ele>
        <time>2023-03-22T16:25:13Z</time>
      </trkpt>
      <trkpt lat="43.5305" lon="1.50602">
        <ele>146</ele>
        <time>2023-03-22T16:25:14Z</time>
      </trkpt>
      <trkpt lat="43.53046" lon="1.50605">
        <ele>146</ele>
        <time>2023-03-22T16:25:15Z</time>
      </trkpt>
      <trkpt lat="43.53043" lon="1.50607">
        <ele>146</ele>
        <time>2023-03-22T16:25:16Z</time>
      </trkpt>
      <trkpt lat="43.53043" lon="1.50607">
        <ele>146</ele>
        <time>2023-03-22T16:25:17Z</time>
      </trkpt>
      <trkpt lat="43.53039" lon="1.50611">
        <ele>146</ele>
        <time>2023-03-22T16:25:18Z</time>
      </trkpt>
      <trkpt lat="43.53037" lon="1.50613">
        <ele>146</ele>
        <time>2023-03-22T16:25:19Z</time>
      </trkpt>
      <trkpt lat="43.53037" lon="1.50613">
        <ele>146</ele>
        <time>2023-03-22T16:25:20Z</time>
      </trkpt>
      <trkpt lat="43.53033" lon="1.50617">
        <ele>146</ele>
        <time>2023-03-22T16:25:21Z</time>
      </trkpt>
      <trkpt lat="43.5303" lon="1.50619">
        <ele>146</ele>
        <time>2023-03-22T16:25:22Z</time>
      </trkpt>
      <trkpt lat="43.53028" lon="1.50621">
        <ele>146</ele>
        <time>2023-03-22T16:25:23Z</time>
      </trkpt>
      <trkpt lat="43.53026" lon="1.50623">
        <ele>146</ele>
        <time>2023-03-22T16:25:24Z</time>
      </trkpt>
      <trkpt lat="43.53026" lon="1.50623">
        <ele>146</ele>
        <time>2023-03-22T16:25:25Z</time>
      </trkpt>
      <trkpt lat="43.53024" lon="1.50624">
        <ele>146</ele>
        <time>2023-03-22T16:25:26Z</time>
      </trkpt>
      <trkpt lat="43.5302" lon="1.50628">
        <ele>146</ele>
        <time>2023-03-22T16:25:27Z</time>
      </trkpt>
      <trkpt lat="43.5302" lon="1.50628">
        <ele>146</ele>
        <time>2023-03-22T16:25:28Z</time>
      </trkpt>
      <trkpt lat="43.53018" lon="1.5063">
        <ele>146</ele>
        <time>2023-03-22T16:25:29Z</time>
      </trkpt>
      <trkpt lat="43.53016" lon="1.50632">
        <ele>146</ele>
        <time>2023-03-22T16:25:30Z</time>
      </trkpt>
      <trkpt lat="43.53013" lon="1.50636">
        <ele>146</ele>
        <time>2023-03-22T16:25:31Z</time>
      </trkpt>
      <trkpt lat="43.53013" lon="1.50636">
        <ele>146</ele>
        <time>2023-03-22T16:25:32Z</time>
      </trkpt>
      <trkpt lat="43.53011" lon="1.50639">
        <ele>146</ele>
        <time>2023-03-22T16:25:33Z</time>
      </trkpt>
      <trkpt lat="43.53009" lon="1.50641">
        <ele>146</ele>
        <time>2023-03-22T16:25:34Z</time>
      </trkpt>
      <trkpt lat="43.53006" lon="1.50645">
        <ele>146</ele>
        <time>2023-03-22T16:25:35Z</time>
      </trkpt>
      <trkpt lat="43.53004" lon="1.50647">
        <ele>146</ele>
        <time>2023-03-22T16:25:36Z</time>
      </trkpt>
      <trkpt lat="43.53004" lon="1.50647">
        <ele>146</ele>
        <time>2023-03-22T16:25:37Z</time>
      </trkpt>
      <trkpt lat="43.53" lon="1.50651">
        <ele>146</ele>
        <time>2023-03-22T16:25:38Z</time>
      </trkpt>
      <trkpt lat="43.52998" lon="1.50653">
        <ele>146</ele>
        <time>2023-03-22T16:25:39Z</time>
      </trkpt>
      <trkpt lat="43.52998" lon="1.50653">
        <ele>146</ele>
        <time>2023-03-22T16:25:40Z</time>
      </trkpt>
      <trkpt lat="43.52996" lon="1.50654">
        <ele>146</ele>
        <time>2023-03-22T16:25:41Z</time>
      </trkpt>
      <trkpt lat="43.52995" lon="1.50656">
        <ele>146</ele>
        <time>2023-03-22T16:25:42Z</time>
      </trkpt>
      <trkpt lat="43.52991" lon="1.5066">
        <ele>146</ele>
        <time>2023-03-22T16:25:43Z</time>
      </trkpt>
      <trkpt lat="43.52989" lon="1.50662">
        <ele>146</ele>
        <time>2023-03-22T16:25:44Z</time>
      </trkpt>
      <trkpt lat="43.52987" lon="1.50664">
        <ele>146</ele>
        <time>2023-03-22T16:25:45Z</time>
      </trkpt>
      <trkpt lat="43.52985" lon="1.50666">
        <ele>146</ele>
        <time>2023-03-22T16:25:46Z</time>
      </trkpt>
      <trkpt lat="43.52983" lon="1.50668">
        <ele>146</ele>
        <time>2023-03-22T16:25:47Z</time>
      </trkpt>
      <trkpt lat="43.52983" lon="1.50668">
        <ele>146</ele>
        <time>2023-03-22T16:25:48Z</time>
      </trkpt>
      <trkpt lat="43.52981" lon="1.5067">
        <ele>146</ele>
        <time>2023-03-22T16:25:49Z</time>
      </trkpt>
      <trkpt lat="43.52979" lon="1.50672">
        <ele>146</ele>
        <time>2023-03-22T16:25:50Z</time>
      </trkpt>
      <trkpt lat="43.52977" lon="1.50674">
        <ele>146</ele>
        <time>2023-03-22T16:25:51Z</time>
      </trkpt>
      <trkpt lat="43.52973" lon="1.50679">
        <ele>146</ele>
        <time>2023-03-22T16:25:52Z</time>
      </trkpt>
      <trkpt lat="43.52971" lon="1.50682">
        <ele>146</ele>
        <time>2023-03-22T16:25:53Z</time>
      </trkpt>
      <trkpt lat="43.52971" lon="1.50682">
        <ele>146</ele>
        <time>2023-03-22T16:25:54Z</time>
      </trkpt>
      <trkpt lat="43.52968" lon="1.50685">
        <ele>146</ele>
        <time>2023-03-22T16:25:55Z</time>
      </trkpt>
      <trkpt lat="43.52968" lon="1.50685">
        <ele>146</ele>
        <time>2023-03-22T16:25:56Z</time>
      </trkpt>
      <trkpt lat="43.52966" lon="1.50687">
        <ele>146</ele>
        <time>2023-03-22T16:25:57Z</time>
      </trkpt>
      <trkpt lat="43.52962" lon="1.50692">
        <ele>146</ele>
        <time>2023-03-22T16:25:58Z</time>
      </trkpt>
      <trkpt lat="43.52962" lon="1.50692">
        <ele>146</ele>
        <time>2023-03-22T16:25:59Z</time>
      </trkpt>
      <trkpt lat="43.5296" lon="1.50695">
        <ele>146</ele>
        <time>2023-03-22T16:26:00Z</time>
      </trkpt>
      <trkpt lat="43.52958" lon="1.50697">
        <ele>147</ele>
        <time>2023-03-22T16:26:01Z</time>
      </trkpt>
      <trkpt lat="43.52954" lon="1.50701">
        <ele>147</ele>
        <time>2023-03-22T16:26:02Z</time>
      </trkpt>
      <trkpt lat="43.52952" lon="1.50703">
        <ele>147</ele>
        <time>2023-03-22T16:26:03Z</time>
      </trkpt>
      <trkpt lat="43.5295" lon="1.50705">
        <ele>146</ele>
        <time>2023-03-22T16:26:04Z</time>
      </trkpt>
      <trkpt lat="43.5295" lon="1.50705">
        <ele>146</ele>
        <time>2023-03-22T16:26:05Z</time>
      </trkpt>
      <trkpt lat="43.52948" lon="1.50707">
        <ele>146</ele>
        <time>2023-03-22T16:26:06Z</time>
      </trkpt>
      <trkpt lat="43.52946" lon="1.50709">
        <ele>146</ele>
        <time>2023-03-22T16:26:07Z</time>
      </trkpt>
      <trkpt lat="43.52941" lon="1.50715">
        <ele>146</ele>
        <time>2023-03-22T16:26:08Z</time>
      </trkpt>
      <trkpt lat="43.52939" lon="1.50717">
        <ele>146</ele>
        <time>2023-03-22T16:26:09Z</time>
      </trkpt>
      <trkpt lat="43.52937" lon="1.50718">
        <ele>146</ele>
        <time>2023-03-22T16:26:10Z</time>
      </trkpt>
      <trkpt lat="43.52937" lon="1.50718">
        <ele>146</ele>
        <time>2023-03-22T16:26:11Z</time>
      </trkpt>
      <trkpt lat="43.52934" lon="1.5072">
        <ele>146</ele>
        <time>2023-03-22T16:26:12Z</time>
      </trkpt>
      <trkpt lat="43.5293" lon="1.50724">
        <ele>146</ele>
        <time>2023-03-22T16:26:13Z</time>
      </trkpt>
      <trkpt lat="43.52928" lon="1.50726">
        <ele>146</ele>
        <time>2023-03-22T16:26:14Z</time>
      </trkpt>
      <trkpt lat="43.52928" lon="1.50726">
        <ele>146</ele>
        <time>2023-03-22T16:26:15Z</time>
      </trkpt>
      <trkpt lat="43.52925" lon="1.50728">
        <ele>146</ele>
        <time>2023-03-22T16:26:16Z</time>
      </trkpt>
      <trkpt lat="43.52922" lon="1.50732">
        <ele>146</ele>
        <time>2023-03-22T16:26:17Z</time>
      </trkpt>
      <trkpt lat="43.52922" lon="1.50732">
        <ele>145</ele>
        <time>2023-03-22T16:26:18Z</time>
      </trkpt>
      <trkpt lat="43.5292" lon="1.50734">
        <ele>145</ele>
        <time>2023-03-22T16:26:19Z</time>
      </trkpt>
      <trkpt lat="43.52919" lon="1.50736">
        <ele>145</ele>
        <time>2023-03-22T16:26:20Z</time>
      </trkpt>
      <trkpt lat="43.52917" lon="1.50739">
        <ele>145</ele>
        <time>2023-03-22T16:26:21Z</time>
      </trkpt>
      <trkpt lat="43.52915" lon="1.50741">
        <ele>145</ele>
        <time>2023-03-22T16:26:22Z</time>
      </trkpt>
      <trkpt lat="43.52913" lon="1.50743">
        <ele>146</ele>
        <time>2023-03-22T16:26:23Z</time>
      </trkpt>
      <trkpt lat="43.52911" lon="1.50745">
        <ele>146</ele>
        <time>2023-03-22T16:26:24Z</time>
      </trkpt>
      <trkpt lat="43.52907" lon="1.50749">
        <ele>146</ele>
        <time>2023-03-22T16:26:25Z</time>
      </trkpt>
      <trkpt lat="43.52905" lon="1.50751">
        <ele>146</ele>
        <time>2023-03-22T16:26:26Z</time>
      </trkpt>
      <trkpt lat="43.52905" lon="1.50751">
        <ele>146</ele>
        <time>2023-03-22T16:26:27Z</time>
      </trkpt>
      <trkpt lat="43.52902" lon="1.50756">
        <ele>146</ele>
        <time>2023-03-22T16:26:28Z</time>
      </trkpt>
      <trkpt lat="43.52902" lon="1.50756">
        <ele>146</ele>
        <time>2023-03-22T16:26:29Z</time>
      </trkpt>
      <trkpt lat="43.529" lon="1.50758">
        <ele>146</ele>
        <time>2023-03-22T16:26:30Z</time>
      </trkpt>
      <trkpt lat="43.52896" lon="1.50762">
        <ele>146</ele>
        <time>2023-03-22T16:26:31Z</time>
      </trkpt>
      <trkpt lat="43.52896" lon="1.50762">
        <ele>146</ele>
        <time>2023-03-22T16:26:32Z</time>
      </trkpt>
      <trkpt lat="43.52894" lon="1.50764">
        <ele>146</ele>
        <time>2023-03-22T16:26:33Z</time>
      </trkpt>
      <trkpt lat="43.52893" lon="1.50765">
        <ele>146</ele>
        <time>2023-03-22T16:26:34Z</time>
      </trkpt>
      <trkpt lat="43.52891" lon="1.50767">
        <ele>146</ele>
        <time>2023-03-22T16:26:35Z</time>
      </trkpt>
      <trkpt lat="43.52886" lon="1.50771">
        <ele>146</ele>
        <time>2023-03-22T16:26:36Z</time>
      </trkpt>
      <trkpt lat="43.52884" lon="1.50773">
        <ele>146</ele>
        <time>2023-03-22T16:26:37Z</time>
      </trkpt>
      <trkpt lat="43.52884" lon="1.50773">
        <ele>146</ele>
        <time>2023-03-22T16:26:38Z</time>
      </trkpt>
      <trkpt lat="43.52883" lon="1.50775">
        <ele>146</ele>
        <time>2023-03-22T16:26:39Z</time>
      </trkpt>
      <trkpt lat="43.52878" lon="1.50779">
        <ele>146</ele>
        <time>2023-03-22T16:26:40Z</time>
      </trkpt>
      <trkpt lat="43.52878" lon="1.50779">
        <ele>146</ele>
        <time>2023-03-22T16:26:41Z</time>
      </trkpt>
      <trkpt lat="43.52876" lon="1.50781">
        <ele>146</ele>
        <time>2023-03-22T16:26:42Z</time>
      </trkpt>
      <trkpt lat="43.52873" lon="1.50782">
        <ele>146</ele>
        <time>2023-03-22T16:26:43Z</time>
      </trkpt>
      <trkpt lat="43.52871" lon="1.50784">
        <ele>146</ele>
        <time>2023-03-22T16:26:44Z</time>
      </trkpt>
      <trkpt lat="43.52869" lon="1.50786">
        <ele>145</ele>
        <time>2023-03-22T16:26:45Z</time>
      </trkpt>
      <trkpt lat="43.52866" lon="1.50788">
        <ele>145</ele>
        <time>2023-03-22T16:26:46Z</time>
      </trkpt>
      <trkpt lat="43.52861" lon="1.50791">
        <ele>145</ele>
        <time>2023-03-22T16:26:47Z</time>
      </trkpt>
      <trkpt lat="43.52861" lon="1.50791">
        <ele>145</ele>
        <time>2023-03-22T16:26:48Z</time>
      </trkpt>
      <trkpt lat="43.52858" lon="1.50792">
        <ele>145</ele>
        <time>2023-03-22T16:26:49Z</time>
      </trkpt>
      <trkpt lat="43.52856" lon="1.50793">
        <ele>145</ele>
        <time>2023-03-22T16:26:50Z</time>
      </trkpt>
      <trkpt lat="43.52852" lon="1.50798">
        <ele>145</ele>
        <time>2023-03-22T16:26:51Z</time>
      </trkpt>
      <trkpt lat="43.52852" lon="1.50798">
        <ele>145</ele>
        <time>2023-03-22T16:26:52Z</time>
      </trkpt>
      <trkpt lat="43.52849" lon="1.508">
        <ele>145</ele>
        <time>2023-03-22T16:26:53Z</time>
      </trkpt>
      <trkpt lat="43.52847" lon="1.50802">
        <ele>145</ele>
        <time>2023-03-22T16:26:54Z</time>
      </trkpt>
      <trkpt lat="43.52843" lon="1.50805">
        <ele>145</ele>
        <time>2023-03-22T16:26:55Z</time>
      </trkpt>
      <trkpt lat="43.52841" lon="1.50806">
        <ele>145</ele>
        <time>2023-03-22T16:26:56Z</time>
      </trkpt>
      <trkpt lat="43.52841" lon="1.50806">
        <ele>145</ele>
        <time>2023-03-22T16:26:57Z</time>
      </trkpt>
      <trkpt lat="43.52841" lon="1.50806">
        <ele>145</ele>
        <time>2023-03-22T16:26:58Z</time>
      </trkpt>
      <trkpt lat="43.52837" lon="1.50808">
        <ele>145</ele>
        <time>2023-03-22T16:26:59Z</time>
      </trkpt>
      <trkpt lat="43.52835" lon="1.5081">
        <ele>145</ele>
        <time>2023-03-22T16:27:00Z</time>
      </trkpt>
      <trkpt lat="43.52831" lon="1.50814">
        <ele>145</ele>
        <time>2023-03-22T16:27:01Z</time>
      </trkpt>
      <trkpt lat="43.52828" lon="1.50815">
        <ele>145</ele>
        <time>2023-03-22T16:27:02Z</time>
      </trkpt>
      <trkpt lat="43.52828" lon="1.50815">
        <ele>146</ele>
        <time>2023-03-22T16:27:03Z</time>
      </trkpt>
      <trkpt lat="43.52826" lon="1.50816">
        <ele>146</ele>
        <time>2023-03-22T16:27:04Z</time>
      </trkpt>
      <trkpt lat="43.52824" lon="1.50818">
        <ele>146</ele>
        <time>2023-03-22T16:27:05Z</time>
      </trkpt>
      <trkpt lat="43.52822" lon="1.50819">
        <ele>145</ele>
        <time>2023-03-22T16:27:06Z</time>
      </trkpt>
      <trkpt lat="43.5282" lon="1.50821">
        <ele>145</ele>
        <time>2023-03-22T16:27:07Z</time>
      </trkpt>
      <trkpt lat="43.52817" lon="1.50822">
        <ele>145</ele>
        <time>2023-03-22T16:27:08Z</time>
      </trkpt>
      <trkpt lat="43.52815" lon="1.50824">
        <ele>145</ele>
        <time>2023-03-22T16:27:09Z</time>
      </trkpt>
      <trkpt lat="43.52813" lon="1.50826">
        <ele>145</ele>
        <time>2023-03-22T16:27:10Z</time>
      </trkpt>
      <trkpt lat="43.5281" lon="1.50827">
        <ele>145</ele>
        <time>2023-03-22T16:27:11Z</time>
      </trkpt>
      <trkpt lat="43.52808" lon="1.50828">
        <ele>145</ele>
        <time>2023-03-22T16:27:12Z</time>
      </trkpt>
      <trkpt lat="43.52806" lon="1.5083">
        <ele>145</ele>
        <time>2023-03-22T16:27:13Z</time>
      </trkpt>
      <trkpt lat="43.52802" lon="1.50832">
        <ele>145</ele>
        <time>2023-03-22T16:27:14Z</time>
      </trkpt>
      <trkpt lat="43.52802" lon="1.50832">
        <ele>145</ele>
        <time>2023-03-22T16:27:15Z</time>
      </trkpt>
      <trkpt lat="43.528" lon="1.50834">
        <ele>145</ele>
        <time>2023-03-22T16:27:16Z</time>
      </trkpt>
      <trkpt lat="43.52798" lon="1.50836">
        <ele>145</ele>
        <time>2023-03-22T16:27:17Z</time>
      </trkpt>
      <trkpt lat="43.52796" lon="1.50838">
        <ele>145</ele>
        <time>2023-03-22T16:27:18Z</time>
      </trkpt>
      <trkpt lat="43.52791" lon="1.5084">
        <ele>145</ele>
        <time>2023-03-22T16:27:19Z</time>
      </trkpt>
      <trkpt lat="43.52791" lon="1.5084">
        <ele>145</ele>
        <time>2023-03-22T16:27:20Z</time>
      </trkpt>
      <trkpt lat="43.52787" lon="1.50842">
        <ele>145</ele>
        <time>2023-03-22T16:27:21Z</time>
      </trkpt>
      <trkpt lat="43.52787" lon="1.50842">
        <ele>145</ele>
        <time>2023-03-22T16:27:22Z</time>
      </trkpt>
      <trkpt lat="43.52785" lon="1.50843">
        <ele>145</ele>
        <time>2023-03-22T16:27:23Z</time>
      </trkpt>
      <trkpt lat="43.52782" lon="1.50844">
        <ele>145</ele>
        <time>2023-03-22T16:27:24Z</time>
      </trkpt>
      <trkpt lat="43.52778" lon="1.50846">
        <ele>145</ele>
        <time>2023-03-22T16:27:25Z</time>
      </trkpt>
      <trkpt lat="43.52776" lon="1.50847">
        <ele>145</ele>
        <time>2023-03-22T16:27:26Z</time>
      </trkpt>
      <trkpt lat="43.52776" lon="1.50847">
        <ele>145</ele>
        <time>2023-03-22T16:27:27Z</time>
      </trkpt>
      <trkpt lat="43.52772" lon="1.5085">
        <ele>145</ele>
        <time>2023-03-22T16:27:28Z</time>
      </trkpt>
      <trkpt lat="43.52772" lon="1.5085">
        <ele>145</ele>
        <time>2023-03-22T16:27:29Z</time>
      </trkpt>
      <trkpt lat="43.52767" lon="1.50853">
        <ele>145</ele>
        <time>2023-03-22T16:27:30Z</time>
      </trkpt>
      <trkpt lat="43.52765" lon="1.50855">
        <ele>145</ele>
        <time>2023-03-22T16:27:31Z</time>
      </trkpt>
      <trkpt lat="43.52765" lon="1.50855">
        <ele>145</ele>
        <time>2023-03-22T16:27:32Z</time>
      </trkpt>
      <trkpt lat="43.52763" lon="1.50856">
        <ele>145</ele>
        <time>2023-03-22T16:27:33Z</time>
      </trkpt>
      <trkpt lat="43.5276" lon="1.50858">
        <ele>144</ele>
        <time>2023-03-22T16:27:34Z</time>
      </trkpt>
      <trkpt lat="43.52759" lon="1.50859">
        <ele>145</ele>
        <time>2023-03-22T16:27:35Z</time>
      </trkpt>
      <trkpt lat="43.52759" lon="1.50859">
        <ele>145</ele>
        <time>2023-03-22T16:27:36Z</time>
      </trkpt>
      <trkpt lat="43.52755" lon="1.5086">
        <ele>145</ele>
        <time>2023-03-22T16:27:37Z</time>
      </trkpt>
      <trkpt lat="43.52752" lon="1.50864">
        <ele>145</ele>
        <time>2023-03-22T16:27:38Z</time>
      </trkpt>
      <trkpt lat="43.52752" lon="1.50864">
        <ele>145</ele>
        <time>2023-03-22T16:27:39Z</time>
      </trkpt>
      <trkpt lat="43.52748" lon="1.5087">
        <ele>145</ele>
        <time>2023-03-22T16:27:40Z</time>
      </trkpt>
      <trkpt lat="43.52748" lon="1.5087">
        <ele>145</ele>
        <time>2023-03-22T16:27:41Z</time>
      </trkpt>
      <trkpt lat="43.52746" lon="1.50873">
        <ele>145</ele>
        <time>2023-03-22T16:27:42Z</time>
      </trkpt>
      <trkpt lat="43.52745" lon="1.50876">
        <ele>145</ele>
        <time>2023-03-22T16:27:43Z</time>
      </trkpt>
      <trkpt lat="43.52743" lon="1.50879">
        <ele>145</ele>
        <time>2023-03-22T16:27:44Z</time>
      </trkpt>
      <trkpt lat="43.52742" lon="1.50882">
        <ele>145</ele>
        <time>2023-03-22T16:27:45Z</time>
      </trkpt>
      <trkpt lat="43.5274" lon="1.50885">
        <ele>145</ele>
        <time>2023-03-22T16:27:46Z</time>
      </trkpt>
      <trkpt lat="43.52738" lon="1.50887">
        <ele>145</ele>
        <time>2023-03-22T16:27:47Z</time>
      </trkpt>
      <trkpt lat="43.52736" lon="1.50889">
        <ele>145</ele>
        <time>2023-03-22T16:27:48Z</time>
      </trkpt>
      <trkpt lat="43.52735" lon="1.50891">
        <ele>145</ele>
        <time>2023-03-22T16:27:49Z</time>
      </trkpt>
      <trkpt lat="43.52732" lon="1.50895">
        <ele>145</ele>
        <time>2023-03-22T16:27:50Z</time>
      </trkpt>
      <trkpt lat="43.52732" lon="1.50895">
        <ele>145</ele>
        <time>2023-03-22T16:27:51Z</time>
      </trkpt>
      <trkpt lat="43.52729" lon="1.50899">
        <ele>145</ele>
        <time>2023-03-22T16:27:52Z</time>
      </trkpt>
      <trkpt lat="43.52729" lon="1.50899">
        <ele>145</ele>
        <time>2023-03-22T16:27:53Z</time>
      </trkpt>
      <trkpt lat="43.52727" lon="1.50902">
        <ele>145</ele>
        <time>2023-03-22T16:27:54Z</time>
      </trkpt>
      <trkpt lat="43.52724" lon="1.50907">
        <ele>144</ele>
        <time>2023-03-22T16:27:55Z</time>
      </trkpt>
      <trkpt lat="43.52722" lon="1.5091">
        <ele>144</ele>
        <time>2023-03-22T16:27:56Z</time>
      </trkpt>
      <trkpt lat="43.5272" lon="1.50913">
        <ele>145</ele>
        <time>2023-03-22T16:27:57Z</time>
      </trkpt>
      <trkpt lat="43.52718" lon="1.50915">
        <ele>145</ele>
        <time>2023-03-22T16:27:58Z</time>
      </trkpt>
      <trkpt lat="43.52718" lon="1.50915">
        <ele>145</ele>
        <time>2023-03-22T16:27:59Z</time>
      </trkpt>
      <trkpt lat="43.52717" lon="1.50918">
        <ele>145</ele>
        <time>2023-03-22T16:28:00Z</time>
      </trkpt>
      <trkpt lat="43.52715" lon="1.50921">
        <ele>145</ele>
        <time>2023-03-22T16:28:01Z</time>
      </trkpt>
      <trkpt lat="43.52711" lon="1.50927">
        <ele>145</ele>
        <time>2023-03-22T16:28:02Z</time>
      </trkpt>
      <trkpt lat="43.52709" lon="1.50929">
        <ele>145</ele>
        <time>2023-03-22T16:28:03Z</time>
      </trkpt>
      <trkpt lat="43.52708" lon="1.50931">
        <ele>145</ele>
        <time>2023-03-22T16:28:04Z</time>
      </trkpt>
      <trkpt lat="43.52706" lon="1.50934">
        <ele>145</ele>
        <time>2023-03-22T16:28:05Z</time>
      </trkpt>
      <trkpt lat="43.52706" lon="1.50934">
        <ele>145</ele>
        <time>2023-03-22T16:28:06Z</time>
      </trkpt>
      <trkpt lat="43.52703" lon="1.50939">
        <ele>145</ele>
        <time>2023-03-22T16:28:07Z</time>
      </trkpt>
      <trkpt lat="43.52703" lon="1.50939">
        <ele>145</ele>
        <time>2023-03-22T16:28:08Z</time>
      </trkpt>
      <trkpt lat="43.52702" lon="1.50941">
        <ele>146</ele>
        <time>2023-03-22T16:28:09Z</time>
      </trkpt>
      <trkpt lat="43.52702" lon="1.50941">
        <ele>146</ele>
        <time>2023-03-22T16:28:10Z</time>
      </trkpt>
      <trkpt lat="43.52698" lon="1.50948">
        <ele>146</ele>
        <time>2023-03-22T16:28:11Z</time>
      </trkpt>
      <trkpt lat="43.52697" lon="1.50951">
        <ele>146</ele>
        <time>2023-03-22T16:28:12Z</time>
      </trkpt>
      <trkpt lat="43.52695" lon="1.50953">
        <ele>146</ele>
        <time>2023-03-22T16:28:13Z</time>
      </trkpt>
      <trkpt lat="43.52694" lon="1.50956">
        <ele>146</ele>
        <time>2023-03-22T16:28:14Z</time>
      </trkpt>
      <trkpt lat="43.52694" lon="1.50956">
        <ele>146</ele>
        <time>2023-03-22T16:28:15Z</time>
      </trkpt>
      <trkpt lat="43.52693" lon="1.50959">
        <ele>146</ele>
        <time>2023-03-22T16:28:16Z</time>
      </trkpt>
      <trkpt lat="43.52692" lon="1.50962">
        <ele>146</ele>
        <time>2023-03-22T16:28:17Z</time>
      </trkpt>
      <trkpt lat="43.52691" lon="1.50964">
        <ele>146</ele>
        <time>2023-03-22T16:28:18Z</time>
      </trkpt>
      <trkpt lat="43.52688" lon="1.50969">
        <ele>146</ele>
        <time>2023-03-22T16:28:19Z</time>
      </trkpt>
      <trkpt lat="43.52688" lon="1.50969">
        <ele>146</ele>
        <time>2023-03-22T16:28:20Z</time>
      </trkpt>
      <trkpt lat="43.52687" lon="1.50972">
        <ele>146</ele>
        <time>2023-03-22T16:28:21Z</time>
      </trkpt>
      <trkpt lat="43.52685" lon="1.50976">
        <ele>146</ele>
        <time>2023-03-22T16:28:22Z</time>
      </trkpt>
      <trkpt lat="43.52683" lon="1.50981">
        <ele>146</ele>
        <time>2023-03-22T16:28:23Z</time>
      </trkpt>
      <trkpt lat="43.52681" lon="1.50985">
        <ele>146</ele>
        <time>2023-03-22T16:28:24Z</time>
      </trkpt>
      <trkpt lat="43.52681" lon="1.50985">
        <ele>146</ele>
        <time>2023-03-22T16:28:25Z</time>
      </trkpt>
      <trkpt lat="43.52679" lon="1.5099">
        <ele>146</ele>
        <time>2023-03-22T16:28:26Z</time>
      </trkpt>
      <trkpt lat="43.52679" lon="1.5099">
        <ele>146</ele>
        <time>2023-03-22T16:28:27Z</time>
      </trkpt>
      <trkpt lat="43.52677" lon="1.50996">
        <ele>146</ele>
        <time>2023-03-22T16:28:28Z</time>
      </trkpt>
      <trkpt lat="43.52677" lon="1.50996">
        <ele>146</ele>
        <time>2023-03-22T16:28:29Z</time>
      </trkpt>
      <trkpt lat="43.52675" lon="1.51002">
        <ele>146</ele>
        <time>2023-03-22T16:28:30Z</time>
      </trkpt>
      <trkpt lat="43.52675" lon="1.51002">
        <ele>146</ele>
        <time>2023-03-22T16:28:31Z</time>
      </trkpt>
      <trkpt lat="43.52672" lon="1.51009">
        <ele>146</ele>
        <time>2023-03-22T16:28:32Z</time>
      </trkpt>
      <trkpt lat="43.52671" lon="1.51012">
        <ele>146</ele>
        <time>2023-03-22T16:28:33Z</time>
      </trkpt>
      <trkpt lat="43.5267" lon="1.51015">
        <ele>146</ele>
        <time>2023-03-22T16:28:34Z</time>
      </trkpt>
      <trkpt lat="43.52669" lon="1.51018">
        <ele>146</ele>
        <time>2023-03-22T16:28:35Z</time>
      </trkpt>
      <trkpt lat="43.52669" lon="1.51022">
        <ele>146</ele>
        <time>2023-03-22T16:28:36Z</time>
      </trkpt>
      <trkpt lat="43.52668" lon="1.51025">
        <ele>146</ele>
        <time>2023-03-22T16:28:37Z</time>
      </trkpt>
      <trkpt lat="43.52668" lon="1.51025">
        <ele>146</ele>
        <time>2023-03-22T16:28:38Z</time>
      </trkpt>
      <trkpt lat="43.52666" lon="1.51032">
        <ele>146</ele>
        <time>2023-03-22T16:28:39Z</time>
      </trkpt>
      <trkpt lat="43.52666" lon="1.51032">
        <ele>146</ele>
        <time>2023-03-22T16:28:40Z</time>
      </trkpt>
      <trkpt lat="43.52666" lon="1.51035">
        <ele>146</ele>
        <time>2023-03-22T16:28:41Z</time>
      </trkpt>
      <trkpt lat="43.52664" lon="1.51037">
        <ele>146</ele>
        <time>2023-03-22T16:28:42Z</time>
      </trkpt>
      <trkpt lat="43.52663" lon="1.51039">
        <ele>146</ele>
        <time>2023-03-22T16:28:43Z</time>
      </trkpt>
      <trkpt lat="43.52661" lon="1.51042">
        <ele>146</ele>
        <time>2023-03-22T16:28:44Z</time>
      </trkpt>
      <trkpt lat="43.5266" lon="1.51044">
        <ele>146</ele>
        <time>2023-03-22T16:28:45Z</time>
      </trkpt>
      <trkpt lat="43.52658" lon="1.5105">
        <ele>146</ele>
        <time>2023-03-22T16:28:46Z</time>
      </trkpt>
      <trkpt lat="43.52658" lon="1.5105">
        <ele>146</ele>
        <time>2023-03-22T16:28:47Z</time>
      </trkpt>
      <trkpt lat="43.52657" lon="1.51053">
        <ele>146</ele>
        <time>2023-03-22T16:28:48Z</time>
      </trkpt>
      <trkpt lat="43.52656" lon="1.51059">
        <ele>146</ele>
        <time>2023-03-22T16:28:49Z</time>
      </trkpt>
      <trkpt lat="43.52656" lon="1.51059">
        <ele>146</ele>
        <time>2023-03-22T16:28:50Z</time>
      </trkpt>
      <trkpt lat="43.52655" lon="1.51062">
        <ele>146</ele>
        <time>2023-03-22T16:28:51Z</time>
      </trkpt>
      <trkpt lat="43.52655" lon="1.51065">
        <ele>146</ele>
        <time>2023-03-22T16:28:52Z</time>
      </trkpt>
      <trkpt lat="43.52653" lon="1.5107">
        <ele>146</ele>
        <time>2023-03-22T16:28:53Z</time>
      </trkpt>
      <trkpt lat="43.52653" lon="1.5107">
        <ele>146</ele>
        <time>2023-03-22T16:28:54Z</time>
      </trkpt>
      <trkpt lat="43.52651" lon="1.51077">
        <ele>146</ele>
        <time>2023-03-22T16:28:55Z</time>
      </trkpt>
      <trkpt lat="43.52649" lon="1.5108">
        <ele>145</ele>
        <time>2023-03-22T16:28:56Z</time>
      </trkpt>
      <trkpt lat="43.52649" lon="1.5108">
        <ele>145</ele>
        <time>2023-03-22T16:28:57Z</time>
      </trkpt>
      <trkpt lat="43.52648" lon="1.51086">
        <ele>145</ele>
        <time>2023-03-22T16:28:58Z</time>
      </trkpt>
      <trkpt lat="43.52648" lon="1.51086">
        <ele>145</ele>
        <time>2023-03-22T16:28:59Z</time>
      </trkpt>
      <trkpt lat="43.52648" lon="1.51089">
        <ele>145</ele>
        <time>2023-03-22T16:29:00Z</time>
      </trkpt>
      <trkpt lat="43.52647" lon="1.51092">
        <ele>145</ele>
        <time>2023-03-22T16:29:01Z</time>
      </trkpt>
      <trkpt lat="43.52647" lon="1.51095">
        <ele>145</ele>
        <time>2023-03-22T16:29:02Z</time>
      </trkpt>
      <trkpt lat="43.52645" lon="1.51101">
        <ele>145</ele>
        <time>2023-03-22T16:29:03Z</time>
      </trkpt>
      <trkpt lat="43.52644" lon="1.51104">
        <ele>145</ele>
        <time>2023-03-22T16:29:04Z</time>
      </trkpt>
      <trkpt lat="43.52643" lon="1.51107">
        <ele>145</ele>
        <time>2023-03-22T16:29:05Z</time>
      </trkpt>
      <trkpt lat="43.52643" lon="1.51107">
        <ele>145</ele>
        <time>2023-03-22T16:29:06Z</time>
      </trkpt>
      <trkpt lat="43.52642" lon="1.51115">
        <ele>146</ele>
        <time>2023-03-22T16:29:07Z</time>
      </trkpt>
      <trkpt lat="43.52642" lon="1.51119">
        <ele>146</ele>
        <time>2023-03-22T16:29:08Z</time>
      </trkpt>
      <trkpt lat="43.52642" lon="1.51119">
        <ele>145</ele>
        <time>2023-03-22T16:29:09Z</time>
      </trkpt>
      <trkpt lat="43.52641" lon="1.51123">
        <ele>145</ele>
        <time>2023-03-22T16:29:10Z</time>
      </trkpt>
      <trkpt lat="43.52641" lon="1.51127">
        <ele>145</ele>
        <time>2023-03-22T16:29:11Z</time>
      </trkpt>
      <trkpt lat="43.5264" lon="1.51131">
        <ele>145</ele>
        <time>2023-03-22T16:29:12Z</time>
      </trkpt>
      <trkpt lat="43.52639" lon="1.51137">
        <ele>145</ele>
        <time>2023-03-22T16:29:13Z</time>
      </trkpt>
      <trkpt lat="43.52638" lon="1.51141">
        <ele>145</ele>
        <time>2023-03-22T16:29:14Z</time>
      </trkpt>
      <trkpt lat="43.52638" lon="1.51141">
        <ele>145</ele>
        <time>2023-03-22T16:29:15Z</time>
      </trkpt>
      <trkpt lat="43.52638" lon="1.51145">
        <ele>145</ele>
        <time>2023-03-22T16:29:16Z</time>
      </trkpt>
      <trkpt lat="43.52637" lon="1.51152">
        <ele>145</ele>
        <time>2023-03-22T16:29:17Z</time>
      </trkpt>
      <trkpt lat="43.52636" lon="1.51155">
        <ele>145</ele>
        <time>2023-03-22T16:29:18Z</time>
      </trkpt>
      <trkpt lat="43.52636" lon="1.51155">
        <ele>145</ele>
        <time>2023-03-22T16:29:19Z</time>
      </trkpt>
      <trkpt lat="43.52635" lon="1.51159">
        <ele>145</ele>
        <time>2023-03-22T16:29:20Z</time>
      </trkpt>
      <trkpt lat="43.52634" lon="1.51162">
        <ele>145</ele>
        <time>2023-03-22T16:29:21Z</time>
      </trkpt>
      <trkpt lat="43.52633" lon="1.51166">
        <ele>145</ele>
        <time>2023-03-22T16:29:22Z</time>
      </trkpt>
      <trkpt lat="43.52633" lon="1.51169">
        <ele>145</ele>
        <time>2023-03-22T16:29:23Z</time>
      </trkpt>
      <trkpt lat="43.52633" lon="1.51172">
        <ele>144</ele>
        <time>2023-03-22T16:29:24Z</time>
      </trkpt>
      <trkpt lat="43.52632" lon="1.51179">
        <ele>144</ele>
        <time>2023-03-22T16:29:25Z</time>
      </trkpt>
      <trkpt lat="43.52631" lon="1.51183">
        <ele>144</ele>
        <time>2023-03-22T16:29:26Z</time>
      </trkpt>
      <trkpt lat="43.52631" lon="1.51186">
        <ele>144</ele>
        <time>2023-03-22T16:29:27Z</time>
      </trkpt>
      <trkpt lat="43.52631" lon="1.51189">
        <ele>144</ele>
        <time>2023-03-22T16:29:28Z</time>
      </trkpt>
      <trkpt lat="43.52631" lon="1.51189">
        <ele>144</ele>
        <time>2023-03-22T16:29:29Z</time>
      </trkpt>
      <trkpt lat="43.5263" lon="1.51193">
        <ele>144</ele>
        <time>2023-03-22T16:29:30Z</time>
      </trkpt>
      <trkpt lat="43.52629" lon="1.512">
        <ele>144</ele>
        <time>2023-03-22T16:29:31Z</time>
      </trkpt>
      <trkpt lat="43.52629" lon="1.512">
        <ele>144</ele>
        <time>2023-03-22T16:29:32Z</time>
      </trkpt>
      <trkpt lat="43.52628" lon="1.51204">
        <ele>144</ele>
        <time>2023-03-22T16:29:33Z</time>
      </trkpt>
      <trkpt lat="43.52627" lon="1.51212">
        <ele>144</ele>
        <time>2023-03-22T16:29:34Z</time>
      </trkpt>
      <trkpt lat="43.52627" lon="1.51212">
        <ele>144</ele>
        <time>2023-03-22T16:29:35Z</time>
      </trkpt>
      <trkpt lat="43.52626" lon="1.51215">
        <ele>145</ele>
        <time>2023-03-22T16:29:36Z</time>
      </trkpt>
      <trkpt lat="43.52626" lon="1.51219">
        <ele>145</ele>
        <time>2023-03-22T16:29:37Z</time>
      </trkpt>
      <trkpt lat="43.52625" lon="1.51225">
        <ele>145</ele>
        <time>2023-03-22T16:29:38Z</time>
      </trkpt>
      <trkpt lat="43.52624" lon="1.51229">
        <ele>145</ele>
        <time>2023-03-22T16:29:39Z</time>
      </trkpt>
      <trkpt lat="43.52624" lon="1.51229">
        <ele>145</ele>
        <time>2023-03-22T16:29:40Z</time>
      </trkpt>
      <trkpt lat="43.52624" lon="1.51236">
        <ele>145</ele>
        <time>2023-03-22T16:29:41Z</time>
      </trkpt>
      <trkpt lat="43.52624" lon="1.5124">
        <ele>145</ele>
        <time>2023-03-22T16:29:42Z</time>
      </trkpt>
      <trkpt lat="43.52625" lon="1.51243">
        <ele>145</ele>
        <time>2023-03-22T16:29:43Z</time>
      </trkpt>
      <trkpt lat="43.52625" lon="1.51247">
        <ele>145</ele>
        <time>2023-03-22T16:29:44Z</time>
      </trkpt>
      <trkpt lat="43.52625" lon="1.51247">
        <ele>145</ele>
        <time>2023-03-22T16:29:45Z</time>
      </trkpt>
      <trkpt lat="43.52625" lon="1.51254">
        <ele>145</ele>
        <time>2023-03-22T16:29:46Z</time>
      </trkpt>
      <trkpt lat="43.52625" lon="1.51258">
        <ele>145</ele>
        <time>2023-03-22T16:29:47Z</time>
      </trkpt>
      <trkpt lat="43.52625" lon="1.51262">
        <ele>145</ele>
        <time>2023-03-22T16:29:48Z</time>
      </trkpt>
      <trkpt lat="43.52625" lon="1.51262">
        <ele>145</ele>
        <time>2023-03-22T16:29:49Z</time>
      </trkpt>
      <trkpt lat="43.52625" lon="1.51265">
        <ele>145</ele>
        <time>2023-03-22T16:29:50Z</time>
      </trkpt>
      <trkpt lat="43.52624" lon="1.51269">
        <ele>145</ele>
        <time>2023-03-22T16:29:51Z</time>
      </trkpt>
      <trkpt lat="43.52622" lon="1.51276">
        <ele>145</ele>
        <time>2023-03-22T16:29:52Z</time>
      </trkpt>
      <trkpt lat="43.52622" lon="1.51276">
        <ele>145</ele>
        <time>2023-03-22T16:29:53Z</time>
      </trkpt>
      <trkpt lat="43.52622" lon="1.51279">
        <ele>145</ele>
        <time>2023-03-22T16:29:54Z</time>
      </trkpt>
      <trkpt lat="43.52621" lon="1.51285">
        <ele>145</ele>
        <time>2023-03-22T16:29:55Z</time>
      </trkpt>
      <trkpt lat="43.52621" lon="1.51289">
        <ele>145</ele>
        <time>2023-03-22T16:29:56Z</time>
      </trkpt>
      <trkpt lat="43.52621" lon="1.51292">
        <ele>145</ele>
        <time>2023-03-22T16:29:57Z</time>
      </trkpt>
      <trkpt lat="43.52621" lon="1.51292">
        <ele>145</ele>
        <time>2023-03-22T16:29:58Z</time>
      </trkpt>
      <trkpt lat="43.52621" lon="1.51295">
        <ele>145</ele>
        <time>2023-03-22T16:29:59Z</time>
      </trkpt>
      <trkpt lat="43.5262" lon="1.51298">
        <ele>145</ele>
        <time>2023-03-22T16:30:00Z</time>
      </trkpt>
      <trkpt lat="43.52619" lon="1.51301">
        <ele>145</ele>
        <time>2023-03-22T16:30:01Z</time>
      </trkpt>
      <trkpt lat="43.52619" lon="1.51308">
        <ele>145</ele>
        <time>2023-03-22T16:30:02Z</time>
      </trkpt>
      <trkpt lat="43.52618" lon="1.51311">
        <ele>145</ele>
        <time>2023-03-22T16:30:03Z</time>
      </trkpt>
      <trkpt lat="43.52618" lon="1.51311">
        <ele>145</ele>
        <time>2023-03-22T16:30:04Z</time>
      </trkpt>
      <trkpt lat="43.52618" lon="1.51318">
        <ele>145</ele>
        <time>2023-03-22T16:30:05Z</time>
      </trkpt>
      <trkpt lat="43.52618" lon="1.51321">
        <ele>145</ele>
        <time>2023-03-22T16:30:06Z</time>
      </trkpt>
      <trkpt lat="43.52618" lon="1.51324">
        <ele>145</ele>
        <time>2023-03-22T16:30:07Z</time>
      </trkpt>
      <trkpt lat="43.52618" lon="1.51324">
        <ele>146</ele>
        <time>2023-03-22T16:30:08Z</time>
      </trkpt>
      <trkpt lat="43.52618" lon="1.51331">
        <ele>146</ele>
        <time>2023-03-22T16:30:09Z</time>
      </trkpt>
      <trkpt lat="43.52618" lon="1.51331">
        <ele>146</ele>
        <time>2023-03-22T16:30:10Z</time>
      </trkpt>
      <trkpt lat="43.52618" lon="1.51338">
        <ele>146</ele>
        <time>2023-03-22T16:30:11Z</time>
      </trkpt>
      <trkpt lat="43.52618" lon="1.51341">
        <ele>146</ele>
        <time>2023-03-22T16:30:12Z</time>
      </trkpt>
      <trkpt lat="43.52619" lon="1.51345">
        <ele>146</ele>
        <time>2023-03-22T16:30:13Z</time>
      </trkpt>
      <trkpt lat="43.52619" lon="1.51349">
        <ele>146</ele>
        <time>2023-03-22T16:30:14Z</time>
      </trkpt>
      <trkpt lat="43.52619" lon="1.51353">
        <ele>146</ele>
        <time>2023-03-22T16:30:15Z</time>
      </trkpt>
      <trkpt lat="43.52619" lon="1.51356">
        <ele>146</ele>
        <time>2023-03-22T16:30:16Z</time>
      </trkpt>
      <trkpt lat="43.52619" lon="1.5136">
        <ele>146</ele>
        <time>2023-03-22T16:30:17Z</time>
      </trkpt>
      <trkpt lat="43.52619" lon="1.51363">
        <ele>146</ele>
        <time>2023-03-22T16:30:18Z</time>
      </trkpt>
      <trkpt lat="43.52619" lon="1.51363">
        <ele>146</ele>
        <time>2023-03-22T16:30:19Z</time>
      </trkpt>
      <trkpt lat="43.52619" lon="1.51367">
        <ele>146</ele>
        <time>2023-03-22T16:30:20Z</time>
      </trkpt>
      <trkpt lat="43.52619" lon="1.51374">
        <ele>146</ele>
        <time>2023-03-22T16:30:21Z</time>
      </trkpt>
      <trkpt lat="43.52619" lon="1.51374">
        <ele>146</ele>
        <time>2023-03-22T16:30:22Z</time>
      </trkpt>
      <trkpt lat="43.52619" lon="1.51378">
        <ele>146</ele>
        <time>2023-03-22T16:30:23Z</time>
      </trkpt>
      <trkpt lat="43.52619" lon="1.51386">
        <ele>146</ele>
        <time>2023-03-22T16:30:24Z</time>
      </trkpt>
      <trkpt lat="43.52618" lon="1.51389">
        <ele>146</ele>
        <time>2023-03-22T16:30:25Z</time>
      </trkpt>
      <trkpt lat="43.52618" lon="1.51393">
        <ele>146</ele>
        <time>2023-03-22T16:30:26Z</time>
      </trkpt>
      <trkpt lat="43.52618" lon="1.51393">
        <ele>146</ele>
        <time>2023-03-22T16:30:27Z</time>
      </trkpt>
      <trkpt lat="43.52618" lon="1.514">
        <ele>146</ele>
        <time>2023-03-22T16:30:28Z</time>
      </trkpt>
      <trkpt lat="43.52618" lon="1.51403">
        <ele>146</ele>
        <time>2023-03-22T16:30:29Z</time>
      </trkpt>
      <trkpt lat="43.52617" lon="1.51407">
        <ele>145</ele>
        <time>2023-03-22T16:30:30Z</time>
      </trkpt>
      <trkpt lat="43.52617" lon="1.5141">
        <ele>145</ele>
        <time>2023-03-22T16:30:31Z</time>
      </trkpt>
      <trkpt lat="43.52617" lon="1.5141">
        <ele>145</ele>
        <time>2023-03-22T16:30:32Z</time>
      </trkpt>
      <trkpt lat="43.52616" lon="1.51414">
        <ele>145</ele>
        <time>2023-03-22T16:30:33Z</time>
      </trkpt>
      <trkpt lat="43.52616" lon="1.51417">
        <ele>145</ele>
        <time>2023-03-22T16:30:34Z</time>
      </trkpt>
      <trkpt lat="43.52615" lon="1.5142">
        <ele>145</ele>
        <time>2023-03-22T16:30:35Z</time>
      </trkpt>
      <trkpt lat="43.52615" lon="1.51423">
        <ele>145</ele>
        <time>2023-03-22T16:30:36Z</time>
      </trkpt>
      <trkpt lat="43.52614" lon="1.5143">
        <ele>145</ele>
        <time>2023-03-22T16:30:37Z</time>
      </trkpt>
      <trkpt lat="43.52614" lon="1.5143">
        <ele>145</ele>
        <time>2023-03-22T16:30:38Z</time>
      </trkpt>
      <trkpt lat="43.52613" lon="1.51433">
        <ele>145</ele>
        <time>2023-03-22T16:30:39Z</time>
      </trkpt>
      <trkpt lat="43.52612" lon="1.5144">
        <ele>145</ele>
        <time>2023-03-22T16:30:40Z</time>
      </trkpt>
      <trkpt lat="43.52612" lon="1.5144">
        <ele>145</ele>
        <time>2023-03-22T16:30:41Z</time>
      </trkpt>
      <trkpt lat="43.52611" lon="1.51443">
        <ele>145</ele>
        <time>2023-03-22T16:30:42Z</time>
      </trkpt>
      <trkpt lat="43.52611" lon="1.5145">
        <ele>145</ele>
        <time>2023-03-22T16:30:43Z</time>
      </trkpt>
      <trkpt lat="43.52611" lon="1.5145">
        <ele>145</ele>
        <time>2023-03-22T16:30:44Z</time>
      </trkpt>
      <trkpt lat="43.52609" lon="1.51457">
        <ele>145</ele>
        <time>2023-03-22T16:30:45Z</time>
      </trkpt>
      <trkpt lat="43.52609" lon="1.51457">
        <ele>144</ele>
        <time>2023-03-22T16:30:46Z</time>
      </trkpt>
      <trkpt lat="43.52608" lon="1.51461">
        <ele>144</ele>
        <time>2023-03-22T16:30:47Z</time>
      </trkpt>
      <trkpt lat="43.52608" lon="1.51465">
        <ele>144</ele>
        <time>2023-03-22T16:30:48Z</time>
      </trkpt>
      <trkpt lat="43.52607" lon="1.51472">
        <ele>144</ele>
        <time>2023-03-22T16:30:49Z</time>
      </trkpt>
      <trkpt lat="43.52607" lon="1.51475">
        <ele>144</ele>
        <time>2023-03-22T16:30:50Z</time>
      </trkpt>
      <trkpt lat="43.52607" lon="1.51475">
        <ele>144</ele>
        <time>2023-03-22T16:30:51Z</time>
      </trkpt>
      <trkpt lat="43.52607" lon="1.51478">
        <ele>144</ele>
        <time>2023-03-22T16:30:52Z</time>
      </trkpt>
      <trkpt lat="43.52606" lon="1.51481">
        <ele>144</ele>
        <time>2023-03-22T16:30:53Z</time>
      </trkpt>
      <trkpt lat="43.52606" lon="1.51488">
        <ele>144</ele>
        <time>2023-03-22T16:30:54Z</time>
      </trkpt>
      <trkpt lat="43.52606" lon="1.51488">
        <ele>144</ele>
        <time>2023-03-22T16:30:55Z</time>
      </trkpt>
      <trkpt lat="43.52606" lon="1.51491">
        <ele>144</ele>
        <time>2023-03-22T16:30:56Z</time>
      </trkpt>
      <trkpt lat="43.52605" lon="1.51495">
        <ele>144</ele>
        <time>2023-03-22T16:30:57Z</time>
      </trkpt>
      <trkpt lat="43.52605" lon="1.51498">
        <ele>144</ele>
        <time>2023-03-22T16:30:58Z</time>
      </trkpt>
      <trkpt lat="43.52605" lon="1.51501">
        <ele>144</ele>
        <time>2023-03-22T16:30:59Z</time>
      </trkpt>
      <trkpt lat="43.52604" lon="1.51504">
        <ele>144</ele>
        <time>2023-03-22T16:31:00Z</time>
      </trkpt>
      <trkpt lat="43.52603" lon="1.51507">
        <ele>144</ele>
        <time>2023-03-22T16:31:01Z</time>
      </trkpt>
      <trkpt lat="43.52601" lon="1.51514">
        <ele>144</ele>
        <time>2023-03-22T16:31:02Z</time>
      </trkpt>
      <trkpt lat="43.52601" lon="1.51518">
        <ele>144</ele>
        <time>2023-03-22T16:31:03Z</time>
      </trkpt>
      <trkpt lat="43.52599" lon="1.51521">
        <ele>144</ele>
        <time>2023-03-22T16:31:04Z</time>
      </trkpt>
      <trkpt lat="43.52599" lon="1.51525">
        <ele>144</ele>
        <time>2023-03-22T16:31:05Z</time>
      </trkpt>
      <trkpt lat="43.52599" lon="1.51529">
        <ele>144</ele>
        <time>2023-03-22T16:31:06Z</time>
      </trkpt>
      <trkpt lat="43.52599" lon="1.51529">
        <ele>144</ele>
        <time>2023-03-22T16:31:07Z</time>
      </trkpt>
      <trkpt lat="43.52598" lon="1.51536">
        <ele>144</ele>
        <time>2023-03-22T16:31:08Z</time>
      </trkpt>
      <trkpt lat="43.52598" lon="1.51536">
        <ele>144</ele>
        <time>2023-03-22T16:31:09Z</time>
      </trkpt>
      <trkpt lat="43.52598" lon="1.51539">
        <ele>144</ele>
        <time>2023-03-22T16:31:10Z</time>
      </trkpt>
      <trkpt lat="43.52598" lon="1.51543">
        <ele>144</ele>
        <time>2023-03-22T16:31:11Z</time>
      </trkpt>
      <trkpt lat="43.52597" lon="1.5155">
        <ele>144</ele>
        <time>2023-03-22T16:31:12Z</time>
      </trkpt>
      <trkpt lat="43.52597" lon="1.5155">
        <ele>144</ele>
        <time>2023-03-22T16:31:13Z</time>
      </trkpt>
      <trkpt lat="43.52597" lon="1.51553">
        <ele>144</ele>
        <time>2023-03-22T16:31:14Z</time>
      </trkpt>
      <trkpt lat="43.52596" lon="1.51556">
        <ele>144</ele>
        <time>2023-03-22T16:31:15Z</time>
      </trkpt>
      <trkpt lat="43.52596" lon="1.51564">
        <ele>144</ele>
        <time>2023-03-22T16:31:16Z</time>
      </trkpt>
      <trkpt lat="43.52596" lon="1.51564">
        <ele>144</ele>
        <time>2023-03-22T16:31:17Z</time>
      </trkpt>
      <trkpt lat="43.52594" lon="1.51566">
        <ele>144</ele>
        <time>2023-03-22T16:31:18Z</time>
      </trkpt>
      <trkpt lat="43.5259" lon="1.51568">
        <ele>144</ele>
        <time>2023-03-22T16:31:19Z</time>
      </trkpt>
      <trkpt lat="43.52587" lon="1.51569">
        <ele>144</ele>
        <time>2023-03-22T16:31:20Z</time>
      </trkpt>
      <trkpt lat="43.52587" lon="1.51569">
        <ele>144</ele>
        <time>2023-03-22T16:31:21Z</time>
      </trkpt>
      <trkpt lat="43.52585" lon="1.5157">
        <ele>144</ele>
        <time>2023-03-22T16:31:22Z</time>
      </trkpt>
      <trkpt lat="43.5258" lon="1.51573">
        <ele>144</ele>
        <time>2023-03-22T16:31:23Z</time>
      </trkpt>
      <trkpt lat="43.52579" lon="1.51575">
        <ele>144</ele>
        <time>2023-03-22T16:31:24Z</time>
      </trkpt>
      <trkpt lat="43.52579" lon="1.51575">
        <ele>144</ele>
        <time>2023-03-22T16:31:25Z</time>
      </trkpt>
      <trkpt lat="43.52577" lon="1.51576">
        <ele>144</ele>
        <time>2023-03-22T16:31:26Z</time>
      </trkpt>
      <trkpt lat="43.52575" lon="1.51579">
        <ele>144</ele>
        <time>2023-03-22T16:31:27Z</time>
      </trkpt>
      <trkpt lat="43.52572" lon="1.51583">
        <ele>145</ele>
        <time>2023-03-22T16:31:28Z</time>
      </trkpt>
      <trkpt lat="43.52572" lon="1.51583">
        <ele>145</ele>
        <time>2023-03-22T16:31:29Z</time>
      </trkpt>
      <trkpt lat="43.5257" lon="1.51586">
        <ele>145</ele>
        <time>2023-03-22T16:31:30Z</time>
      </trkpt>
      <trkpt lat="43.52569" lon="1.51589">
        <ele>145</ele>
        <time>2023-03-22T16:31:31Z</time>
      </trkpt>
      <trkpt lat="43.52568" lon="1.51592">
        <ele>144</ele>
        <time>2023-03-22T16:31:32Z</time>
      </trkpt>
      <trkpt lat="43.52567" lon="1.51595">
        <ele>144</ele>
        <time>2023-03-22T16:31:33Z</time>
      </trkpt>
      <trkpt lat="43.52566" lon="1.51598">
        <ele>144</ele>
        <time>2023-03-22T16:31:34Z</time>
      </trkpt>
      <trkpt lat="43.52565" lon="1.51602">
        <ele>144</ele>
        <time>2023-03-22T16:31:35Z</time>
      </trkpt>
      <trkpt lat="43.52564" lon="1.51606">
        <ele>144</ele>
        <time>2023-03-22T16:31:36Z</time>
      </trkpt>
      <trkpt lat="43.52562" lon="1.51611">
        <ele>144</ele>
        <time>2023-03-22T16:31:37Z</time>
      </trkpt>
      <trkpt lat="43.52561" lon="1.51615">
        <ele>144</ele>
        <time>2023-03-22T16:31:38Z</time>
      </trkpt>
      <trkpt lat="43.52561" lon="1.51615">
        <ele>144</ele>
        <time>2023-03-22T16:31:39Z</time>
      </trkpt>
      <trkpt lat="43.5256" lon="1.51621">
        <ele>144</ele>
        <time>2023-03-22T16:31:40Z</time>
      </trkpt>
      <trkpt lat="43.5256" lon="1.51621">
        <ele>144</ele>
        <time>2023-03-22T16:31:41Z</time>
      </trkpt>
      <trkpt lat="43.52558" lon="1.51627">
        <ele>144</ele>
        <time>2023-03-22T16:31:42Z</time>
      </trkpt>
      <trkpt lat="43.52558" lon="1.51627">
        <ele>144</ele>
        <time>2023-03-22T16:31:43Z</time>
      </trkpt>
      <trkpt lat="43.52558" lon="1.5163">
        <ele>144</ele>
        <time>2023-03-22T16:31:44Z</time>
      </trkpt>
      <trkpt lat="43.52556" lon="1.51636">
        <ele>144</ele>
        <time>2023-03-22T16:31:45Z</time>
      </trkpt>
      <trkpt lat="43.52555" lon="1.51639">
        <ele>144</ele>
        <time>2023-03-22T16:31:46Z</time>
      </trkpt>
      <trkpt lat="43.52554" lon="1.51641">
        <ele>144</ele>
        <time>2023-03-22T16:31:47Z</time>
      </trkpt>
      <trkpt lat="43.52554" lon="1.51641">
        <ele>144</ele>
        <time>2023-03-22T16:31:48Z</time>
      </trkpt>
      <trkpt lat="43.52552" lon="1.51646">
        <ele>143</ele>
        <time>2023-03-22T16:31:49Z</time>
      </trkpt>
      <trkpt lat="43.52552" lon="1.51646">
        <ele>143</ele>
        <time>2023-03-22T16:31:50Z</time>
      </trkpt>
      <trkpt lat="43.52551" lon="1.51649">
        <ele>144</ele>
        <time>2023-03-22T16:31:51Z</time>
      </trkpt>
      <trkpt lat="43.52551" lon="1.51652">
        <ele>144</ele>
        <time>2023-03-22T16:31:52Z</time>
      </trkpt>
      <trkpt lat="43.52549" lon="1.51659">
        <ele>144</ele>
        <time>2023-03-22T16:31:53Z</time>
      </trkpt>
      <trkpt lat="43.52548" lon="1.51662">
        <ele>144</ele>
        <time>2023-03-22T16:31:54Z</time>
      </trkpt>
      <trkpt lat="43.52547" lon="1.51665">
        <ele>144</ele>
        <time>2023-03-22T16:31:55Z</time>
      </trkpt>
      <trkpt lat="43.52546" lon="1.51669">
        <ele>144</ele>
        <time>2023-03-22T16:31:56Z</time>
      </trkpt>
      <trkpt lat="43.52544" lon="1.51672">
        <ele>144</ele>
        <time>2023-03-22T16:31:57Z</time>
      </trkpt>
      <trkpt lat="43.52544" lon="1.51672">
        <ele>144</ele>
        <time>2023-03-22T16:31:58Z</time>
      </trkpt>
      <trkpt lat="43.52542" lon="1.51678">
        <ele>144</ele>
        <time>2023-03-22T16:31:59Z</time>
      </trkpt>
      <trkpt lat="43.52542" lon="1.51678">
        <ele>144</ele>
        <time>2023-03-22T16:32:00Z</time>
      </trkpt>
      <trkpt lat="43.52539" lon="1.51685">
        <ele>144</ele>
        <time>2023-03-22T16:32:01Z</time>
      </trkpt>
      <trkpt lat="43.52539" lon="1.51685">
        <ele>144</ele>
        <time>2023-03-22T16:32:02Z</time>
      </trkpt>
      <trkpt lat="43.52538" lon="1.51689">
        <ele>144</ele>
        <time>2023-03-22T16:32:03Z</time>
      </trkpt>
      <trkpt lat="43.52537" lon="1.51692">
        <ele>144</ele>
        <time>2023-03-22T16:32:04Z</time>
      </trkpt>
      <trkpt lat="43.52533" lon="1.51698">
        <ele>144</ele>
        <time>2023-03-22T16:32:05Z</time>
      </trkpt>
      <trkpt lat="43.52532" lon="1.51701">
        <ele>144</ele>
        <time>2023-03-22T16:32:06Z</time>
      </trkpt>
      <trkpt lat="43.52532" lon="1.51701">
        <ele>144</ele>
        <time>2023-03-22T16:32:07Z</time>
      </trkpt>
      <trkpt lat="43.5253" lon="1.51704">
        <ele>144</ele>
        <time>2023-03-22T16:32:08Z</time>
      </trkpt>
      <trkpt lat="43.52528" lon="1.51707">
        <ele>144</ele>
        <time>2023-03-22T16:32:09Z</time>
      </trkpt>
      <trkpt lat="43.52525" lon="1.51713">
        <ele>144</ele>
        <time>2023-03-22T16:32:10Z</time>
      </trkpt>
      <trkpt lat="43.52523" lon="1.51715">
        <ele>144</ele>
        <time>2023-03-22T16:32:11Z</time>
      </trkpt>
      <trkpt lat="43.52521" lon="1.51718">
        <ele>144</ele>
        <time>2023-03-22T16:32:12Z</time>
      </trkpt>
      <trkpt lat="43.52521" lon="1.51718">
        <ele>144</ele>
        <time>2023-03-22T16:32:13Z</time>
      </trkpt>
      <trkpt lat="43.52519" lon="1.51721">
        <ele>144</ele>
        <time>2023-03-22T16:32:14Z</time>
      </trkpt>
      <trkpt lat="43.52517" lon="1.51724">
        <ele>144</ele>
        <time>2023-03-22T16:32:15Z</time>
      </trkpt>
      <trkpt lat="43.52514" lon="1.51729">
        <ele>144</ele>
        <time>2023-03-22T16:32:16Z</time>
      </trkpt>
      <trkpt lat="43.52512" lon="1.51731">
        <ele>144</ele>
        <time>2023-03-22T16:32:17Z</time>
      </trkpt>
      <trkpt lat="43.52511" lon="1.51734">
        <ele>144</ele>
        <time>2023-03-22T16:32:18Z</time>
      </trkpt>
      <trkpt lat="43.5251" lon="1.51736">
        <ele>144</ele>
        <time>2023-03-22T16:32:19Z</time>
      </trkpt>
      <trkpt lat="43.52509" lon="1.51738">
        <ele>144</ele>
        <time>2023-03-22T16:32:20Z</time>
      </trkpt>
      <trkpt lat="43.52509" lon="1.51738">
        <ele>144</ele>
        <time>2023-03-22T16:32:21Z</time>
      </trkpt>
      <trkpt lat="43.52505" lon="1.51744">
        <ele>144</ele>
        <time>2023-03-22T16:32:22Z</time>
      </trkpt>
      <trkpt lat="43.52505" lon="1.51744">
        <ele>144</ele>
        <time>2023-03-22T16:32:23Z</time>
      </trkpt>
      <trkpt lat="43.52504" lon="1.51746">
        <ele>144</ele>
        <time>2023-03-22T16:32:24Z</time>
      </trkpt>
      <trkpt lat="43.52503" lon="1.51749">
        <ele>144</ele>
        <time>2023-03-22T16:32:25Z</time>
      </trkpt>
      <trkpt lat="43.52501" lon="1.51752">
        <ele>145</ele>
        <time>2023-03-22T16:32:26Z</time>
      </trkpt>
      <trkpt lat="43.52498" lon="1.51758">
        <ele>145</ele>
        <time>2023-03-22T16:32:27Z</time>
      </trkpt>
      <trkpt lat="43.52498" lon="1.51758">
        <ele>145</ele>
        <time>2023-03-22T16:32:28Z</time>
      </trkpt>
      <trkpt lat="43.52495" lon="1.51765">
        <ele>145</ele>
        <time>2023-03-22T16:32:29Z</time>
      </trkpt>
      <trkpt lat="43.52495" lon="1.51765">
        <ele>144</ele>
        <time>2023-03-22T16:32:30Z</time>
      </trkpt>
      <trkpt lat="43.52494" lon="1.51768">
        <ele>144</ele>
        <time>2023-03-22T16:32:31Z</time>
      </trkpt>
      <trkpt lat="43.52491" lon="1.51774">
        <ele>144</ele>
        <time>2023-03-22T16:32:32Z</time>
      </trkpt>
      <trkpt lat="43.52491" lon="1.51774">
        <ele>144</ele>
        <time>2023-03-22T16:32:33Z</time>
      </trkpt>
      <trkpt lat="43.52489" lon="1.51777">
        <ele>144</ele>
        <time>2023-03-22T16:32:34Z</time>
      </trkpt>
      <trkpt lat="43.52487" lon="1.51779">
        <ele>144</ele>
        <time>2023-03-22T16:32:35Z</time>
      </trkpt>
      <trkpt lat="43.52484" lon="1.51784">
        <ele>144</ele>
        <time>2023-03-22T16:32:36Z</time>
      </trkpt>
      <trkpt lat="43.52482" lon="1.51786">
        <ele>144</ele>
        <time>2023-03-22T16:32:37Z</time>
      </trkpt>
      <trkpt lat="43.5248" lon="1.51789">
        <ele>144</ele>
        <time>2023-03-22T16:32:38Z</time>
      </trkpt>
      <trkpt lat="43.52478" lon="1.51791">
        <ele>144</ele>
        <time>2023-03-22T16:32:39Z</time>
      </trkpt>
      <trkpt lat="43.52478" lon="1.51791">
        <ele>144</ele>
        <time>2023-03-22T16:32:40Z</time>
      </trkpt>
      <trkpt lat="43.52473" lon="1.51794">
        <ele>144</ele>
        <time>2023-03-22T16:32:41Z</time>
      </trkpt>
      <trkpt lat="43.52473" lon="1.51794">
        <ele>144</ele>
        <time>2023-03-22T16:32:42Z</time>
      </trkpt>
      <trkpt lat="43.52468" lon="1.51797">
        <ele>144</ele>
        <time>2023-03-22T16:32:43Z</time>
      </trkpt>
      <trkpt lat="43.52465" lon="1.51798">
        <ele>144</ele>
        <time>2023-03-22T16:32:44Z</time>
      </trkpt>
      <trkpt lat="43.52465" lon="1.51798">
        <ele>145</ele>
        <time>2023-03-22T16:32:45Z</time>
      </trkpt>
      <trkpt lat="43.52463" lon="1.518">
        <ele>145</ele>
        <time>2023-03-22T16:32:46Z</time>
      </trkpt>
      <trkpt lat="43.5246" lon="1.51802">
        <ele>145</ele>
        <time>2023-03-22T16:32:47Z</time>
      </trkpt>
      <trkpt lat="43.52458" lon="1.51803">
        <ele>145</ele>
        <time>2023-03-22T16:32:48Z</time>
      </trkpt>
      <trkpt lat="43.52455" lon="1.51805">
        <ele>145</ele>
        <time>2023-03-22T16:32:49Z</time>
      </trkpt>
      <trkpt lat="43.5245" lon="1.51808">
        <ele>145</ele>
        <time>2023-03-22T16:32:50Z</time>
      </trkpt>
      <trkpt lat="43.5245" lon="1.51808">
        <ele>145</ele>
        <time>2023-03-22T16:32:51Z</time>
      </trkpt>
      <trkpt lat="43.52448" lon="1.51809">
        <ele>145</ele>
        <time>2023-03-22T16:32:52Z</time>
      </trkpt>
      <trkpt lat="43.52443" lon="1.51812">
        <ele>145</ele>
        <time>2023-03-22T16:32:53Z</time>
      </trkpt>
      <trkpt lat="43.5244" lon="1.51813">
        <ele>145</ele>
        <time>2023-03-22T16:32:54Z</time>
      </trkpt>
      <trkpt lat="43.52438" lon="1.51814">
        <ele>145</ele>
        <time>2023-03-22T16:32:55Z</time>
      </trkpt>
      <trkpt lat="43.52436" lon="1.51815">
        <ele>145</ele>
        <time>2023-03-22T16:32:56Z</time>
      </trkpt>
      <trkpt lat="43.52433" lon="1.51815">
        <ele>145</ele>
        <time>2023-03-22T16:32:57Z</time>
      </trkpt>
      <trkpt lat="43.52431" lon="1.51816">
        <ele>145</ele>
        <time>2023-03-22T16:32:58Z</time>
      </trkpt>
      <trkpt lat="43.52431" lon="1.51816">
        <ele>145</ele>
        <time>2023-03-22T16:32:59Z</time>
      </trkpt>
      <trkpt lat="43.52425" lon="1.51817">
        <ele>145</ele>
        <time>2023-03-22T16:33:00Z</time>
      </trkpt>
      <trkpt lat="43.52423" lon="1.51816">
        <ele>145</ele>
        <time>2023-03-22T16:33:01Z</time>
      </trkpt>
      <trkpt lat="43.5242" lon="1.51816">
        <ele>145</ele>
        <time>2023-03-22T16:33:02Z</time>
      </trkpt>
      <trkpt lat="43.52418" lon="1.51816">
        <ele>145</ele>
        <time>2023-03-22T16:33:03Z</time>
      </trkpt>
      <trkpt lat="43.52415" lon="1.51815">
        <ele>145</ele>
        <time>2023-03-22T16:33:04Z</time>
      </trkpt>
      <trkpt lat="43.52413" lon="1.51815">
        <ele>145</ele>
        <time>2023-03-22T16:33:05Z</time>
      </trkpt>
      <trkpt lat="43.52413" lon="1.51815">
        <ele>145</ele>
        <time>2023-03-22T16:33:06Z</time>
      </trkpt>
      <trkpt lat="43.52411" lon="1.51816">
        <ele>145</ele>
        <time>2023-03-22T16:33:07Z</time>
      </trkpt>
      <trkpt lat="43.52408" lon="1.51815">
        <ele>145</ele>
        <time>2023-03-22T16:33:08Z</time>
      </trkpt>
      <trkpt lat="43.52406" lon="1.51815">
        <ele>145</ele>
        <time>2023-03-22T16:33:09Z</time>
      </trkpt>
      <trkpt lat="43.524" lon="1.51815">
        <ele>145</ele>
        <time>2023-03-22T16:33:10Z</time>
      </trkpt>
      <trkpt lat="43.52398" lon="1.51815">
        <ele>145</ele>
        <time>2023-03-22T16:33:11Z</time>
      </trkpt>
      <trkpt lat="43.52395" lon="1.51815">
        <ele>145</ele>
        <time>2023-03-22T16:33:12Z</time>
      </trkpt>
      <trkpt lat="43.52392" lon="1.51815">
        <ele>146</ele>
        <time>2023-03-22T16:33:13Z</time>
      </trkpt>
      <trkpt lat="43.5239" lon="1.51815">
        <ele>146</ele>
        <time>2023-03-22T16:33:14Z</time>
      </trkpt>
      <trkpt lat="43.52387" lon="1.51816">
        <ele>146</ele>
        <time>2023-03-22T16:33:15Z</time>
      </trkpt>
      <trkpt lat="43.52385" lon="1.51817">
        <ele>146</ele>
        <time>2023-03-22T16:33:16Z</time>
      </trkpt>
      <trkpt lat="43.52382" lon="1.51818">
        <ele>146</ele>
        <time>2023-03-22T16:33:17Z</time>
      </trkpt>
      <trkpt lat="43.52382" lon="1.51818">
        <ele>146</ele>
        <time>2023-03-22T16:33:18Z</time>
      </trkpt>
      <trkpt lat="43.52377" lon="1.51819">
        <ele>146</ele>
        <time>2023-03-22T16:33:19Z</time>
      </trkpt>
      <trkpt lat="43.52377" lon="1.51819">
        <ele>146</ele>
        <time>2023-03-22T16:33:20Z</time>
      </trkpt>
      <trkpt lat="43.52375" lon="1.51819">
        <ele>146</ele>
        <time>2023-03-22T16:33:21Z</time>
      </trkpt>
      <trkpt lat="43.52372" lon="1.51819">
        <ele>146</ele>
        <time>2023-03-22T16:33:22Z</time>
      </trkpt>
      <trkpt lat="43.52367" lon="1.5182">
        <ele>146</ele>
        <time>2023-03-22T16:33:23Z</time>
      </trkpt>
      <trkpt lat="43.52365" lon="1.51821">
        <ele>146</ele>
        <time>2023-03-22T16:33:24Z</time>
      </trkpt>
      <trkpt lat="43.52365" lon="1.51821">
        <ele>147</ele>
        <time>2023-03-22T16:33:25Z</time>
      </trkpt>
      <trkpt lat="43.52362" lon="1.51822">
        <ele>147</ele>
        <time>2023-03-22T16:33:26Z</time>
      </trkpt>
      <trkpt lat="43.5236" lon="1.51823">
        <ele>146</ele>
        <time>2023-03-22T16:33:27Z</time>
      </trkpt>
      <trkpt lat="43.52357" lon="1.51824">
        <ele>146</ele>
        <time>2023-03-22T16:33:28Z</time>
      </trkpt>
      <trkpt lat="43.52355" lon="1.51825">
        <ele>146</ele>
        <time>2023-03-22T16:33:29Z</time>
      </trkpt>
      <trkpt lat="43.52353" lon="1.51827">
        <ele>146</ele>
        <time>2023-03-22T16:33:30Z</time>
      </trkpt>
      <trkpt lat="43.52351" lon="1.51828">
        <ele>146</ele>
        <time>2023-03-22T16:33:31Z</time>
      </trkpt>
      <trkpt lat="43.52351" lon="1.51828">
        <ele>146</ele>
        <time>2023-03-22T16:33:32Z</time>
      </trkpt>
      <trkpt lat="43.52351" lon="1.51828">
        <ele>146</ele>
        <time>2023-03-22T16:33:33Z</time>
      </trkpt>
      <trkpt lat="43.52353" lon="1.51825">
        <ele>146</ele>
        <time>2023-03-22T16:33:34Z</time>
      </trkpt>
      <trkpt lat="43.52353" lon="1.51825">
        <ele>146</ele>
        <time>2023-03-22T16:33:35Z</time>
      </trkpt>
      <trkpt lat="43.52358" lon="1.51824">
        <ele>146</ele>
        <time>2023-03-22T16:33:36Z</time>
      </trkpt>
      <trkpt lat="43.52358" lon="1.51824">
        <ele>146</ele>
        <time>2023-03-22T16:33:37Z</time>
      </trkpt>
      <trkpt lat="43.52364" lon="1.51824">
        <ele>146</ele>
        <time>2023-03-22T16:33:38Z</time>
      </trkpt>
      <trkpt lat="43.52364" lon="1.51824">
        <ele>146</ele>
        <time>2023-03-22T16:33:39Z</time>
      </trkpt>
      <trkpt lat="43.52366" lon="1.51823">
        <ele>146</ele>
        <time>2023-03-22T16:33:40Z</time>
      </trkpt>
      <trkpt lat="43.52369" lon="1.51823">
        <ele>146</ele>
        <time>2023-03-22T16:33:41Z</time>
      </trkpt>
      <trkpt lat="43.52371" lon="1.51822">
        <ele>146</ele>
        <time>2023-03-22T16:33:42Z</time>
      </trkpt>
      <trkpt lat="43.52373" lon="1.51822">
        <ele>146</ele>
        <time>2023-03-22T16:33:43Z</time>
      </trkpt>
      <trkpt lat="43.52376" lon="1.51822">
        <ele>146</ele>
        <time>2023-03-22T16:33:44Z</time>
      </trkpt>
      <trkpt lat="43.52378" lon="1.51822">
        <ele>147</ele>
        <time>2023-03-22T16:33:45Z</time>
      </trkpt>
      <trkpt lat="43.52381" lon="1.51822">
        <ele>147</ele>
        <time>2023-03-22T16:33:46Z</time>
      </trkpt>
      <trkpt lat="43.52385" lon="1.51822">
        <ele>147</ele>
        <time>2023-03-22T16:33:47Z</time>
      </trkpt>
      <trkpt lat="43.52387" lon="1.51823">
        <ele>147</ele>
        <time>2023-03-22T16:33:48Z</time>
      </trkpt>
      <trkpt lat="43.52387" lon="1.51823">
        <ele>147</ele>
        <time>2023-03-22T16:33:49Z</time>
      </trkpt>
      <trkpt lat="43.52389" lon="1.51824">
        <ele>147</ele>
        <time>2023-03-22T16:33:50Z</time>
      </trkpt>
      <trkpt lat="43.52391" lon="1.51826">
        <ele>147</ele>
        <time>2023-03-22T16:33:51Z</time>
      </trkpt>
      <trkpt lat="43.52393" lon="1.51828">
        <ele>147</ele>
        <time>2023-03-22T16:33:52Z</time>
      </trkpt>
      <trkpt lat="43.52394" lon="1.5183">
        <ele>147</ele>
        <time>2023-03-22T16:33:53Z</time>
      </trkpt>
      <trkpt lat="43.52396" lon="1.51833">
        <ele>147</ele>
        <time>2023-03-22T16:33:54Z</time>
      </trkpt>
      <trkpt lat="43.52398" lon="1.51836">
        <ele>147</ele>
        <time>2023-03-22T16:33:55Z</time>
      </trkpt>
      <trkpt lat="43.52399" lon="1.51839">
        <ele>147</ele>
        <time>2023-03-22T16:33:56Z</time>
      </trkpt>
      <trkpt lat="43.52401" lon="1.51843">
        <ele>147</ele>
        <time>2023-03-22T16:33:57Z</time>
      </trkpt>
      <trkpt lat="43.52402" lon="1.51847">
        <ele>148</ele>
        <time>2023-03-22T16:33:58Z</time>
      </trkpt>
      <trkpt lat="43.52404" lon="1.51854">
        <ele>148</ele>
        <time>2023-03-22T16:33:59Z</time>
      </trkpt>
      <trkpt lat="43.52404" lon="1.51854">
        <ele>148</ele>
        <time>2023-03-22T16:34:00Z</time>
      </trkpt>
      <trkpt lat="43.52405" lon="1.51858">
        <ele>148</ele>
        <time>2023-03-22T16:34:01Z</time>
      </trkpt>
      <trkpt lat="43.52405" lon="1.51866">
        <ele>148</ele>
        <time>2023-03-22T16:34:02Z</time>
      </trkpt>
      <trkpt lat="43.52405" lon="1.51866">
        <ele>149</ele>
        <time>2023-03-22T16:34:03Z</time>
      </trkpt>
      <trkpt lat="43.52404" lon="1.51869">
        <ele>149</ele>
        <time>2023-03-22T16:34:04Z</time>
      </trkpt>
      <trkpt lat="43.52402" lon="1.51871">
        <ele>149</ele>
        <time>2023-03-22T16:34:05Z</time>
      </trkpt>
      <trkpt lat="43.52399" lon="1.51872">
        <ele>149</ele>
        <time>2023-03-22T16:34:06Z</time>
      </trkpt>
      <trkpt lat="43.52397" lon="1.51874">
        <ele>149</ele>
        <time>2023-03-22T16:34:07Z</time>
      </trkpt>
      <trkpt lat="43.52394" lon="1.51875">
        <ele>148</ele>
        <time>2023-03-22T16:34:08Z</time>
      </trkpt>
      <trkpt lat="43.52392" lon="1.51876">
        <ele>148</ele>
        <time>2023-03-22T16:34:09Z</time>
      </trkpt>
      <trkpt lat="43.52389" lon="1.51877">
        <ele>148</ele>
        <time>2023-03-22T16:34:10Z</time>
      </trkpt>
      <trkpt lat="43.52387" lon="1.51878">
        <ele>148</ele>
        <time>2023-03-22T16:34:11Z</time>
      </trkpt>
      <trkpt lat="43.52382" lon="1.51879">
        <ele>148</ele>
        <time>2023-03-22T16:34:12Z</time>
      </trkpt>
      <trkpt lat="43.52382" lon="1.51879">
        <ele>148</ele>
        <time>2023-03-22T16:34:13Z</time>
      </trkpt>
      <trkpt lat="43.5238" lon="1.5188">
        <ele>148</ele>
        <time>2023-03-22T16:34:14Z</time>
      </trkpt>
      <trkpt lat="43.52375" lon="1.51882">
        <ele>147</ele>
        <time>2023-03-22T16:34:15Z</time>
      </trkpt>
      <trkpt lat="43.52375" lon="1.51882">
        <ele>147</ele>
        <time>2023-03-22T16:34:16Z</time>
      </trkpt>
      <trkpt lat="43.52372" lon="1.51883">
        <ele>147</ele>
        <time>2023-03-22T16:34:17Z</time>
      </trkpt>
      <trkpt lat="43.52367" lon="1.51885">
        <ele>147</ele>
        <time>2023-03-22T16:34:18Z</time>
      </trkpt>
      <trkpt lat="43.52367" lon="1.51885">
        <ele>147</ele>
        <time>2023-03-22T16:34:19Z</time>
      </trkpt>
      <trkpt lat="43.52363" lon="1.51885">
        <ele>147</ele>
        <time>2023-03-22T16:34:20Z</time>
      </trkpt>
      <trkpt lat="43.5236" lon="1.51886">
        <ele>147</ele>
        <time>2023-03-22T16:34:21Z</time>
      </trkpt>
      <trkpt lat="43.52358" lon="1.51886">
        <ele>147</ele>
        <time>2023-03-22T16:34:22Z</time>
      </trkpt>
      <trkpt lat="43.52356" lon="1.51886">
        <ele>147</ele>
        <time>2023-03-22T16:34:23Z</time>
      </trkpt>
      <trkpt lat="43.52356" lon="1.51886">
        <ele>147</ele>
        <time>2023-03-22T16:34:24Z</time>
      </trkpt>
      <trkpt lat="43.52351" lon="1.51888">
        <ele>147</ele>
        <time>2023-03-22T16:34:25Z</time>
      </trkpt>
      <trkpt lat="43.52351" lon="1.51888">
        <ele>147</ele>
        <time>2023-03-22T16:34:26Z</time>
      </trkpt>
      <trkpt lat="43.52345" lon="1.5189">
        <ele>147</ele>
        <time>2023-03-22T16:34:27Z</time>
      </trkpt>
      <trkpt lat="43.52343" lon="1.51891">
        <ele>147</ele>
        <time>2023-03-22T16:34:28Z</time>
      </trkpt>
      <trkpt lat="43.52341" lon="1.51892">
        <ele>147</ele>
        <time>2023-03-22T16:34:29Z</time>
      </trkpt>
      <trkpt lat="43.52341" lon="1.51892">
        <ele>147</ele>
        <time>2023-03-22T16:34:30Z</time>
      </trkpt>
      <trkpt lat="43.52337" lon="1.51894">
        <ele>147</ele>
        <time>2023-03-22T16:34:31Z</time>
      </trkpt>
      <trkpt lat="43.52337" lon="1.51894">
        <ele>147</ele>
        <time>2023-03-22T16:34:32Z</time>
      </trkpt>
      <trkpt lat="43.52333" lon="1.51897">
        <ele>147</ele>
        <time>2023-03-22T16:34:33Z</time>
      </trkpt>
      <trkpt lat="43.5233" lon="1.51898">
        <ele>148</ele>
        <time>2023-03-22T16:34:34Z</time>
      </trkpt>
      <trkpt lat="43.52328" lon="1.519">
        <ele>148</ele>
        <time>2023-03-22T16:34:35Z</time>
      </trkpt>
      <trkpt lat="43.52326" lon="1.51901">
        <ele>148</ele>
        <time>2023-03-22T16:34:36Z</time>
      </trkpt>
      <trkpt lat="43.52326" lon="1.51901">
        <ele>148</ele>
        <time>2023-03-22T16:34:37Z</time>
      </trkpt>
      <trkpt lat="43.52324" lon="1.51903">
        <ele>148</ele>
        <time>2023-03-22T16:34:38Z</time>
      </trkpt>
      <trkpt lat="43.52322" lon="1.51904">
        <ele>148</ele>
        <time>2023-03-22T16:34:39Z</time>
      </trkpt>
      <trkpt lat="43.5232" lon="1.51905">
        <ele>148</ele>
        <time>2023-03-22T16:34:40Z</time>
      </trkpt>
      <trkpt lat="43.52316" lon="1.51908">
        <ele>148</ele>
        <time>2023-03-22T16:34:41Z</time>
      </trkpt>
      <trkpt lat="43.52313" lon="1.51909">
        <ele>148</ele>
        <time>2023-03-22T16:34:42Z</time>
      </trkpt>
      <trkpt lat="43.52313" lon="1.51909">
        <ele>148</ele>
        <time>2023-03-22T16:34:43Z</time>
      </trkpt>
      <trkpt lat="43.52311" lon="1.5191">
        <ele>148</ele>
        <time>2023-03-22T16:34:44Z</time>
      </trkpt>
      <trkpt lat="43.52308" lon="1.51911">
        <ele>148</ele>
        <time>2023-03-22T16:34:45Z</time>
      </trkpt>
      <trkpt lat="43.52306" lon="1.51912">
        <ele>148</ele>
        <time>2023-03-22T16:34:46Z</time>
      </trkpt>
      <trkpt lat="43.52304" lon="1.51913">
        <ele>148</ele>
        <time>2023-03-22T16:34:47Z</time>
      </trkpt>
      <trkpt lat="43.52301" lon="1.51914">
        <ele>148</ele>
        <time>2023-03-22T16:34:48Z</time>
      </trkpt>
      <trkpt lat="43.52299" lon="1.51915">
        <ele>148</ele>
        <time>2023-03-22T16:34:49Z</time>
      </trkpt>
      <trkpt lat="43.52294" lon="1.51918">
        <ele>148</ele>
        <time>2023-03-22T16:34:50Z</time>
      </trkpt>
      <trkpt lat="43.52294" lon="1.51918">
        <ele>148</ele>
        <time>2023-03-22T16:34:51Z</time>
      </trkpt>
      <trkpt lat="43.52291" lon="1.51919">
        <ele>148</ele>
        <time>2023-03-22T16:34:52Z</time>
      </trkpt>
      <trkpt lat="43.52289" lon="1.5192">
        <ele>148</ele>
        <time>2023-03-22T16:34:53Z</time>
      </trkpt>
      <trkpt lat="43.52286" lon="1.5192">
        <ele>148</ele>
        <time>2023-03-22T16:34:54Z</time>
      </trkpt>
      <trkpt lat="43.52282" lon="1.51921">
        <ele>148</ele>
        <time>2023-03-22T16:34:55Z</time>
      </trkpt>
      <trkpt lat="43.52282" lon="1.51921">
        <ele>148</ele>
        <time>2023-03-22T16:34:56Z</time>
      </trkpt>
      <trkpt lat="43.52279" lon="1.51922">
        <ele>148</ele>
        <time>2023-03-22T16:34:57Z</time>
      </trkpt>
      <trkpt lat="43.52277" lon="1.51924">
        <ele>148</ele>
        <time>2023-03-22T16:34:58Z</time>
      </trkpt>
      <trkpt lat="43.52272" lon="1.51927">
        <ele>148</ele>
        <time>2023-03-22T16:34:59Z</time>
      </trkpt>
      <trkpt lat="43.52268" lon="1.51928">
        <ele>148</ele>
        <time>2023-03-22T16:35:00Z</time>
      </trkpt>
      <trkpt lat="43.52266" lon="1.5193">
        <ele>148</ele>
        <time>2023-03-22T16:35:01Z</time>
      </trkpt>
      <trkpt lat="43.52266" lon="1.5193">
        <ele>148</ele>
        <time>2023-03-22T16:35:02Z</time>
      </trkpt>
      <trkpt lat="43.52263" lon="1.51932">
        <ele>148</ele>
        <time>2023-03-22T16:35:03Z</time>
      </trkpt>
      <trkpt lat="43.5226" lon="1.51933">
        <ele>148</ele>
        <time>2023-03-22T16:35:04Z</time>
      </trkpt>
      <trkpt lat="43.52257" lon="1.51933">
        <ele>148</ele>
        <time>2023-03-22T16:35:05Z</time>
      </trkpt>
      <trkpt lat="43.52253" lon="1.51934">
        <ele>148</ele>
        <time>2023-03-22T16:35:06Z</time>
      </trkpt>
      <trkpt lat="43.52251" lon="1.51934">
        <ele>148</ele>
        <time>2023-03-22T16:35:07Z</time>
      </trkpt>
      <trkpt lat="43.52248" lon="1.51935">
        <ele>148</ele>
        <time>2023-03-22T16:35:08Z</time>
      </trkpt>
      <trkpt lat="43.52246" lon="1.51935">
        <ele>148</ele>
        <time>2023-03-22T16:35:09Z</time>
      </trkpt>
      <trkpt lat="43.52246" lon="1.51935">
        <ele>148</ele>
        <time>2023-03-22T16:35:10Z</time>
      </trkpt>
      <trkpt lat="43.52244" lon="1.51936">
        <ele>148</ele>
        <time>2023-03-22T16:35:11Z</time>
      </trkpt>
      <trkpt lat="43.52242" lon="1.51937">
        <ele>148</ele>
        <time>2023-03-22T16:35:12Z</time>
      </trkpt>
      <trkpt lat="43.5224" lon="1.51938">
        <ele>148</ele>
        <time>2023-03-22T16:35:13Z</time>
      </trkpt>
      <trkpt lat="43.52237" lon="1.51938">
        <ele>148</ele>
        <time>2023-03-22T16:35:14Z</time>
      </trkpt>
      <trkpt lat="43.52235" lon="1.51939">
        <ele>148</ele>
        <time>2023-03-22T16:35:15Z</time>
      </trkpt>
      <trkpt lat="43.5223" lon="1.51941">
        <ele>147</ele>
        <time>2023-03-22T16:35:16Z</time>
      </trkpt>
      <trkpt lat="43.5223" lon="1.51941">
        <ele>147</ele>
        <time>2023-03-22T16:35:17Z</time>
      </trkpt>
      <trkpt lat="43.52227" lon="1.51942">
        <ele>147</ele>
        <time>2023-03-22T16:35:18Z</time>
      </trkpt>
      <trkpt lat="43.52225" lon="1.51942">
        <ele>148</ele>
        <time>2023-03-22T16:35:19Z</time>
      </trkpt>
      <trkpt lat="43.52221" lon="1.51942">
        <ele>148</ele>
        <time>2023-03-22T16:35:20Z</time>
      </trkpt>
      <trkpt lat="43.52219" lon="1.51942">
        <ele>148</ele>
        <time>2023-03-22T16:35:21Z</time>
      </trkpt>
      <trkpt lat="43.52216" lon="1.51943">
        <ele>148</ele>
        <time>2023-03-22T16:35:22Z</time>
      </trkpt>
      <trkpt lat="43.52216" lon="1.51943">
        <ele>148</ele>
        <time>2023-03-22T16:35:23Z</time>
      </trkpt>
      <trkpt lat="43.52215" lon="1.51943">
        <ele>148</ele>
        <time>2023-03-22T16:35:24Z</time>
      </trkpt>
      <trkpt lat="43.52212" lon="1.51944">
        <ele>148</ele>
        <time>2023-03-22T16:35:25Z</time>
      </trkpt>
      <trkpt lat="43.5221" lon="1.51944">
        <ele>148</ele>
        <time>2023-03-22T16:35:26Z</time>
      </trkpt>
      <trkpt lat="43.52207" lon="1.51945">
        <ele>148</ele>
        <time>2023-03-22T16:35:27Z</time>
      </trkpt>
      <trkpt lat="43.52204" lon="1.51947">
        <ele>148</ele>
        <time>2023-03-22T16:35:28Z</time>
      </trkpt>
      <trkpt lat="43.52202" lon="1.51947">
        <ele>148</ele>
        <time>2023-03-22T16:35:29Z</time>
      </trkpt>
      <trkpt lat="43.52199" lon="1.51948">
        <ele>148</ele>
        <time>2023-03-22T16:35:30Z</time>
      </trkpt>
      <trkpt lat="43.52199" lon="1.51948">
        <ele>148</ele>
        <time>2023-03-22T16:35:31Z</time>
      </trkpt>
      <trkpt lat="43.52194" lon="1.51949">
        <ele>148</ele>
        <time>2023-03-22T16:35:32Z</time>
      </trkpt>
      <trkpt lat="43.52194" lon="1.51949">
        <ele>148</ele>
        <time>2023-03-22T16:35:33Z</time>
      </trkpt>
      <trkpt lat="43.52192" lon="1.51949">
        <ele>148</ele>
        <time>2023-03-22T16:35:34Z</time>
      </trkpt>
      <trkpt lat="43.5219" lon="1.51949">
        <ele>147</ele>
        <time>2023-03-22T16:35:35Z</time>
      </trkpt>
      <trkpt lat="43.52187" lon="1.51949">
        <ele>147</ele>
        <time>2023-03-22T16:35:36Z</time>
      </trkpt>
      <trkpt lat="43.52185" lon="1.51949">
        <ele>147</ele>
        <time>2023-03-22T16:35:37Z</time>
      </trkpt>
      <trkpt lat="43.5218" lon="1.5195">
        <ele>148</ele>
        <time>2023-03-22T16:35:38Z</time>
      </trkpt>
      <trkpt lat="43.5218" lon="1.5195">
        <ele>148</ele>
        <time>2023-03-22T16:35:39Z</time>
      </trkpt>
      <trkpt lat="43.52176" lon="1.5195">
        <ele>148</ele>
        <time>2023-03-22T16:35:40Z</time>
      </trkpt>
      <trkpt lat="43.52176" lon="1.5195">
        <ele>148</ele>
        <time>2023-03-22T16:35:41Z</time>
      </trkpt>
      <trkpt lat="43.52174" lon="1.5195">
        <ele>148</ele>
        <time>2023-03-22T16:35:42Z</time>
      </trkpt>
      <trkpt lat="43.52171" lon="1.5195">
        <ele>148</ele>
        <time>2023-03-22T16:35:43Z</time>
      </trkpt>
      <trkpt lat="43.52166" lon="1.5195">
        <ele>148</ele>
        <time>2023-03-22T16:35:44Z</time>
      </trkpt>
      <trkpt lat="43.52166" lon="1.5195">
        <ele>148</ele>
        <time>2023-03-22T16:35:45Z</time>
      </trkpt>
      <trkpt lat="43.52163" lon="1.5195">
        <ele>148</ele>
        <time>2023-03-22T16:35:46Z</time>
      </trkpt>
      <trkpt lat="43.52159" lon="1.5195">
        <ele>148</ele>
        <time>2023-03-22T16:35:47Z</time>
      </trkpt>
      <trkpt lat="43.52159" lon="1.5195">
        <ele>148</ele>
        <time>2023-03-22T16:35:48Z</time>
      </trkpt>
      <trkpt lat="43.52156" lon="1.5195">
        <ele>148</ele>
        <time>2023-03-22T16:35:49Z</time>
      </trkpt>
      <trkpt lat="43.52153" lon="1.5195">
        <ele>148</ele>
        <time>2023-03-22T16:35:50Z</time>
      </trkpt>
      <trkpt lat="43.52151" lon="1.5195">
        <ele>148</ele>
        <time>2023-03-22T16:35:51Z</time>
      </trkpt>
      <trkpt lat="43.52146" lon="1.51951">
        <ele>148</ele>
        <time>2023-03-22T16:35:52Z</time>
      </trkpt>
      <trkpt lat="43.52146" lon="1.51951">
        <ele>148</ele>
        <time>2023-03-22T16:35:53Z</time>
      </trkpt>
      <trkpt lat="43.52141" lon="1.51951">
        <ele>148</ele>
        <time>2023-03-22T16:35:54Z</time>
      </trkpt>
      <trkpt lat="43.52139" lon="1.51951">
        <ele>147</ele>
        <time>2023-03-22T16:35:55Z</time>
      </trkpt>
      <trkpt lat="43.52137" lon="1.51952">
        <ele>148</ele>
        <time>2023-03-22T16:35:56Z</time>
      </trkpt>
      <trkpt lat="43.52134" lon="1.51952">
        <ele>148</ele>
        <time>2023-03-22T16:35:57Z</time>
      </trkpt>
      <trkpt lat="43.52131" lon="1.51952">
        <ele>148</ele>
        <time>2023-03-22T16:35:58Z</time>
      </trkpt>
      <trkpt lat="43.52131" lon="1.51952">
        <ele>148</ele>
        <time>2023-03-22T16:35:59Z</time>
      </trkpt>
      <trkpt lat="43.52128" lon="1.51953">
        <ele>147</ele>
        <time>2023-03-22T16:36:00Z</time>
      </trkpt>
      <trkpt lat="43.52125" lon="1.51954">
        <ele>147</ele>
        <time>2023-03-22T16:36:01Z</time>
      </trkpt>
      <trkpt lat="43.52122" lon="1.51954">
        <ele>147</ele>
        <time>2023-03-22T16:36:02Z</time>
      </trkpt>
      <trkpt lat="43.52117" lon="1.51956">
        <ele>147</ele>
        <time>2023-03-22T16:36:03Z</time>
      </trkpt>
      <trkpt lat="43.52114" lon="1.51957">
        <ele>148</ele>
        <time>2023-03-22T16:36:04Z</time>
      </trkpt>
      <trkpt lat="43.52112" lon="1.51957">
        <ele>148</ele>
        <time>2023-03-22T16:36:05Z</time>
      </trkpt>
      <trkpt lat="43.52109" lon="1.51959">
        <ele>148</ele>
        <time>2023-03-22T16:36:06Z</time>
      </trkpt>
      <trkpt lat="43.52109" lon="1.51959">
        <ele>148</ele>
        <time>2023-03-22T16:36:07Z</time>
      </trkpt>
      <trkpt lat="43.52106" lon="1.5196">
        <ele>148</ele>
        <time>2023-03-22T16:36:08Z</time>
      </trkpt>
      <trkpt lat="43.52104" lon="1.51961">
        <ele>148</ele>
        <time>2023-03-22T16:36:09Z</time>
      </trkpt>
      <trkpt lat="43.52102" lon="1.51963">
        <ele>148</ele>
        <time>2023-03-22T16:36:10Z</time>
      </trkpt>
      <trkpt lat="43.521" lon="1.51963">
        <ele>148</ele>
        <time>2023-03-22T16:36:11Z</time>
      </trkpt>
      <trkpt lat="43.52096" lon="1.51966">
        <ele>148</ele>
        <time>2023-03-22T16:36:12Z</time>
      </trkpt>
      <trkpt lat="43.52096" lon="1.51966">
        <ele>148</ele>
        <time>2023-03-22T16:36:13Z</time>
      </trkpt>
      <trkpt lat="43.52093" lon="1.51968">
        <ele>148</ele>
        <time>2023-03-22T16:36:14Z</time>
      </trkpt>
      <trkpt lat="43.52091" lon="1.5197">
        <ele>148</ele>
        <time>2023-03-22T16:36:15Z</time>
      </trkpt>
      <trkpt lat="43.52088" lon="1.51971">
        <ele>148</ele>
        <time>2023-03-22T16:36:16Z</time>
      </trkpt>
      <trkpt lat="43.52086" lon="1.51973">
        <ele>148</ele>
        <time>2023-03-22T16:36:17Z</time>
      </trkpt>
      <trkpt lat="43.52083" lon="1.51976">
        <ele>148</ele>
        <time>2023-03-22T16:36:18Z</time>
      </trkpt>
      <trkpt lat="43.52083" lon="1.51976">
        <ele>148</ele>
        <time>2023-03-22T16:36:19Z</time>
      </trkpt>
      <trkpt lat="43.52078" lon="1.51979">
        <ele>148</ele>
        <time>2023-03-22T16:36:20Z</time>
      </trkpt>
      <trkpt lat="43.52078" lon="1.51979">
        <ele>148</ele>
        <time>2023-03-22T16:36:21Z</time>
      </trkpt>
      <trkpt lat="43.52076" lon="1.5198">
        <ele>148</ele>
        <time>2023-03-22T16:36:22Z</time>
      </trkpt>
      <trkpt lat="43.52074" lon="1.51982">
        <ele>148</ele>
        <time>2023-03-22T16:36:23Z</time>
      </trkpt>
      <trkpt lat="43.52072" lon="1.51983">
        <ele>147</ele>
        <time>2023-03-22T16:36:24Z</time>
      </trkpt>
      <trkpt lat="43.5207" lon="1.51984">
        <ele>148</ele>
        <time>2023-03-22T16:36:25Z</time>
      </trkpt>
      <trkpt lat="43.52067" lon="1.51986">
        <ele>148</ele>
        <time>2023-03-22T16:36:26Z</time>
      </trkpt>
      <trkpt lat="43.52067" lon="1.51986">
        <ele>148</ele>
        <time>2023-03-22T16:36:27Z</time>
      </trkpt>
      <trkpt lat="43.52065" lon="1.51988">
        <ele>148</ele>
        <time>2023-03-22T16:36:28Z</time>
      </trkpt>
      <trkpt lat="43.52062" lon="1.5199">
        <ele>148</ele>
        <time>2023-03-22T16:36:29Z</time>
      </trkpt>
      <trkpt lat="43.5206" lon="1.51991">
        <ele>148</ele>
        <time>2023-03-22T16:36:30Z</time>
      </trkpt>
      <trkpt lat="43.52055" lon="1.51994">
        <ele>148</ele>
        <time>2023-03-22T16:36:31Z</time>
      </trkpt>
      <trkpt lat="43.52053" lon="1.51996">
        <ele>148</ele>
        <time>2023-03-22T16:36:32Z</time>
      </trkpt>
      <trkpt lat="43.52053" lon="1.51996">
        <ele>148</ele>
        <time>2023-03-22T16:36:33Z</time>
      </trkpt>
      <trkpt lat="43.52051" lon="1.51997">
        <ele>148</ele>
        <time>2023-03-22T16:36:34Z</time>
      </trkpt>
      <trkpt lat="43.52048" lon="1.51999">
        <ele>148</ele>
        <time>2023-03-22T16:36:35Z</time>
      </trkpt>
      <trkpt lat="43.52046" lon="1.52">
        <ele>148</ele>
        <time>2023-03-22T16:36:36Z</time>
      </trkpt>
      <trkpt lat="43.52042" lon="1.52003">
        <ele>148</ele>
        <time>2023-03-22T16:36:37Z</time>
      </trkpt>
      <trkpt lat="43.5204" lon="1.52004">
        <ele>148</ele>
        <time>2023-03-22T16:36:38Z</time>
      </trkpt>
      <trkpt lat="43.52038" lon="1.52005">
        <ele>148</ele>
        <time>2023-03-22T16:36:39Z</time>
      </trkpt>
      <trkpt lat="43.52038" lon="1.52005">
        <ele>148</ele>
        <time>2023-03-22T16:36:40Z</time>
      </trkpt>
      <trkpt lat="43.52035" lon="1.52006">
        <ele>148</ele>
        <time>2023-03-22T16:36:41Z</time>
      </trkpt>
      <trkpt lat="43.52031" lon="1.52007">
        <ele>148</ele>
        <time>2023-03-22T16:36:42Z</time>
      </trkpt>
      <trkpt lat="43.52028" lon="1.52008">
        <ele>148</ele>
        <time>2023-03-22T16:36:43Z</time>
      </trkpt>
      <trkpt lat="43.52026" lon="1.52009">
        <ele>148</ele>
        <time>2023-03-22T16:36:44Z</time>
      </trkpt>
      <trkpt lat="43.52023" lon="1.5201">
        <ele>148</ele>
        <time>2023-03-22T16:36:45Z</time>
      </trkpt>
      <trkpt lat="43.52023" lon="1.5201">
        <ele>148</ele>
        <time>2023-03-22T16:36:46Z</time>
      </trkpt>
      <trkpt lat="43.5202" lon="1.52012">
        <ele>148</ele>
        <time>2023-03-22T16:36:47Z</time>
      </trkpt>
      <trkpt lat="43.52015" lon="1.52013">
        <ele>148</ele>
        <time>2023-03-22T16:36:48Z</time>
      </trkpt>
      <trkpt lat="43.52015" lon="1.52013">
        <ele>148</ele>
        <time>2023-03-22T16:36:49Z</time>
      </trkpt>
      <trkpt lat="43.5201" lon="1.52014">
        <ele>148</ele>
        <time>2023-03-22T16:36:50Z</time>
      </trkpt>
      <trkpt lat="43.52008" lon="1.52014">
        <ele>148</ele>
        <time>2023-03-22T16:36:51Z</time>
      </trkpt>
      <trkpt lat="43.52005" lon="1.52015">
        <ele>148</ele>
        <time>2023-03-22T16:36:52Z</time>
      </trkpt>
      <trkpt lat="43.52003" lon="1.52016">
        <ele>148</ele>
        <time>2023-03-22T16:36:53Z</time>
      </trkpt>
      <trkpt lat="43.52" lon="1.52016">
        <ele>148</ele>
        <time>2023-03-22T16:36:54Z</time>
      </trkpt>
      <trkpt lat="43.51997" lon="1.52016">
        <ele>148</ele>
        <time>2023-03-22T16:36:55Z</time>
      </trkpt>
      <trkpt lat="43.51995" lon="1.52016">
        <ele>148</ele>
        <time>2023-03-22T16:36:56Z</time>
      </trkpt>
      <trkpt lat="43.51992" lon="1.52017">
        <ele>148</ele>
        <time>2023-03-22T16:36:57Z</time>
      </trkpt>
      <trkpt lat="43.51989" lon="1.52017">
        <ele>148</ele>
        <time>2023-03-22T16:36:58Z</time>
      </trkpt>
      <trkpt lat="43.51986" lon="1.52018">
        <ele>148</ele>
        <time>2023-03-22T16:36:59Z</time>
      </trkpt>
      <trkpt lat="43.51986" lon="1.52018">
        <ele>148</ele>
        <time>2023-03-22T16:37:00Z</time>
      </trkpt>
      <trkpt lat="43.51984" lon="1.52018">
        <ele>148</ele>
        <time>2023-03-22T16:37:01Z</time>
      </trkpt>
      <trkpt lat="43.51981" lon="1.52018">
        <ele>148</ele>
        <time>2023-03-22T16:37:02Z</time>
      </trkpt>
      <trkpt lat="43.51977" lon="1.52018">
        <ele>148</ele>
        <time>2023-03-22T16:37:03Z</time>
      </trkpt>
      <trkpt lat="43.51977" lon="1.52018">
        <ele>148</ele>
        <time>2023-03-22T16:37:04Z</time>
      </trkpt>
      <trkpt lat="43.51975" lon="1.52018">
        <ele>148</ele>
        <time>2023-03-22T16:37:05Z</time>
      </trkpt>
      <trkpt lat="43.51972" lon="1.52019">
        <ele>148</ele>
        <time>2023-03-22T16:37:06Z</time>
      </trkpt>
      <trkpt lat="43.51969" lon="1.52018">
        <ele>148</ele>
        <time>2023-03-22T16:37:07Z</time>
      </trkpt>
      <trkpt lat="43.51966" lon="1.52018">
        <ele>148</ele>
        <time>2023-03-22T16:37:08Z</time>
      </trkpt>
      <trkpt lat="43.51964" lon="1.52018">
        <ele>148</ele>
        <time>2023-03-22T16:37:09Z</time>
      </trkpt>
      <trkpt lat="43.51959" lon="1.52018">
        <ele>148</ele>
        <time>2023-03-22T16:37:10Z</time>
      </trkpt>
      <trkpt lat="43.51959" lon="1.52018">
        <ele>148</ele>
        <time>2023-03-22T16:37:11Z</time>
      </trkpt>
      <trkpt lat="43.51953" lon="1.52018">
        <ele>148</ele>
        <time>2023-03-22T16:37:12Z</time>
      </trkpt>
      <trkpt lat="43.51953" lon="1.52018">
        <ele>148</ele>
        <time>2023-03-22T16:37:13Z</time>
      </trkpt>
      <trkpt lat="43.51948" lon="1.52018">
        <ele>148</ele>
        <time>2023-03-22T16:37:14Z</time>
      </trkpt>
      <trkpt lat="43.51946" lon="1.52018">
        <ele>148</ele>
        <time>2023-03-22T16:37:15Z</time>
      </trkpt>
      <trkpt lat="43.51943" lon="1.52017">
        <ele>149</ele>
        <time>2023-03-22T16:37:16Z</time>
      </trkpt>
      <trkpt lat="43.51943" lon="1.52017">
        <ele>149</ele>
        <time>2023-03-22T16:37:17Z</time>
      </trkpt>
      <trkpt lat="43.51941" lon="1.52017">
        <ele>149</ele>
        <time>2023-03-22T16:37:18Z</time>
      </trkpt>
      <trkpt lat="43.51938" lon="1.52016">
        <ele>149</ele>
        <time>2023-03-22T16:37:19Z</time>
      </trkpt>
      <trkpt lat="43.51936" lon="1.52016">
        <ele>148</ele>
        <time>2023-03-22T16:37:20Z</time>
      </trkpt>
      <trkpt lat="43.51933" lon="1.52015">
        <ele>148</ele>
        <time>2023-03-22T16:37:21Z</time>
      </trkpt>
      <trkpt lat="43.51929" lon="1.52014">
        <ele>148</ele>
        <time>2023-03-22T16:37:22Z</time>
      </trkpt>
      <trkpt lat="43.51929" lon="1.52014">
        <ele>148</ele>
        <time>2023-03-22T16:37:23Z</time>
      </trkpt>
      <trkpt lat="43.51926" lon="1.52013">
        <ele>148</ele>
        <time>2023-03-22T16:37:24Z</time>
      </trkpt>
      <trkpt lat="43.51924" lon="1.52013">
        <ele>148</ele>
        <time>2023-03-22T16:37:25Z</time>
      </trkpt>
      <trkpt lat="43.51919" lon="1.52011">
        <ele>148</ele>
        <time>2023-03-22T16:37:26Z</time>
      </trkpt>
      <trkpt lat="43.51917" lon="1.5201">
        <ele>148</ele>
        <time>2023-03-22T16:37:27Z</time>
      </trkpt>
      <trkpt lat="43.51917" lon="1.5201">
        <ele>148</ele>
        <time>2023-03-22T16:37:28Z</time>
      </trkpt>
      <trkpt lat="43.51914" lon="1.52009">
        <ele>148</ele>
        <time>2023-03-22T16:37:29Z</time>
      </trkpt>
      <trkpt lat="43.51909" lon="1.52007">
        <ele>148</ele>
        <time>2023-03-22T16:37:30Z</time>
      </trkpt>
      <trkpt lat="43.51907" lon="1.52006">
        <ele>148</ele>
        <time>2023-03-22T16:37:31Z</time>
      </trkpt>
      <trkpt lat="43.51905" lon="1.52004">
        <ele>148</ele>
        <time>2023-03-22T16:37:32Z</time>
      </trkpt>
      <trkpt lat="43.51903" lon="1.52003">
        <ele>148</ele>
        <time>2023-03-22T16:37:33Z</time>
      </trkpt>
      <trkpt lat="43.51903" lon="1.52003">
        <ele>148</ele>
        <time>2023-03-22T16:37:34Z</time>
      </trkpt>
      <trkpt lat="43.51901" lon="1.52003">
        <ele>148</ele>
        <time>2023-03-22T16:37:35Z</time>
      </trkpt>
      <trkpt lat="43.51899" lon="1.52002">
        <ele>148</ele>
        <time>2023-03-22T16:37:36Z</time>
      </trkpt>
      <trkpt lat="43.51895" lon="1.51999">
        <ele>148</ele>
        <time>2023-03-22T16:37:37Z</time>
      </trkpt>
      <trkpt lat="43.51892" lon="1.51998">
        <ele>148</ele>
        <time>2023-03-22T16:37:38Z</time>
      </trkpt>
      <trkpt lat="43.51892" lon="1.51998">
        <ele>148</ele>
        <time>2023-03-22T16:37:39Z</time>
      </trkpt>
      <trkpt lat="43.51887" lon="1.51996">
        <ele>148</ele>
        <time>2023-03-22T16:37:40Z</time>
      </trkpt>
      <trkpt lat="43.51884" lon="1.51996">
        <ele>148</ele>
        <time>2023-03-22T16:37:41Z</time>
      </trkpt>
      <trkpt lat="43.51882" lon="1.51995">
        <ele>148</ele>
        <time>2023-03-22T16:37:42Z</time>
      </trkpt>
      <trkpt lat="43.5188" lon="1.51994">
        <ele>148</ele>
        <time>2023-03-22T16:37:43Z</time>
      </trkpt>
      <trkpt lat="43.5188" lon="1.51994">
        <ele>148</ele>
        <time>2023-03-22T16:37:44Z</time>
      </trkpt>
      <trkpt lat="43.51875" lon="1.51992">
        <ele>148</ele>
        <time>2023-03-22T16:37:45Z</time>
      </trkpt>
      <trkpt lat="43.51875" lon="1.51992">
        <ele>148</ele>
        <time>2023-03-22T16:37:46Z</time>
      </trkpt>
      <trkpt lat="43.51874" lon="1.51991">
        <ele>148</ele>
        <time>2023-03-22T16:37:47Z</time>
      </trkpt>
      <trkpt lat="43.51871" lon="1.5199">
        <ele>148</ele>
        <time>2023-03-22T16:37:48Z</time>
      </trkpt>
      <trkpt lat="43.51867" lon="1.51989">
        <ele>148</ele>
        <time>2023-03-22T16:37:49Z</time>
      </trkpt>
      <trkpt lat="43.51867" lon="1.51989">
        <ele>148</ele>
        <time>2023-03-22T16:37:50Z</time>
      </trkpt>
      <trkpt lat="43.51865" lon="1.51988">
        <ele>148</ele>
        <time>2023-03-22T16:37:51Z</time>
      </trkpt>
      <trkpt lat="43.5186" lon="1.51987">
        <ele>148</ele>
        <time>2023-03-22T16:37:52Z</time>
      </trkpt>
      <trkpt lat="43.5186" lon="1.51987">
        <ele>149</ele>
        <time>2023-03-22T16:37:53Z</time>
      </trkpt>
      <trkpt lat="43.51858" lon="1.51986">
        <ele>149</ele>
        <time>2023-03-22T16:37:54Z</time>
      </trkpt>
      <trkpt lat="43.51855" lon="1.51985">
        <ele>149</ele>
        <time>2023-03-22T16:37:55Z</time>
      </trkpt>
      <trkpt lat="43.51853" lon="1.51984">
        <ele>149</ele>
        <time>2023-03-22T16:37:56Z</time>
      </trkpt>
      <trkpt lat="43.51849" lon="1.51982">
        <ele>149</ele>
        <time>2023-03-22T16:37:57Z</time>
      </trkpt>
      <trkpt lat="43.51849" lon="1.51982">
        <ele>148</ele>
        <time>2023-03-22T16:37:58Z</time>
      </trkpt>
      <trkpt lat="43.51847" lon="1.51981">
        <ele>148</ele>
        <time>2023-03-22T16:37:59Z</time>
      </trkpt>
      <trkpt lat="43.51843" lon="1.5198">
        <ele>148</ele>
        <time>2023-03-22T16:38:00Z</time>
      </trkpt>
      <trkpt lat="43.51843" lon="1.5198">
        <ele>148</ele>
        <time>2023-03-22T16:38:01Z</time>
      </trkpt>
      <trkpt lat="43.51837" lon="1.51978">
        <ele>148</ele>
        <time>2023-03-22T16:38:02Z</time>
      </trkpt>
      <trkpt lat="43.51837" lon="1.51978">
        <ele>148</ele>
        <time>2023-03-22T16:38:03Z</time>
      </trkpt>
      <trkpt lat="43.51835" lon="1.51977">
        <ele>148</ele>
        <time>2023-03-22T16:38:04Z</time>
      </trkpt>
      <trkpt lat="43.51833" lon="1.51977">
        <ele>148</ele>
        <time>2023-03-22T16:38:05Z</time>
      </trkpt>
      <trkpt lat="43.5183" lon="1.51976">
        <ele>149</ele>
        <time>2023-03-22T16:38:06Z</time>
      </trkpt>
      <trkpt lat="43.51826" lon="1.51975">
        <ele>149</ele>
        <time>2023-03-22T16:38:07Z</time>
      </trkpt>
      <trkpt lat="43.51824" lon="1.51975">
        <ele>149</ele>
        <time>2023-03-22T16:38:08Z</time>
      </trkpt>
      <trkpt lat="43.51821" lon="1.51975">
        <ele>149</ele>
        <time>2023-03-22T16:38:09Z</time>
      </trkpt>
      <trkpt lat="43.51821" lon="1.51975">
        <ele>149</ele>
        <time>2023-03-22T16:38:10Z</time>
      </trkpt>
      <trkpt lat="43.51816" lon="1.51975">
        <ele>149</ele>
        <time>2023-03-22T16:38:11Z</time>
      </trkpt>
      <trkpt lat="43.51816" lon="1.51975">
        <ele>149</ele>
        <time>2023-03-22T16:38:12Z</time>
      </trkpt>
      <trkpt lat="43.51814" lon="1.51974">
        <ele>149</ele>
        <time>2023-03-22T16:38:13Z</time>
      </trkpt>
      <trkpt lat="43.51811" lon="1.51974">
        <ele>149</ele>
        <time>2023-03-22T16:38:14Z</time>
      </trkpt>
      <trkpt lat="43.51806" lon="1.51976">
        <ele>149</ele>
        <time>2023-03-22T16:38:15Z</time>
      </trkpt>
      <trkpt lat="43.51806" lon="1.51976">
        <ele>149</ele>
        <time>2023-03-22T16:38:16Z</time>
      </trkpt>
      <trkpt lat="43.51803" lon="1.51976">
        <ele>149</ele>
        <time>2023-03-22T16:38:17Z</time>
      </trkpt>
      <trkpt lat="43.51801" lon="1.51977">
        <ele>149</ele>
        <time>2023-03-22T16:38:18Z</time>
      </trkpt>
      <trkpt lat="43.51796" lon="1.51979">
        <ele>149</ele>
        <time>2023-03-22T16:38:19Z</time>
      </trkpt>
      <trkpt lat="43.51796" lon="1.51979">
        <ele>149</ele>
        <time>2023-03-22T16:38:20Z</time>
      </trkpt>
      <trkpt lat="43.51794" lon="1.5198">
        <ele>149</ele>
        <time>2023-03-22T16:38:21Z</time>
      </trkpt>
      <trkpt lat="43.51793" lon="1.51981">
        <ele>149</ele>
        <time>2023-03-22T16:38:22Z</time>
      </trkpt>
      <trkpt lat="43.51791" lon="1.51982">
        <ele>149</ele>
        <time>2023-03-22T16:38:23Z</time>
      </trkpt>
      <trkpt lat="43.51788" lon="1.51983">
        <ele>149</ele>
        <time>2023-03-22T16:38:24Z</time>
      </trkpt>
      <trkpt lat="43.51784" lon="1.51986">
        <ele>150</ele>
        <time>2023-03-22T16:38:25Z</time>
      </trkpt>
      <trkpt lat="43.51781" lon="1.51987">
        <ele>150</ele>
        <time>2023-03-22T16:38:26Z</time>
      </trkpt>
      <trkpt lat="43.51781" lon="1.51987">
        <ele>150</ele>
        <time>2023-03-22T16:38:27Z</time>
      </trkpt>
      <trkpt lat="43.51779" lon="1.51988">
        <ele>150</ele>
        <time>2023-03-22T16:38:28Z</time>
      </trkpt>
      <trkpt lat="43.51776" lon="1.5199">
        <ele>150</ele>
        <time>2023-03-22T16:38:29Z</time>
      </trkpt>
      <trkpt lat="43.51772" lon="1.51994">
        <ele>149</ele>
        <time>2023-03-22T16:38:30Z</time>
      </trkpt>
      <trkpt lat="43.51772" lon="1.51994">
        <ele>149</ele>
        <time>2023-03-22T16:38:31Z</time>
      </trkpt>
      <trkpt lat="43.51769" lon="1.51995">
        <ele>149</ele>
        <time>2023-03-22T16:38:32Z</time>
      </trkpt>
      <trkpt lat="43.51767" lon="1.51996">
        <ele>149</ele>
        <time>2023-03-22T16:38:33Z</time>
      </trkpt>
      <trkpt lat="43.51763" lon="1.51999">
        <ele>149</ele>
        <time>2023-03-22T16:38:34Z</time>
      </trkpt>
      <trkpt lat="43.51763" lon="1.51999">
        <ele>149</ele>
        <time>2023-03-22T16:38:35Z</time>
      </trkpt>
      <trkpt lat="43.51761" lon="1.52001">
        <ele>149</ele>
        <time>2023-03-22T16:38:36Z</time>
      </trkpt>
      <trkpt lat="43.51759" lon="1.52002">
        <ele>149</ele>
        <time>2023-03-22T16:38:37Z</time>
      </trkpt>
      <trkpt lat="43.51755" lon="1.52005">
        <ele>149</ele>
        <time>2023-03-22T16:38:38Z</time>
      </trkpt>
      <trkpt lat="43.51755" lon="1.52005">
        <ele>149</ele>
        <time>2023-03-22T16:38:39Z</time>
      </trkpt>
      <trkpt lat="43.51753" lon="1.52006">
        <ele>149</ele>
        <time>2023-03-22T16:38:40Z</time>
      </trkpt>
      <trkpt lat="43.51751" lon="1.52008">
        <ele>149</ele>
        <time>2023-03-22T16:38:41Z</time>
      </trkpt>
      <trkpt lat="43.51746" lon="1.52011">
        <ele>149</ele>
        <time>2023-03-22T16:38:42Z</time>
      </trkpt>
      <trkpt lat="43.51743" lon="1.52013">
        <ele>149</ele>
        <time>2023-03-22T16:38:43Z</time>
      </trkpt>
      <trkpt lat="43.51743" lon="1.52013">
        <ele>149</ele>
        <time>2023-03-22T16:38:44Z</time>
      </trkpt>
      <trkpt lat="43.51742" lon="1.52014">
        <ele>149</ele>
        <time>2023-03-22T16:38:45Z</time>
      </trkpt>
      <trkpt lat="43.51741" lon="1.52014">
        <ele>149</ele>
        <time>2023-03-22T16:38:46Z</time>
      </trkpt>
      <trkpt lat="43.51739" lon="1.52015">
        <ele>149</ele>
        <time>2023-03-22T16:38:47Z</time>
      </trkpt>
      <trkpt lat="43.51738" lon="1.52016">
        <ele>149</ele>
        <time>2023-03-22T16:38:48Z</time>
      </trkpt>
      <trkpt lat="43.51737" lon="1.52017">
        <ele>149</ele>
        <time>2023-03-22T16:38:49Z</time>
      </trkpt>
      <trkpt lat="43.5173" lon="1.52021">
        <ele>149</ele>
        <time>2023-03-22T16:38:50Z</time>
      </trkpt>
      <trkpt lat="43.51727" lon="1.52023">
        <ele>149</ele>
        <time>2023-03-22T16:38:51Z</time>
      </trkpt>
      <trkpt lat="43.51723" lon="1.52026">
        <ele>149</ele>
        <time>2023-03-22T16:38:52Z</time>
      </trkpt>
      <trkpt lat="43.51723" lon="1.52026">
        <ele>149</ele>
        <time>2023-03-22T16:38:53Z</time>
      </trkpt>
      <trkpt lat="43.51721" lon="1.52028">
        <ele>149</ele>
        <time>2023-03-22T16:38:54Z</time>
      </trkpt>
      <trkpt lat="43.51719" lon="1.52029">
        <ele>149</ele>
        <time>2023-03-22T16:38:55Z</time>
      </trkpt>
      <trkpt lat="43.51714" lon="1.52032">
        <ele>149</ele>
        <time>2023-03-22T16:38:56Z</time>
      </trkpt>
      <trkpt lat="43.51713" lon="1.52034">
        <ele>149</ele>
        <time>2023-03-22T16:38:57Z</time>
      </trkpt>
      <trkpt lat="43.5171" lon="1.52036">
        <ele>150</ele>
        <time>2023-03-22T16:38:58Z</time>
      </trkpt>
      <trkpt lat="43.5171" lon="1.52036">
        <ele>150</ele>
        <time>2023-03-22T16:38:59Z</time>
      </trkpt>
      <trkpt lat="43.51707" lon="1.52038">
        <ele>150</ele>
        <time>2023-03-22T16:39:00Z</time>
      </trkpt>
      <trkpt lat="43.51703" lon="1.5204">
        <ele>150</ele>
        <time>2023-03-22T16:39:01Z</time>
      </trkpt>
      <trkpt lat="43.51703" lon="1.5204">
        <ele>150</ele>
        <time>2023-03-22T16:39:02Z</time>
      </trkpt>
      <trkpt lat="43.51698" lon="1.52043">
        <ele>150</ele>
        <time>2023-03-22T16:39:03Z</time>
      </trkpt>
      <trkpt lat="43.51696" lon="1.52045">
        <ele>150</ele>
        <time>2023-03-22T16:39:04Z</time>
      </trkpt>
      <trkpt lat="43.51693" lon="1.52046">
        <ele>150</ele>
        <time>2023-03-22T16:39:05Z</time>
      </trkpt>
      <trkpt lat="43.51693" lon="1.52046">
        <ele>151</ele>
        <time>2023-03-22T16:39:06Z</time>
      </trkpt>
      <trkpt lat="43.51688" lon="1.52049">
        <ele>151</ele>
        <time>2023-03-22T16:39:07Z</time>
      </trkpt>
      <trkpt lat="43.51688" lon="1.52049">
        <ele>151</ele>
        <time>2023-03-22T16:39:08Z</time>
      </trkpt>
      <trkpt lat="43.51686" lon="1.5205">
        <ele>151</ele>
        <time>2023-03-22T16:39:09Z</time>
      </trkpt>
      <trkpt lat="43.51681" lon="1.52053">
        <ele>151</ele>
        <time>2023-03-22T16:39:10Z</time>
      </trkpt>
      <trkpt lat="43.51679" lon="1.52054">
        <ele>151</ele>
        <time>2023-03-22T16:39:11Z</time>
      </trkpt>
      <trkpt lat="43.51677" lon="1.52055">
        <ele>151</ele>
        <time>2023-03-22T16:39:12Z</time>
      </trkpt>
      <trkpt lat="43.51677" lon="1.52055">
        <ele>151</ele>
        <time>2023-03-22T16:39:13Z</time>
      </trkpt>
      <trkpt lat="43.51672" lon="1.52057">
        <ele>150</ele>
        <time>2023-03-22T16:39:14Z</time>
      </trkpt>
      <trkpt lat="43.5167" lon="1.52058">
        <ele>150</ele>
        <time>2023-03-22T16:39:15Z</time>
      </trkpt>
      <trkpt lat="43.51667" lon="1.52059">
        <ele>150</ele>
        <time>2023-03-22T16:39:16Z</time>
      </trkpt>
      <trkpt lat="43.51667" lon="1.52059">
        <ele>150</ele>
        <time>2023-03-22T16:39:17Z</time>
      </trkpt>
      <trkpt lat="43.51665" lon="1.5206">
        <ele>150</ele>
        <time>2023-03-22T16:39:18Z</time>
      </trkpt>
      <trkpt lat="43.51663" lon="1.5206">
        <ele>150</ele>
        <time>2023-03-22T16:39:19Z</time>
      </trkpt>
      <trkpt lat="43.51661" lon="1.52061">
        <ele>150</ele>
        <time>2023-03-22T16:39:20Z</time>
      </trkpt>
      <trkpt lat="43.51658" lon="1.52062">
        <ele>150</ele>
        <time>2023-03-22T16:39:21Z</time>
      </trkpt>
      <trkpt lat="43.51655" lon="1.52062">
        <ele>150</ele>
        <time>2023-03-22T16:39:22Z</time>
      </trkpt>
      <trkpt lat="43.51653" lon="1.52063">
        <ele>150</ele>
        <time>2023-03-22T16:39:23Z</time>
      </trkpt>
      <trkpt lat="43.51648" lon="1.52064">
        <ele>150</ele>
        <time>2023-03-22T16:39:24Z</time>
      </trkpt>
      <trkpt lat="43.51645" lon="1.52064">
        <ele>150</ele>
        <time>2023-03-22T16:39:25Z</time>
      </trkpt>
      <trkpt lat="43.51645" lon="1.52064">
        <ele>150</ele>
        <time>2023-03-22T16:39:26Z</time>
      </trkpt>
      <trkpt lat="43.5164" lon="1.52064">
        <ele>150</ele>
        <time>2023-03-22T16:39:27Z</time>
      </trkpt>
      <trkpt lat="43.51637" lon="1.52064">
        <ele>150</ele>
        <time>2023-03-22T16:39:28Z</time>
      </trkpt>
      <trkpt lat="43.51635" lon="1.52064">
        <ele>150</ele>
        <time>2023-03-22T16:39:29Z</time>
      </trkpt>
      <trkpt lat="43.51632" lon="1.52064">
        <ele>150</ele>
        <time>2023-03-22T16:39:30Z</time>
      </trkpt>
      <trkpt lat="43.5163" lon="1.52064">
        <ele>151</ele>
        <time>2023-03-22T16:39:31Z</time>
      </trkpt>
      <trkpt lat="43.5163" lon="1.52064">
        <ele>151</ele>
        <time>2023-03-22T16:39:32Z</time>
      </trkpt>
      <trkpt lat="43.51627" lon="1.52064">
        <ele>150</ele>
        <time>2023-03-22T16:39:33Z</time>
      </trkpt>
      <trkpt lat="43.51625" lon="1.52064">
        <ele>150</ele>
        <time>2023-03-22T16:39:34Z</time>
      </trkpt>
      <trkpt lat="43.51622" lon="1.52064">
        <ele>150</ele>
        <time>2023-03-22T16:39:35Z</time>
      </trkpt>
      <trkpt lat="43.51618" lon="1.52064">
        <ele>150</ele>
        <time>2023-03-22T16:39:36Z</time>
      </trkpt>
      <trkpt lat="43.51615" lon="1.52064">
        <ele>150</ele>
        <time>2023-03-22T16:39:37Z</time>
      </trkpt>
      <trkpt lat="43.51615" lon="1.52064">
        <ele>150</ele>
        <time>2023-03-22T16:39:38Z</time>
      </trkpt>
      <trkpt lat="43.51611" lon="1.52063">
        <ele>150</ele>
        <time>2023-03-22T16:39:39Z</time>
      </trkpt>
      <trkpt lat="43.51611" lon="1.52063">
        <ele>150</ele>
        <time>2023-03-22T16:39:40Z</time>
      </trkpt>
      <trkpt lat="43.51608" lon="1.52063">
        <ele>150</ele>
        <time>2023-03-22T16:39:41Z</time>
      </trkpt>
      <trkpt lat="43.51606" lon="1.52061">
        <ele>150</ele>
        <time>2023-03-22T16:39:42Z</time>
      </trkpt>
      <trkpt lat="43.51601" lon="1.52058">
        <ele>150</ele>
        <time>2023-03-22T16:39:43Z</time>
      </trkpt>
      <trkpt lat="43.51599" lon="1.52057">
        <ele>150</ele>
        <time>2023-03-22T16:39:44Z</time>
      </trkpt>
      <trkpt lat="43.51599" lon="1.52057">
        <ele>150</ele>
        <time>2023-03-22T16:39:45Z</time>
      </trkpt>
      <trkpt lat="43.51596" lon="1.52056">
        <ele>149</ele>
        <time>2023-03-22T16:39:46Z</time>
      </trkpt>
      <trkpt lat="43.51594" lon="1.52055">
        <ele>149</ele>
        <time>2023-03-22T16:39:47Z</time>
      </trkpt>
      <trkpt lat="43.51591" lon="1.52054">
        <ele>149</ele>
        <time>2023-03-22T16:39:48Z</time>
      </trkpt>
      <trkpt lat="43.5159" lon="1.52052">
        <ele>149</ele>
        <time>2023-03-22T16:39:49Z</time>
      </trkpt>
      <trkpt lat="43.51588" lon="1.52051">
        <ele>149</ele>
        <time>2023-03-22T16:39:50Z</time>
      </trkpt>
      <trkpt lat="43.51584" lon="1.52047">
        <ele>149</ele>
        <time>2023-03-22T16:39:51Z</time>
      </trkpt>
      <trkpt lat="43.51584" lon="1.52047">
        <ele>149</ele>
        <time>2023-03-22T16:39:52Z</time>
      </trkpt>
      <trkpt lat="43.51582" lon="1.52045">
        <ele>150</ele>
        <time>2023-03-22T16:39:53Z</time>
      </trkpt>
      <trkpt lat="43.51579" lon="1.52042">
        <ele>150</ele>
        <time>2023-03-22T16:39:54Z</time>
      </trkpt>
      <trkpt lat="43.51577" lon="1.52041">
        <ele>149</ele>
        <time>2023-03-22T16:39:55Z</time>
      </trkpt>
      <trkpt lat="43.51574" lon="1.52039">
        <ele>149</ele>
        <time>2023-03-22T16:39:56Z</time>
      </trkpt>
      <trkpt lat="43.51574" lon="1.52039">
        <ele>150</ele>
        <time>2023-03-22T16:39:57Z</time>
      </trkpt>
      <trkpt lat="43.51574" lon="1.52038">
        <ele>150</ele>
        <time>2023-03-22T16:39:58Z</time>
      </trkpt>
      <trkpt lat="43.51573" lon="1.52037">
        <ele>150</ele>
        <time>2023-03-22T16:39:59Z</time>
      </trkpt>
      <trkpt lat="43.51572" lon="1.52036">
        <ele>150</ele>
        <time>2023-03-22T16:40:00Z</time>
      </trkpt>
      <trkpt lat="43.51571" lon="1.52035">
        <ele>150</ele>
        <time>2023-03-22T16:40:01Z</time>
      </trkpt>
      <trkpt lat="43.51564" lon="1.52028">
        <ele>150</ele>
        <time>2023-03-22T16:40:02Z</time>
      </trkpt>
      <trkpt lat="43.51562" lon="1.52025">
        <ele>149</ele>
        <time>2023-03-22T16:40:03Z</time>
      </trkpt>
      <trkpt lat="43.5156" lon="1.52022">
        <ele>149</ele>
        <time>2023-03-22T16:40:04Z</time>
      </trkpt>
      <trkpt lat="43.51557" lon="1.52019">
        <ele>149</ele>
        <time>2023-03-22T16:40:05Z</time>
      </trkpt>
      <trkpt lat="43.51555" lon="1.52017">
        <ele>149</ele>
        <time>2023-03-22T16:40:06Z</time>
      </trkpt>
      <trkpt lat="43.51553" lon="1.52014">
        <ele>149</ele>
        <time>2023-03-22T16:40:07Z</time>
      </trkpt>
      <trkpt lat="43.51551" lon="1.52011">
        <ele>149</ele>
        <time>2023-03-22T16:40:08Z</time>
      </trkpt>
      <trkpt lat="43.51551" lon="1.52011">
        <ele>149</ele>
        <time>2023-03-22T16:40:09Z</time>
      </trkpt>
      <trkpt lat="43.5155" lon="1.52009">
        <ele>149</ele>
        <time>2023-03-22T16:40:10Z</time>
      </trkpt>
      <trkpt lat="43.51546" lon="1.52005">
        <ele>149</ele>
        <time>2023-03-22T16:40:11Z</time>
      </trkpt>
      <trkpt lat="43.51544" lon="1.52003">
        <ele>149</ele>
        <time>2023-03-22T16:40:12Z</time>
      </trkpt>
      <trkpt lat="43.51542" lon="1.52001">
        <ele>149</ele>
        <time>2023-03-22T16:40:13Z</time>
      </trkpt>
      <trkpt lat="43.51541" lon="1.51999">
        <ele>149</ele>
        <time>2023-03-22T16:40:14Z</time>
      </trkpt>
      <trkpt lat="43.51541" lon="1.51999">
        <ele>149</ele>
        <time>2023-03-22T16:40:15Z</time>
      </trkpt>
      <trkpt lat="43.51539" lon="1.51997">
        <ele>149</ele>
        <time>2023-03-22T16:40:16Z</time>
      </trkpt>
      <trkpt lat="43.51534" lon="1.51994">
        <ele>149</ele>
        <time>2023-03-22T16:40:17Z</time>
      </trkpt>
      <trkpt lat="43.51533" lon="1.51993">
        <ele>149</ele>
        <time>2023-03-22T16:40:18Z</time>
      </trkpt>
      <trkpt lat="43.5153" lon="1.51991">
        <ele>149</ele>
        <time>2023-03-22T16:40:19Z</time>
      </trkpt>
      <trkpt lat="43.5153" lon="1.51991">
        <ele>149</ele>
        <time>2023-03-22T16:40:20Z</time>
      </trkpt>
      <trkpt lat="43.51528" lon="1.51989">
        <ele>150</ele>
        <time>2023-03-22T16:40:21Z</time>
      </trkpt>
      <trkpt lat="43.51526" lon="1.51987">
        <ele>150</ele>
        <time>2023-03-22T16:40:22Z</time>
      </trkpt>
      <trkpt lat="43.51524" lon="1.51986">
        <ele>149</ele>
        <time>2023-03-22T16:40:23Z</time>
      </trkpt>
      <trkpt lat="43.51522" lon="1.51984">
        <ele>149</ele>
        <time>2023-03-22T16:40:24Z</time>
      </trkpt>
      <trkpt lat="43.5152" lon="1.51982">
        <ele>149</ele>
        <time>2023-03-22T16:40:25Z</time>
      </trkpt>
      <trkpt lat="43.51518" lon="1.5198">
        <ele>149</ele>
        <time>2023-03-22T16:40:26Z</time>
      </trkpt>
      <trkpt lat="43.51514" lon="1.51976">
        <ele>149</ele>
        <time>2023-03-22T16:40:27Z</time>
      </trkpt>
      <trkpt lat="43.51511" lon="1.51974">
        <ele>149</ele>
        <time>2023-03-22T16:40:28Z</time>
      </trkpt>
      <trkpt lat="43.51511" lon="1.51974">
        <ele>149</ele>
        <time>2023-03-22T16:40:29Z</time>
      </trkpt>
      <trkpt lat="43.51509" lon="1.51972">
        <ele>149</ele>
        <time>2023-03-22T16:40:30Z</time>
      </trkpt>
      <trkpt lat="43.51507" lon="1.51969">
        <ele>149</ele>
        <time>2023-03-22T16:40:31Z</time>
      </trkpt>
      <trkpt lat="43.51505" lon="1.51965">
        <ele>149</ele>
        <time>2023-03-22T16:40:32Z</time>
      </trkpt>
      <trkpt lat="43.51505" lon="1.51965">
        <ele>149</ele>
        <time>2023-03-22T16:40:33Z</time>
      </trkpt>
      <trkpt lat="43.51503" lon="1.51962">
        <ele>149</ele>
        <time>2023-03-22T16:40:34Z</time>
      </trkpt>
      <trkpt lat="43.51502" lon="1.5196">
        <ele>149</ele>
        <time>2023-03-22T16:40:35Z</time>
      </trkpt>
      <trkpt lat="43.515" lon="1.51957">
        <ele>149</ele>
        <time>2023-03-22T16:40:36Z</time>
      </trkpt>
      <trkpt lat="43.51498" lon="1.51955">
        <ele>149</ele>
        <time>2023-03-22T16:40:37Z</time>
      </trkpt>
      <trkpt lat="43.51496" lon="1.51953">
        <ele>149</ele>
        <time>2023-03-22T16:40:38Z</time>
      </trkpt>
      <trkpt lat="43.51493" lon="1.51948">
        <ele>149</ele>
        <time>2023-03-22T16:40:39Z</time>
      </trkpt>
      <trkpt lat="43.51491" lon="1.51945">
        <ele>149</ele>
        <time>2023-03-22T16:40:40Z</time>
      </trkpt>
      <trkpt lat="43.51489" lon="1.51943">
        <ele>149</ele>
        <time>2023-03-22T16:40:41Z</time>
      </trkpt>
      <trkpt lat="43.51489" lon="1.51943">
        <ele>149</ele>
        <time>2023-03-22T16:40:42Z</time>
      </trkpt>
      <trkpt lat="43.51488" lon="1.5194">
        <ele>150</ele>
        <time>2023-03-22T16:40:43Z</time>
      </trkpt>
      <trkpt lat="43.51487" lon="1.51937">
        <ele>150</ele>
        <time>2023-03-22T16:40:44Z</time>
      </trkpt>
      <trkpt lat="43.51485" lon="1.51931">
        <ele>150</ele>
        <time>2023-03-22T16:40:45Z</time>
      </trkpt>
      <trkpt lat="43.51485" lon="1.51931">
        <ele>150</ele>
        <time>2023-03-22T16:40:46Z</time>
      </trkpt>
      <trkpt lat="43.51484" lon="1.51928">
        <ele>150</ele>
        <time>2023-03-22T16:40:47Z</time>
      </trkpt>
      <trkpt lat="43.51483" lon="1.51925">
        <ele>150</ele>
        <time>2023-03-22T16:40:48Z</time>
      </trkpt>
      <trkpt lat="43.51482" lon="1.51922">
        <ele>150</ele>
        <time>2023-03-22T16:40:49Z</time>
      </trkpt>
      <trkpt lat="43.5148" lon="1.51916">
        <ele>150</ele>
        <time>2023-03-22T16:40:50Z</time>
      </trkpt>
      <trkpt lat="43.51479" lon="1.51912">
        <ele>150</ele>
        <time>2023-03-22T16:40:51Z</time>
      </trkpt>
      <trkpt lat="43.51479" lon="1.51912">
        <ele>150</ele>
        <time>2023-03-22T16:40:52Z</time>
      </trkpt>
      <trkpt lat="43.51478" lon="1.51908">
        <ele>150</ele>
        <time>2023-03-22T16:40:53Z</time>
      </trkpt>
      <trkpt lat="43.51477" lon="1.51903">
        <ele>150</ele>
        <time>2023-03-22T16:40:54Z</time>
      </trkpt>
      <trkpt lat="43.51477" lon="1.51899">
        <ele>150</ele>
        <time>2023-03-22T16:40:55Z</time>
      </trkpt>
      <trkpt lat="43.51476" lon="1.51894">
        <ele>150</ele>
        <time>2023-03-22T16:40:56Z</time>
      </trkpt>
      <trkpt lat="43.51475" lon="1.5189">
        <ele>150</ele>
        <time>2023-03-22T16:40:57Z</time>
      </trkpt>
      <trkpt lat="43.51475" lon="1.5189">
        <ele>150</ele>
        <time>2023-03-22T16:40:58Z</time>
      </trkpt>
      <trkpt lat="43.51474" lon="1.51887">
        <ele>150</ele>
        <time>2023-03-22T16:40:59Z</time>
      </trkpt>
      <trkpt lat="43.51474" lon="1.51883">
        <ele>149</ele>
        <time>2023-03-22T16:41:00Z</time>
      </trkpt>
      <trkpt lat="43.51473" lon="1.5188">
        <ele>149</ele>
        <time>2023-03-22T16:41:01Z</time>
      </trkpt>
      <trkpt lat="43.51473" lon="1.51874">
        <ele>149</ele>
        <time>2023-03-22T16:41:02Z</time>
      </trkpt>
      <trkpt lat="43.51473" lon="1.5187">
        <ele>149</ele>
        <time>2023-03-22T16:41:03Z</time>
      </trkpt>
      <trkpt lat="43.51473" lon="1.51866">
        <ele>149</ele>
        <time>2023-03-22T16:41:04Z</time>
      </trkpt>
      <trkpt lat="43.51473" lon="1.51862">
        <ele>149</ele>
        <time>2023-03-22T16:41:05Z</time>
      </trkpt>
      <trkpt lat="43.51473" lon="1.51862">
        <ele>149</ele>
        <time>2023-03-22T16:41:06Z</time>
      </trkpt>
      <trkpt lat="43.51473" lon="1.51854">
        <ele>149</ele>
        <time>2023-03-22T16:41:07Z</time>
      </trkpt>
      <trkpt lat="43.51473" lon="1.51854">
        <ele>149</ele>
        <time>2023-03-22T16:41:08Z</time>
      </trkpt>
      <trkpt lat="43.51473" lon="1.51849">
        <ele>149</ele>
        <time>2023-03-22T16:41:09Z</time>
      </trkpt>
      <trkpt lat="43.51472" lon="1.51844">
        <ele>149</ele>
        <time>2023-03-22T16:41:10Z</time>
      </trkpt>
      <trkpt lat="43.51472" lon="1.51838">
        <ele>149</ele>
        <time>2023-03-22T16:41:11Z</time>
      </trkpt>
      <trkpt lat="43.51472" lon="1.51835">
        <ele>149</ele>
        <time>2023-03-22T16:41:12Z</time>
      </trkpt>
      <trkpt lat="43.51472" lon="1.51835">
        <ele>149</ele>
        <time>2023-03-22T16:41:13Z</time>
      </trkpt>
      <trkpt lat="43.5147" lon="1.5183">
        <ele>149</ele>
        <time>2023-03-22T16:41:14Z</time>
      </trkpt>
      <trkpt lat="43.5147" lon="1.5183">
        <ele>149</ele>
        <time>2023-03-22T16:41:15Z</time>
      </trkpt>
      <trkpt lat="43.51468" lon="1.51829">
        <ele>149</ele>
        <time>2023-03-22T16:41:16Z</time>
      </trkpt>
      <trkpt lat="43.51466" lon="1.51827">
        <ele>149</ele>
        <time>2023-03-22T16:41:17Z</time>
      </trkpt>
      <trkpt lat="43.51463" lon="1.51827">
        <ele>149</ele>
        <time>2023-03-22T16:41:18Z</time>
      </trkpt>
      <trkpt lat="43.5146" lon="1.51826">
        <ele>149</ele>
        <time>2023-03-22T16:41:19Z</time>
      </trkpt>
      <trkpt lat="43.51457" lon="1.51825">
        <ele>149</ele>
        <time>2023-03-22T16:41:20Z</time>
      </trkpt>
      <trkpt lat="43.51457" lon="1.51825">
        <ele>149</ele>
        <time>2023-03-22T16:41:21Z</time>
      </trkpt>
      <trkpt lat="43.51455" lon="1.51825">
        <ele>149</ele>
        <time>2023-03-22T16:41:22Z</time>
      </trkpt>
      <trkpt lat="43.51455" lon="1.51825">
        <ele>149</ele>
        <time>2023-03-22T16:41:23Z</time>
      </trkpt>
      <trkpt lat="43.51458" lon="1.51824">
        <ele>149</ele>
        <time>2023-03-22T16:41:24Z</time>
      </trkpt>
      <trkpt lat="43.51458" lon="1.51824">
        <ele>149</ele>
        <time>2023-03-22T16:41:25Z</time>
      </trkpt>
      <trkpt lat="43.51461" lon="1.51826">
        <ele>150</ele>
        <time>2023-03-22T16:41:26Z</time>
      </trkpt>
      <trkpt lat="43.51464" lon="1.51829">
        <ele>150</ele>
        <time>2023-03-22T16:41:27Z</time>
      </trkpt>
      <trkpt lat="43.51466" lon="1.51831">
        <ele>150</ele>
        <time>2023-03-22T16:41:28Z</time>
      </trkpt>
      <trkpt lat="43.51469" lon="1.51833">
        <ele>150</ele>
        <time>2023-03-22T16:41:29Z</time>
      </trkpt>
      <trkpt lat="43.51471" lon="1.51837">
        <ele>150</ele>
        <time>2023-03-22T16:41:30Z</time>
      </trkpt>
      <trkpt lat="43.51474" lon="1.51842">
        <ele>150</ele>
        <time>2023-03-22T16:41:31Z</time>
      </trkpt>
      <trkpt lat="43.51476" lon="1.51846">
        <ele>150</ele>
        <time>2023-03-22T16:41:32Z</time>
      </trkpt>
      <trkpt lat="43.51476" lon="1.51848">
        <ele>150</ele>
        <time>2023-03-22T16:41:33Z</time>
      </trkpt>
      <trkpt lat="43.51477" lon="1.51851">
        <ele>150</ele>
        <time>2023-03-22T16:41:34Z</time>
      </trkpt>
      <trkpt lat="43.51477" lon="1.51855">
        <ele>150</ele>
        <time>2023-03-22T16:41:35Z</time>
      </trkpt>
      <trkpt lat="43.51478" lon="1.51859">
        <ele>150</ele>
        <time>2023-03-22T16:41:36Z</time>
      </trkpt>
      <trkpt lat="43.51479" lon="1.51863">
        <ele>150</ele>
        <time>2023-03-22T16:41:37Z</time>
      </trkpt>
      <trkpt lat="43.5148" lon="1.51866">
        <ele>150</ele>
        <time>2023-03-22T16:41:38Z</time>
      </trkpt>
      <trkpt lat="43.51481" lon="1.51873">
        <ele>150</ele>
        <time>2023-03-22T16:41:39Z</time>
      </trkpt>
      <trkpt lat="43.51481" lon="1.51873">
        <ele>150</ele>
        <time>2023-03-22T16:41:40Z</time>
      </trkpt>
      <trkpt lat="43.51481" lon="1.51876">
        <ele>150</ele>
        <time>2023-03-22T16:41:41Z</time>
      </trkpt>
      <trkpt lat="43.51481" lon="1.51879">
        <ele>150</ele>
        <time>2023-03-22T16:41:42Z</time>
      </trkpt>
      <trkpt lat="43.51482" lon="1.51883">
        <ele>150</ele>
        <time>2023-03-22T16:41:43Z</time>
      </trkpt>
      <trkpt lat="43.51482" lon="1.51888">
        <ele>150</ele>
        <time>2023-03-22T16:41:44Z</time>
      </trkpt>
      <trkpt lat="43.51483" lon="1.51891">
        <ele>150</ele>
        <time>2023-03-22T16:41:45Z</time>
      </trkpt>
      <trkpt lat="43.51483" lon="1.51894">
        <ele>150</ele>
        <time>2023-03-22T16:41:46Z</time>
      </trkpt>
      <trkpt lat="43.51483" lon="1.51894">
        <ele>149</ele>
        <time>2023-03-22T16:41:47Z</time>
      </trkpt>
      <trkpt lat="43.51485" lon="1.519">
        <ele>149</ele>
        <time>2023-03-22T16:41:48Z</time>
      </trkpt>
      <trkpt lat="43.51486" lon="1.51903">
        <ele>149</ele>
        <time>2023-03-22T16:41:49Z</time>
      </trkpt>
      <trkpt lat="43.51488" lon="1.51906">
        <ele>149</ele>
        <time>2023-03-22T16:41:50Z</time>
      </trkpt>
      <trkpt lat="43.51488" lon="1.51906">
        <ele>149</ele>
        <time>2023-03-22T16:41:51Z</time>
      </trkpt>
      <trkpt lat="43.51489" lon="1.51908">
        <ele>149</ele>
        <time>2023-03-22T16:41:52Z</time>
      </trkpt>
      <trkpt lat="43.5149" lon="1.5191">
        <ele>149</ele>
        <time>2023-03-22T16:41:53Z</time>
      </trkpt>
      <trkpt lat="43.51492" lon="1.51913">
        <ele>149</ele>
        <time>2023-03-22T16:41:54Z</time>
      </trkpt>
      <trkpt lat="43.51493" lon="1.51915">
        <ele>149</ele>
        <time>2023-03-22T16:41:55Z</time>
      </trkpt>
      <trkpt lat="43.51495" lon="1.51918">
        <ele>149</ele>
        <time>2023-03-22T16:41:56Z</time>
      </trkpt>
      <trkpt lat="43.51496" lon="1.5192">
        <ele>149</ele>
        <time>2023-03-22T16:41:57Z</time>
      </trkpt>
      <trkpt lat="43.51497" lon="1.51922">
        <ele>149</ele>
        <time>2023-03-22T16:41:58Z</time>
      </trkpt>
      <trkpt lat="43.51498" lon="1.51925">
        <ele>149</ele>
        <time>2023-03-22T16:41:59Z</time>
      </trkpt>
      <trkpt lat="43.51499" lon="1.51927">
        <ele>149</ele>
        <time>2023-03-22T16:42:00Z</time>
      </trkpt>
      <trkpt lat="43.515" lon="1.5193">
        <ele>149</ele>
        <time>2023-03-22T16:42:01Z</time>
      </trkpt>
      <trkpt lat="43.51501" lon="1.51932">
        <ele>149</ele>
        <time>2023-03-22T16:42:02Z</time>
      </trkpt>
      <trkpt lat="43.51503" lon="1.51935">
        <ele>149</ele>
        <time>2023-03-22T16:42:03Z</time>
      </trkpt>
      <trkpt lat="43.51506" lon="1.51937">
        <ele>149</ele>
        <time>2023-03-22T16:42:04Z</time>
      </trkpt>
      <trkpt lat="43.51508" lon="1.51939">
        <ele>149</ele>
        <time>2023-03-22T16:42:05Z</time>
      </trkpt>
      <trkpt lat="43.5151" lon="1.51942">
        <ele>149</ele>
        <time>2023-03-22T16:42:06Z</time>
      </trkpt>
      <trkpt lat="43.51512" lon="1.51944">
        <ele>149</ele>
        <time>2023-03-22T16:42:07Z</time>
      </trkpt>
      <trkpt lat="43.51514" lon="1.51946">
        <ele>149</ele>
        <time>2023-03-22T16:42:08Z</time>
      </trkpt>
      <trkpt lat="43.51514" lon="1.51946">
        <ele>149</ele>
        <time>2023-03-22T16:42:09Z</time>
      </trkpt>
      <trkpt lat="43.51515" lon="1.51947">
        <ele>149</ele>
        <time>2023-03-22T16:42:10Z</time>
      </trkpt>
      <trkpt lat="43.51517" lon="1.51949">
        <ele>149</ele>
        <time>2023-03-22T16:42:11Z</time>
      </trkpt>
      <trkpt lat="43.51519" lon="1.5195">
        <ele>149</ele>
        <time>2023-03-22T16:42:12Z</time>
      </trkpt>
      <trkpt lat="43.51521" lon="1.51952">
        <ele>149</ele>
        <time>2023-03-22T16:42:13Z</time>
      </trkpt>
      <trkpt lat="43.51522" lon="1.51953">
        <ele>149</ele>
        <time>2023-03-22T16:42:14Z</time>
      </trkpt>
      <trkpt lat="43.51524" lon="1.51955">
        <ele>149</ele>
        <time>2023-03-22T16:42:15Z</time>
      </trkpt>
      <trkpt lat="43.51525" lon="1.51957">
        <ele>149</ele>
        <time>2023-03-22T16:42:16Z</time>
      </trkpt>
      <trkpt lat="43.51526" lon="1.51959">
        <ele>149</ele>
        <time>2023-03-22T16:42:17Z</time>
      </trkpt>
      <trkpt lat="43.51527" lon="1.51961">
        <ele>149</ele>
        <time>2023-03-22T16:42:18Z</time>
      </trkpt>
      <trkpt lat="43.51529" lon="1.51963">
        <ele>149</ele>
        <time>2023-03-22T16:42:19Z</time>
      </trkpt>
      <trkpt lat="43.5153" lon="1.51964">
        <ele>149</ele>
        <time>2023-03-22T16:42:20Z</time>
      </trkpt>
      <trkpt lat="43.51532" lon="1.51966">
        <ele>149</ele>
        <time>2023-03-22T16:42:21Z</time>
      </trkpt>
      <trkpt lat="43.51533" lon="1.51968">
        <ele>149</ele>
        <time>2023-03-22T16:42:22Z</time>
      </trkpt>
      <trkpt lat="43.51535" lon="1.51969">
        <ele>149</ele>
        <time>2023-03-22T16:42:23Z</time>
      </trkpt>
      <trkpt lat="43.51536" lon="1.51971">
        <ele>149</ele>
        <time>2023-03-22T16:42:24Z</time>
      </trkpt>
      <trkpt lat="43.51537" lon="1.51973">
        <ele>149</ele>
        <time>2023-03-22T16:42:25Z</time>
      </trkpt>
      <trkpt lat="43.51539" lon="1.51975">
        <ele>149</ele>
        <time>2023-03-22T16:42:26Z</time>
      </trkpt>
      <trkpt lat="43.5154" lon="1.51977">
        <ele>149</ele>
        <time>2023-03-22T16:42:27Z</time>
      </trkpt>
      <trkpt lat="43.51541" lon="1.51979">
        <ele>149</ele>
        <time>2023-03-22T16:42:28Z</time>
      </trkpt>
      <trkpt lat="43.51543" lon="1.51981">
        <ele>149</ele>
        <time>2023-03-22T16:42:29Z</time>
      </trkpt>
      <trkpt lat="43.51544" lon="1.51983">
        <ele>149</ele>
        <time>2023-03-22T16:42:30Z</time>
      </trkpt>
      <trkpt lat="43.51545" lon="1.51985">
        <ele>149</ele>
        <time>2023-03-22T16:42:31Z</time>
      </trkpt>
      <trkpt lat="43.51547" lon="1.51987">
        <ele>149</ele>
        <time>2023-03-22T16:42:32Z</time>
      </trkpt>
      <trkpt lat="43.51548" lon="1.51989">
        <ele>148</ele>
        <time>2023-03-22T16:42:33Z</time>
      </trkpt>
      <trkpt lat="43.51549" lon="1.51991">
        <ele>148</ele>
        <time>2023-03-22T16:42:34Z</time>
      </trkpt>
      <trkpt lat="43.51551" lon="1.51993">
        <ele>148</ele>
        <time>2023-03-22T16:42:35Z</time>
      </trkpt>
      <trkpt lat="43.51552" lon="1.51994">
        <ele>148</ele>
        <time>2023-03-22T16:42:36Z</time>
      </trkpt>
      <trkpt lat="43.51553" lon="1.51995">
        <ele>148</ele>
        <time>2023-03-22T16:42:37Z</time>
      </trkpt>
      <trkpt lat="43.51554" lon="1.51996">
        <ele>148</ele>
        <time>2023-03-22T16:42:38Z</time>
      </trkpt>
      <trkpt lat="43.5156" lon="1.52002">
        <ele>148</ele>
        <time>2023-03-22T16:42:39Z</time>
      </trkpt>
      <trkpt lat="43.51562" lon="1.52004">
        <ele>148</ele>
        <time>2023-03-22T16:42:40Z</time>
      </trkpt>
      <trkpt lat="43.51564" lon="1.52006">
        <ele>149</ele>
        <time>2023-03-22T16:42:41Z</time>
      </trkpt>
      <trkpt lat="43.51566" lon="1.52008">
        <ele>149</ele>
        <time>2023-03-22T16:42:42Z</time>
      </trkpt>
      <trkpt lat="43.51568" lon="1.52011">
        <ele>149</ele>
        <time>2023-03-22T16:42:43Z</time>
      </trkpt>
      <trkpt lat="43.51569" lon="1.52013">
        <ele>149</ele>
        <time>2023-03-22T16:42:44Z</time>
      </trkpt>
      <trkpt lat="43.51571" lon="1.52015">
        <ele>149</ele>
        <time>2023-03-22T16:42:45Z</time>
      </trkpt>
      <trkpt lat="43.51573" lon="1.52018">
        <ele>149</ele>
        <time>2023-03-22T16:42:46Z</time>
      </trkpt>
      <trkpt lat="43.51576" lon="1.5202">
        <ele>149</ele>
        <time>2023-03-22T16:42:47Z</time>
      </trkpt>
      <trkpt lat="43.51578" lon="1.52023">
        <ele>149</ele>
        <time>2023-03-22T16:42:48Z</time>
      </trkpt>
      <trkpt lat="43.51581" lon="1.52026">
        <ele>149</ele>
        <time>2023-03-22T16:42:49Z</time>
      </trkpt>
      <trkpt lat="43.51584" lon="1.52028">
        <ele>149</ele>
        <time>2023-03-22T16:42:50Z</time>
      </trkpt>
      <trkpt lat="43.51587" lon="1.5203">
        <ele>149</ele>
        <time>2023-03-22T16:42:51Z</time>
      </trkpt>
      <trkpt lat="43.5159" lon="1.52033">
        <ele>149</ele>
        <time>2023-03-22T16:42:52Z</time>
      </trkpt>
      <trkpt lat="43.51594" lon="1.52036">
        <ele>149</ele>
        <time>2023-03-22T16:42:53Z</time>
      </trkpt>
      <trkpt lat="43.51598" lon="1.52039">
        <ele>149</ele>
        <time>2023-03-22T16:42:54Z</time>
      </trkpt>
      <trkpt lat="43.516" lon="1.5204">
        <ele>149</ele>
        <time>2023-03-22T16:42:55Z</time>
      </trkpt>
      <trkpt lat="43.51602" lon="1.52041">
        <ele>149</ele>
        <time>2023-03-22T16:42:56Z</time>
      </trkpt>
      <trkpt lat="43.51604" lon="1.52042">
        <ele>149</ele>
        <time>2023-03-22T16:42:57Z</time>
      </trkpt>
      <trkpt lat="43.51605" lon="1.52043">
        <ele>149</ele>
        <time>2023-03-22T16:42:58Z</time>
      </trkpt>
      <trkpt lat="43.51607" lon="1.52043">
        <ele>149</ele>
        <time>2023-03-22T16:42:59Z</time>
      </trkpt>
      <trkpt lat="43.5161" lon="1.52044">
        <ele>149</ele>
        <time>2023-03-22T16:43:00Z</time>
      </trkpt>
      <trkpt lat="43.51612" lon="1.52044">
        <ele>149</ele>
        <time>2023-03-22T16:43:01Z</time>
      </trkpt>
      <trkpt lat="43.51614" lon="1.52044">
        <ele>149</ele>
        <time>2023-03-22T16:43:02Z</time>
      </trkpt>
      <trkpt lat="43.51617" lon="1.52044">
        <ele>149</ele>
        <time>2023-03-22T16:43:03Z</time>
      </trkpt>
      <trkpt lat="43.5162" lon="1.52045">
        <ele>149</ele>
        <time>2023-03-22T16:43:04Z</time>
      </trkpt>
      <trkpt lat="43.5162" lon="1.52045">
        <ele>148</ele>
        <time>2023-03-22T16:43:05Z</time>
      </trkpt>
      <trkpt lat="43.51622" lon="1.52045">
        <ele>148</ele>
        <time>2023-03-22T16:43:06Z</time>
      </trkpt>
      <trkpt lat="43.51624" lon="1.52045">
        <ele>149</ele>
        <time>2023-03-22T16:43:07Z</time>
      </trkpt>
      <trkpt lat="43.51626" lon="1.52045">
        <ele>149</ele>
        <time>2023-03-22T16:43:08Z</time>
      </trkpt>
      <trkpt lat="43.51628" lon="1.52045">
        <ele>149</ele>
        <time>2023-03-22T16:43:09Z</time>
      </trkpt>
      <trkpt lat="43.5163" lon="1.52045">
        <ele>149</ele>
        <time>2023-03-22T16:43:10Z</time>
      </trkpt>
      <trkpt lat="43.51633" lon="1.52045">
        <ele>149</ele>
        <time>2023-03-22T16:43:11Z</time>
      </trkpt>
      <trkpt lat="43.51635" lon="1.52044">
        <ele>149</ele>
        <time>2023-03-22T16:43:12Z</time>
      </trkpt>
      <trkpt lat="43.51637" lon="1.52043">
        <ele>149</ele>
        <time>2023-03-22T16:43:13Z</time>
      </trkpt>
      <trkpt lat="43.5164" lon="1.52042">
        <ele>149</ele>
        <time>2023-03-22T16:43:14Z</time>
      </trkpt>
      <trkpt lat="43.5164" lon="1.52042">
        <ele>149</ele>
        <time>2023-03-22T16:43:15Z</time>
      </trkpt>
      <trkpt lat="43.51642" lon="1.52042">
        <ele>149</ele>
        <time>2023-03-22T16:43:16Z</time>
      </trkpt>
      <trkpt lat="43.51644" lon="1.52042">
        <ele>149</ele>
        <time>2023-03-22T16:43:17Z</time>
      </trkpt>
      <trkpt lat="43.51647" lon="1.52041">
        <ele>149</ele>
        <time>2023-03-22T16:43:18Z</time>
      </trkpt>
      <trkpt lat="43.51649" lon="1.52041">
        <ele>149</ele>
        <time>2023-03-22T16:43:19Z</time>
      </trkpt>
      <trkpt lat="43.51652" lon="1.5204">
        <ele>149</ele>
        <time>2023-03-22T16:43:20Z</time>
      </trkpt>
      <trkpt lat="43.51654" lon="1.52038">
        <ele>149</ele>
        <time>2023-03-22T16:43:21Z</time>
      </trkpt>
      <trkpt lat="43.51656" lon="1.52037">
        <ele>149</ele>
        <time>2023-03-22T16:43:22Z</time>
      </trkpt>
      <trkpt lat="43.51659" lon="1.52036">
        <ele>149</ele>
        <time>2023-03-22T16:43:23Z</time>
      </trkpt>
      <trkpt lat="43.51666" lon="1.52037">
        <ele>149</ele>
        <time>2023-03-22T16:43:24Z</time>
      </trkpt>
      <trkpt lat="43.51666" lon="1.52037">
        <ele>149</ele>
        <time>2023-03-22T16:43:25Z</time>
      </trkpt>
      <trkpt lat="43.51668" lon="1.52036">
        <ele>149</ele>
        <time>2023-03-22T16:43:26Z</time>
      </trkpt>
      <trkpt lat="43.51673" lon="1.52034">
        <ele>149</ele>
        <time>2023-03-22T16:43:27Z</time>
      </trkpt>
      <trkpt lat="43.51673" lon="1.52034">
        <ele>149</ele>
        <time>2023-03-22T16:43:28Z</time>
      </trkpt>
      <trkpt lat="43.51676" lon="1.52033">
        <ele>149</ele>
        <time>2023-03-22T16:43:29Z</time>
      </trkpt>
      <trkpt lat="43.5168" lon="1.52032">
        <ele>149</ele>
        <time>2023-03-22T16:43:30Z</time>
      </trkpt>
      <trkpt lat="43.5168" lon="1.52032">
        <ele>149</ele>
        <time>2023-03-22T16:43:31Z</time>
      </trkpt>
      <trkpt lat="43.51682" lon="1.52031">
        <ele>149</ele>
        <time>2023-03-22T16:43:32Z</time>
      </trkpt>
      <trkpt lat="43.51684" lon="1.52029">
        <ele>149</ele>
        <time>2023-03-22T16:43:33Z</time>
      </trkpt>
      <trkpt lat="43.51686" lon="1.52028">
        <ele>149</ele>
        <time>2023-03-22T16:43:34Z</time>
      </trkpt>
      <trkpt lat="43.5169" lon="1.52025">
        <ele>149</ele>
        <time>2023-03-22T16:43:35Z</time>
      </trkpt>
      <trkpt lat="43.51692" lon="1.52023">
        <ele>149</ele>
        <time>2023-03-22T16:43:36Z</time>
      </trkpt>
      <trkpt lat="43.51693" lon="1.52022">
        <ele>149</ele>
        <time>2023-03-22T16:43:37Z</time>
      </trkpt>
      <trkpt lat="43.51693" lon="1.52022">
        <ele>149</ele>
        <time>2023-03-22T16:43:38Z</time>
      </trkpt>
      <trkpt lat="43.51696" lon="1.52021">
        <ele>149</ele>
        <time>2023-03-22T16:43:39Z</time>
      </trkpt>
      <trkpt lat="43.51698" lon="1.5202">
        <ele>149</ele>
        <time>2023-03-22T16:43:40Z</time>
      </trkpt>
      <trkpt lat="43.51699" lon="1.52018">
        <ele>149</ele>
        <time>2023-03-22T16:43:41Z</time>
      </trkpt>
      <trkpt lat="43.51702" lon="1.52016">
        <ele>149</ele>
        <time>2023-03-22T16:43:42Z</time>
      </trkpt>
      <trkpt lat="43.51705" lon="1.52014">
        <ele>149</ele>
        <time>2023-03-22T16:43:43Z</time>
      </trkpt>
      <trkpt lat="43.51707" lon="1.52013">
        <ele>149</ele>
        <time>2023-03-22T16:43:44Z</time>
      </trkpt>
      <trkpt lat="43.51709" lon="1.5201">
        <ele>149</ele>
        <time>2023-03-22T16:43:45Z</time>
      </trkpt>
      <trkpt lat="43.51711" lon="1.52009">
        <ele>149</ele>
        <time>2023-03-22T16:43:46Z</time>
      </trkpt>
      <trkpt lat="43.51715" lon="1.52004">
        <ele>149</ele>
        <time>2023-03-22T16:43:47Z</time>
      </trkpt>
      <trkpt lat="43.51715" lon="1.52004">
        <ele>148</ele>
        <time>2023-03-22T16:43:48Z</time>
      </trkpt>
      <trkpt lat="43.51717" lon="1.52002">
        <ele>149</ele>
        <time>2023-03-22T16:43:49Z</time>
      </trkpt>
      <trkpt lat="43.51721" lon="1.51998">
        <ele>149</ele>
        <time>2023-03-22T16:43:50Z</time>
      </trkpt>
      <trkpt lat="43.51723" lon="1.51996">
        <ele>148</ele>
        <time>2023-03-22T16:43:51Z</time>
      </trkpt>
      <trkpt lat="43.51725" lon="1.51995">
        <ele>148</ele>
        <time>2023-03-22T16:43:52Z</time>
      </trkpt>
      <trkpt lat="43.51725" lon="1.51995">
        <ele>148</ele>
        <time>2023-03-22T16:43:53Z</time>
      </trkpt>
      <trkpt lat="43.51729" lon="1.51992">
        <ele>148</ele>
        <time>2023-03-22T16:43:54Z</time>
      </trkpt>
      <trkpt lat="43.51729" lon="1.51992">
        <ele>148</ele>
        <time>2023-03-22T16:43:55Z</time>
      </trkpt>
      <trkpt lat="43.51731" lon="1.5199">
        <ele>148</ele>
        <time>2023-03-22T16:43:56Z</time>
      </trkpt>
      <trkpt lat="43.51734" lon="1.51988">
        <ele>148</ele>
        <time>2023-03-22T16:43:57Z</time>
      </trkpt>
      <trkpt lat="43.51737" lon="1.51985">
        <ele>148</ele>
        <time>2023-03-22T16:43:58Z</time>
      </trkpt>
      <trkpt lat="43.5174" lon="1.51983">
        <ele>148</ele>
        <time>2023-03-22T16:43:59Z</time>
      </trkpt>
      <trkpt lat="43.5174" lon="1.51983">
        <ele>148</ele>
        <time>2023-03-22T16:44:00Z</time>
      </trkpt>
      <trkpt lat="43.51743" lon="1.51982">
        <ele>148</ele>
        <time>2023-03-22T16:44:01Z</time>
      </trkpt>
      <trkpt lat="43.51745" lon="1.5198">
        <ele>148</ele>
        <time>2023-03-22T16:44:02Z</time>
      </trkpt>
      <trkpt lat="43.51749" lon="1.51976">
        <ele>148</ele>
        <time>2023-03-22T16:44:03Z</time>
      </trkpt>
      <trkpt lat="43.51752" lon="1.51974">
        <ele>148</ele>
        <time>2023-03-22T16:44:04Z</time>
      </trkpt>
      <trkpt lat="43.51754" lon="1.51972">
        <ele>148</ele>
        <time>2023-03-22T16:44:05Z</time>
      </trkpt>
      <trkpt lat="43.51754" lon="1.51972">
        <ele>148</ele>
        <time>2023-03-22T16:44:06Z</time>
      </trkpt>
      <trkpt lat="43.51758" lon="1.5197">
        <ele>148</ele>
        <time>2023-03-22T16:44:07Z</time>
      </trkpt>
      <trkpt lat="43.51758" lon="1.5197">
        <ele>148</ele>
        <time>2023-03-22T16:44:08Z</time>
      </trkpt>
      <trkpt lat="43.51763" lon="1.51966">
        <ele>148</ele>
        <time>2023-03-22T16:44:09Z</time>
      </trkpt>
      <trkpt lat="43.51763" lon="1.51966">
        <ele>148</ele>
        <time>2023-03-22T16:44:10Z</time>
      </trkpt>
      <trkpt lat="43.51765" lon="1.51965">
        <ele>148</ele>
        <time>2023-03-22T16:44:11Z</time>
      </trkpt>
      <trkpt lat="43.5177" lon="1.51962">
        <ele>148</ele>
        <time>2023-03-22T16:44:12Z</time>
      </trkpt>
      <trkpt lat="43.51773" lon="1.51961">
        <ele>148</ele>
        <time>2023-03-22T16:44:13Z</time>
      </trkpt>
      <trkpt lat="43.51773" lon="1.51961">
        <ele>148</ele>
        <time>2023-03-22T16:44:14Z</time>
      </trkpt>
      <trkpt lat="43.51775" lon="1.5196">
        <ele>148</ele>
        <time>2023-03-22T16:44:15Z</time>
      </trkpt>
      <trkpt lat="43.51777" lon="1.51958">
        <ele>148</ele>
        <time>2023-03-22T16:44:16Z</time>
      </trkpt>
      <trkpt lat="43.5178" lon="1.51957">
        <ele>148</ele>
        <time>2023-03-22T16:44:17Z</time>
      </trkpt>
      <trkpt lat="43.51782" lon="1.51957">
        <ele>148</ele>
        <time>2023-03-22T16:44:18Z</time>
      </trkpt>
      <trkpt lat="43.51788" lon="1.51955">
        <ele>148</ele>
        <time>2023-03-22T16:44:19Z</time>
      </trkpt>
      <trkpt lat="43.51788" lon="1.51955">
        <ele>148</ele>
        <time>2023-03-22T16:44:20Z</time>
      </trkpt>
      <trkpt lat="43.5179" lon="1.51954">
        <ele>148</ele>
        <time>2023-03-22T16:44:21Z</time>
      </trkpt>
      <trkpt lat="43.51793" lon="1.51953">
        <ele>148</ele>
        <time>2023-03-22T16:44:22Z</time>
      </trkpt>
      <trkpt lat="43.51799" lon="1.51951">
        <ele>148</ele>
        <time>2023-03-22T16:44:23Z</time>
      </trkpt>
      <trkpt lat="43.51799" lon="1.51951">
        <ele>148</ele>
        <time>2023-03-22T16:44:24Z</time>
      </trkpt>
      <trkpt lat="43.51801" lon="1.51949">
        <ele>149</ele>
        <time>2023-03-22T16:44:25Z</time>
      </trkpt>
      <trkpt lat="43.51804" lon="1.51949">
        <ele>149</ele>
        <time>2023-03-22T16:44:26Z</time>
      </trkpt>
      <trkpt lat="43.51805" lon="1.51949">
        <ele>149</ele>
        <time>2023-03-22T16:44:27Z</time>
      </trkpt>
      <trkpt lat="43.51807" lon="1.51949">
        <ele>149</ele>
        <time>2023-03-22T16:44:28Z</time>
      </trkpt>
      <trkpt lat="43.51808" lon="1.51949">
        <ele>148</ele>
        <time>2023-03-22T16:44:29Z</time>
      </trkpt>
      <trkpt lat="43.51809" lon="1.51949">
        <ele>148</ele>
        <time>2023-03-22T16:44:30Z</time>
      </trkpt>
      <trkpt lat="43.51818" lon="1.51949">
        <ele>148</ele>
        <time>2023-03-22T16:44:31Z</time>
      </trkpt>
      <trkpt lat="43.5182" lon="1.5195">
        <ele>148</ele>
        <time>2023-03-22T16:44:32Z</time>
      </trkpt>
      <trkpt lat="43.51823" lon="1.5195">
        <ele>148</ele>
        <time>2023-03-22T16:44:33Z</time>
      </trkpt>
      <trkpt lat="43.51826" lon="1.5195">
        <ele>148</ele>
        <time>2023-03-22T16:44:34Z</time>
      </trkpt>
      <trkpt lat="43.51829" lon="1.51952">
        <ele>148</ele>
        <time>2023-03-22T16:44:35Z</time>
      </trkpt>
      <trkpt lat="43.51832" lon="1.51953">
        <ele>148</ele>
        <time>2023-03-22T16:44:36Z</time>
      </trkpt>
      <trkpt lat="43.51836" lon="1.51954">
        <ele>148</ele>
        <time>2023-03-22T16:44:37Z</time>
      </trkpt>
      <trkpt lat="43.51839" lon="1.51956">
        <ele>149</ele>
        <time>2023-03-22T16:44:38Z</time>
      </trkpt>
      <trkpt lat="43.51842" lon="1.51958">
        <ele>149</ele>
        <time>2023-03-22T16:44:39Z</time>
      </trkpt>
      <trkpt lat="43.51845" lon="1.51961">
        <ele>149</ele>
        <time>2023-03-22T16:44:40Z</time>
      </trkpt>
      <trkpt lat="43.51848" lon="1.51961">
        <ele>149</ele>
        <time>2023-03-22T16:44:41Z</time>
      </trkpt>
      <trkpt lat="43.5185" lon="1.51961">
        <ele>149</ele>
        <time>2023-03-22T16:44:42Z</time>
      </trkpt>
      <trkpt lat="43.51853" lon="1.51962">
        <ele>148</ele>
        <time>2023-03-22T16:44:43Z</time>
      </trkpt>
      <trkpt lat="43.51855" lon="1.51962">
        <ele>148</ele>
        <time>2023-03-22T16:44:44Z</time>
      </trkpt>
      <trkpt lat="43.51858" lon="1.51963">
        <ele>148</ele>
        <time>2023-03-22T16:44:45Z</time>
      </trkpt>
      <trkpt lat="43.51861" lon="1.51964">
        <ele>148</ele>
        <time>2023-03-22T16:44:46Z</time>
      </trkpt>
      <trkpt lat="43.51864" lon="1.51965">
        <ele>149</ele>
        <time>2023-03-22T16:44:47Z</time>
      </trkpt>
      <trkpt lat="43.51867" lon="1.51966">
        <ele>149</ele>
        <time>2023-03-22T16:44:48Z</time>
      </trkpt>
      <trkpt lat="43.5187" lon="1.51968">
        <ele>149</ele>
        <time>2023-03-22T16:44:49Z</time>
      </trkpt>
      <trkpt lat="43.51873" lon="1.51969">
        <ele>149</ele>
        <time>2023-03-22T16:44:50Z</time>
      </trkpt>
      <trkpt lat="43.51876" lon="1.51971">
        <ele>148</ele>
        <time>2023-03-22T16:44:51Z</time>
      </trkpt>
      <trkpt lat="43.51878" lon="1.51972">
        <ele>149</ele>
        <time>2023-03-22T16:44:52Z</time>
      </trkpt>
      <trkpt lat="43.5188" lon="1.51974">
        <ele>149</ele>
        <time>2023-03-22T16:44:53Z</time>
      </trkpt>
      <trkpt lat="43.51883" lon="1.51975">
        <ele>149</ele>
        <time>2023-03-22T16:44:54Z</time>
      </trkpt>
      <trkpt lat="43.51885" lon="1.51976">
        <ele>149</ele>
        <time>2023-03-22T16:44:55Z</time>
      </trkpt>
      <trkpt lat="43.51888" lon="1.51977">
        <ele>149</ele>
        <time>2023-03-22T16:44:56Z</time>
      </trkpt>
      <trkpt lat="43.5189" lon="1.51978">
        <ele>149</ele>
        <time>2023-03-22T16:44:57Z</time>
      </trkpt>
      <trkpt lat="43.51893" lon="1.51979">
        <ele>149</ele>
        <time>2023-03-22T16:44:58Z</time>
      </trkpt>
      <trkpt lat="43.51895" lon="1.51981">
        <ele>149</ele>
        <time>2023-03-22T16:44:59Z</time>
      </trkpt>
      <trkpt lat="43.51898" lon="1.51982">
        <ele>149</ele>
        <time>2023-03-22T16:45:00Z</time>
      </trkpt>
      <trkpt lat="43.519" lon="1.51983">
        <ele>149</ele>
        <time>2023-03-22T16:45:01Z</time>
      </trkpt>
      <trkpt lat="43.51902" lon="1.51984">
        <ele>148</ele>
        <time>2023-03-22T16:45:02Z</time>
      </trkpt>
      <trkpt lat="43.51904" lon="1.51985">
        <ele>148</ele>
        <time>2023-03-22T16:45:03Z</time>
      </trkpt>
      <trkpt lat="43.51906" lon="1.51986">
        <ele>148</ele>
        <time>2023-03-22T16:45:04Z</time>
      </trkpt>
      <trkpt lat="43.51909" lon="1.51987">
        <ele>148</ele>
        <time>2023-03-22T16:45:05Z</time>
      </trkpt>
      <trkpt lat="43.51911" lon="1.51987">
        <ele>148</ele>
        <time>2023-03-22T16:45:06Z</time>
      </trkpt>
      <trkpt lat="43.51914" lon="1.51988">
        <ele>148</ele>
        <time>2023-03-22T16:45:07Z</time>
      </trkpt>
      <trkpt lat="43.51916" lon="1.51988">
        <ele>148</ele>
        <time>2023-03-22T16:45:08Z</time>
      </trkpt>
      <trkpt lat="43.51917" lon="1.51988">
        <ele>148</ele>
        <time>2023-03-22T16:45:09Z</time>
      </trkpt>
      <trkpt lat="43.51918" lon="1.51989">
        <ele>148</ele>
        <time>2023-03-22T16:45:10Z</time>
      </trkpt>
      <trkpt lat="43.51919" lon="1.51989">
        <ele>148</ele>
        <time>2023-03-22T16:45:11Z</time>
      </trkpt>
      <trkpt lat="43.5192" lon="1.51989">
        <ele>148</ele>
        <time>2023-03-22T16:45:12Z</time>
      </trkpt>
      <trkpt lat="43.51921" lon="1.5199">
        <ele>148</ele>
        <time>2023-03-22T16:45:13Z</time>
      </trkpt>
      <trkpt lat="43.51929" lon="1.51992">
        <ele>148</ele>
        <time>2023-03-22T16:45:14Z</time>
      </trkpt>
      <trkpt lat="43.51931" lon="1.51993">
        <ele>148</ele>
        <time>2023-03-22T16:45:15Z</time>
      </trkpt>
      <trkpt lat="43.51934" lon="1.51994">
        <ele>148</ele>
        <time>2023-03-22T16:45:16Z</time>
      </trkpt>
      <trkpt lat="43.51936" lon="1.51995">
        <ele>148</ele>
        <time>2023-03-22T16:45:17Z</time>
      </trkpt>
      <trkpt lat="43.51938" lon="1.51995">
        <ele>148</ele>
        <time>2023-03-22T16:45:18Z</time>
      </trkpt>
      <trkpt lat="43.5194" lon="1.51996">
        <ele>148</ele>
        <time>2023-03-22T16:45:19Z</time>
      </trkpt>
      <trkpt lat="43.51941" lon="1.51997">
        <ele>148</ele>
        <time>2023-03-22T16:45:20Z</time>
      </trkpt>
      <trkpt lat="43.51949" lon="1.51999">
        <ele>148</ele>
        <time>2023-03-22T16:45:21Z</time>
      </trkpt>
      <trkpt lat="43.51952" lon="1.51999">
        <ele>148</ele>
        <time>2023-03-22T16:45:22Z</time>
      </trkpt>
      <trkpt lat="43.51955" lon="1.52">
        <ele>148</ele>
        <time>2023-03-22T16:45:23Z</time>
      </trkpt>
      <trkpt lat="43.51958" lon="1.52">
        <ele>148</ele>
        <time>2023-03-22T16:45:24Z</time>
      </trkpt>
      <trkpt lat="43.51959" lon="1.52">
        <ele>148</ele>
        <time>2023-03-22T16:45:25Z</time>
      </trkpt>
      <trkpt lat="43.51962" lon="1.52">
        <ele>148</ele>
        <time>2023-03-22T16:45:26Z</time>
      </trkpt>
      <trkpt lat="43.51966" lon="1.52">
        <ele>148</ele>
        <time>2023-03-22T16:45:27Z</time>
      </trkpt>
      <trkpt lat="43.51969" lon="1.52">
        <ele>148</ele>
        <time>2023-03-22T16:45:28Z</time>
      </trkpt>
      <trkpt lat="43.51971" lon="1.51999">
        <ele>148</ele>
        <time>2023-03-22T16:45:29Z</time>
      </trkpt>
      <trkpt lat="43.51973" lon="1.51999">
        <ele>148</ele>
        <time>2023-03-22T16:45:30Z</time>
      </trkpt>
      <trkpt lat="43.51975" lon="1.51999">
        <ele>148</ele>
        <time>2023-03-22T16:45:31Z</time>
      </trkpt>
      <trkpt lat="43.51975" lon="1.51999">
        <ele>148</ele>
        <time>2023-03-22T16:45:32Z</time>
      </trkpt>
      <trkpt lat="43.51977" lon="1.51998">
        <ele>148</ele>
        <time>2023-03-22T16:45:33Z</time>
      </trkpt>
      <trkpt lat="43.51982" lon="1.51998">
        <ele>148</ele>
        <time>2023-03-22T16:45:34Z</time>
      </trkpt>
      <trkpt lat="43.51982" lon="1.51998">
        <ele>148</ele>
        <time>2023-03-22T16:45:35Z</time>
      </trkpt>
      <trkpt lat="43.51986" lon="1.51997">
        <ele>148</ele>
        <time>2023-03-22T16:45:36Z</time>
      </trkpt>
      <trkpt lat="43.51986" lon="1.51997">
        <ele>148</ele>
        <time>2023-03-22T16:45:37Z</time>
      </trkpt>
      <trkpt lat="43.5199" lon="1.51996">
        <ele>148</ele>
        <time>2023-03-22T16:45:38Z</time>
      </trkpt>
      <trkpt lat="43.5199" lon="1.51996">
        <ele>148</ele>
        <time>2023-03-22T16:45:39Z</time>
      </trkpt>
      <trkpt lat="43.51992" lon="1.51996">
        <ele>148</ele>
        <time>2023-03-22T16:45:40Z</time>
      </trkpt>
      <trkpt lat="43.51997" lon="1.51995">
        <ele>148</ele>
        <time>2023-03-22T16:45:41Z</time>
      </trkpt>
      <trkpt lat="43.51999" lon="1.51995">
        <ele>148</ele>
        <time>2023-03-22T16:45:42Z</time>
      </trkpt>
      <trkpt lat="43.51999" lon="1.51995">
        <ele>148</ele>
        <time>2023-03-22T16:45:43Z</time>
      </trkpt>
      <trkpt lat="43.52002" lon="1.51995">
        <ele>148</ele>
        <time>2023-03-22T16:45:44Z</time>
      </trkpt>
      <trkpt lat="43.52005" lon="1.51995">
        <ele>148</ele>
        <time>2023-03-22T16:45:45Z</time>
      </trkpt>
      <trkpt lat="43.52007" lon="1.51994">
        <ele>148</ele>
        <time>2023-03-22T16:45:46Z</time>
      </trkpt>
      <trkpt lat="43.5201" lon="1.51993">
        <ele>148</ele>
        <time>2023-03-22T16:45:47Z</time>
      </trkpt>
      <trkpt lat="43.52014" lon="1.51992">
        <ele>148</ele>
        <time>2023-03-22T16:45:48Z</time>
      </trkpt>
      <trkpt lat="43.52016" lon="1.51991">
        <ele>148</ele>
        <time>2023-03-22T16:45:49Z</time>
      </trkpt>
      <trkpt lat="43.52016" lon="1.51991">
        <ele>149</ele>
        <time>2023-03-22T16:45:50Z</time>
      </trkpt>
      <trkpt lat="43.52018" lon="1.5199">
        <ele>149</ele>
        <time>2023-03-22T16:45:51Z</time>
      </trkpt>
      <trkpt lat="43.52021" lon="1.51989">
        <ele>149</ele>
        <time>2023-03-22T16:45:52Z</time>
      </trkpt>
      <trkpt lat="43.52023" lon="1.51988">
        <ele>149</ele>
        <time>2023-03-22T16:45:53Z</time>
      </trkpt>
      <trkpt lat="43.52025" lon="1.51987">
        <ele>149</ele>
        <time>2023-03-22T16:45:54Z</time>
      </trkpt>
      <trkpt lat="43.52029" lon="1.51985">
        <ele>148</ele>
        <time>2023-03-22T16:45:55Z</time>
      </trkpt>
      <trkpt lat="43.52029" lon="1.51985">
        <ele>148</ele>
        <time>2023-03-22T16:45:56Z</time>
      </trkpt>
      <trkpt lat="43.52033" lon="1.51981">
        <ele>148</ele>
        <time>2023-03-22T16:45:57Z</time>
      </trkpt>
      <trkpt lat="43.52033" lon="1.51981">
        <ele>149</ele>
        <time>2023-03-22T16:45:58Z</time>
      </trkpt>
      <trkpt lat="43.52036" lon="1.5198">
        <ele>149</ele>
        <time>2023-03-22T16:45:59Z</time>
      </trkpt>
      <trkpt lat="43.5204" lon="1.51977">
        <ele>149</ele>
        <time>2023-03-22T16:46:00Z</time>
      </trkpt>
      <trkpt lat="43.5204" lon="1.51977">
        <ele>149</ele>
        <time>2023-03-22T16:46:01Z</time>
      </trkpt>
      <trkpt lat="43.52043" lon="1.51975">
        <ele>149</ele>
        <time>2023-03-22T16:46:02Z</time>
      </trkpt>
      <trkpt lat="43.52045" lon="1.51974">
        <ele>149</ele>
        <time>2023-03-22T16:46:03Z</time>
      </trkpt>
      <trkpt lat="43.52049" lon="1.51972">
        <ele>149</ele>
        <time>2023-03-22T16:46:04Z</time>
      </trkpt>
      <trkpt lat="43.52049" lon="1.51972">
        <ele>149</ele>
        <time>2023-03-22T16:46:05Z</time>
      </trkpt>
      <trkpt lat="43.52051" lon="1.5197">
        <ele>149</ele>
        <time>2023-03-22T16:46:06Z</time>
      </trkpt>
      <trkpt lat="43.52053" lon="1.51969">
        <ele>149</ele>
        <time>2023-03-22T16:46:07Z</time>
      </trkpt>
      <trkpt lat="43.52058" lon="1.51965">
        <ele>149</ele>
        <time>2023-03-22T16:46:08Z</time>
      </trkpt>
      <trkpt lat="43.5206" lon="1.51963">
        <ele>149</ele>
        <time>2023-03-22T16:46:09Z</time>
      </trkpt>
      <trkpt lat="43.52062" lon="1.51961">
        <ele>149</ele>
        <time>2023-03-22T16:46:10Z</time>
      </trkpt>
      <trkpt lat="43.52065" lon="1.5196">
        <ele>149</ele>
        <time>2023-03-22T16:46:11Z</time>
      </trkpt>
      <trkpt lat="43.52065" lon="1.5196">
        <ele>149</ele>
        <time>2023-03-22T16:46:12Z</time>
      </trkpt>
      <trkpt lat="43.5207" lon="1.51957">
        <ele>149</ele>
        <time>2023-03-22T16:46:13Z</time>
      </trkpt>
      <trkpt lat="43.52073" lon="1.51956">
        <ele>149</ele>
        <time>2023-03-22T16:46:14Z</time>
      </trkpt>
      <trkpt lat="43.52075" lon="1.51955">
        <ele>149</ele>
        <time>2023-03-22T16:46:15Z</time>
      </trkpt>
      <trkpt lat="43.52075" lon="1.51955">
        <ele>149</ele>
        <time>2023-03-22T16:46:16Z</time>
      </trkpt>
      <trkpt lat="43.52078" lon="1.51954">
        <ele>150</ele>
        <time>2023-03-22T16:46:17Z</time>
      </trkpt>
      <trkpt lat="43.5208" lon="1.51952">
        <ele>150</ele>
        <time>2023-03-22T16:46:18Z</time>
      </trkpt>
      <trkpt lat="43.52084" lon="1.51949">
        <ele>149</ele>
        <time>2023-03-22T16:46:19Z</time>
      </trkpt>
      <trkpt lat="43.52084" lon="1.51949">
        <ele>149</ele>
        <time>2023-03-22T16:46:20Z</time>
      </trkpt>
      <trkpt lat="43.52089" lon="1.51946">
        <ele>149</ele>
        <time>2023-03-22T16:46:21Z</time>
      </trkpt>
      <trkpt lat="43.52091" lon="1.51945">
        <ele>149</ele>
        <time>2023-03-22T16:46:22Z</time>
      </trkpt>
      <trkpt lat="43.52094" lon="1.51944">
        <ele>149</ele>
        <time>2023-03-22T16:46:23Z</time>
      </trkpt>
      <trkpt lat="43.52094" lon="1.51944">
        <ele>150</ele>
        <time>2023-03-22T16:46:24Z</time>
      </trkpt>
      <trkpt lat="43.52098" lon="1.5194">
        <ele>150</ele>
        <time>2023-03-22T16:46:25Z</time>
      </trkpt>
      <trkpt lat="43.52098" lon="1.5194">
        <ele>150</ele>
        <time>2023-03-22T16:46:26Z</time>
      </trkpt>
      <trkpt lat="43.52101" lon="1.51939">
        <ele>150</ele>
        <time>2023-03-22T16:46:27Z</time>
      </trkpt>
      <trkpt lat="43.52103" lon="1.51938">
        <ele>150</ele>
        <time>2023-03-22T16:46:28Z</time>
      </trkpt>
      <trkpt lat="43.52108" lon="1.51936">
        <ele>150</ele>
        <time>2023-03-22T16:46:29Z</time>
      </trkpt>
      <trkpt lat="43.5211" lon="1.51936">
        <ele>150</ele>
        <time>2023-03-22T16:46:30Z</time>
      </trkpt>
      <trkpt lat="43.5211" lon="1.51936">
        <ele>150</ele>
        <time>2023-03-22T16:46:31Z</time>
      </trkpt>
      <trkpt lat="43.52115" lon="1.51935">
        <ele>150</ele>
        <time>2023-03-22T16:46:32Z</time>
      </trkpt>
      <trkpt lat="43.52115" lon="1.51935">
        <ele>150</ele>
        <time>2023-03-22T16:46:33Z</time>
      </trkpt>
      <trkpt lat="43.52119" lon="1.51934">
        <ele>150</ele>
        <time>2023-03-22T16:46:34Z</time>
      </trkpt>
      <trkpt lat="43.52122" lon="1.51932">
        <ele>150</ele>
        <time>2023-03-22T16:46:35Z</time>
      </trkpt>
      <trkpt lat="43.52125" lon="1.51931">
        <ele>150</ele>
        <time>2023-03-22T16:46:36Z</time>
      </trkpt>
      <trkpt lat="43.52129" lon="1.5193">
        <ele>150</ele>
        <time>2023-03-22T16:46:37Z</time>
      </trkpt>
      <trkpt lat="43.52133" lon="1.5193">
        <ele>150</ele>
        <time>2023-03-22T16:46:38Z</time>
      </trkpt>
      <trkpt lat="43.52137" lon="1.5193">
        <ele>150</ele>
        <time>2023-03-22T16:46:39Z</time>
      </trkpt>
      <trkpt lat="43.5214" lon="1.51929">
        <ele>150</ele>
        <time>2023-03-22T16:46:40Z</time>
      </trkpt>
      <trkpt lat="43.52144" lon="1.51929">
        <ele>150</ele>
        <time>2023-03-22T16:46:41Z</time>
      </trkpt>
      <trkpt lat="43.52147" lon="1.51929">
        <ele>150</ele>
        <time>2023-03-22T16:46:42Z</time>
      </trkpt>
      <trkpt lat="43.5215" lon="1.51929">
        <ele>150</ele>
        <time>2023-03-22T16:46:43Z</time>
      </trkpt>
      <trkpt lat="43.52153" lon="1.51929">
        <ele>150</ele>
        <time>2023-03-22T16:46:44Z</time>
      </trkpt>
      <trkpt lat="43.52156" lon="1.51929">
        <ele>150</ele>
        <time>2023-03-22T16:46:45Z</time>
      </trkpt>
      <trkpt lat="43.52159" lon="1.51929">
        <ele>150</ele>
        <time>2023-03-22T16:46:46Z</time>
      </trkpt>
      <trkpt lat="43.52162" lon="1.51928">
        <ele>150</ele>
        <time>2023-03-22T16:46:47Z</time>
      </trkpt>
      <trkpt lat="43.52164" lon="1.51928">
        <ele>150</ele>
        <time>2023-03-22T16:46:48Z</time>
      </trkpt>
      <trkpt lat="43.52167" lon="1.51928">
        <ele>150</ele>
        <time>2023-03-22T16:46:49Z</time>
      </trkpt>
      <trkpt lat="43.52169" lon="1.51928">
        <ele>150</ele>
        <time>2023-03-22T16:46:50Z</time>
      </trkpt>
      <trkpt lat="43.52174" lon="1.51927">
        <ele>150</ele>
        <time>2023-03-22T16:46:51Z</time>
      </trkpt>
      <trkpt lat="43.52175" lon="1.51927">
        <ele>150</ele>
        <time>2023-03-22T16:46:52Z</time>
      </trkpt>
      <trkpt lat="43.52178" lon="1.51927">
        <ele>150</ele>
        <time>2023-03-22T16:46:53Z</time>
      </trkpt>
      <trkpt lat="43.52181" lon="1.51926">
        <ele>150</ele>
        <time>2023-03-22T16:46:54Z</time>
      </trkpt>
      <trkpt lat="43.52183" lon="1.51926">
        <ele>150</ele>
        <time>2023-03-22T16:46:55Z</time>
      </trkpt>
      <trkpt lat="43.52183" lon="1.51926">
        <ele>150</ele>
        <time>2023-03-22T16:46:56Z</time>
      </trkpt>
      <trkpt lat="43.52187" lon="1.51925">
        <ele>150</ele>
        <time>2023-03-22T16:46:57Z</time>
      </trkpt>
      <trkpt lat="43.52189" lon="1.51924">
        <ele>150</ele>
        <time>2023-03-22T16:46:58Z</time>
      </trkpt>
      <trkpt lat="43.52191" lon="1.51923">
        <ele>150</ele>
        <time>2023-03-22T16:46:59Z</time>
      </trkpt>
      <trkpt lat="43.52194" lon="1.51922">
        <ele>150</ele>
        <time>2023-03-22T16:47:00Z</time>
      </trkpt>
      <trkpt lat="43.52194" lon="1.51922">
        <ele>150</ele>
        <time>2023-03-22T16:47:01Z</time>
      </trkpt>
      <trkpt lat="43.52198" lon="1.51919">
        <ele>149</ele>
        <time>2023-03-22T16:47:02Z</time>
      </trkpt>
      <trkpt lat="43.52198" lon="1.51919">
        <ele>149</ele>
        <time>2023-03-22T16:47:03Z</time>
      </trkpt>
      <trkpt lat="43.52204" lon="1.51918">
        <ele>149</ele>
        <time>2023-03-22T16:47:04Z</time>
      </trkpt>
      <trkpt lat="43.52206" lon="1.51917">
        <ele>149</ele>
        <time>2023-03-22T16:47:05Z</time>
      </trkpt>
      <trkpt lat="43.52206" lon="1.51917">
        <ele>150</ele>
        <time>2023-03-22T16:47:06Z</time>
      </trkpt>
      <trkpt lat="43.52209" lon="1.51917">
        <ele>150</ele>
        <time>2023-03-22T16:47:07Z</time>
      </trkpt>
      <trkpt lat="43.52212" lon="1.51916">
        <ele>150</ele>
        <time>2023-03-22T16:47:08Z</time>
      </trkpt>
      <trkpt lat="43.52215" lon="1.51915">
        <ele>150</ele>
        <time>2023-03-22T16:47:09Z</time>
      </trkpt>
      <trkpt lat="43.52218" lon="1.51914">
        <ele>150</ele>
        <time>2023-03-22T16:47:10Z</time>
      </trkpt>
      <trkpt lat="43.52221" lon="1.51914">
        <ele>150</ele>
        <time>2023-03-22T16:47:11Z</time>
      </trkpt>
      <trkpt lat="43.52225" lon="1.51913">
        <ele>150</ele>
        <time>2023-03-22T16:47:12Z</time>
      </trkpt>
      <trkpt lat="43.52228" lon="1.51912">
        <ele>150</ele>
        <time>2023-03-22T16:47:13Z</time>
      </trkpt>
      <trkpt lat="43.52228" lon="1.51912">
        <ele>150</ele>
        <time>2023-03-22T16:47:14Z</time>
      </trkpt>
      <trkpt lat="43.52229" lon="1.51912">
        <ele>150</ele>
        <time>2023-03-22T16:47:15Z</time>
      </trkpt>
      <trkpt lat="43.52231" lon="1.51912">
        <ele>150</ele>
        <time>2023-03-22T16:47:16Z</time>
      </trkpt>
      <trkpt lat="43.52232" lon="1.51912">
        <ele>150</ele>
        <time>2023-03-22T16:47:17Z</time>
      </trkpt>
      <trkpt lat="43.52234" lon="1.51912">
        <ele>149</ele>
        <time>2023-03-22T16:47:18Z</time>
      </trkpt>
      <trkpt lat="43.52243" lon="1.51911">
        <ele>149</ele>
        <time>2023-03-22T16:47:19Z</time>
      </trkpt>
      <trkpt lat="43.52247" lon="1.5191">
        <ele>150</ele>
        <time>2023-03-22T16:47:20Z</time>
      </trkpt>
      <trkpt lat="43.52251" lon="1.5191">
        <ele>150</ele>
        <time>2023-03-22T16:47:21Z</time>
      </trkpt>
      <trkpt lat="43.52253" lon="1.51908">
        <ele>150</ele>
        <time>2023-03-22T16:47:22Z</time>
      </trkpt>
      <trkpt lat="43.52255" lon="1.51907">
        <ele>150</ele>
        <time>2023-03-22T16:47:23Z</time>
      </trkpt>
      <trkpt lat="43.52255" lon="1.51907">
        <ele>150</ele>
        <time>2023-03-22T16:47:24Z</time>
      </trkpt>
      <trkpt lat="43.52258" lon="1.51907">
        <ele>150</ele>
        <time>2023-03-22T16:47:25Z</time>
      </trkpt>
      <trkpt lat="43.5226" lon="1.51906">
        <ele>150</ele>
        <time>2023-03-22T16:47:26Z</time>
      </trkpt>
      <trkpt lat="43.52264" lon="1.51903">
        <ele>150</ele>
        <time>2023-03-22T16:47:27Z</time>
      </trkpt>
      <trkpt lat="43.52266" lon="1.51903">
        <ele>150</ele>
        <time>2023-03-22T16:47:28Z</time>
      </trkpt>
      <trkpt lat="43.52268" lon="1.51901">
        <ele>150</ele>
        <time>2023-03-22T16:47:29Z</time>
      </trkpt>
      <trkpt lat="43.5227" lon="1.519">
        <ele>150</ele>
        <time>2023-03-22T16:47:30Z</time>
      </trkpt>
      <trkpt lat="43.5227" lon="1.519">
        <ele>150</ele>
        <time>2023-03-22T16:47:31Z</time>
      </trkpt>
      <trkpt lat="43.52275" lon="1.51898">
        <ele>150</ele>
        <time>2023-03-22T16:47:32Z</time>
      </trkpt>
      <trkpt lat="43.52275" lon="1.51898">
        <ele>150</ele>
        <time>2023-03-22T16:47:33Z</time>
      </trkpt>
      <trkpt lat="43.52277" lon="1.51897">
        <ele>150</ele>
        <time>2023-03-22T16:47:34Z</time>
      </trkpt>
      <trkpt lat="43.52282" lon="1.51894">
        <ele>150</ele>
        <time>2023-03-22T16:47:35Z</time>
      </trkpt>
      <trkpt lat="43.52284" lon="1.51893">
        <ele>150</ele>
        <time>2023-03-22T16:47:36Z</time>
      </trkpt>
      <trkpt lat="43.52287" lon="1.51892">
        <ele>150</ele>
        <time>2023-03-22T16:47:37Z</time>
      </trkpt>
      <trkpt lat="43.52287" lon="1.51892">
        <ele>150</ele>
        <time>2023-03-22T16:47:38Z</time>
      </trkpt>
      <trkpt lat="43.52292" lon="1.5189">
        <ele>150</ele>
        <time>2023-03-22T16:47:39Z</time>
      </trkpt>
      <trkpt lat="43.52292" lon="1.5189">
        <ele>150</ele>
        <time>2023-03-22T16:47:40Z</time>
      </trkpt>
      <trkpt lat="43.52294" lon="1.51889">
        <ele>150</ele>
        <time>2023-03-22T16:47:41Z</time>
      </trkpt>
      <trkpt lat="43.52297" lon="1.51888">
        <ele>150</ele>
        <time>2023-03-22T16:47:42Z</time>
      </trkpt>
      <trkpt lat="43.52301" lon="1.51886">
        <ele>150</ele>
        <time>2023-03-22T16:47:43Z</time>
      </trkpt>
      <trkpt lat="43.52304" lon="1.51886">
        <ele>150</ele>
        <time>2023-03-22T16:47:44Z</time>
      </trkpt>
      <trkpt lat="43.52304" lon="1.51886">
        <ele>150</ele>
        <time>2023-03-22T16:47:45Z</time>
      </trkpt>
      <trkpt lat="43.52309" lon="1.51883">
        <ele>150</ele>
        <time>2023-03-22T16:47:46Z</time>
      </trkpt>
      <trkpt lat="43.52311" lon="1.51882">
        <ele>150</ele>
        <time>2023-03-22T16:47:47Z</time>
      </trkpt>
      <trkpt lat="43.52314" lon="1.51882">
        <ele>150</ele>
        <time>2023-03-22T16:47:48Z</time>
      </trkpt>
      <trkpt lat="43.52316" lon="1.5188">
        <ele>150</ele>
        <time>2023-03-22T16:47:49Z</time>
      </trkpt>
      <trkpt lat="43.52318" lon="1.51879">
        <ele>150</ele>
        <time>2023-03-22T16:47:50Z</time>
      </trkpt>
      <trkpt lat="43.52321" lon="1.51878">
        <ele>150</ele>
        <time>2023-03-22T16:47:51Z</time>
      </trkpt>
      <trkpt lat="43.52321" lon="1.51878">
        <ele>150</ele>
        <time>2023-03-22T16:47:52Z</time>
      </trkpt>
      <trkpt lat="43.52323" lon="1.51878">
        <ele>150</ele>
        <time>2023-03-22T16:47:53Z</time>
      </trkpt>
      <trkpt lat="43.52326" lon="1.51877">
        <ele>150</ele>
        <time>2023-03-22T16:47:54Z</time>
      </trkpt>
      <trkpt lat="43.52331" lon="1.51875">
        <ele>150</ele>
        <time>2023-03-22T16:47:55Z</time>
      </trkpt>
      <trkpt lat="43.52334" lon="1.51873">
        <ele>150</ele>
        <time>2023-03-22T16:47:56Z</time>
      </trkpt>
      <trkpt lat="43.52334" lon="1.51873">
        <ele>150</ele>
        <time>2023-03-22T16:47:57Z</time>
      </trkpt>
      <trkpt lat="43.52339" lon="1.51872">
        <ele>150</ele>
        <time>2023-03-22T16:47:58Z</time>
      </trkpt>
      <trkpt lat="43.52339" lon="1.51872">
        <ele>150</ele>
        <time>2023-03-22T16:47:59Z</time>
      </trkpt>
      <trkpt lat="43.52342" lon="1.51872">
        <ele>150</ele>
        <time>2023-03-22T16:48:00Z</time>
      </trkpt>
      <trkpt lat="43.52345" lon="1.51872">
        <ele>150</ele>
        <time>2023-03-22T16:48:01Z</time>
      </trkpt>
      <trkpt lat="43.52348" lon="1.51872">
        <ele>150</ele>
        <time>2023-03-22T16:48:02Z</time>
      </trkpt>
      <trkpt lat="43.52353" lon="1.51873">
        <ele>150</ele>
        <time>2023-03-22T16:48:03Z</time>
      </trkpt>
      <trkpt lat="43.52356" lon="1.51873">
        <ele>150</ele>
        <time>2023-03-22T16:48:04Z</time>
      </trkpt>
      <trkpt lat="43.52359" lon="1.51873">
        <ele>150</ele>
        <time>2023-03-22T16:48:05Z</time>
      </trkpt>
      <trkpt lat="43.52362" lon="1.51873">
        <ele>149</ele>
        <time>2023-03-22T16:48:06Z</time>
      </trkpt>
      <trkpt lat="43.52362" lon="1.51873">
        <ele>149</ele>
        <time>2023-03-22T16:48:07Z</time>
      </trkpt>
      <trkpt lat="43.52367" lon="1.51873">
        <ele>149</ele>
        <time>2023-03-22T16:48:08Z</time>
      </trkpt>
      <trkpt lat="43.52367" lon="1.51873">
        <ele>149</ele>
        <time>2023-03-22T16:48:09Z</time>
      </trkpt>
      <trkpt lat="43.5237" lon="1.51873">
        <ele>149</ele>
        <time>2023-03-22T16:48:10Z</time>
      </trkpt>
      <trkpt lat="43.52375" lon="1.51871">
        <ele>149</ele>
        <time>2023-03-22T16:48:11Z</time>
      </trkpt>
      <trkpt lat="43.52377" lon="1.5187">
        <ele>149</ele>
        <time>2023-03-22T16:48:12Z</time>
      </trkpt>
      <trkpt lat="43.5238" lon="1.5187">
        <ele>149</ele>
        <time>2023-03-22T16:48:13Z</time>
      </trkpt>
      <trkpt lat="43.52382" lon="1.51871">
        <ele>149</ele>
        <time>2023-03-22T16:48:14Z</time>
      </trkpt>
      <trkpt lat="43.52382" lon="1.51871">
        <ele>150</ele>
        <time>2023-03-22T16:48:15Z</time>
      </trkpt>
      <trkpt lat="43.52387" lon="1.5187">
        <ele>150</ele>
        <time>2023-03-22T16:48:16Z</time>
      </trkpt>
      <trkpt lat="43.52387" lon="1.5187">
        <ele>150</ele>
        <time>2023-03-22T16:48:17Z</time>
      </trkpt>
      <trkpt lat="43.5239" lon="1.5187">
        <ele>150</ele>
        <time>2023-03-22T16:48:18Z</time>
      </trkpt>
      <trkpt lat="43.52393" lon="1.51869">
        <ele>150</ele>
        <time>2023-03-22T16:48:19Z</time>
      </trkpt>
      <trkpt lat="43.52395" lon="1.51868">
        <ele>150</ele>
        <time>2023-03-22T16:48:20Z</time>
      </trkpt>
      <trkpt lat="43.52398" lon="1.51867">
        <ele>150</ele>
        <time>2023-03-22T16:48:21Z</time>
      </trkpt>
      <trkpt lat="43.524" lon="1.51865">
        <ele>150</ele>
        <time>2023-03-22T16:48:22Z</time>
      </trkpt>
      <trkpt lat="43.52403" lon="1.51861">
        <ele>150</ele>
        <time>2023-03-22T16:48:23Z</time>
      </trkpt>
      <trkpt lat="43.52403" lon="1.51861">
        <ele>150</ele>
        <time>2023-03-22T16:48:24Z</time>
      </trkpt>
      <trkpt lat="43.52403" lon="1.51858">
        <ele>150</ele>
        <time>2023-03-22T16:48:25Z</time>
      </trkpt>
      <trkpt lat="43.52402" lon="1.51855">
        <ele>151</ele>
        <time>2023-03-22T16:48:26Z</time>
      </trkpt>
      <trkpt lat="43.52402" lon="1.51852">
        <ele>151</ele>
        <time>2023-03-22T16:48:27Z</time>
      </trkpt>
      <trkpt lat="43.52401" lon="1.51849">
        <ele>151</ele>
        <time>2023-03-22T16:48:28Z</time>
      </trkpt>
      <trkpt lat="43.524" lon="1.51846">
        <ele>151</ele>
        <time>2023-03-22T16:48:29Z</time>
      </trkpt>
      <trkpt lat="43.52398" lon="1.51844">
        <ele>151</ele>
        <time>2023-03-22T16:48:30Z</time>
      </trkpt>
      <trkpt lat="43.52397" lon="1.51841">
        <ele>151</ele>
        <time>2023-03-22T16:48:31Z</time>
      </trkpt>
      <trkpt lat="43.52396" lon="1.51839">
        <ele>151</ele>
        <time>2023-03-22T16:48:32Z</time>
      </trkpt>
      <trkpt lat="43.52394" lon="1.51836">
        <ele>150</ele>
        <time>2023-03-22T16:48:33Z</time>
      </trkpt>
      <trkpt lat="43.52393" lon="1.51835">
        <ele>150</ele>
        <time>2023-03-22T16:48:34Z</time>
      </trkpt>
      <trkpt lat="43.52391" lon="1.51833">
        <ele>150</ele>
        <time>2023-03-22T16:48:35Z</time>
      </trkpt>
      <trkpt lat="43.52388" lon="1.51831">
        <ele>150</ele>
        <time>2023-03-22T16:48:36Z</time>
      </trkpt>
      <trkpt lat="43.52386" lon="1.5183">
        <ele>149</ele>
        <time>2023-03-22T16:48:37Z</time>
      </trkpt>
      <trkpt lat="43.52383" lon="1.51829">
        <ele>150</ele>
        <time>2023-03-22T16:48:38Z</time>
      </trkpt>
      <trkpt lat="43.52379" lon="1.51827">
        <ele>150</ele>
        <time>2023-03-22T16:48:39Z</time>
      </trkpt>
      <trkpt lat="43.52376" lon="1.51827">
        <ele>149</ele>
        <time>2023-03-22T16:48:40Z</time>
      </trkpt>
      <trkpt lat="43.52376" lon="1.51827">
        <ele>149</ele>
        <time>2023-03-22T16:48:41Z</time>
      </trkpt>
      <trkpt lat="43.52373" lon="1.51826">
        <ele>149</ele>
        <time>2023-03-22T16:48:42Z</time>
      </trkpt>
      <trkpt lat="43.52371" lon="1.51826">
        <ele>148</ele>
        <time>2023-03-22T16:48:43Z</time>
      </trkpt>
      <trkpt lat="43.52367" lon="1.51823">
        <ele>148</ele>
        <time>2023-03-22T16:48:44Z</time>
      </trkpt>
      <trkpt lat="43.52367" lon="1.51823">
        <ele>148</ele>
        <time>2023-03-22T16:48:45Z</time>
      </trkpt>
      <trkpt lat="43.52371" lon="1.51819">
        <ele>148</ele>
        <time>2023-03-22T16:48:46Z</time>
      </trkpt>
      <trkpt lat="43.52371" lon="1.51819">
        <ele>147</ele>
        <time>2023-03-22T16:48:47Z</time>
      </trkpt>
      <trkpt lat="43.52374" lon="1.51817">
        <ele>147</ele>
        <time>2023-03-22T16:48:48Z</time>
      </trkpt>
      <trkpt lat="43.52376" lon="1.51816">
        <ele>147</ele>
        <time>2023-03-22T16:48:49Z</time>
      </trkpt>
      <trkpt lat="43.52379" lon="1.51815">
        <ele>147</ele>
        <time>2023-03-22T16:48:50Z</time>
      </trkpt>
      <trkpt lat="43.52381" lon="1.51813">
        <ele>148</ele>
        <time>2023-03-22T16:48:51Z</time>
      </trkpt>
      <trkpt lat="43.52383" lon="1.51812">
        <ele>147</ele>
        <time>2023-03-22T16:48:52Z</time>
      </trkpt>
      <trkpt lat="43.52388" lon="1.51809">
        <ele>147</ele>
        <time>2023-03-22T16:48:53Z</time>
      </trkpt>
      <trkpt lat="43.5239" lon="1.51809">
        <ele>147</ele>
        <time>2023-03-22T16:48:54Z</time>
      </trkpt>
      <trkpt lat="43.52393" lon="1.51808">
        <ele>147</ele>
        <time>2023-03-22T16:48:55Z</time>
      </trkpt>
      <trkpt lat="43.52393" lon="1.51808">
        <ele>147</ele>
        <time>2023-03-22T16:48:56Z</time>
      </trkpt>
      <trkpt lat="43.52396" lon="1.51808">
        <ele>147</ele>
        <time>2023-03-22T16:48:57Z</time>
      </trkpt>
      <trkpt lat="43.52399" lon="1.51808">
        <ele>147</ele>
        <time>2023-03-22T16:48:58Z</time>
      </trkpt>
      <trkpt lat="43.52405" lon="1.51808">
        <ele>147</ele>
        <time>2023-03-22T16:48:59Z</time>
      </trkpt>
      <trkpt lat="43.52408" lon="1.51808">
        <ele>147</ele>
        <time>2023-03-22T16:49:00Z</time>
      </trkpt>
      <trkpt lat="43.52411" lon="1.51808">
        <ele>147</ele>
        <time>2023-03-22T16:49:01Z</time>
      </trkpt>
      <trkpt lat="43.52413" lon="1.51808">
        <ele>147</ele>
        <time>2023-03-22T16:49:02Z</time>
      </trkpt>
      <trkpt lat="43.52413" lon="1.51808">
        <ele>147</ele>
        <time>2023-03-22T16:49:03Z</time>
      </trkpt>
      <trkpt lat="43.52419" lon="1.51807">
        <ele>147</ele>
        <time>2023-03-22T16:49:04Z</time>
      </trkpt>
      <trkpt lat="43.52422" lon="1.51807">
        <ele>147</ele>
        <time>2023-03-22T16:49:05Z</time>
      </trkpt>
      <trkpt lat="43.52422" lon="1.51807">
        <ele>147</ele>
        <time>2023-03-22T16:49:06Z</time>
      </trkpt>
      <trkpt lat="43.52425" lon="1.51806">
        <ele>147</ele>
        <time>2023-03-22T16:49:07Z</time>
      </trkpt>
      <trkpt lat="43.52428" lon="1.51806">
        <ele>147</ele>
        <time>2023-03-22T16:49:08Z</time>
      </trkpt>
      <trkpt lat="43.52431" lon="1.51805">
        <ele>147</ele>
        <time>2023-03-22T16:49:09Z</time>
      </trkpt>
      <trkpt lat="43.52434" lon="1.51804">
        <ele>147</ele>
        <time>2023-03-22T16:49:10Z</time>
      </trkpt>
      <trkpt lat="43.52439" lon="1.51801">
        <ele>147</ele>
        <time>2023-03-22T16:49:11Z</time>
      </trkpt>
      <trkpt lat="43.52442" lon="1.518">
        <ele>147</ele>
        <time>2023-03-22T16:49:12Z</time>
      </trkpt>
      <trkpt lat="43.52445" lon="1.51799">
        <ele>147</ele>
        <time>2023-03-22T16:49:13Z</time>
      </trkpt>
      <trkpt lat="43.52445" lon="1.51799">
        <ele>147</ele>
        <time>2023-03-22T16:49:14Z</time>
      </trkpt>
      <trkpt lat="43.52447" lon="1.51798">
        <ele>147</ele>
        <time>2023-03-22T16:49:15Z</time>
      </trkpt>
      <trkpt lat="43.5245" lon="1.51796">
        <ele>146</ele>
        <time>2023-03-22T16:49:16Z</time>
      </trkpt>
      <trkpt lat="43.52452" lon="1.51795">
        <ele>146</ele>
        <time>2023-03-22T16:49:17Z</time>
      </trkpt>
      <trkpt lat="43.52455" lon="1.51793">
        <ele>146</ele>
        <time>2023-03-22T16:49:18Z</time>
      </trkpt>
      <trkpt lat="43.52458" lon="1.51792">
        <ele>146</ele>
        <time>2023-03-22T16:49:19Z</time>
      </trkpt>
      <trkpt lat="43.5246" lon="1.5179">
        <ele>146</ele>
        <time>2023-03-22T16:49:20Z</time>
      </trkpt>
      <trkpt lat="43.52465" lon="1.51788">
        <ele>146</ele>
        <time>2023-03-22T16:49:21Z</time>
      </trkpt>
      <trkpt lat="43.52467" lon="1.51787">
        <ele>146</ele>
        <time>2023-03-22T16:49:22Z</time>
      </trkpt>
      <trkpt lat="43.52467" lon="1.51787">
        <ele>146</ele>
        <time>2023-03-22T16:49:23Z</time>
      </trkpt>
      <trkpt lat="43.52471" lon="1.51784">
        <ele>146</ele>
        <time>2023-03-22T16:49:24Z</time>
      </trkpt>
      <trkpt lat="43.52471" lon="1.51784">
        <ele>146</ele>
        <time>2023-03-22T16:49:25Z</time>
      </trkpt>
      <trkpt lat="43.52473" lon="1.51782">
        <ele>146</ele>
        <time>2023-03-22T16:49:26Z</time>
      </trkpt>
      <trkpt lat="43.52475" lon="1.5178">
        <ele>146</ele>
        <time>2023-03-22T16:49:27Z</time>
      </trkpt>
      <trkpt lat="43.52477" lon="1.51777">
        <ele>146</ele>
        <time>2023-03-22T16:49:28Z</time>
      </trkpt>
      <trkpt lat="43.52481" lon="1.51772">
        <ele>146</ele>
        <time>2023-03-22T16:49:29Z</time>
      </trkpt>
      <trkpt lat="43.52481" lon="1.51772">
        <ele>146</ele>
        <time>2023-03-22T16:49:30Z</time>
      </trkpt>
      <trkpt lat="43.52482" lon="1.5177">
        <ele>146</ele>
        <time>2023-03-22T16:49:31Z</time>
      </trkpt>
      <trkpt lat="43.52484" lon="1.51767">
        <ele>146</ele>
        <time>2023-03-22T16:49:32Z</time>
      </trkpt>
      <trkpt lat="43.52485" lon="1.51765">
        <ele>146</ele>
        <time>2023-03-22T16:49:33Z</time>
      </trkpt>
      <trkpt lat="43.52487" lon="1.51763">
        <ele>146</ele>
        <time>2023-03-22T16:49:34Z</time>
      </trkpt>
      <trkpt lat="43.52488" lon="1.5176">
        <ele>146</ele>
        <time>2023-03-22T16:49:35Z</time>
      </trkpt>
      <trkpt lat="43.52492" lon="1.51754">
        <ele>146</ele>
        <time>2023-03-22T16:49:36Z</time>
      </trkpt>
      <trkpt lat="43.52492" lon="1.51754">
        <ele>146</ele>
        <time>2023-03-22T16:49:37Z</time>
      </trkpt>
      <trkpt lat="43.52495" lon="1.51749">
        <ele>146</ele>
        <time>2023-03-22T16:49:38Z</time>
      </trkpt>
      <trkpt lat="43.52497" lon="1.51746">
        <ele>146</ele>
        <time>2023-03-22T16:49:39Z</time>
      </trkpt>
      <trkpt lat="43.52498" lon="1.51743">
        <ele>146</ele>
        <time>2023-03-22T16:49:40Z</time>
      </trkpt>
      <trkpt lat="43.52498" lon="1.51743">
        <ele>146</ele>
        <time>2023-03-22T16:49:41Z</time>
      </trkpt>
      <trkpt lat="43.525" lon="1.5174">
        <ele>146</ele>
        <time>2023-03-22T16:49:42Z</time>
      </trkpt>
      <trkpt lat="43.52505" lon="1.51735">
        <ele>146</ele>
        <time>2023-03-22T16:49:43Z</time>
      </trkpt>
      <trkpt lat="43.52505" lon="1.51735">
        <ele>146</ele>
        <time>2023-03-22T16:49:44Z</time>
      </trkpt>
      <trkpt lat="43.52507" lon="1.51732">
        <ele>146</ele>
        <time>2023-03-22T16:49:45Z</time>
      </trkpt>
      <trkpt lat="43.52508" lon="1.51728">
        <ele>146</ele>
        <time>2023-03-22T16:49:46Z</time>
      </trkpt>
      <trkpt lat="43.5251" lon="1.51725">
        <ele>146</ele>
        <time>2023-03-22T16:49:47Z</time>
      </trkpt>
      <trkpt lat="43.52513" lon="1.51718">
        <ele>146</ele>
        <time>2023-03-22T16:49:48Z</time>
      </trkpt>
      <trkpt lat="43.52513" lon="1.51718">
        <ele>146</ele>
        <time>2023-03-22T16:49:49Z</time>
      </trkpt>
      <trkpt lat="43.52514" lon="1.51715">
        <ele>146</ele>
        <time>2023-03-22T16:49:50Z</time>
      </trkpt>
      <trkpt lat="43.52516" lon="1.51712">
        <ele>146</ele>
        <time>2023-03-22T16:49:51Z</time>
      </trkpt>
      <trkpt lat="43.52518" lon="1.5171">
        <ele>146</ele>
        <time>2023-03-22T16:49:52Z</time>
      </trkpt>
      <trkpt lat="43.5252" lon="1.51707">
        <ele>147</ele>
        <time>2023-03-22T16:49:53Z</time>
      </trkpt>
      <trkpt lat="43.52521" lon="1.51704">
        <ele>146</ele>
        <time>2023-03-22T16:49:54Z</time>
      </trkpt>
      <trkpt lat="43.52524" lon="1.51698">
        <ele>146</ele>
        <time>2023-03-22T16:49:55Z</time>
      </trkpt>
      <trkpt lat="43.52524" lon="1.51698">
        <ele>146</ele>
        <time>2023-03-22T16:49:56Z</time>
      </trkpt>
      <trkpt lat="43.52527" lon="1.51691">
        <ele>146</ele>
        <time>2023-03-22T16:49:57Z</time>
      </trkpt>
      <trkpt lat="43.52527" lon="1.51691">
        <ele>146</ele>
        <time>2023-03-22T16:49:58Z</time>
      </trkpt>
      <trkpt lat="43.52529" lon="1.51688">
        <ele>146</ele>
        <time>2023-03-22T16:49:59Z</time>
      </trkpt>
      <trkpt lat="43.5253" lon="1.51685">
        <ele>146</ele>
        <time>2023-03-22T16:50:00Z</time>
      </trkpt>
      <trkpt lat="43.52532" lon="1.51678">
        <ele>146</ele>
        <time>2023-03-22T16:50:01Z</time>
      </trkpt>
      <trkpt lat="43.52533" lon="1.51674">
        <ele>146</ele>
        <time>2023-03-22T16:50:02Z</time>
      </trkpt>
      <trkpt lat="43.52533" lon="1.51674">
        <ele>146</ele>
        <time>2023-03-22T16:50:03Z</time>
      </trkpt>
      <trkpt lat="43.52534" lon="1.51671">
        <ele>146</ele>
        <time>2023-03-22T16:50:04Z</time>
      </trkpt>
      <trkpt lat="43.52535" lon="1.51668">
        <ele>146</ele>
        <time>2023-03-22T16:50:05Z</time>
      </trkpt>
      <trkpt lat="43.52537" lon="1.51661">
        <ele>146</ele>
        <time>2023-03-22T16:50:06Z</time>
      </trkpt>
      <trkpt lat="43.52539" lon="1.51658">
        <ele>146</ele>
        <time>2023-03-22T16:50:07Z</time>
      </trkpt>
      <trkpt lat="43.5254" lon="1.51656">
        <ele>146</ele>
        <time>2023-03-22T16:50:08Z</time>
      </trkpt>
      <trkpt lat="43.5254" lon="1.51656">
        <ele>146</ele>
        <time>2023-03-22T16:50:09Z</time>
      </trkpt>
      <trkpt lat="43.52541" lon="1.51653">
        <ele>146</ele>
        <time>2023-03-22T16:50:10Z</time>
      </trkpt>
      <trkpt lat="43.52543" lon="1.51647">
        <ele>146</ele>
        <time>2023-03-22T16:50:11Z</time>
      </trkpt>
      <trkpt lat="43.52545" lon="1.51643">
        <ele>146</ele>
        <time>2023-03-22T16:50:12Z</time>
      </trkpt>
      <trkpt lat="43.52546" lon="1.5164">
        <ele>147</ele>
        <time>2023-03-22T16:50:13Z</time>
      </trkpt>
      <trkpt lat="43.52547" lon="1.51636">
        <ele>147</ele>
        <time>2023-03-22T16:50:14Z</time>
      </trkpt>
      <trkpt lat="43.52548" lon="1.51633">
        <ele>147</ele>
        <time>2023-03-22T16:50:15Z</time>
      </trkpt>
      <trkpt lat="43.52548" lon="1.51633">
        <ele>147</ele>
        <time>2023-03-22T16:50:16Z</time>
      </trkpt>
      <trkpt lat="43.52549" lon="1.5163">
        <ele>147</ele>
        <time>2023-03-22T16:50:17Z</time>
      </trkpt>
      <trkpt lat="43.5255" lon="1.51627">
        <ele>147</ele>
        <time>2023-03-22T16:50:18Z</time>
      </trkpt>
      <trkpt lat="43.5255" lon="1.51624">
        <ele>147</ele>
        <time>2023-03-22T16:50:19Z</time>
      </trkpt>
      <trkpt lat="43.52552" lon="1.51618">
        <ele>146</ele>
        <time>2023-03-22T16:50:20Z</time>
      </trkpt>
      <trkpt lat="43.52553" lon="1.51616">
        <ele>146</ele>
        <time>2023-03-22T16:50:21Z</time>
      </trkpt>
      <trkpt lat="43.52554" lon="1.51613">
        <ele>146</ele>
        <time>2023-03-22T16:50:22Z</time>
      </trkpt>
      <trkpt lat="43.52555" lon="1.51611">
        <ele>146</ele>
        <time>2023-03-22T16:50:23Z</time>
      </trkpt>
      <trkpt lat="43.52555" lon="1.51611">
        <ele>146</ele>
        <time>2023-03-22T16:50:24Z</time>
      </trkpt>
      <trkpt lat="43.52558" lon="1.51605">
        <ele>147</ele>
        <time>2023-03-22T16:50:25Z</time>
      </trkpt>
      <trkpt lat="43.52559" lon="1.51602">
        <ele>147</ele>
        <time>2023-03-22T16:50:26Z</time>
      </trkpt>
      <trkpt lat="43.5256" lon="1.51599">
        <ele>146</ele>
        <time>2023-03-22T16:50:27Z</time>
      </trkpt>
      <trkpt lat="43.52561" lon="1.51596">
        <ele>146</ele>
        <time>2023-03-22T16:50:28Z</time>
      </trkpt>
      <trkpt lat="43.52563" lon="1.51593">
        <ele>146</ele>
        <time>2023-03-22T16:50:29Z</time>
      </trkpt>
      <trkpt lat="43.52563" lon="1.51593">
        <ele>146</ele>
        <time>2023-03-22T16:50:30Z</time>
      </trkpt>
      <trkpt lat="43.52564" lon="1.51589">
        <ele>146</ele>
        <time>2023-03-22T16:50:31Z</time>
      </trkpt>
      <trkpt lat="43.52566" lon="1.51585">
        <ele>146</ele>
        <time>2023-03-22T16:50:32Z</time>
      </trkpt>
      <trkpt lat="43.52568" lon="1.51582">
        <ele>146</ele>
        <time>2023-03-22T16:50:33Z</time>
      </trkpt>
      <trkpt lat="43.52571" lon="1.5158">
        <ele>146</ele>
        <time>2023-03-22T16:50:34Z</time>
      </trkpt>
      <trkpt lat="43.52573" lon="1.51577">
        <ele>146</ele>
        <time>2023-03-22T16:50:35Z</time>
      </trkpt>
      <trkpt lat="43.52576" lon="1.51575">
        <ele>146</ele>
        <time>2023-03-22T16:50:36Z</time>
      </trkpt>
      <trkpt lat="43.52578" lon="1.51574">
        <ele>146</ele>
        <time>2023-03-22T16:50:37Z</time>
      </trkpt>
      <trkpt lat="43.52583" lon="1.51571">
        <ele>146</ele>
        <time>2023-03-22T16:50:38Z</time>
      </trkpt>
      <trkpt lat="43.52583" lon="1.51571">
        <ele>146</ele>
        <time>2023-03-22T16:50:39Z</time>
      </trkpt>
      <trkpt lat="43.52586" lon="1.51565">
        <ele>146</ele>
        <time>2023-03-22T16:50:40Z</time>
      </trkpt>
      <trkpt lat="43.52586" lon="1.51565">
        <ele>146</ele>
        <time>2023-03-22T16:50:41Z</time>
      </trkpt>
      <trkpt lat="43.52587" lon="1.51561">
        <ele>146</ele>
        <time>2023-03-22T16:50:42Z</time>
      </trkpt>
      <trkpt lat="43.52588" lon="1.51557">
        <ele>146</ele>
        <time>2023-03-22T16:50:43Z</time>
      </trkpt>
      <trkpt lat="43.5259" lon="1.51549">
        <ele>146</ele>
        <time>2023-03-22T16:50:44Z</time>
      </trkpt>
      <trkpt lat="43.5259" lon="1.51545">
        <ele>146</ele>
        <time>2023-03-22T16:50:45Z</time>
      </trkpt>
      <trkpt lat="43.5259" lon="1.51545">
        <ele>146</ele>
        <time>2023-03-22T16:50:46Z</time>
      </trkpt>
      <trkpt lat="43.52591" lon="1.51538">
        <ele>146</ele>
        <time>2023-03-22T16:50:47Z</time>
      </trkpt>
      <trkpt lat="43.52591" lon="1.51534">
        <ele>146</ele>
        <time>2023-03-22T16:50:48Z</time>
      </trkpt>
      <trkpt lat="43.52592" lon="1.51531">
        <ele>146</ele>
        <time>2023-03-22T16:50:49Z</time>
      </trkpt>
      <trkpt lat="43.52592" lon="1.51528">
        <ele>146</ele>
        <time>2023-03-22T16:50:50Z</time>
      </trkpt>
      <trkpt lat="43.52592" lon="1.51528">
        <ele>146</ele>
        <time>2023-03-22T16:50:51Z</time>
      </trkpt>
      <trkpt lat="43.52592" lon="1.51525">
        <ele>146</ele>
        <time>2023-03-22T16:50:52Z</time>
      </trkpt>
      <trkpt lat="43.52593" lon="1.51522">
        <ele>146</ele>
        <time>2023-03-22T16:50:53Z</time>
      </trkpt>
      <trkpt lat="43.52595" lon="1.51514">
        <ele>146</ele>
        <time>2023-03-22T16:50:54Z</time>
      </trkpt>
      <trkpt lat="43.52595" lon="1.5151">
        <ele>146</ele>
        <time>2023-03-22T16:50:55Z</time>
      </trkpt>
      <trkpt lat="43.52596" lon="1.51507">
        <ele>146</ele>
        <time>2023-03-22T16:50:56Z</time>
      </trkpt>
      <trkpt lat="43.52597" lon="1.51503">
        <ele>146</ele>
        <time>2023-03-22T16:50:57Z</time>
      </trkpt>
      <trkpt lat="43.52598" lon="1.51499">
        <ele>146</ele>
        <time>2023-03-22T16:50:58Z</time>
      </trkpt>
      <trkpt lat="43.52598" lon="1.51495">
        <ele>146</ele>
        <time>2023-03-22T16:50:59Z</time>
      </trkpt>
      <trkpt lat="43.52598" lon="1.51495">
        <ele>146</ele>
        <time>2023-03-22T16:51:00Z</time>
      </trkpt>
      <trkpt lat="43.52599" lon="1.51492">
        <ele>146</ele>
        <time>2023-03-22T16:51:01Z</time>
      </trkpt>
      <trkpt lat="43.526" lon="1.51489">
        <ele>146</ele>
        <time>2023-03-22T16:51:02Z</time>
      </trkpt>
      <trkpt lat="43.52601" lon="1.51482">
        <ele>146</ele>
        <time>2023-03-22T16:51:03Z</time>
      </trkpt>
      <trkpt lat="43.52601" lon="1.51482">
        <ele>146</ele>
        <time>2023-03-22T16:51:04Z</time>
      </trkpt>
      <trkpt lat="43.526" lon="1.5148">
        <ele>146</ele>
        <time>2023-03-22T16:51:05Z</time>
      </trkpt>
      <trkpt lat="43.52601" lon="1.51475">
        <ele>146</ele>
        <time>2023-03-22T16:51:06Z</time>
      </trkpt>
      <trkpt lat="43.52601" lon="1.51475">
        <ele>146</ele>
        <time>2023-03-22T16:51:07Z</time>
      </trkpt>
      <trkpt lat="43.52602" lon="1.51467">
        <ele>146</ele>
        <time>2023-03-22T16:51:08Z</time>
      </trkpt>
      <trkpt lat="43.52602" lon="1.51463">
        <ele>146</ele>
        <time>2023-03-22T16:51:09Z</time>
      </trkpt>
      <trkpt lat="43.52603" lon="1.51459">
        <ele>146</ele>
        <time>2023-03-22T16:51:10Z</time>
      </trkpt>
      <trkpt lat="43.52603" lon="1.51456">
        <ele>146</ele>
        <time>2023-03-22T16:51:11Z</time>
      </trkpt>
      <trkpt lat="43.52603" lon="1.51456">
        <ele>146</ele>
        <time>2023-03-22T16:51:12Z</time>
      </trkpt>
      <trkpt lat="43.52604" lon="1.51452">
        <ele>146</ele>
        <time>2023-03-22T16:51:13Z</time>
      </trkpt>
      <trkpt lat="43.52605" lon="1.51449">
        <ele>146</ele>
        <time>2023-03-22T16:51:14Z</time>
      </trkpt>
      <trkpt lat="43.52606" lon="1.51442">
        <ele>146</ele>
        <time>2023-03-22T16:51:15Z</time>
      </trkpt>
      <trkpt lat="43.52607" lon="1.51439">
        <ele>146</ele>
        <time>2023-03-22T16:51:16Z</time>
      </trkpt>
      <trkpt lat="43.52607" lon="1.51439">
        <ele>146</ele>
        <time>2023-03-22T16:51:17Z</time>
      </trkpt>
      <trkpt lat="43.52608" lon="1.51432">
        <ele>146</ele>
        <time>2023-03-22T16:51:18Z</time>
      </trkpt>
      <trkpt lat="43.52608" lon="1.51432">
        <ele>147</ele>
        <time>2023-03-22T16:51:19Z</time>
      </trkpt>
      <trkpt lat="43.52608" lon="1.51425">
        <ele>147</ele>
        <time>2023-03-22T16:51:20Z</time>
      </trkpt>
      <trkpt lat="43.52608" lon="1.51425">
        <ele>147</ele>
        <time>2023-03-22T16:51:21Z</time>
      </trkpt>
      <trkpt lat="43.52609" lon="1.51421">
        <ele>147</ele>
        <time>2023-03-22T16:51:22Z</time>
      </trkpt>
      <trkpt lat="43.5261" lon="1.51414">
        <ele>147</ele>
        <time>2023-03-22T16:51:23Z</time>
      </trkpt>
      <trkpt lat="43.5261" lon="1.51414">
        <ele>147</ele>
        <time>2023-03-22T16:51:24Z</time>
      </trkpt>
      <trkpt lat="43.52611" lon="1.5141">
        <ele>147</ele>
        <time>2023-03-22T16:51:25Z</time>
      </trkpt>
      <trkpt lat="43.52612" lon="1.51405">
        <ele>147</ele>
        <time>2023-03-22T16:51:26Z</time>
      </trkpt>
      <trkpt lat="43.52612" lon="1.51398">
        <ele>147</ele>
        <time>2023-03-22T16:51:27Z</time>
      </trkpt>
      <trkpt lat="43.52614" lon="1.51393">
        <ele>147</ele>
        <time>2023-03-22T16:51:28Z</time>
      </trkpt>
      <trkpt lat="43.52614" lon="1.51393">
        <ele>147</ele>
        <time>2023-03-22T16:51:29Z</time>
      </trkpt>
      <trkpt lat="43.52615" lon="1.51386">
        <ele>147</ele>
        <time>2023-03-22T16:51:30Z</time>
      </trkpt>
      <trkpt lat="43.52615" lon="1.51383">
        <ele>147</ele>
        <time>2023-03-22T16:51:31Z</time>
      </trkpt>
      <trkpt lat="43.52616" lon="1.5138">
        <ele>147</ele>
        <time>2023-03-22T16:51:32Z</time>
      </trkpt>
      <trkpt lat="43.52617" lon="1.51377">
        <ele>147</ele>
        <time>2023-03-22T16:51:33Z</time>
      </trkpt>
      <trkpt lat="43.52617" lon="1.51377">
        <ele>148</ele>
        <time>2023-03-22T16:51:34Z</time>
      </trkpt>
      <trkpt lat="43.52616" lon="1.51369">
        <ele>148</ele>
        <time>2023-03-22T16:51:35Z</time>
      </trkpt>
      <trkpt lat="43.52616" lon="1.51369">
        <ele>148</ele>
        <time>2023-03-22T16:51:36Z</time>
      </trkpt>
      <trkpt lat="43.52616" lon="1.51365">
        <ele>148</ele>
        <time>2023-03-22T16:51:37Z</time>
      </trkpt>
      <trkpt lat="43.52616" lon="1.51361">
        <ele>148</ele>
        <time>2023-03-22T16:51:38Z</time>
      </trkpt>
      <trkpt lat="43.52616" lon="1.51358">
        <ele>148</ele>
        <time>2023-03-22T16:51:39Z</time>
      </trkpt>
      <trkpt lat="43.52616" lon="1.5135">
        <ele>148</ele>
        <time>2023-03-22T16:51:40Z</time>
      </trkpt>
      <trkpt lat="43.52616" lon="1.51347">
        <ele>148</ele>
        <time>2023-03-22T16:51:41Z</time>
      </trkpt>
      <trkpt lat="43.52616" lon="1.51347">
        <ele>148</ele>
        <time>2023-03-22T16:51:42Z</time>
      </trkpt>
      <trkpt lat="43.52616" lon="1.51343">
        <ele>148</ele>
        <time>2023-03-22T16:51:43Z</time>
      </trkpt>
      <trkpt lat="43.52616" lon="1.5134">
        <ele>148</ele>
        <time>2023-03-22T16:51:44Z</time>
      </trkpt>
      <trkpt lat="43.52616" lon="1.51336">
        <ele>148</ele>
        <time>2023-03-22T16:51:45Z</time>
      </trkpt>
      <trkpt lat="43.52616" lon="1.5133">
        <ele>147</ele>
        <time>2023-03-22T16:51:46Z</time>
      </trkpt>
      <trkpt lat="43.52616" lon="1.5133">
        <ele>147</ele>
        <time>2023-03-22T16:51:47Z</time>
      </trkpt>
      <trkpt lat="43.52616" lon="1.51323">
        <ele>147</ele>
        <time>2023-03-22T16:51:48Z</time>
      </trkpt>
      <trkpt lat="43.52616" lon="1.51323">
        <ele>147</ele>
        <time>2023-03-22T16:51:49Z</time>
      </trkpt>
      <trkpt lat="43.52616" lon="1.5132">
        <ele>147</ele>
        <time>2023-03-22T16:51:50Z</time>
      </trkpt>
      <trkpt lat="43.52615" lon="1.51316">
        <ele>147</ele>
        <time>2023-03-22T16:51:51Z</time>
      </trkpt>
      <trkpt lat="43.52615" lon="1.51311">
        <ele>147</ele>
        <time>2023-03-22T16:51:52Z</time>
      </trkpt>
      <trkpt lat="43.52615" lon="1.51308">
        <ele>147</ele>
        <time>2023-03-22T16:51:53Z</time>
      </trkpt>
      <trkpt lat="43.52615" lon="1.51303">
        <ele>147</ele>
        <time>2023-03-22T16:51:54Z</time>
      </trkpt>
      <trkpt lat="43.52615" lon="1.51299">
        <ele>147</ele>
        <time>2023-03-22T16:51:55Z</time>
      </trkpt>
      <trkpt lat="43.52616" lon="1.51293">
        <ele>147</ele>
        <time>2023-03-22T16:51:56Z</time>
      </trkpt>
      <trkpt lat="43.52616" lon="1.51289">
        <ele>147</ele>
        <time>2023-03-22T16:51:57Z</time>
      </trkpt>
      <trkpt lat="43.52616" lon="1.51286">
        <ele>147</ele>
        <time>2023-03-22T16:51:58Z</time>
      </trkpt>
      <trkpt lat="43.52616" lon="1.51283">
        <ele>146</ele>
        <time>2023-03-22T16:51:59Z</time>
      </trkpt>
      <trkpt lat="43.52616" lon="1.5128">
        <ele>146</ele>
        <time>2023-03-22T16:52:00Z</time>
      </trkpt>
      <trkpt lat="43.52616" lon="1.5128">
        <ele>146</ele>
        <time>2023-03-22T16:52:01Z</time>
      </trkpt>
      <trkpt lat="43.52616" lon="1.51277">
        <ele>146</ele>
        <time>2023-03-22T16:52:02Z</time>
      </trkpt>
      <trkpt lat="43.52616" lon="1.5127">
        <ele>146</ele>
        <time>2023-03-22T16:52:03Z</time>
      </trkpt>
      <trkpt lat="43.52616" lon="1.51267">
        <ele>146</ele>
        <time>2023-03-22T16:52:04Z</time>
      </trkpt>
      <trkpt lat="43.52616" lon="1.51263">
        <ele>146</ele>
        <time>2023-03-22T16:52:05Z</time>
      </trkpt>
      <trkpt lat="43.52616" lon="1.51263">
        <ele>146</ele>
        <time>2023-03-22T16:52:06Z</time>
      </trkpt>
      <trkpt lat="43.52616" lon="1.51256">
        <ele>146</ele>
        <time>2023-03-22T16:52:07Z</time>
      </trkpt>
      <trkpt lat="43.52616" lon="1.51256">
        <ele>147</ele>
        <time>2023-03-22T16:52:08Z</time>
      </trkpt>
      <trkpt lat="43.52616" lon="1.51253">
        <ele>147</ele>
        <time>2023-03-22T16:52:09Z</time>
      </trkpt>
      <trkpt lat="43.52616" lon="1.51249">
        <ele>146</ele>
        <time>2023-03-22T16:52:10Z</time>
      </trkpt>
      <trkpt lat="43.52617" lon="1.51241">
        <ele>146</ele>
        <time>2023-03-22T16:52:11Z</time>
      </trkpt>
      <trkpt lat="43.52617" lon="1.51238">
        <ele>146</ele>
        <time>2023-03-22T16:52:12Z</time>
      </trkpt>
      <trkpt lat="43.52617" lon="1.51238">
        <ele>146</ele>
        <time>2023-03-22T16:52:13Z</time>
      </trkpt>
      <trkpt lat="43.52618" lon="1.5123">
        <ele>146</ele>
        <time>2023-03-22T16:52:14Z</time>
      </trkpt>
      <trkpt lat="43.52618" lon="1.51225">
        <ele>146</ele>
        <time>2023-03-22T16:52:15Z</time>
      </trkpt>
      <trkpt lat="43.52619" lon="1.5122">
        <ele>146</ele>
        <time>2023-03-22T16:52:16Z</time>
      </trkpt>
      <trkpt lat="43.5262" lon="1.51215">
        <ele>146</ele>
        <time>2023-03-22T16:52:17Z</time>
      </trkpt>
      <trkpt lat="43.5262" lon="1.51215">
        <ele>145</ele>
        <time>2023-03-22T16:52:18Z</time>
      </trkpt>
      <trkpt lat="43.52621" lon="1.5121">
        <ele>145</ele>
        <time>2023-03-22T16:52:19Z</time>
      </trkpt>
      <trkpt lat="43.52621" lon="1.51203">
        <ele>145</ele>
        <time>2023-03-22T16:52:20Z</time>
      </trkpt>
      <trkpt lat="43.52621" lon="1.51203">
        <ele>145</ele>
        <time>2023-03-22T16:52:21Z</time>
      </trkpt>
      <trkpt lat="43.52621" lon="1.512">
        <ele>145</ele>
        <time>2023-03-22T16:52:22Z</time>
      </trkpt>
      <trkpt lat="43.52621" lon="1.512">
        <ele>145</ele>
        <time>2023-03-22T16:52:23Z</time>
      </trkpt>
      <trkpt lat="43.52621" lon="1.51195">
        <ele>145</ele>
        <time>2023-03-22T16:52:24Z</time>
      </trkpt>
      <trkpt lat="43.52621" lon="1.51191">
        <ele>145</ele>
        <time>2023-03-22T16:52:25Z</time>
      </trkpt>
      <trkpt lat="43.52622" lon="1.51185">
        <ele>145</ele>
        <time>2023-03-22T16:52:26Z</time>
      </trkpt>
      <trkpt lat="43.52623" lon="1.51181">
        <ele>145</ele>
        <time>2023-03-22T16:52:27Z</time>
      </trkpt>
      <trkpt lat="43.52623" lon="1.51181">
        <ele>145</ele>
        <time>2023-03-22T16:52:28Z</time>
      </trkpt>
      <trkpt lat="43.52625" lon="1.51175">
        <ele>145</ele>
        <time>2023-03-22T16:52:29Z</time>
      </trkpt>
      <trkpt lat="43.52625" lon="1.51172">
        <ele>145</ele>
        <time>2023-03-22T16:52:30Z</time>
      </trkpt>
      <trkpt lat="43.52625" lon="1.51172">
        <ele>146</ele>
        <time>2023-03-22T16:52:31Z</time>
      </trkpt>
      <trkpt lat="43.52626" lon="1.51165">
        <ele>146</ele>
        <time>2023-03-22T16:52:32Z</time>
      </trkpt>
      <trkpt lat="43.52626" lon="1.51165">
        <ele>146</ele>
        <time>2023-03-22T16:52:33Z</time>
      </trkpt>
      <trkpt lat="43.52627" lon="1.51161">
        <ele>146</ele>
        <time>2023-03-22T16:52:34Z</time>
      </trkpt>
      <trkpt lat="43.52627" lon="1.51156">
        <ele>146</ele>
        <time>2023-03-22T16:52:35Z</time>
      </trkpt>
      <trkpt lat="43.52628" lon="1.51151">
        <ele>146</ele>
        <time>2023-03-22T16:52:36Z</time>
      </trkpt>
      <trkpt lat="43.5263" lon="1.51144">
        <ele>146</ele>
        <time>2023-03-22T16:52:37Z</time>
      </trkpt>
      <trkpt lat="43.5263" lon="1.51144">
        <ele>146</ele>
        <time>2023-03-22T16:52:38Z</time>
      </trkpt>
      <trkpt lat="43.52631" lon="1.51141">
        <ele>146</ele>
        <time>2023-03-22T16:52:39Z</time>
      </trkpt>
      <trkpt lat="43.52632" lon="1.51137">
        <ele>145</ele>
        <time>2023-03-22T16:52:40Z</time>
      </trkpt>
      <trkpt lat="43.52633" lon="1.51134">
        <ele>146</ele>
        <time>2023-03-22T16:52:41Z</time>
      </trkpt>
      <trkpt lat="43.52634" lon="1.51129">
        <ele>146</ele>
        <time>2023-03-22T16:52:42Z</time>
      </trkpt>
      <trkpt lat="43.52635" lon="1.51122">
        <ele>146</ele>
        <time>2023-03-22T16:52:43Z</time>
      </trkpt>
      <trkpt lat="43.52635" lon="1.51122">
        <ele>146</ele>
        <time>2023-03-22T16:52:44Z</time>
      </trkpt>
      <trkpt lat="43.52636" lon="1.51119">
        <ele>146</ele>
        <time>2023-03-22T16:52:45Z</time>
      </trkpt>
      <trkpt lat="43.52637" lon="1.51116">
        <ele>146</ele>
        <time>2023-03-22T16:52:46Z</time>
      </trkpt>
      <trkpt lat="43.52638" lon="1.51112">
        <ele>146</ele>
        <time>2023-03-22T16:52:47Z</time>
      </trkpt>
      <trkpt lat="43.52639" lon="1.51109">
        <ele>146</ele>
        <time>2023-03-22T16:52:48Z</time>
      </trkpt>
      <trkpt lat="43.52639" lon="1.51107">
        <ele>146</ele>
        <time>2023-03-22T16:52:49Z</time>
      </trkpt>
      <trkpt lat="43.5264" lon="1.511">
        <ele>146</ele>
        <time>2023-03-22T16:52:50Z</time>
      </trkpt>
      <trkpt lat="43.5264" lon="1.511">
        <ele>146</ele>
        <time>2023-03-22T16:52:51Z</time>
      </trkpt>
      <trkpt lat="43.52641" lon="1.51096">
        <ele>146</ele>
        <time>2023-03-22T16:52:52Z</time>
      </trkpt>
      <trkpt lat="43.52642" lon="1.51094">
        <ele>146</ele>
        <time>2023-03-22T16:52:53Z</time>
      </trkpt>
      <trkpt lat="43.52642" lon="1.51093">
        <ele>146</ele>
        <time>2023-03-22T16:52:54Z</time>
      </trkpt>
      <trkpt lat="43.52643" lon="1.51091">
        <ele>146</ele>
        <time>2023-03-22T16:52:55Z</time>
      </trkpt>
      <trkpt lat="43.52643" lon="1.51089">
        <ele>146</ele>
        <time>2023-03-22T16:52:56Z</time>
      </trkpt>
      <trkpt lat="43.52646" lon="1.51078">
        <ele>146</ele>
        <time>2023-03-22T16:52:57Z</time>
      </trkpt>
      <trkpt lat="43.52647" lon="1.51076">
        <ele>146</ele>
        <time>2023-03-22T16:52:58Z</time>
      </trkpt>
      <trkpt lat="43.52647" lon="1.51073">
        <ele>146</ele>
        <time>2023-03-22T16:52:59Z</time>
      </trkpt>
      <trkpt lat="43.52649" lon="1.51063">
        <ele>146</ele>
        <time>2023-03-22T16:53:00Z</time>
      </trkpt>
      <trkpt lat="43.5265" lon="1.51059">
        <ele>146</ele>
        <time>2023-03-22T16:53:01Z</time>
      </trkpt>
      <trkpt lat="43.52651" lon="1.51056">
        <ele>146</ele>
        <time>2023-03-22T16:53:02Z</time>
      </trkpt>
      <trkpt lat="43.52653" lon="1.51048">
        <ele>146</ele>
        <time>2023-03-22T16:53:03Z</time>
      </trkpt>
      <trkpt lat="43.52655" lon="1.51044">
        <ele>146</ele>
        <time>2023-03-22T16:53:04Z</time>
      </trkpt>
      <trkpt lat="43.52655" lon="1.51044">
        <ele>146</ele>
        <time>2023-03-22T16:53:05Z</time>
      </trkpt>
      <trkpt lat="43.52658" lon="1.51037">
        <ele>146</ele>
        <time>2023-03-22T16:53:06Z</time>
      </trkpt>
      <trkpt lat="43.52659" lon="1.51034">
        <ele>146</ele>
        <time>2023-03-22T16:53:07Z</time>
      </trkpt>
      <trkpt lat="43.5266" lon="1.51031">
        <ele>146</ele>
        <time>2023-03-22T16:53:08Z</time>
      </trkpt>
      <trkpt lat="43.52661" lon="1.51028">
        <ele>146</ele>
        <time>2023-03-22T16:53:09Z</time>
      </trkpt>
      <trkpt lat="43.52662" lon="1.51025">
        <ele>146</ele>
        <time>2023-03-22T16:53:10Z</time>
      </trkpt>
      <trkpt lat="43.52662" lon="1.51025">
        <ele>146</ele>
        <time>2023-03-22T16:53:11Z</time>
      </trkpt>
      <trkpt lat="43.52664" lon="1.51022">
        <ele>147</ele>
        <time>2023-03-22T16:53:12Z</time>
      </trkpt>
      <trkpt lat="43.52665" lon="1.51019">
        <ele>147</ele>
        <time>2023-03-22T16:53:13Z</time>
      </trkpt>
      <trkpt lat="43.52666" lon="1.51016">
        <ele>147</ele>
        <time>2023-03-22T16:53:14Z</time>
      </trkpt>
      <trkpt lat="43.52668" lon="1.51013">
        <ele>147</ele>
        <time>2023-03-22T16:53:15Z</time>
      </trkpt>
      <trkpt lat="43.52669" lon="1.51011">
        <ele>148</ele>
        <time>2023-03-22T16:53:16Z</time>
      </trkpt>
      <trkpt lat="43.5267" lon="1.51008">
        <ele>148</ele>
        <time>2023-03-22T16:53:17Z</time>
      </trkpt>
      <trkpt lat="43.5267" lon="1.51004">
        <ele>148</ele>
        <time>2023-03-22T16:53:18Z</time>
      </trkpt>
      <trkpt lat="43.52673" lon="1.50997">
        <ele>148</ele>
        <time>2023-03-22T16:53:19Z</time>
      </trkpt>
      <trkpt lat="43.52673" lon="1.50997">
        <ele>148</ele>
        <time>2023-03-22T16:53:20Z</time>
      </trkpt>
      <trkpt lat="43.52674" lon="1.50993">
        <ele>148</ele>
        <time>2023-03-22T16:53:21Z</time>
      </trkpt>
      <trkpt lat="43.52675" lon="1.5099">
        <ele>148</ele>
        <time>2023-03-22T16:53:22Z</time>
      </trkpt>
      <trkpt lat="43.52677" lon="1.50986">
        <ele>148</ele>
        <time>2023-03-22T16:53:23Z</time>
      </trkpt>
      <trkpt lat="43.52681" lon="1.50979">
        <ele>147</ele>
        <time>2023-03-22T16:53:24Z</time>
      </trkpt>
      <trkpt lat="43.52681" lon="1.50979">
        <ele>147</ele>
        <time>2023-03-22T16:53:25Z</time>
      </trkpt>
      <trkpt lat="43.52684" lon="1.50971">
        <ele>147</ele>
        <time>2023-03-22T16:53:26Z</time>
      </trkpt>
      <trkpt lat="43.52684" lon="1.50971">
        <ele>147</ele>
        <time>2023-03-22T16:53:27Z</time>
      </trkpt>
      <trkpt lat="43.52686" lon="1.50969">
        <ele>147</ele>
        <time>2023-03-22T16:53:28Z</time>
      </trkpt>
      <trkpt lat="43.52687" lon="1.50966">
        <ele>147</ele>
        <time>2023-03-22T16:53:29Z</time>
      </trkpt>
      <trkpt lat="43.52689" lon="1.50962">
        <ele>147</ele>
        <time>2023-03-22T16:53:30Z</time>
      </trkpt>
      <trkpt lat="43.52692" lon="1.50955">
        <ele>147</ele>
        <time>2023-03-22T16:53:31Z</time>
      </trkpt>
      <trkpt lat="43.52692" lon="1.50955">
        <ele>147</ele>
        <time>2023-03-22T16:53:32Z</time>
      </trkpt>
      <trkpt lat="43.52693" lon="1.50952">
        <ele>147</ele>
        <time>2023-03-22T16:53:33Z</time>
      </trkpt>
      <trkpt lat="43.52694" lon="1.50949">
        <ele>147</ele>
        <time>2023-03-22T16:53:34Z</time>
      </trkpt>
      <trkpt lat="43.52695" lon="1.50946">
        <ele>147</ele>
        <time>2023-03-22T16:53:35Z</time>
      </trkpt>
      <trkpt lat="43.52697" lon="1.50943">
        <ele>146</ele>
        <time>2023-03-22T16:53:36Z</time>
      </trkpt>
      <trkpt lat="43.52699" lon="1.5094">
        <ele>146</ele>
        <time>2023-03-22T16:53:37Z</time>
      </trkpt>
      <trkpt lat="43.52701" lon="1.50937">
        <ele>146</ele>
        <time>2023-03-22T16:53:38Z</time>
      </trkpt>
      <trkpt lat="43.52705" lon="1.50932">
        <ele>146</ele>
        <time>2023-03-22T16:53:39Z</time>
      </trkpt>
      <trkpt lat="43.52705" lon="1.50932">
        <ele>146</ele>
        <time>2023-03-22T16:53:40Z</time>
      </trkpt>
      <trkpt lat="43.52706" lon="1.50929">
        <ele>146</ele>
        <time>2023-03-22T16:53:41Z</time>
      </trkpt>
      <trkpt lat="43.52707" lon="1.50927">
        <ele>146</ele>
        <time>2023-03-22T16:53:42Z</time>
      </trkpt>
      <trkpt lat="43.52708" lon="1.50925">
        <ele>146</ele>
        <time>2023-03-22T16:53:43Z</time>
      </trkpt>
      <trkpt lat="43.52712" lon="1.50915">
        <ele>146</ele>
        <time>2023-03-22T16:53:44Z</time>
      </trkpt>
      <trkpt lat="43.52715" lon="1.50912">
        <ele>146</ele>
        <time>2023-03-22T16:53:45Z</time>
      </trkpt>
      <trkpt lat="43.52717" lon="1.50909">
        <ele>146</ele>
        <time>2023-03-22T16:53:46Z</time>
      </trkpt>
      <trkpt lat="43.52719" lon="1.50906">
        <ele>146</ele>
        <time>2023-03-22T16:53:47Z</time>
      </trkpt>
      <trkpt lat="43.5272" lon="1.50905">
        <ele>146</ele>
        <time>2023-03-22T16:53:48Z</time>
      </trkpt>
      <trkpt lat="43.52722" lon="1.50902">
        <ele>146</ele>
        <time>2023-03-22T16:53:49Z</time>
      </trkpt>
      <trkpt lat="43.52725" lon="1.50896">
        <ele>146</ele>
        <time>2023-03-22T16:53:50Z</time>
      </trkpt>
      <trkpt lat="43.52725" lon="1.50896">
        <ele>146</ele>
        <time>2023-03-22T16:53:51Z</time>
      </trkpt>
      <trkpt lat="43.52727" lon="1.50894">
        <ele>146</ele>
        <time>2023-03-22T16:53:52Z</time>
      </trkpt>
      <trkpt lat="43.52728" lon="1.50891">
        <ele>145</ele>
        <time>2023-03-22T16:53:53Z</time>
      </trkpt>
      <trkpt lat="43.52731" lon="1.50889">
        <ele>145</ele>
        <time>2023-03-22T16:53:54Z</time>
      </trkpt>
      <trkpt lat="43.52733" lon="1.50886">
        <ele>145</ele>
        <time>2023-03-22T16:53:55Z</time>
      </trkpt>
      <trkpt lat="43.52736" lon="1.50879">
        <ele>145</ele>
        <time>2023-03-22T16:53:56Z</time>
      </trkpt>
      <trkpt lat="43.52738" lon="1.50876">
        <ele>145</ele>
        <time>2023-03-22T16:53:57Z</time>
      </trkpt>
      <trkpt lat="43.5274" lon="1.50874">
        <ele>145</ele>
        <time>2023-03-22T16:53:58Z</time>
      </trkpt>
      <trkpt lat="43.5274" lon="1.50874">
        <ele>145</ele>
        <time>2023-03-22T16:53:59Z</time>
      </trkpt>
      <trkpt lat="43.52741" lon="1.50871">
        <ele>145</ele>
        <time>2023-03-22T16:54:00Z</time>
      </trkpt>
      <trkpt lat="43.52745" lon="1.50866">
        <ele>145</ele>
        <time>2023-03-22T16:54:01Z</time>
      </trkpt>
      <trkpt lat="43.52745" lon="1.50866">
        <ele>145</ele>
        <time>2023-03-22T16:54:02Z</time>
      </trkpt>
      <trkpt lat="43.52748" lon="1.50863">
        <ele>145</ele>
        <time>2023-03-22T16:54:03Z</time>
      </trkpt>
      <trkpt lat="43.5275" lon="1.50861">
        <ele>145</ele>
        <time>2023-03-22T16:54:04Z</time>
      </trkpt>
      <trkpt lat="43.52752" lon="1.50858">
        <ele>145</ele>
        <time>2023-03-22T16:54:05Z</time>
      </trkpt>
      <trkpt lat="43.52754" lon="1.50856">
        <ele>145</ele>
        <time>2023-03-22T16:54:06Z</time>
      </trkpt>
      <trkpt lat="43.52756" lon="1.50854">
        <ele>145</ele>
        <time>2023-03-22T16:54:07Z</time>
      </trkpt>
      <trkpt lat="43.52759" lon="1.50853">
        <ele>145</ele>
        <time>2023-03-22T16:54:08Z</time>
      </trkpt>
      <trkpt lat="43.52761" lon="1.5085">
        <ele>145</ele>
        <time>2023-03-22T16:54:09Z</time>
      </trkpt>
      <trkpt lat="43.52764" lon="1.50848">
        <ele>145</ele>
        <time>2023-03-22T16:54:10Z</time>
      </trkpt>
      <trkpt lat="43.52767" lon="1.50846">
        <ele>145</ele>
        <time>2023-03-22T16:54:11Z</time>
      </trkpt>
      <trkpt lat="43.5277" lon="1.50843">
        <ele>145</ele>
        <time>2023-03-22T16:54:12Z</time>
      </trkpt>
      <trkpt lat="43.52771" lon="1.50842">
        <ele>145</ele>
        <time>2023-03-22T16:54:13Z</time>
      </trkpt>
      <trkpt lat="43.52774" lon="1.5084">
        <ele>145</ele>
        <time>2023-03-22T16:54:14Z</time>
      </trkpt>
      <trkpt lat="43.52777" lon="1.50838">
        <ele>145</ele>
        <time>2023-03-22T16:54:15Z</time>
      </trkpt>
      <trkpt lat="43.52779" lon="1.50837">
        <ele>145</ele>
        <time>2023-03-22T16:54:16Z</time>
      </trkpt>
      <trkpt lat="43.52782" lon="1.50836">
        <ele>145</ele>
        <time>2023-03-22T16:54:17Z</time>
      </trkpt>
      <trkpt lat="43.52787" lon="1.50834">
        <ele>145</ele>
        <time>2023-03-22T16:54:18Z</time>
      </trkpt>
      <trkpt lat="43.5279" lon="1.50833">
        <ele>145</ele>
        <time>2023-03-22T16:54:19Z</time>
      </trkpt>
      <trkpt lat="43.52793" lon="1.50832">
        <ele>145</ele>
        <time>2023-03-22T16:54:20Z</time>
      </trkpt>
      <trkpt lat="43.52793" lon="1.50832">
        <ele>145</ele>
        <time>2023-03-22T16:54:21Z</time>
      </trkpt>
      <trkpt lat="43.52796" lon="1.5083">
        <ele>145</ele>
        <time>2023-03-22T16:54:22Z</time>
      </trkpt>
      <trkpt lat="43.52801" lon="1.50828">
        <ele>145</ele>
        <time>2023-03-22T16:54:23Z</time>
      </trkpt>
      <trkpt lat="43.52804" lon="1.50826">
        <ele>145</ele>
        <time>2023-03-22T16:54:24Z</time>
      </trkpt>
      <trkpt lat="43.52807" lon="1.50824">
        <ele>145</ele>
        <time>2023-03-22T16:54:25Z</time>
      </trkpt>
      <trkpt lat="43.52807" lon="1.50824">
        <ele>145</ele>
        <time>2023-03-22T16:54:26Z</time>
      </trkpt>
      <trkpt lat="43.52809" lon="1.50822">
        <ele>145</ele>
        <time>2023-03-22T16:54:27Z</time>
      </trkpt>
      <trkpt lat="43.52814" lon="1.50819">
        <ele>145</ele>
        <time>2023-03-22T16:54:28Z</time>
      </trkpt>
      <trkpt lat="43.52817" lon="1.50817">
        <ele>145</ele>
        <time>2023-03-22T16:54:29Z</time>
      </trkpt>
      <trkpt lat="43.52819" lon="1.50815">
        <ele>145</ele>
        <time>2023-03-22T16:54:30Z</time>
      </trkpt>
      <trkpt lat="43.52822" lon="1.50814">
        <ele>145</ele>
        <time>2023-03-22T16:54:31Z</time>
      </trkpt>
      <trkpt lat="43.52822" lon="1.50814">
        <ele>145</ele>
        <time>2023-03-22T16:54:32Z</time>
      </trkpt>
      <trkpt lat="43.52827" lon="1.5081">
        <ele>145</ele>
        <time>2023-03-22T16:54:33Z</time>
      </trkpt>
      <trkpt lat="43.52827" lon="1.5081">
        <ele>145</ele>
        <time>2023-03-22T16:54:34Z</time>
      </trkpt>
      <trkpt lat="43.52829" lon="1.50808">
        <ele>145</ele>
        <time>2023-03-22T16:54:35Z</time>
      </trkpt>
      <trkpt lat="43.52832" lon="1.50807">
        <ele>145</ele>
        <time>2023-03-22T16:54:36Z</time>
      </trkpt>
      <trkpt lat="43.52837" lon="1.50802">
        <ele>145</ele>
        <time>2023-03-22T16:54:37Z</time>
      </trkpt>
      <trkpt lat="43.52837" lon="1.50802">
        <ele>145</ele>
        <time>2023-03-22T16:54:38Z</time>
      </trkpt>
      <trkpt lat="43.5284" lon="1.508">
        <ele>145</ele>
        <time>2023-03-22T16:54:39Z</time>
      </trkpt>
      <trkpt lat="43.52842" lon="1.50798">
        <ele>145</ele>
        <time>2023-03-22T16:54:40Z</time>
      </trkpt>
      <trkpt lat="43.52845" lon="1.50796">
        <ele>145</ele>
        <time>2023-03-22T16:54:41Z</time>
      </trkpt>
      <trkpt lat="43.52847" lon="1.50794">
        <ele>145</ele>
        <time>2023-03-22T16:54:42Z</time>
      </trkpt>
      <trkpt lat="43.5285" lon="1.50792">
        <ele>145</ele>
        <time>2023-03-22T16:54:43Z</time>
      </trkpt>
      <trkpt lat="43.52853" lon="1.5079">
        <ele>145</ele>
        <time>2023-03-22T16:54:44Z</time>
      </trkpt>
      <trkpt lat="43.52855" lon="1.50788">
        <ele>145</ele>
        <time>2023-03-22T16:54:45Z</time>
      </trkpt>
      <trkpt lat="43.5286" lon="1.50785">
        <ele>145</ele>
        <time>2023-03-22T16:54:46Z</time>
      </trkpt>
      <trkpt lat="43.52863" lon="1.50784">
        <ele>145</ele>
        <time>2023-03-22T16:54:47Z</time>
      </trkpt>
      <trkpt lat="43.52865" lon="1.50782">
        <ele>145</ele>
        <time>2023-03-22T16:54:48Z</time>
      </trkpt>
      <trkpt lat="43.52867" lon="1.5078">
        <ele>145</ele>
        <time>2023-03-22T16:54:49Z</time>
      </trkpt>
      <trkpt lat="43.52869" lon="1.50779">
        <ele>145</ele>
        <time>2023-03-22T16:54:50Z</time>
      </trkpt>
      <trkpt lat="43.52869" lon="1.50779">
        <ele>145</ele>
        <time>2023-03-22T16:54:51Z</time>
      </trkpt>
      <trkpt lat="43.5287" lon="1.50777">
        <ele>145</ele>
        <time>2023-03-22T16:54:52Z</time>
      </trkpt>
      <trkpt lat="43.52873" lon="1.50775">
        <ele>145</ele>
        <time>2023-03-22T16:54:53Z</time>
      </trkpt>
      <trkpt lat="43.52876" lon="1.50771">
        <ele>145</ele>
        <time>2023-03-22T16:54:54Z</time>
      </trkpt>
      <trkpt lat="43.52878" lon="1.50768">
        <ele>145</ele>
        <time>2023-03-22T16:54:55Z</time>
      </trkpt>
      <trkpt lat="43.5288" lon="1.50766">
        <ele>145</ele>
        <time>2023-03-22T16:54:56Z</time>
      </trkpt>
      <trkpt lat="43.52882" lon="1.50764">
        <ele>145</ele>
        <time>2023-03-22T16:54:57Z</time>
      </trkpt>
      <trkpt lat="43.52882" lon="1.50764">
        <ele>145</ele>
        <time>2023-03-22T16:54:58Z</time>
      </trkpt>
      <trkpt lat="43.52886" lon="1.50759">
        <ele>145</ele>
        <time>2023-03-22T16:54:59Z</time>
      </trkpt>
      <trkpt lat="43.52888" lon="1.50758">
        <ele>145</ele>
        <time>2023-03-22T16:55:00Z</time>
      </trkpt>
      <trkpt lat="43.5289" lon="1.50755">
        <ele>146</ele>
        <time>2023-03-22T16:55:01Z</time>
      </trkpt>
      <trkpt lat="43.5289" lon="1.50755">
        <ele>146</ele>
        <time>2023-03-22T16:55:02Z</time>
      </trkpt>
      <trkpt lat="43.52892" lon="1.50752">
        <ele>146</ele>
        <time>2023-03-22T16:55:03Z</time>
      </trkpt>
      <trkpt lat="43.52894" lon="1.50749">
        <ele>146</ele>
        <time>2023-03-22T16:55:04Z</time>
      </trkpt>
      <trkpt lat="43.52897" lon="1.50747">
        <ele>146</ele>
        <time>2023-03-22T16:55:05Z</time>
      </trkpt>
      <trkpt lat="43.52899" lon="1.50745">
        <ele>146</ele>
        <time>2023-03-22T16:55:06Z</time>
      </trkpt>
      <trkpt lat="43.52901" lon="1.50743">
        <ele>146</ele>
        <time>2023-03-22T16:55:07Z</time>
      </trkpt>
      <trkpt lat="43.52906" lon="1.50739">
        <ele>146</ele>
        <time>2023-03-22T16:55:08Z</time>
      </trkpt>
      <trkpt lat="43.52909" lon="1.50737">
        <ele>146</ele>
        <time>2023-03-22T16:55:09Z</time>
      </trkpt>
      <trkpt lat="43.52909" lon="1.50737">
        <ele>146</ele>
        <time>2023-03-22T16:55:10Z</time>
      </trkpt>
      <trkpt lat="43.52913" lon="1.50732">
        <ele>146</ele>
        <time>2023-03-22T16:55:11Z</time>
      </trkpt>
      <trkpt lat="43.52913" lon="1.50732">
        <ele>146</ele>
        <time>2023-03-22T16:55:12Z</time>
      </trkpt>
      <trkpt lat="43.52915" lon="1.50729">
        <ele>145</ele>
        <time>2023-03-22T16:55:13Z</time>
      </trkpt>
      <trkpt lat="43.52919" lon="1.50724">
        <ele>145</ele>
        <time>2023-03-22T16:55:14Z</time>
      </trkpt>
      <trkpt lat="43.52919" lon="1.50724">
        <ele>145</ele>
        <time>2023-03-22T16:55:15Z</time>
      </trkpt>
      <trkpt lat="43.52922" lon="1.50722">
        <ele>145</ele>
        <time>2023-03-22T16:55:16Z</time>
      </trkpt>
      <trkpt lat="43.52926" lon="1.50717">
        <ele>145</ele>
        <time>2023-03-22T16:55:17Z</time>
      </trkpt>
      <trkpt lat="43.52929" lon="1.50715">
        <ele>145</ele>
        <time>2023-03-22T16:55:18Z</time>
      </trkpt>
      <trkpt lat="43.52929" lon="1.50715">
        <ele>145</ele>
        <time>2023-03-22T16:55:19Z</time>
      </trkpt>
      <trkpt lat="43.52933" lon="1.50711">
        <ele>145</ele>
        <time>2023-03-22T16:55:20Z</time>
      </trkpt>
      <trkpt lat="43.52933" lon="1.50711">
        <ele>145</ele>
        <time>2023-03-22T16:55:21Z</time>
      </trkpt>
      <trkpt lat="43.52936" lon="1.50709">
        <ele>145</ele>
        <time>2023-03-22T16:55:22Z</time>
      </trkpt>
      <trkpt lat="43.52938" lon="1.50708">
        <ele>145</ele>
        <time>2023-03-22T16:55:23Z</time>
      </trkpt>
      <trkpt lat="43.5294" lon="1.50706">
        <ele>146</ele>
        <time>2023-03-22T16:55:24Z</time>
      </trkpt>
      <trkpt lat="43.52943" lon="1.50703">
        <ele>146</ele>
        <time>2023-03-22T16:55:25Z</time>
      </trkpt>
      <trkpt lat="43.52945" lon="1.50701">
        <ele>146</ele>
        <time>2023-03-22T16:55:26Z</time>
      </trkpt>
      <trkpt lat="43.52946" lon="1.50699">
        <ele>146</ele>
        <time>2023-03-22T16:55:27Z</time>
      </trkpt>
      <trkpt lat="43.52948" lon="1.50697">
        <ele>146</ele>
        <time>2023-03-22T16:55:28Z</time>
      </trkpt>
      <trkpt lat="43.5295" lon="1.50695">
        <ele>146</ele>
        <time>2023-03-22T16:55:29Z</time>
      </trkpt>
      <trkpt lat="43.52954" lon="1.5069">
        <ele>146</ele>
        <time>2023-03-22T16:55:30Z</time>
      </trkpt>
      <trkpt lat="43.52954" lon="1.5069">
        <ele>146</ele>
        <time>2023-03-22T16:55:31Z</time>
      </trkpt>
      <trkpt lat="43.52958" lon="1.50685">
        <ele>146</ele>
        <time>2023-03-22T16:55:32Z</time>
      </trkpt>
      <trkpt lat="43.52958" lon="1.50685">
        <ele>146</ele>
        <time>2023-03-22T16:55:33Z</time>
      </trkpt>
      <trkpt lat="43.52959" lon="1.50683">
        <ele>146</ele>
        <time>2023-03-22T16:55:34Z</time>
      </trkpt>
      <trkpt lat="43.52962" lon="1.50681">
        <ele>146</ele>
        <time>2023-03-22T16:55:35Z</time>
      </trkpt>
      <trkpt lat="43.52966" lon="1.50676">
        <ele>146</ele>
        <time>2023-03-22T16:55:36Z</time>
      </trkpt>
      <trkpt lat="43.52966" lon="1.50676">
        <ele>146</ele>
        <time>2023-03-22T16:55:37Z</time>
      </trkpt>
      <trkpt lat="43.52968" lon="1.50673">
        <ele>146</ele>
        <time>2023-03-22T16:55:38Z</time>
      </trkpt>
      <trkpt lat="43.5297" lon="1.5067">
        <ele>146</ele>
        <time>2023-03-22T16:55:39Z</time>
      </trkpt>
      <trkpt lat="43.52972" lon="1.50668">
        <ele>146</ele>
        <time>2023-03-22T16:55:40Z</time>
      </trkpt>
      <trkpt lat="43.52974" lon="1.50666">
        <ele>146</ele>
        <time>2023-03-22T16:55:41Z</time>
      </trkpt>
      <trkpt lat="43.52977" lon="1.50664">
        <ele>147</ele>
        <time>2023-03-22T16:55:42Z</time>
      </trkpt>
      <trkpt lat="43.52979" lon="1.50662">
        <ele>147</ele>
        <time>2023-03-22T16:55:43Z</time>
      </trkpt>
      <trkpt lat="43.52981" lon="1.5066">
        <ele>146</ele>
        <time>2023-03-22T16:55:44Z</time>
      </trkpt>
      <trkpt lat="43.52983" lon="1.50658">
        <ele>146</ele>
        <time>2023-03-22T16:55:45Z</time>
      </trkpt>
      <trkpt lat="43.52985" lon="1.50656">
        <ele>146</ele>
        <time>2023-03-22T16:55:46Z</time>
      </trkpt>
      <trkpt lat="43.52987" lon="1.50653">
        <ele>146</ele>
        <time>2023-03-22T16:55:47Z</time>
      </trkpt>
      <trkpt lat="43.52989" lon="1.50651">
        <ele>146</ele>
        <time>2023-03-22T16:55:48Z</time>
      </trkpt>
      <trkpt lat="43.52993" lon="1.50646">
        <ele>146</ele>
        <time>2023-03-22T16:55:49Z</time>
      </trkpt>
      <trkpt lat="43.52993" lon="1.50646">
        <ele>146</ele>
        <time>2023-03-22T16:55:50Z</time>
      </trkpt>
      <trkpt lat="43.52998" lon="1.5064">
        <ele>146</ele>
        <time>2023-03-22T16:55:51Z</time>
      </trkpt>
      <trkpt lat="43.52998" lon="1.5064">
        <ele>146</ele>
        <time>2023-03-22T16:55:52Z</time>
      </trkpt>
      <trkpt lat="43.53" lon="1.50638">
        <ele>145</ele>
        <time>2023-03-22T16:55:53Z</time>
      </trkpt>
      <trkpt lat="43.53002" lon="1.50635">
        <ele>145</ele>
        <time>2023-03-22T16:55:54Z</time>
      </trkpt>
      <trkpt lat="43.53005" lon="1.50632">
        <ele>145</ele>
        <time>2023-03-22T16:55:55Z</time>
      </trkpt>
      <trkpt lat="43.53007" lon="1.50629">
        <ele>145</ele>
        <time>2023-03-22T16:55:56Z</time>
      </trkpt>
      <trkpt lat="43.5301" lon="1.50627">
        <ele>145</ele>
        <time>2023-03-22T16:55:57Z</time>
      </trkpt>
      <trkpt lat="43.53012" lon="1.50624">
        <ele>145</ele>
        <time>2023-03-22T16:55:58Z</time>
      </trkpt>
      <trkpt lat="43.53015" lon="1.50622">
        <ele>145</ele>
        <time>2023-03-22T16:55:59Z</time>
      </trkpt>
      <trkpt lat="43.53017" lon="1.5062">
        <ele>145</ele>
        <time>2023-03-22T16:56:00Z</time>
      </trkpt>
      <trkpt lat="43.5302" lon="1.50618">
        <ele>145</ele>
        <time>2023-03-22T16:56:01Z</time>
      </trkpt>
      <trkpt lat="43.53023" lon="1.50617">
        <ele>145</ele>
        <time>2023-03-22T16:56:02Z</time>
      </trkpt>
      <trkpt lat="43.53025" lon="1.50615">
        <ele>145</ele>
        <time>2023-03-22T16:56:03Z</time>
      </trkpt>
      <trkpt lat="43.53028" lon="1.50613">
        <ele>145</ele>
        <time>2023-03-22T16:56:04Z</time>
      </trkpt>
      <trkpt lat="43.53031" lon="1.50611">
        <ele>145</ele>
        <time>2023-03-22T16:56:05Z</time>
      </trkpt>
      <trkpt lat="43.53034" lon="1.50609">
        <ele>145</ele>
        <time>2023-03-22T16:56:06Z</time>
      </trkpt>
      <trkpt lat="43.53037" lon="1.50607">
        <ele>145</ele>
        <time>2023-03-22T16:56:07Z</time>
      </trkpt>
      <trkpt lat="43.53042" lon="1.50604">
        <ele>145</ele>
        <time>2023-03-22T16:56:08Z</time>
      </trkpt>
      <trkpt lat="43.53045" lon="1.50602">
        <ele>146</ele>
        <time>2023-03-22T16:56:09Z</time>
      </trkpt>
      <trkpt lat="43.53048" lon="1.50601">
        <ele>146</ele>
        <time>2023-03-22T16:56:10Z</time>
      </trkpt>
      <trkpt lat="43.53051" lon="1.50599">
        <ele>145</ele>
        <time>2023-03-22T16:56:11Z</time>
      </trkpt>
      <trkpt lat="43.53051" lon="1.50599">
        <ele>145</ele>
        <time>2023-03-22T16:56:12Z</time>
      </trkpt>
      <trkpt lat="43.53054" lon="1.50596">
        <ele>145</ele>
        <time>2023-03-22T16:56:13Z</time>
      </trkpt>
      <trkpt lat="43.53056" lon="1.50594">
        <ele>145</ele>
        <time>2023-03-22T16:56:14Z</time>
      </trkpt>
      <trkpt lat="43.53059" lon="1.50592">
        <ele>146</ele>
        <time>2023-03-22T16:56:15Z</time>
      </trkpt>
      <trkpt lat="43.53062" lon="1.5059">
        <ele>146</ele>
        <time>2023-03-22T16:56:16Z</time>
      </trkpt>
      <trkpt lat="43.53065" lon="1.50588">
        <ele>146</ele>
        <time>2023-03-22T16:56:17Z</time>
      </trkpt>
      <trkpt lat="43.53067" lon="1.50587">
        <ele>146</ele>
        <time>2023-03-22T16:56:18Z</time>
      </trkpt>
      <trkpt lat="43.5307" lon="1.50585">
        <ele>146</ele>
        <time>2023-03-22T16:56:19Z</time>
      </trkpt>
      <trkpt lat="43.53072" lon="1.50583">
        <ele>146</ele>
        <time>2023-03-22T16:56:20Z</time>
      </trkpt>
      <trkpt lat="43.53075" lon="1.50582">
        <ele>146</ele>
        <time>2023-03-22T16:56:21Z</time>
      </trkpt>
      <trkpt lat="43.5308" lon="1.50578">
        <ele>146</ele>
        <time>2023-03-22T16:56:22Z</time>
      </trkpt>
      <trkpt lat="43.53083" lon="1.50576">
        <ele>146</ele>
        <time>2023-03-22T16:56:23Z</time>
      </trkpt>
      <trkpt lat="43.53085" lon="1.50575">
        <ele>145</ele>
        <time>2023-03-22T16:56:24Z</time>
      </trkpt>
      <trkpt lat="43.53088" lon="1.50573">
        <ele>145</ele>
        <time>2023-03-22T16:56:25Z</time>
      </trkpt>
      <trkpt lat="43.53091" lon="1.50571">
        <ele>145</ele>
        <time>2023-03-22T16:56:26Z</time>
      </trkpt>
      <trkpt lat="43.53094" lon="1.5057">
        <ele>145</ele>
        <time>2023-03-22T16:56:27Z</time>
      </trkpt>
      <trkpt lat="43.53097" lon="1.50568">
        <ele>145</ele>
        <time>2023-03-22T16:56:28Z</time>
      </trkpt>
      <trkpt lat="43.53099" lon="1.50567">
        <ele>145</ele>
        <time>2023-03-22T16:56:29Z</time>
      </trkpt>
      <trkpt lat="43.53102" lon="1.50565">
        <ele>145</ele>
        <time>2023-03-22T16:56:30Z</time>
      </trkpt>
      <trkpt lat="43.53104" lon="1.50564">
        <ele>145</ele>
        <time>2023-03-22T16:56:31Z</time>
      </trkpt>
      <trkpt lat="43.53104" lon="1.50564">
        <ele>145</ele>
        <time>2023-03-22T16:56:32Z</time>
      </trkpt>
      <trkpt lat="43.53107" lon="1.50562">
        <ele>145</ele>
        <time>2023-03-22T16:56:33Z</time>
      </trkpt>
      <trkpt lat="43.5311" lon="1.50561">
        <ele>145</ele>
        <time>2023-03-22T16:56:34Z</time>
      </trkpt>
      <trkpt lat="43.53112" lon="1.50559">
        <ele>145</ele>
        <time>2023-03-22T16:56:35Z</time>
      </trkpt>
      <trkpt lat="43.53118" lon="1.50557">
        <ele>145</ele>
        <time>2023-03-22T16:56:36Z</time>
      </trkpt>
      <trkpt lat="43.5312" lon="1.50556">
        <ele>145</ele>
        <time>2023-03-22T16:56:37Z</time>
      </trkpt>
      <trkpt lat="43.53123" lon="1.50555">
        <ele>146</ele>
        <time>2023-03-22T16:56:38Z</time>
      </trkpt>
      <trkpt lat="43.53126" lon="1.50554">
        <ele>146</ele>
        <time>2023-03-22T16:56:39Z</time>
      </trkpt>
      <trkpt lat="43.53126" lon="1.50554">
        <ele>145</ele>
        <time>2023-03-22T16:56:40Z</time>
      </trkpt>
      <trkpt lat="43.53129" lon="1.50552">
        <ele>145</ele>
        <time>2023-03-22T16:56:41Z</time>
      </trkpt>
      <trkpt lat="43.53131" lon="1.50551">
        <ele>145</ele>
        <time>2023-03-22T16:56:42Z</time>
      </trkpt>
      <trkpt lat="43.53137" lon="1.50548">
        <ele>145</ele>
        <time>2023-03-22T16:56:43Z</time>
      </trkpt>
      <trkpt lat="43.53139" lon="1.50547">
        <ele>145</ele>
        <time>2023-03-22T16:56:44Z</time>
      </trkpt>
      <trkpt lat="43.53142" lon="1.50545">
        <ele>145</ele>
        <time>2023-03-22T16:56:45Z</time>
      </trkpt>
      <trkpt lat="43.53145" lon="1.50544">
        <ele>145</ele>
        <time>2023-03-22T16:56:46Z</time>
      </trkpt>
      <trkpt lat="43.53147" lon="1.50543">
        <ele>145</ele>
        <time>2023-03-22T16:56:47Z</time>
      </trkpt>
      <trkpt lat="43.5315" lon="1.50542">
        <ele>145</ele>
        <time>2023-03-22T16:56:48Z</time>
      </trkpt>
      <trkpt lat="43.53153" lon="1.5054">
        <ele>145</ele>
        <time>2023-03-22T16:56:49Z</time>
      </trkpt>
      <trkpt lat="43.53153" lon="1.5054">
        <ele>145</ele>
        <time>2023-03-22T16:56:50Z</time>
      </trkpt>
      <trkpt lat="43.53155" lon="1.50538">
        <ele>145</ele>
        <time>2023-03-22T16:56:51Z</time>
      </trkpt>
      <trkpt lat="43.53161" lon="1.50536">
        <ele>145</ele>
        <time>2023-03-22T16:56:52Z</time>
      </trkpt>
      <trkpt lat="43.53161" lon="1.50536">
        <ele>145</ele>
        <time>2023-03-22T16:56:53Z</time>
      </trkpt>
      <trkpt lat="43.53164" lon="1.50534">
        <ele>145</ele>
        <time>2023-03-22T16:56:54Z</time>
      </trkpt>
      <trkpt lat="43.53167" lon="1.50533">
        <ele>145</ele>
        <time>2023-03-22T16:56:55Z</time>
      </trkpt>
      <trkpt lat="43.5317" lon="1.50532">
        <ele>145</ele>
        <time>2023-03-22T16:56:56Z</time>
      </trkpt>
      <trkpt lat="43.53172" lon="1.50531">
        <ele>145</ele>
        <time>2023-03-22T16:56:57Z</time>
      </trkpt>
      <trkpt lat="43.53175" lon="1.5053">
        <ele>145</ele>
        <time>2023-03-22T16:56:58Z</time>
      </trkpt>
      <trkpt lat="43.53177" lon="1.5053">
        <ele>145</ele>
        <time>2023-03-22T16:56:59Z</time>
      </trkpt>
      <trkpt lat="43.53182" lon="1.50528">
        <ele>145</ele>
        <time>2023-03-22T16:57:00Z</time>
      </trkpt>
      <trkpt lat="43.53185" lon="1.50528">
        <ele>144</ele>
        <time>2023-03-22T16:57:01Z</time>
      </trkpt>
      <trkpt lat="43.53185" lon="1.50528">
        <ele>144</ele>
        <time>2023-03-22T16:57:02Z</time>
      </trkpt>
      <trkpt lat="43.5319" lon="1.50526">
        <ele>144</ele>
        <time>2023-03-22T16:57:03Z</time>
      </trkpt>
      <trkpt lat="43.5319" lon="1.50526">
        <ele>144</ele>
        <time>2023-03-22T16:57:04Z</time>
      </trkpt>
      <trkpt lat="43.53193" lon="1.50524">
        <ele>144</ele>
        <time>2023-03-22T16:57:05Z</time>
      </trkpt>
      <trkpt lat="43.53198" lon="1.50523">
        <ele>145</ele>
        <time>2023-03-22T16:57:06Z</time>
      </trkpt>
      <trkpt lat="43.53201" lon="1.50522">
        <ele>145</ele>
        <time>2023-03-22T16:57:07Z</time>
      </trkpt>
      <trkpt lat="43.53204" lon="1.50521">
        <ele>145</ele>
        <time>2023-03-22T16:57:08Z</time>
      </trkpt>
      <trkpt lat="43.53207" lon="1.50521">
        <ele>145</ele>
        <time>2023-03-22T16:57:09Z</time>
      </trkpt>
      <trkpt lat="43.53209" lon="1.5052">
        <ele>145</ele>
        <time>2023-03-22T16:57:10Z</time>
      </trkpt>
      <trkpt lat="43.53209" lon="1.5052">
        <ele>145</ele>
        <time>2023-03-22T16:57:11Z</time>
      </trkpt>
      <trkpt lat="43.53215" lon="1.5052">
        <ele>145</ele>
        <time>2023-03-22T16:57:12Z</time>
      </trkpt>
      <trkpt lat="43.53215" lon="1.5052">
        <ele>145</ele>
        <time>2023-03-22T16:57:13Z</time>
      </trkpt>
      <trkpt lat="43.53218" lon="1.5052">
        <ele>145</ele>
        <time>2023-03-22T16:57:14Z</time>
      </trkpt>
      <trkpt lat="43.53221" lon="1.50519">
        <ele>145</ele>
        <time>2023-03-22T16:57:15Z</time>
      </trkpt>
      <trkpt lat="43.53226" lon="1.50518">
        <ele>145</ele>
        <time>2023-03-22T16:57:16Z</time>
      </trkpt>
      <trkpt lat="43.53229" lon="1.50517">
        <ele>145</ele>
        <time>2023-03-22T16:57:17Z</time>
      </trkpt>
      <trkpt lat="43.53229" lon="1.50517">
        <ele>145</ele>
        <time>2023-03-22T16:57:18Z</time>
      </trkpt>
      <trkpt lat="43.53232" lon="1.50517">
        <ele>145</ele>
        <time>2023-03-22T16:57:19Z</time>
      </trkpt>
      <trkpt lat="43.53237" lon="1.50516">
        <ele>145</ele>
        <time>2023-03-22T16:57:20Z</time>
      </trkpt>
      <trkpt lat="43.5324" lon="1.50515">
        <ele>145</ele>
        <time>2023-03-22T16:57:21Z</time>
      </trkpt>
      <trkpt lat="43.53242" lon="1.50514">
        <ele>145</ele>
        <time>2023-03-22T16:57:22Z</time>
      </trkpt>
      <trkpt lat="43.53245" lon="1.50514">
        <ele>145</ele>
        <time>2023-03-22T16:57:23Z</time>
      </trkpt>
      <trkpt lat="43.53245" lon="1.50514">
        <ele>145</ele>
        <time>2023-03-22T16:57:24Z</time>
      </trkpt>
      <trkpt lat="43.5325" lon="1.50512">
        <ele>145</ele>
        <time>2023-03-22T16:57:25Z</time>
      </trkpt>
      <trkpt lat="43.5325" lon="1.50512">
        <ele>145</ele>
        <time>2023-03-22T16:57:26Z</time>
      </trkpt>
      <trkpt lat="43.53253" lon="1.50512">
        <ele>145</ele>
        <time>2023-03-22T16:57:27Z</time>
      </trkpt>
      <trkpt lat="43.53256" lon="1.50511">
        <ele>145</ele>
        <time>2023-03-22T16:57:28Z</time>
      </trkpt>
      <trkpt lat="43.53259" lon="1.5051">
        <ele>145</ele>
        <time>2023-03-22T16:57:29Z</time>
      </trkpt>
      <trkpt lat="43.53262" lon="1.5051">
        <ele>145</ele>
        <time>2023-03-22T16:57:30Z</time>
      </trkpt>
      <trkpt lat="43.53265" lon="1.50509">
        <ele>145</ele>
        <time>2023-03-22T16:57:31Z</time>
      </trkpt>
      <trkpt lat="43.53271" lon="1.50507">
        <ele>145</ele>
        <time>2023-03-22T16:57:32Z</time>
      </trkpt>
      <trkpt lat="43.53271" lon="1.50507">
        <ele>144</ele>
        <time>2023-03-22T16:57:33Z</time>
      </trkpt>
      <trkpt lat="43.53277" lon="1.50506">
        <ele>144</ele>
        <time>2023-03-22T16:57:34Z</time>
      </trkpt>
      <trkpt lat="43.53277" lon="1.50506">
        <ele>145</ele>
        <time>2023-03-22T16:57:35Z</time>
      </trkpt>
      <trkpt lat="43.5328" lon="1.50505">
        <ele>145</ele>
        <time>2023-03-22T16:57:36Z</time>
      </trkpt>
      <trkpt lat="43.53283" lon="1.50505">
        <ele>145</ele>
        <time>2023-03-22T16:57:37Z</time>
      </trkpt>
      <trkpt lat="43.53288" lon="1.50504">
        <ele>145</ele>
        <time>2023-03-22T16:57:38Z</time>
      </trkpt>
      <trkpt lat="43.53288" lon="1.50504">
        <ele>145</ele>
        <time>2023-03-22T16:57:39Z</time>
      </trkpt>
      <trkpt lat="43.53291" lon="1.50504">
        <ele>145</ele>
        <time>2023-03-22T16:57:40Z</time>
      </trkpt>
      <trkpt lat="43.53297" lon="1.50504">
        <ele>145</ele>
        <time>2023-03-22T16:57:41Z</time>
      </trkpt>
      <trkpt lat="43.53297" lon="1.50504">
        <ele>145</ele>
        <time>2023-03-22T16:57:42Z</time>
      </trkpt>
      <trkpt lat="43.533" lon="1.50503">
        <ele>145</ele>
        <time>2023-03-22T16:57:43Z</time>
      </trkpt>
      <trkpt lat="43.53304" lon="1.50502">
        <ele>145</ele>
        <time>2023-03-22T16:57:44Z</time>
      </trkpt>
      <trkpt lat="43.53307" lon="1.50502">
        <ele>145</ele>
        <time>2023-03-22T16:57:45Z</time>
      </trkpt>
      <trkpt lat="43.53313" lon="1.50501">
        <ele>145</ele>
        <time>2023-03-22T16:57:46Z</time>
      </trkpt>
      <trkpt lat="43.53313" lon="1.50501">
        <ele>145</ele>
        <time>2023-03-22T16:57:47Z</time>
      </trkpt>
      <trkpt lat="43.53319" lon="1.50499">
        <ele>145</ele>
        <time>2023-03-22T16:57:48Z</time>
      </trkpt>
      <trkpt lat="43.53319" lon="1.50499">
        <ele>145</ele>
        <time>2023-03-22T16:57:49Z</time>
      </trkpt>
      <trkpt lat="43.53321" lon="1.50499">
        <ele>145</ele>
        <time>2023-03-22T16:57:50Z</time>
      </trkpt>
      <trkpt lat="43.53327" lon="1.50499">
        <ele>145</ele>
        <time>2023-03-22T16:57:51Z</time>
      </trkpt>
      <trkpt lat="43.53327" lon="1.50499">
        <ele>145</ele>
        <time>2023-03-22T16:57:52Z</time>
      </trkpt>
      <trkpt lat="43.5333" lon="1.50499">
        <ele>144</ele>
        <time>2023-03-22T16:57:53Z</time>
      </trkpt>
      <trkpt lat="43.53333" lon="1.50498">
        <ele>144</ele>
        <time>2023-03-22T16:57:54Z</time>
      </trkpt>
      <trkpt lat="43.53336" lon="1.50498">
        <ele>144</ele>
        <time>2023-03-22T16:57:55Z</time>
      </trkpt>
      <trkpt lat="43.53343" lon="1.50496">
        <ele>144</ele>
        <time>2023-03-22T16:57:56Z</time>
      </trkpt>
      <trkpt lat="43.53345" lon="1.50495">
        <ele>144</ele>
        <time>2023-03-22T16:57:57Z</time>
      </trkpt>
      <trkpt lat="43.53345" lon="1.50495">
        <ele>144</ele>
        <time>2023-03-22T16:57:58Z</time>
      </trkpt>
      <trkpt lat="43.53348" lon="1.50494">
        <ele>144</ele>
        <time>2023-03-22T16:57:59Z</time>
      </trkpt>
      <trkpt lat="43.5335" lon="1.50493">
        <ele>144</ele>
        <time>2023-03-22T16:58:00Z</time>
      </trkpt>
      <trkpt lat="43.5335" lon="1.50489">
        <ele>144</ele>
        <time>2023-03-22T16:58:01Z</time>
      </trkpt>
      <trkpt lat="43.5335" lon="1.50489">
        <ele>144</ele>
        <time>2023-03-22T16:58:02Z</time>
      </trkpt>
      <trkpt lat="43.53349" lon="1.50486">
        <ele>144</ele>
        <time>2023-03-22T16:58:03Z</time>
      </trkpt>
      <trkpt lat="43.53348" lon="1.50484">
        <ele>144</ele>
        <time>2023-03-22T16:58:04Z</time>
      </trkpt>
      <trkpt lat="43.53346" lon="1.50481">
        <ele>144</ele>
        <time>2023-03-22T16:58:05Z</time>
      </trkpt>
      <trkpt lat="43.53345" lon="1.50478">
        <ele>144</ele>
        <time>2023-03-22T16:58:06Z</time>
      </trkpt>
      <trkpt lat="43.53344" lon="1.50475">
        <ele>143</ele>
        <time>2023-03-22T16:58:07Z</time>
      </trkpt>
      <trkpt lat="43.53342" lon="1.50472">
        <ele>143</ele>
        <time>2023-03-22T16:58:08Z</time>
      </trkpt>
      <trkpt lat="43.53342" lon="1.50468">
        <ele>143</ele>
        <time>2023-03-22T16:58:09Z</time>
      </trkpt>
      <trkpt lat="43.5334" lon="1.50462">
        <ele>143</ele>
        <time>2023-03-22T16:58:10Z</time>
      </trkpt>
      <trkpt lat="43.5334" lon="1.50462">
        <ele>143</ele>
        <time>2023-03-22T16:58:11Z</time>
      </trkpt>
      <trkpt lat="43.53338" lon="1.50459">
        <ele>143</ele>
        <time>2023-03-22T16:58:12Z</time>
      </trkpt>
      <trkpt lat="43.53335" lon="1.50454">
        <ele>143</ele>
        <time>2023-03-22T16:58:13Z</time>
      </trkpt>
      <trkpt lat="43.53334" lon="1.50451">
        <ele>143</ele>
        <time>2023-03-22T16:58:14Z</time>
      </trkpt>
      <trkpt lat="43.53333" lon="1.50447">
        <ele>143</ele>
        <time>2023-03-22T16:58:15Z</time>
      </trkpt>
      <trkpt lat="43.53333" lon="1.50447">
        <ele>143</ele>
        <time>2023-03-22T16:58:16Z</time>
      </trkpt>
      <trkpt lat="43.53331" lon="1.50443">
        <ele>143</ele>
        <time>2023-03-22T16:58:17Z</time>
      </trkpt>
      <trkpt lat="43.53329" lon="1.5044">
        <ele>143</ele>
        <time>2023-03-22T16:58:18Z</time>
      </trkpt>
      <trkpt lat="43.53328" lon="1.50437">
        <ele>143</ele>
        <time>2023-03-22T16:58:19Z</time>
      </trkpt>
      <trkpt lat="43.53327" lon="1.50433">
        <ele>143</ele>
        <time>2023-03-22T16:58:20Z</time>
      </trkpt>
      <trkpt lat="43.53325" lon="1.50427">
        <ele>144</ele>
        <time>2023-03-22T16:58:21Z</time>
      </trkpt>
      <trkpt lat="43.53325" lon="1.50427">
        <ele>144</ele>
        <time>2023-03-22T16:58:22Z</time>
      </trkpt>
      <trkpt lat="43.53322" lon="1.50422">
        <ele>144</ele>
        <time>2023-03-22T16:58:23Z</time>
      </trkpt>
      <trkpt lat="43.53322" lon="1.50422">
        <ele>144</ele>
        <time>2023-03-22T16:58:24Z</time>
      </trkpt>
      <trkpt lat="43.5332" lon="1.50419">
        <ele>144</ele>
        <time>2023-03-22T16:58:25Z</time>
      </trkpt>
      <trkpt lat="43.53318" lon="1.50415">
        <ele>144</ele>
        <time>2023-03-22T16:58:26Z</time>
      </trkpt>
      <trkpt lat="43.53315" lon="1.50408">
        <ele>144</ele>
        <time>2023-03-22T16:58:27Z</time>
      </trkpt>
      <trkpt lat="43.53314" lon="1.50405">
        <ele>144</ele>
        <time>2023-03-22T16:58:28Z</time>
      </trkpt>
      <trkpt lat="43.53314" lon="1.50405">
        <ele>144</ele>
        <time>2023-03-22T16:58:29Z</time>
      </trkpt>
      <trkpt lat="43.53311" lon="1.50397">
        <ele>144</ele>
        <time>2023-03-22T16:58:30Z</time>
      </trkpt>
      <trkpt lat="43.53311" lon="1.50397">
        <ele>144</ele>
        <time>2023-03-22T16:58:31Z</time>
      </trkpt>
      <trkpt lat="43.5331" lon="1.50393">
        <ele>144</ele>
        <time>2023-03-22T16:58:32Z</time>
      </trkpt>
      <trkpt lat="43.53308" lon="1.50386">
        <ele>144</ele>
        <time>2023-03-22T16:58:33Z</time>
      </trkpt>
      <trkpt lat="43.53308" lon="1.50386">
        <ele>144</ele>
        <time>2023-03-22T16:58:34Z</time>
      </trkpt>
      <trkpt lat="43.53307" lon="1.50383">
        <ele>144</ele>
        <time>2023-03-22T16:58:35Z</time>
      </trkpt>
      <trkpt lat="43.53305" lon="1.5038">
        <ele>144</ele>
        <time>2023-03-22T16:58:36Z</time>
      </trkpt>
      <trkpt lat="43.53304" lon="1.50377">
        <ele>144</ele>
        <time>2023-03-22T16:58:37Z</time>
      </trkpt>
      <trkpt lat="43.53302" lon="1.50369">
        <ele>144</ele>
        <time>2023-03-22T16:58:38Z</time>
      </trkpt>
      <trkpt lat="43.53302" lon="1.50369">
        <ele>144</ele>
        <time>2023-03-22T16:58:39Z</time>
      </trkpt>
      <trkpt lat="43.533" lon="1.50362">
        <ele>144</ele>
        <time>2023-03-22T16:58:40Z</time>
      </trkpt>
      <trkpt lat="43.533" lon="1.50362">
        <ele>144</ele>
        <time>2023-03-22T16:58:41Z</time>
      </trkpt>
      <trkpt lat="43.53299" lon="1.50358">
        <ele>144</ele>
        <time>2023-03-22T16:58:42Z</time>
      </trkpt>
      <trkpt lat="43.53298" lon="1.50354">
        <ele>144</ele>
        <time>2023-03-22T16:58:43Z</time>
      </trkpt>
      <trkpt lat="43.53298" lon="1.5035">
        <ele>144</ele>
        <time>2023-03-22T16:58:44Z</time>
      </trkpt>
      <trkpt lat="43.53297" lon="1.50346">
        <ele>144</ele>
        <time>2023-03-22T16:58:45Z</time>
      </trkpt>
      <trkpt lat="43.53295" lon="1.50342">
        <ele>144</ele>
        <time>2023-03-22T16:58:46Z</time>
      </trkpt>
      <trkpt lat="43.53294" lon="1.50334">
        <ele>144</ele>
        <time>2023-03-22T16:58:47Z</time>
      </trkpt>
      <trkpt lat="43.53294" lon="1.50334">
        <ele>144</ele>
        <time>2023-03-22T16:58:48Z</time>
      </trkpt>
      <trkpt lat="43.53293" lon="1.50331">
        <ele>144</ele>
        <time>2023-03-22T16:58:49Z</time>
      </trkpt>
      <trkpt lat="43.5329" lon="1.50324">
        <ele>144</ele>
        <time>2023-03-22T16:58:50Z</time>
      </trkpt>
      <trkpt lat="43.53289" lon="1.5032">
        <ele>144</ele>
        <time>2023-03-22T16:58:51Z</time>
      </trkpt>
      <trkpt lat="43.53288" lon="1.50317">
        <ele>144</ele>
        <time>2023-03-22T16:58:52Z</time>
      </trkpt>
      <trkpt lat="43.53287" lon="1.50312">
        <ele>144</ele>
        <time>2023-03-22T16:58:53Z</time>
      </trkpt>
      <trkpt lat="43.53286" lon="1.50308">
        <ele>144</ele>
        <time>2023-03-22T16:58:54Z</time>
      </trkpt>
      <trkpt lat="43.53286" lon="1.50308">
        <ele>144</ele>
        <time>2023-03-22T16:58:55Z</time>
      </trkpt>
      <trkpt lat="43.53285" lon="1.50304">
        <ele>144</ele>
        <time>2023-03-22T16:58:56Z</time>
      </trkpt>
      <trkpt lat="43.53284" lon="1.503">
        <ele>144</ele>
        <time>2023-03-22T16:58:57Z</time>
      </trkpt>
      <trkpt lat="43.53283" lon="1.50293">
        <ele>144</ele>
        <time>2023-03-22T16:58:58Z</time>
      </trkpt>
      <trkpt lat="43.53283" lon="1.50293">
        <ele>144</ele>
        <time>2023-03-22T16:58:59Z</time>
      </trkpt>
      <trkpt lat="43.53282" lon="1.50289">
        <ele>144</ele>
        <time>2023-03-22T16:59:00Z</time>
      </trkpt>
      <trkpt lat="43.53281" lon="1.50286">
        <ele>144</ele>
        <time>2023-03-22T16:59:01Z</time>
      </trkpt>
      <trkpt lat="43.5328" lon="1.50282">
        <ele>144</ele>
        <time>2023-03-22T16:59:02Z</time>
      </trkpt>
      <trkpt lat="43.53278" lon="1.50274">
        <ele>144</ele>
        <time>2023-03-22T16:59:03Z</time>
      </trkpt>
      <trkpt lat="43.53277" lon="1.5027">
        <ele>144</ele>
        <time>2023-03-22T16:59:04Z</time>
      </trkpt>
      <trkpt lat="43.53277" lon="1.5027">
        <ele>144</ele>
        <time>2023-03-22T16:59:05Z</time>
      </trkpt>
      <trkpt lat="43.53277" lon="1.50266">
        <ele>144</ele>
        <time>2023-03-22T16:59:06Z</time>
      </trkpt>
      <trkpt lat="43.53277" lon="1.50258">
        <ele>144</ele>
        <time>2023-03-22T16:59:07Z</time>
      </trkpt>
      <trkpt lat="43.53277" lon="1.50258">
        <ele>144</ele>
        <time>2023-03-22T16:59:08Z</time>
      </trkpt>
      <trkpt lat="43.53276" lon="1.50251">
        <ele>144</ele>
        <time>2023-03-22T16:59:09Z</time>
      </trkpt>
      <trkpt lat="43.53275" lon="1.50248">
        <ele>144</ele>
        <time>2023-03-22T16:59:10Z</time>
      </trkpt>
      <trkpt lat="43.53275" lon="1.50248">
        <ele>144</ele>
        <time>2023-03-22T16:59:11Z</time>
      </trkpt>
      <trkpt lat="43.53275" lon="1.50245">
        <ele>144</ele>
        <time>2023-03-22T16:59:12Z</time>
      </trkpt>
      <trkpt lat="43.53274" lon="1.50237">
        <ele>144</ele>
        <time>2023-03-22T16:59:13Z</time>
      </trkpt>
      <trkpt lat="43.53273" lon="1.50233">
        <ele>144</ele>
        <time>2023-03-22T16:59:14Z</time>
      </trkpt>
      <trkpt lat="43.53273" lon="1.50229">
        <ele>144</ele>
        <time>2023-03-22T16:59:15Z</time>
      </trkpt>
      <trkpt lat="43.53273" lon="1.50224">
        <ele>144</ele>
        <time>2023-03-22T16:59:16Z</time>
      </trkpt>
      <trkpt lat="43.53273" lon="1.50219">
        <ele>144</ele>
        <time>2023-03-22T16:59:17Z</time>
      </trkpt>
      <trkpt lat="43.53273" lon="1.50219">
        <ele>144</ele>
        <time>2023-03-22T16:59:18Z</time>
      </trkpt>
      <trkpt lat="43.53274" lon="1.50215">
        <ele>144</ele>
        <time>2023-03-22T16:59:19Z</time>
      </trkpt>
      <trkpt lat="43.53275" lon="1.50212">
        <ele>144</ele>
        <time>2023-03-22T16:59:20Z</time>
      </trkpt>
      <trkpt lat="43.53277" lon="1.50208">
        <ele>144</ele>
        <time>2023-03-22T16:59:21Z</time>
      </trkpt>
      <trkpt lat="43.5328" lon="1.50201">
        <ele>145</ele>
        <time>2023-03-22T16:59:22Z</time>
      </trkpt>
      <trkpt lat="43.53282" lon="1.50198">
        <ele>145</ele>
        <time>2023-03-22T16:59:23Z</time>
      </trkpt>
      <trkpt lat="43.53284" lon="1.50196">
        <ele>145</ele>
        <time>2023-03-22T16:59:24Z</time>
      </trkpt>
      <trkpt lat="43.53287" lon="1.50193">
        <ele>145</ele>
        <time>2023-03-22T16:59:25Z</time>
      </trkpt>
      <trkpt lat="43.53289" lon="1.50191">
        <ele>145</ele>
        <time>2023-03-22T16:59:26Z</time>
      </trkpt>
      <trkpt lat="43.53291" lon="1.50188">
        <ele>145</ele>
        <time>2023-03-22T16:59:27Z</time>
      </trkpt>
      <trkpt lat="43.53291" lon="1.50188">
        <ele>145</ele>
        <time>2023-03-22T16:59:28Z</time>
      </trkpt>
      <trkpt lat="43.53295" lon="1.50183">
        <ele>145</ele>
        <time>2023-03-22T16:59:29Z</time>
      </trkpt>
      <trkpt lat="43.53297" lon="1.5018">
        <ele>145</ele>
        <time>2023-03-22T16:59:30Z</time>
      </trkpt>
      <trkpt lat="43.53299" lon="1.50177">
        <ele>146</ele>
        <time>2023-03-22T16:59:31Z</time>
      </trkpt>
      <trkpt lat="43.53299" lon="1.50177">
        <ele>146</ele>
        <time>2023-03-22T16:59:32Z</time>
      </trkpt>
      <trkpt lat="43.533" lon="1.50173">
        <ele>146</ele>
        <time>2023-03-22T16:59:33Z</time>
      </trkpt>
      <trkpt lat="43.53301" lon="1.50169">
        <ele>146</ele>
        <time>2023-03-22T16:59:34Z</time>
      </trkpt>
      <trkpt lat="43.53302" lon="1.50165">
        <ele>146</ele>
        <time>2023-03-22T16:59:35Z</time>
      </trkpt>
      <trkpt lat="43.53302" lon="1.50161">
        <ele>146</ele>
        <time>2023-03-22T16:59:36Z</time>
      </trkpt>
      <trkpt lat="43.53302" lon="1.50153">
        <ele>146</ele>
        <time>2023-03-22T16:59:37Z</time>
      </trkpt>
      <trkpt lat="43.53302" lon="1.50153">
        <ele>146</ele>
        <time>2023-03-22T16:59:38Z</time>
      </trkpt>
      <trkpt lat="43.53301" lon="1.50146">
        <ele>146</ele>
        <time>2023-03-22T16:59:39Z</time>
      </trkpt>
      <trkpt lat="43.53301" lon="1.50146">
        <ele>146</ele>
        <time>2023-03-22T16:59:40Z</time>
      </trkpt>
      <trkpt lat="43.533" lon="1.50143">
        <ele>146</ele>
        <time>2023-03-22T16:59:41Z</time>
      </trkpt>
      <trkpt lat="43.53298" lon="1.50139">
        <ele>146</ele>
        <time>2023-03-22T16:59:42Z</time>
      </trkpt>
      <trkpt lat="43.53297" lon="1.50136">
        <ele>146</ele>
        <time>2023-03-22T16:59:43Z</time>
      </trkpt>
      <trkpt lat="43.53295" lon="1.50133">
        <ele>146</ele>
        <time>2023-03-22T16:59:44Z</time>
      </trkpt>
      <trkpt lat="43.53294" lon="1.5013">
        <ele>146</ele>
        <time>2023-03-22T16:59:45Z</time>
      </trkpt>
      <trkpt lat="43.53291" lon="1.50123">
        <ele>146</ele>
        <time>2023-03-22T16:59:46Z</time>
      </trkpt>
      <trkpt lat="43.53291" lon="1.50123">
        <ele>146</ele>
        <time>2023-03-22T16:59:47Z</time>
      </trkpt>
      <trkpt lat="43.5329" lon="1.50119">
        <ele>146</ele>
        <time>2023-03-22T16:59:48Z</time>
      </trkpt>
      <trkpt lat="43.53288" lon="1.50116">
        <ele>146</ele>
        <time>2023-03-22T16:59:49Z</time>
      </trkpt>
      <trkpt lat="43.53285" lon="1.50109">
        <ele>146</ele>
        <time>2023-03-22T16:59:50Z</time>
      </trkpt>
      <trkpt lat="43.53284" lon="1.50105">
        <ele>146</ele>
        <time>2023-03-22T16:59:51Z</time>
      </trkpt>
      <trkpt lat="43.53282" lon="1.50102">
        <ele>146</ele>
        <time>2023-03-22T16:59:52Z</time>
      </trkpt>
      <trkpt lat="43.53281" lon="1.50098">
        <ele>146</ele>
        <time>2023-03-22T16:59:53Z</time>
      </trkpt>
      <trkpt lat="43.53281" lon="1.50098">
        <ele>146</ele>
        <time>2023-03-22T16:59:54Z</time>
      </trkpt>
      <trkpt lat="43.53279" lon="1.5009">
        <ele>146</ele>
        <time>2023-03-22T16:59:55Z</time>
      </trkpt>
      <trkpt lat="43.53279" lon="1.5009">
        <ele>146</ele>
        <time>2023-03-22T16:59:56Z</time>
      </trkpt>
      <trkpt lat="43.53279" lon="1.50086">
        <ele>147</ele>
        <time>2023-03-22T16:59:57Z</time>
      </trkpt>
      <trkpt lat="43.53278" lon="1.50082">
        <ele>147</ele>
        <time>2023-03-22T16:59:58Z</time>
      </trkpt>
      <trkpt lat="43.53275" lon="1.50075">
        <ele>147</ele>
        <time>2023-03-22T16:59:59Z</time>
      </trkpt>
      <trkpt lat="43.53275" lon="1.50075">
        <ele>147</ele>
        <time>2023-03-22T17:00:00Z</time>
      </trkpt>
      <trkpt lat="43.53274" lon="1.50071">
        <ele>147</ele>
        <time>2023-03-22T17:00:01Z</time>
      </trkpt>
      <trkpt lat="43.53273" lon="1.50067">
        <ele>147</ele>
        <time>2023-03-22T17:00:02Z</time>
      </trkpt>
      <trkpt lat="43.53272" lon="1.50063">
        <ele>147</ele>
        <time>2023-03-22T17:00:03Z</time>
      </trkpt>
      <trkpt lat="43.53271" lon="1.50059">
        <ele>147</ele>
        <time>2023-03-22T17:00:04Z</time>
      </trkpt>
      <trkpt lat="43.5327" lon="1.50055">
        <ele>147</ele>
        <time>2023-03-22T17:00:05Z</time>
      </trkpt>
      <trkpt lat="43.53268" lon="1.50052">
        <ele>147</ele>
        <time>2023-03-22T17:00:06Z</time>
      </trkpt>
      <trkpt lat="43.53267" lon="1.50048">
        <ele>147</ele>
        <time>2023-03-22T17:00:07Z</time>
      </trkpt>
      <trkpt lat="43.53265" lon="1.50041">
        <ele>147</ele>
        <time>2023-03-22T17:00:08Z</time>
      </trkpt>
      <trkpt lat="43.53264" lon="1.50037">
        <ele>147</ele>
        <time>2023-03-22T17:00:09Z</time>
      </trkpt>
      <trkpt lat="43.53263" lon="1.50033">
        <ele>147</ele>
        <time>2023-03-22T17:00:10Z</time>
      </trkpt>
      <trkpt lat="43.53263" lon="1.50033">
        <ele>147</ele>
        <time>2023-03-22T17:00:11Z</time>
      </trkpt>
      <trkpt lat="43.53262" lon="1.5003">
        <ele>147</ele>
        <time>2023-03-22T17:00:12Z</time>
      </trkpt>
      <trkpt lat="43.53261" lon="1.50027">
        <ele>147</ele>
        <time>2023-03-22T17:00:13Z</time>
      </trkpt>
      <trkpt lat="43.5326" lon="1.50024">
        <ele>147</ele>
        <time>2023-03-22T17:00:14Z</time>
      </trkpt>
      <trkpt lat="43.53259" lon="1.50021">
        <ele>147</ele>
        <time>2023-03-22T17:00:15Z</time>
      </trkpt>
      <trkpt lat="43.53258" lon="1.50017">
        <ele>147</ele>
        <time>2023-03-22T17:00:16Z</time>
      </trkpt>
      <trkpt lat="43.53257" lon="1.50013">
        <ele>147</ele>
        <time>2023-03-22T17:00:17Z</time>
      </trkpt>
      <trkpt lat="43.53256" lon="1.5001">
        <ele>147</ele>
        <time>2023-03-22T17:00:18Z</time>
      </trkpt>
      <trkpt lat="43.53255" lon="1.50006">
        <ele>147</ele>
        <time>2023-03-22T17:00:19Z</time>
      </trkpt>
      <trkpt lat="43.53253" lon="1.49998">
        <ele>147</ele>
        <time>2023-03-22T17:00:20Z</time>
      </trkpt>
      <trkpt lat="43.53252" lon="1.49994">
        <ele>147</ele>
        <time>2023-03-22T17:00:21Z</time>
      </trkpt>
      <trkpt lat="43.53251" lon="1.4999">
        <ele>147</ele>
        <time>2023-03-22T17:00:22Z</time>
      </trkpt>
      <trkpt lat="43.53251" lon="1.4999">
        <ele>147</ele>
        <time>2023-03-22T17:00:23Z</time>
      </trkpt>
      <trkpt lat="43.5325" lon="1.49987">
        <ele>147</ele>
        <time>2023-03-22T17:00:24Z</time>
      </trkpt>
      <trkpt lat="43.53249" lon="1.49984">
        <ele>147</ele>
        <time>2023-03-22T17:00:25Z</time>
      </trkpt>
      <trkpt lat="43.53247" lon="1.4998">
        <ele>147</ele>
        <time>2023-03-22T17:00:26Z</time>
      </trkpt>
      <trkpt lat="43.53246" lon="1.49977">
        <ele>146</ele>
        <time>2023-03-22T17:00:27Z</time>
      </trkpt>
      <trkpt lat="43.53245" lon="1.49973">
        <ele>146</ele>
        <time>2023-03-22T17:00:28Z</time>
      </trkpt>
      <trkpt lat="43.53243" lon="1.49965">
        <ele>146</ele>
        <time>2023-03-22T17:00:29Z</time>
      </trkpt>
      <trkpt lat="43.53243" lon="1.49965">
        <ele>146</ele>
        <time>2023-03-22T17:00:30Z</time>
      </trkpt>
      <trkpt lat="43.53241" lon="1.49961">
        <ele>146</ele>
        <time>2023-03-22T17:00:31Z</time>
      </trkpt>
      <trkpt lat="43.5324" lon="1.49957">
        <ele>147</ele>
        <time>2023-03-22T17:00:32Z</time>
      </trkpt>
      <trkpt lat="43.53238" lon="1.49949">
        <ele>147</ele>
        <time>2023-03-22T17:00:33Z</time>
      </trkpt>
      <trkpt lat="43.53238" lon="1.49949">
        <ele>147</ele>
        <time>2023-03-22T17:00:34Z</time>
      </trkpt>
      <trkpt lat="43.53235" lon="1.49941">
        <ele>147</ele>
        <time>2023-03-22T17:00:35Z</time>
      </trkpt>
      <trkpt lat="43.53235" lon="1.49941">
        <ele>147</ele>
        <time>2023-03-22T17:00:36Z</time>
      </trkpt>
      <trkpt lat="43.53234" lon="1.49937">
        <ele>147</ele>
        <time>2023-03-22T17:00:37Z</time>
      </trkpt>
      <trkpt lat="43.53233" lon="1.49934">
        <ele>147</ele>
        <time>2023-03-22T17:00:38Z</time>
      </trkpt>
      <trkpt lat="43.53232" lon="1.4993">
        <ele>147</ele>
        <time>2023-03-22T17:00:39Z</time>
      </trkpt>
      <trkpt lat="43.53231" lon="1.49926">
        <ele>147</ele>
        <time>2023-03-22T17:00:40Z</time>
      </trkpt>
      <trkpt lat="43.5323" lon="1.49923">
        <ele>147</ele>
        <time>2023-03-22T17:00:41Z</time>
      </trkpt>
      <trkpt lat="43.53227" lon="1.49916">
        <ele>147</ele>
        <time>2023-03-22T17:00:42Z</time>
      </trkpt>
      <trkpt lat="43.53227" lon="1.49916">
        <ele>147</ele>
        <time>2023-03-22T17:00:43Z</time>
      </trkpt>
      <trkpt lat="43.53226" lon="1.49912">
        <ele>147</ele>
        <time>2023-03-22T17:00:44Z</time>
      </trkpt>
      <trkpt lat="43.53225" lon="1.49908">
        <ele>147</ele>
        <time>2023-03-22T17:00:45Z</time>
      </trkpt>
      <trkpt lat="43.53224" lon="1.49904">
        <ele>147</ele>
        <time>2023-03-22T17:00:46Z</time>
      </trkpt>
      <trkpt lat="43.53223" lon="1.499">
        <ele>147</ele>
        <time>2023-03-22T17:00:47Z</time>
      </trkpt>
      <trkpt lat="43.5322" lon="1.49893">
        <ele>147</ele>
        <time>2023-03-22T17:00:48Z</time>
      </trkpt>
      <trkpt lat="43.53219" lon="1.49889">
        <ele>147</ele>
        <time>2023-03-22T17:00:49Z</time>
      </trkpt>
      <trkpt lat="43.53219" lon="1.49889">
        <ele>147</ele>
        <time>2023-03-22T17:00:50Z</time>
      </trkpt>
      <trkpt lat="43.53217" lon="1.49886">
        <ele>147</ele>
        <time>2023-03-22T17:00:51Z</time>
      </trkpt>
      <trkpt lat="43.53216" lon="1.49882">
        <ele>147</ele>
        <time>2023-03-22T17:00:52Z</time>
      </trkpt>
      <trkpt lat="43.53215" lon="1.49878">
        <ele>147</ele>
        <time>2023-03-22T17:00:53Z</time>
      </trkpt>
      <trkpt lat="43.53213" lon="1.49871">
        <ele>147</ele>
        <time>2023-03-22T17:00:54Z</time>
      </trkpt>
      <trkpt lat="43.53213" lon="1.49871">
        <ele>147</ele>
        <time>2023-03-22T17:00:55Z</time>
      </trkpt>
      <trkpt lat="43.53212" lon="1.49868">
        <ele>147</ele>
        <time>2023-03-22T17:00:56Z</time>
      </trkpt>
      <trkpt lat="43.53211" lon="1.49864">
        <ele>147</ele>
        <time>2023-03-22T17:00:57Z</time>
      </trkpt>
      <trkpt lat="43.5321" lon="1.49861">
        <ele>147</ele>
        <time>2023-03-22T17:00:58Z</time>
      </trkpt>
      <trkpt lat="43.53208" lon="1.49857">
        <ele>147</ele>
        <time>2023-03-22T17:00:59Z</time>
      </trkpt>
      <trkpt lat="43.53207" lon="1.49854">
        <ele>147</ele>
        <time>2023-03-22T17:01:00Z</time>
      </trkpt>
      <trkpt lat="43.53205" lon="1.49847">
        <ele>147</ele>
        <time>2023-03-22T17:01:01Z</time>
      </trkpt>
      <trkpt lat="43.53205" lon="1.49847">
        <ele>147</ele>
        <time>2023-03-22T17:01:02Z</time>
      </trkpt>
      <trkpt lat="43.53204" lon="1.49843">
        <ele>147</ele>
        <time>2023-03-22T17:01:03Z</time>
      </trkpt>
      <trkpt lat="43.53203" lon="1.49839">
        <ele>147</ele>
        <time>2023-03-22T17:01:04Z</time>
      </trkpt>
      <trkpt lat="43.53202" lon="1.49836">
        <ele>147</ele>
        <time>2023-03-22T17:01:05Z</time>
      </trkpt>
      <trkpt lat="43.53201" lon="1.49833">
        <ele>147</ele>
        <time>2023-03-22T17:01:06Z</time>
      </trkpt>
      <trkpt lat="43.53199" lon="1.49826">
        <ele>147</ele>
        <time>2023-03-22T17:01:07Z</time>
      </trkpt>
      <trkpt lat="43.53199" lon="1.49826">
        <ele>148</ele>
        <time>2023-03-22T17:01:08Z</time>
      </trkpt>
      <trkpt lat="43.53198" lon="1.49823">
        <ele>148</ele>
        <time>2023-03-22T17:01:09Z</time>
      </trkpt>
      <trkpt lat="43.53197" lon="1.49819">
        <ele>147</ele>
        <time>2023-03-22T17:01:10Z</time>
      </trkpt>
      <trkpt lat="43.53197" lon="1.49815">
        <ele>147</ele>
        <time>2023-03-22T17:01:11Z</time>
      </trkpt>
      <trkpt lat="43.53196" lon="1.49811">
        <ele>147</ele>
        <time>2023-03-22T17:01:12Z</time>
      </trkpt>
      <trkpt lat="43.53195" lon="1.49806">
        <ele>147</ele>
        <time>2023-03-22T17:01:13Z</time>
      </trkpt>
      <trkpt lat="43.53195" lon="1.49802">
        <ele>147</ele>
        <time>2023-03-22T17:01:14Z</time>
      </trkpt>
      <trkpt lat="43.53194" lon="1.49798">
        <ele>148</ele>
        <time>2023-03-22T17:01:15Z</time>
      </trkpt>
      <trkpt lat="43.53193" lon="1.49794">
        <ele>148</ele>
        <time>2023-03-22T17:01:16Z</time>
      </trkpt>
      <trkpt lat="43.53192" lon="1.4979">
        <ele>148</ele>
        <time>2023-03-22T17:01:17Z</time>
      </trkpt>
      <trkpt lat="43.53191" lon="1.49787">
        <ele>148</ele>
        <time>2023-03-22T17:01:18Z</time>
      </trkpt>
      <trkpt lat="43.5319" lon="1.49783">
        <ele>148</ele>
        <time>2023-03-22T17:01:19Z</time>
      </trkpt>
      <trkpt lat="43.53189" lon="1.49779">
        <ele>148</ele>
        <time>2023-03-22T17:01:20Z</time>
      </trkpt>
      <trkpt lat="43.53189" lon="1.49775">
        <ele>148</ele>
        <time>2023-03-22T17:01:21Z</time>
      </trkpt>
      <trkpt lat="43.53188" lon="1.49771">
        <ele>148</ele>
        <time>2023-03-22T17:01:22Z</time>
      </trkpt>
      <trkpt lat="43.53187" lon="1.49767">
        <ele>148</ele>
        <time>2023-03-22T17:01:23Z</time>
      </trkpt>
      <trkpt lat="43.53186" lon="1.49763">
        <ele>148</ele>
        <time>2023-03-22T17:01:24Z</time>
      </trkpt>
      <trkpt lat="43.53185" lon="1.4976">
        <ele>148</ele>
        <time>2023-03-22T17:01:25Z</time>
      </trkpt>
      <trkpt lat="43.53184" lon="1.49752">
        <ele>149</ele>
        <time>2023-03-22T17:01:26Z</time>
      </trkpt>
      <trkpt lat="43.53184" lon="1.49752">
        <ele>149</ele>
        <time>2023-03-22T17:01:27Z</time>
      </trkpt>
      <trkpt lat="43.53186" lon="1.49748">
        <ele>149</ele>
        <time>2023-03-22T17:01:28Z</time>
      </trkpt>
      <trkpt lat="43.53188" lon="1.49745">
        <ele>149</ele>
        <time>2023-03-22T17:01:29Z</time>
      </trkpt>
      <trkpt lat="43.53191" lon="1.49742">
        <ele>149</ele>
        <time>2023-03-22T17:01:30Z</time>
      </trkpt>
      <trkpt lat="43.53195" lon="1.49739">
        <ele>148</ele>
        <time>2023-03-22T17:01:31Z</time>
      </trkpt>
      <trkpt lat="43.53198" lon="1.49736">
        <ele>148</ele>
        <time>2023-03-22T17:01:32Z</time>
      </trkpt>
      <trkpt lat="43.53201" lon="1.49734">
        <ele>148</ele>
        <time>2023-03-22T17:01:33Z</time>
      </trkpt>
      <trkpt lat="43.53204" lon="1.49731">
        <ele>148</ele>
        <time>2023-03-22T17:01:34Z</time>
      </trkpt>
      <trkpt lat="43.53207" lon="1.49729">
        <ele>148</ele>
        <time>2023-03-22T17:01:35Z</time>
      </trkpt>
      <trkpt lat="43.5321" lon="1.49726">
        <ele>148</ele>
        <time>2023-03-22T17:01:36Z</time>
      </trkpt>
      <trkpt lat="43.53213" lon="1.49724">
        <ele>148</ele>
        <time>2023-03-22T17:01:37Z</time>
      </trkpt>
      <trkpt lat="43.53216" lon="1.49722">
        <ele>148</ele>
        <time>2023-03-22T17:01:38Z</time>
      </trkpt>
      <trkpt lat="43.53221" lon="1.49718">
        <ele>148</ele>
        <time>2023-03-22T17:01:39Z</time>
      </trkpt>
      <trkpt lat="43.53221" lon="1.49718">
        <ele>148</ele>
        <time>2023-03-22T17:01:40Z</time>
      </trkpt>
      <trkpt lat="43.53224" lon="1.49716">
        <ele>148</ele>
        <time>2023-03-22T17:01:41Z</time>
      </trkpt>
      <trkpt lat="43.53226" lon="1.49713">
        <ele>148</ele>
        <time>2023-03-22T17:01:42Z</time>
      </trkpt>
      <trkpt lat="43.53229" lon="1.49711">
        <ele>148</ele>
        <time>2023-03-22T17:01:43Z</time>
      </trkpt>
      <trkpt lat="43.53231" lon="1.49709">
        <ele>148</ele>
        <time>2023-03-22T17:01:44Z</time>
      </trkpt>
      <trkpt lat="43.53236" lon="1.49705">
        <ele>148</ele>
        <time>2023-03-22T17:01:45Z</time>
      </trkpt>
      <trkpt lat="43.53236" lon="1.49705">
        <ele>148</ele>
        <time>2023-03-22T17:01:46Z</time>
      </trkpt>
      <trkpt lat="43.53239" lon="1.49702">
        <ele>148</ele>
        <time>2023-03-22T17:01:47Z</time>
      </trkpt>
      <trkpt lat="43.53242" lon="1.497">
        <ele>148</ele>
        <time>2023-03-22T17:01:48Z</time>
      </trkpt>
      <trkpt lat="43.53245" lon="1.49698">
        <ele>148</ele>
        <time>2023-03-22T17:01:49Z</time>
      </trkpt>
      <trkpt lat="43.53248" lon="1.49696">
        <ele>148</ele>
        <time>2023-03-22T17:01:50Z</time>
      </trkpt>
      <trkpt lat="43.53252" lon="1.49694">
        <ele>148</ele>
        <time>2023-03-22T17:01:51Z</time>
      </trkpt>
      <trkpt lat="43.53255" lon="1.49693">
        <ele>148</ele>
        <time>2023-03-22T17:01:52Z</time>
      </trkpt>
      <trkpt lat="43.53261" lon="1.49689">
        <ele>148</ele>
        <time>2023-03-22T17:01:53Z</time>
      </trkpt>
      <trkpt lat="43.53261" lon="1.49689">
        <ele>148</ele>
        <time>2023-03-22T17:01:54Z</time>
      </trkpt>
      <trkpt lat="43.53264" lon="1.49687">
        <ele>148</ele>
        <time>2023-03-22T17:01:55Z</time>
      </trkpt>
      <trkpt lat="43.53267" lon="1.49685">
        <ele>148</ele>
        <time>2023-03-22T17:01:56Z</time>
      </trkpt>
      <trkpt lat="43.53269" lon="1.49684">
        <ele>148</ele>
        <time>2023-03-22T17:01:57Z</time>
      </trkpt>
      <trkpt lat="43.53273" lon="1.49683">
        <ele>148</ele>
        <time>2023-03-22T17:01:58Z</time>
      </trkpt>
      <trkpt lat="43.53279" lon="1.4968">
        <ele>148</ele>
        <time>2023-03-22T17:01:59Z</time>
      </trkpt>
      <trkpt lat="43.53279" lon="1.4968">
        <ele>148</ele>
        <time>2023-03-22T17:02:00Z</time>
      </trkpt>
      <trkpt lat="43.53282" lon="1.49679">
        <ele>148</ele>
        <time>2023-03-22T17:02:01Z</time>
      </trkpt>
      <trkpt lat="43.53286" lon="1.49679">
        <ele>148</ele>
        <time>2023-03-22T17:02:02Z</time>
      </trkpt>
      <trkpt lat="43.5329" lon="1.49678">
        <ele>148</ele>
        <time>2023-03-22T17:02:03Z</time>
      </trkpt>
      <trkpt lat="43.53296" lon="1.49676">
        <ele>148</ele>
        <time>2023-03-22T17:02:04Z</time>
      </trkpt>
      <trkpt lat="43.53296" lon="1.49676">
        <ele>148</ele>
        <time>2023-03-22T17:02:05Z</time>
      </trkpt>
      <trkpt lat="43.53299" lon="1.49675">
        <ele>148</ele>
        <time>2023-03-22T17:02:06Z</time>
      </trkpt>
      <trkpt lat="43.53302" lon="1.49674">
        <ele>148</ele>
        <time>2023-03-22T17:02:07Z</time>
      </trkpt>
      <trkpt lat="43.53305" lon="1.49674">
        <ele>147</ele>
        <time>2023-03-22T17:02:08Z</time>
      </trkpt>
      <trkpt lat="43.53308" lon="1.49673">
        <ele>147</ele>
        <time>2023-03-22T17:02:09Z</time>
      </trkpt>
      <trkpt lat="43.53314" lon="1.4967">
        <ele>147</ele>
        <time>2023-03-22T17:02:10Z</time>
      </trkpt>
      <trkpt lat="43.53314" lon="1.4967">
        <ele>147</ele>
        <time>2023-03-22T17:02:11Z</time>
      </trkpt>
      <trkpt lat="43.53317" lon="1.49669">
        <ele>148</ele>
        <time>2023-03-22T17:02:12Z</time>
      </trkpt>
      <trkpt lat="43.5332" lon="1.49668">
        <ele>148</ele>
        <time>2023-03-22T17:02:13Z</time>
      </trkpt>
      <trkpt lat="43.53326" lon="1.49665">
        <ele>147</ele>
        <time>2023-03-22T17:02:14Z</time>
      </trkpt>
      <trkpt lat="43.53326" lon="1.49665">
        <ele>147</ele>
        <time>2023-03-22T17:02:15Z</time>
      </trkpt>
      <trkpt lat="43.53329" lon="1.49664">
        <ele>147</ele>
        <time>2023-03-22T17:02:16Z</time>
      </trkpt>
      <trkpt lat="43.53332" lon="1.49662">
        <ele>147</ele>
        <time>2023-03-22T17:02:17Z</time>
      </trkpt>
      <trkpt lat="43.53335" lon="1.49661">
        <ele>147</ele>
        <time>2023-03-22T17:02:18Z</time>
      </trkpt>
      <trkpt lat="43.53338" lon="1.4966">
        <ele>147</ele>
        <time>2023-03-22T17:02:19Z</time>
      </trkpt>
      <trkpt lat="43.53341" lon="1.49659">
        <ele>147</ele>
        <time>2023-03-22T17:02:20Z</time>
      </trkpt>
      <trkpt lat="43.53347" lon="1.49657">
        <ele>147</ele>
        <time>2023-03-22T17:02:21Z</time>
      </trkpt>
      <trkpt lat="43.53347" lon="1.49657">
        <ele>147</ele>
        <time>2023-03-22T17:02:22Z</time>
      </trkpt>
      <trkpt lat="43.53352" lon="1.49654">
        <ele>147</ele>
        <time>2023-03-22T17:02:23Z</time>
      </trkpt>
      <trkpt lat="43.53352" lon="1.49654">
        <ele>147</ele>
        <time>2023-03-22T17:02:24Z</time>
      </trkpt>
      <trkpt lat="43.53354" lon="1.49652">
        <ele>147</ele>
        <time>2023-03-22T17:02:25Z</time>
      </trkpt>
      <trkpt lat="43.53357" lon="1.49649">
        <ele>147</ele>
        <time>2023-03-22T17:02:26Z</time>
      </trkpt>
      <trkpt lat="43.53361" lon="1.49643">
        <ele>147</ele>
        <time>2023-03-22T17:02:27Z</time>
      </trkpt>
      <trkpt lat="43.53361" lon="1.49643">
        <ele>147</ele>
        <time>2023-03-22T17:02:28Z</time>
      </trkpt>
      <trkpt lat="43.53361" lon="1.49635">
        <ele>147</ele>
        <time>2023-03-22T17:02:29Z</time>
      </trkpt>
      <trkpt lat="43.53361" lon="1.49635">
        <ele>147</ele>
        <time>2023-03-22T17:02:30Z</time>
      </trkpt>
      <trkpt lat="43.5336" lon="1.4963">
        <ele>147</ele>
        <time>2023-03-22T17:02:31Z</time>
      </trkpt>
      <trkpt lat="43.53358" lon="1.49626">
        <ele>147</ele>
        <time>2023-03-22T17:02:32Z</time>
      </trkpt>
      <trkpt lat="43.53357" lon="1.49621">
        <ele>147</ele>
        <time>2023-03-22T17:02:33Z</time>
      </trkpt>
      <trkpt lat="43.53356" lon="1.49617">
        <ele>147</ele>
        <time>2023-03-22T17:02:34Z</time>
      </trkpt>
      <trkpt lat="43.53356" lon="1.49612">
        <ele>147</ele>
        <time>2023-03-22T17:02:35Z</time>
      </trkpt>
      <trkpt lat="43.53357" lon="1.49603">
        <ele>147</ele>
        <time>2023-03-22T17:02:36Z</time>
      </trkpt>
      <trkpt lat="43.53357" lon="1.49603">
        <ele>147</ele>
        <time>2023-03-22T17:02:37Z</time>
      </trkpt>
      <trkpt lat="43.53359" lon="1.49598">
        <ele>147</ele>
        <time>2023-03-22T17:02:38Z</time>
      </trkpt>
      <trkpt lat="43.53361" lon="1.49595">
        <ele>147</ele>
        <time>2023-03-22T17:02:39Z</time>
      </trkpt>
      <trkpt lat="43.53363" lon="1.49592">
        <ele>147</ele>
        <time>2023-03-22T17:02:40Z</time>
      </trkpt>
      <trkpt lat="43.53366" lon="1.4959">
        <ele>147</ele>
        <time>2023-03-22T17:02:41Z</time>
      </trkpt>
      <trkpt lat="43.53371" lon="1.49587">
        <ele>147</ele>
        <time>2023-03-22T17:02:42Z</time>
      </trkpt>
      <trkpt lat="43.53373" lon="1.49586">
        <ele>147</ele>
        <time>2023-03-22T17:02:43Z</time>
      </trkpt>
      <trkpt lat="43.53376" lon="1.49584">
        <ele>147</ele>
        <time>2023-03-22T17:02:44Z</time>
      </trkpt>
      <trkpt lat="43.53379" lon="1.49582">
        <ele>147</ele>
        <time>2023-03-22T17:02:45Z</time>
      </trkpt>
      <trkpt lat="43.53382" lon="1.49581">
        <ele>147</ele>
        <time>2023-03-22T17:02:46Z</time>
      </trkpt>
      <trkpt lat="43.53385" lon="1.49579">
        <ele>147</ele>
        <time>2023-03-22T17:02:47Z</time>
      </trkpt>
      <trkpt lat="43.53388" lon="1.49577">
        <ele>147</ele>
        <time>2023-03-22T17:02:48Z</time>
      </trkpt>
      <trkpt lat="43.53391" lon="1.49575">
        <ele>147</ele>
        <time>2023-03-22T17:02:49Z</time>
      </trkpt>
      <trkpt lat="43.53394" lon="1.49574">
        <ele>147</ele>
        <time>2023-03-22T17:02:50Z</time>
      </trkpt>
      <trkpt lat="43.53398" lon="1.49573">
        <ele>147</ele>
        <time>2023-03-22T17:02:51Z</time>
      </trkpt>
      <trkpt lat="43.534" lon="1.49571">
        <ele>147</ele>
        <time>2023-03-22T17:02:52Z</time>
      </trkpt>
      <trkpt lat="43.53403" lon="1.4957">
        <ele>147</ele>
        <time>2023-03-22T17:02:53Z</time>
      </trkpt>
      <trkpt lat="43.53406" lon="1.49568">
        <ele>147</ele>
        <time>2023-03-22T17:02:54Z</time>
      </trkpt>
      <trkpt lat="43.53409" lon="1.49567">
        <ele>147</ele>
        <time>2023-03-22T17:02:55Z</time>
      </trkpt>
      <trkpt lat="43.53412" lon="1.49566">
        <ele>147</ele>
        <time>2023-03-22T17:02:56Z</time>
      </trkpt>
      <trkpt lat="43.53415" lon="1.49564">
        <ele>147</ele>
        <time>2023-03-22T17:02:57Z</time>
      </trkpt>
      <trkpt lat="43.53418" lon="1.49563">
        <ele>147</ele>
        <time>2023-03-22T17:02:58Z</time>
      </trkpt>
      <trkpt lat="43.53421" lon="1.49562">
        <ele>147</ele>
        <time>2023-03-22T17:02:59Z</time>
      </trkpt>
      <trkpt lat="43.53424" lon="1.4956">
        <ele>147</ele>
        <time>2023-03-22T17:03:00Z</time>
      </trkpt>
      <trkpt lat="43.53429" lon="1.49556">
        <ele>147</ele>
        <time>2023-03-22T17:03:01Z</time>
      </trkpt>
      <trkpt lat="43.53429" lon="1.49556">
        <ele>147</ele>
        <time>2023-03-22T17:03:02Z</time>
      </trkpt>
      <trkpt lat="43.53431" lon="1.49555">
        <ele>147</ele>
        <time>2023-03-22T17:03:03Z</time>
      </trkpt>
      <trkpt lat="43.53434" lon="1.49553">
        <ele>147</ele>
        <time>2023-03-22T17:03:04Z</time>
      </trkpt>
      <trkpt lat="43.53438" lon="1.49552">
        <ele>147</ele>
        <time>2023-03-22T17:03:05Z</time>
      </trkpt>
      <trkpt lat="43.5344" lon="1.4955">
        <ele>147</ele>
        <time>2023-03-22T17:03:06Z</time>
      </trkpt>
      <trkpt lat="43.53443" lon="1.49548">
        <ele>147</ele>
        <time>2023-03-22T17:03:07Z</time>
      </trkpt>
      <trkpt lat="43.53445" lon="1.49546">
        <ele>146</ele>
        <time>2023-03-22T17:03:08Z</time>
      </trkpt>
      <trkpt lat="43.53448" lon="1.49544">
        <ele>146</ele>
        <time>2023-03-22T17:03:09Z</time>
      </trkpt>
      <trkpt lat="43.53451" lon="1.49542">
        <ele>147</ele>
        <time>2023-03-22T17:03:10Z</time>
      </trkpt>
      <trkpt lat="43.53454" lon="1.4954">
        <ele>147</ele>
        <time>2023-03-22T17:03:11Z</time>
      </trkpt>
      <trkpt lat="43.53457" lon="1.49538">
        <ele>147</ele>
        <time>2023-03-22T17:03:12Z</time>
      </trkpt>
      <trkpt lat="43.53463" lon="1.49535">
        <ele>147</ele>
        <time>2023-03-22T17:03:13Z</time>
      </trkpt>
      <trkpt lat="43.53463" lon="1.49535">
        <ele>147</ele>
        <time>2023-03-22T17:03:14Z</time>
      </trkpt>
      <trkpt lat="43.53466" lon="1.49533">
        <ele>147</ele>
        <time>2023-03-22T17:03:15Z</time>
      </trkpt>
      <trkpt lat="43.53468" lon="1.49531">
        <ele>147</ele>
        <time>2023-03-22T17:03:16Z</time>
      </trkpt>
      <trkpt lat="43.5347" lon="1.49529">
        <ele>147</ele>
        <time>2023-03-22T17:03:17Z</time>
      </trkpt>
      <trkpt lat="43.53471" lon="1.49526">
        <ele>147</ele>
        <time>2023-03-22T17:03:18Z</time>
      </trkpt>
      <trkpt lat="43.53471" lon="1.49522">
        <ele>147</ele>
        <time>2023-03-22T17:03:19Z</time>
      </trkpt>
      <trkpt lat="43.5347" lon="1.49515">
        <ele>147</ele>
        <time>2023-03-22T17:03:20Z</time>
      </trkpt>
      <trkpt lat="43.53469" lon="1.49512">
        <ele>147</ele>
        <time>2023-03-22T17:03:21Z</time>
      </trkpt>
      <trkpt lat="43.53469" lon="1.49512">
        <ele>147</ele>
        <time>2023-03-22T17:03:22Z</time>
      </trkpt>
      <trkpt lat="43.53468" lon="1.49507">
        <ele>147</ele>
        <time>2023-03-22T17:03:23Z</time>
      </trkpt>
      <trkpt lat="43.53467" lon="1.49503">
        <ele>147</ele>
        <time>2023-03-22T17:03:24Z</time>
      </trkpt>
      <trkpt lat="43.53466" lon="1.49499">
        <ele>147</ele>
        <time>2023-03-22T17:03:25Z</time>
      </trkpt>
      <trkpt lat="43.53465" lon="1.49495">
        <ele>147</ele>
        <time>2023-03-22T17:03:26Z</time>
      </trkpt>
      <trkpt lat="43.53464" lon="1.49492">
        <ele>147</ele>
        <time>2023-03-22T17:03:27Z</time>
      </trkpt>
      <trkpt lat="43.53462" lon="1.49484">
        <ele>147</ele>
        <time>2023-03-22T17:03:28Z</time>
      </trkpt>
      <trkpt lat="43.53462" lon="1.49484">
        <ele>147</ele>
        <time>2023-03-22T17:03:29Z</time>
      </trkpt>
      <trkpt lat="43.53462" lon="1.4948">
        <ele>147</ele>
        <time>2023-03-22T17:03:30Z</time>
      </trkpt>
      <trkpt lat="43.53461" lon="1.49477">
        <ele>147</ele>
        <time>2023-03-22T17:03:31Z</time>
      </trkpt>
      <trkpt lat="43.5346" lon="1.49474">
        <ele>147</ele>
        <time>2023-03-22T17:03:32Z</time>
      </trkpt>
      <trkpt lat="43.53457" lon="1.49468">
        <ele>147</ele>
        <time>2023-03-22T17:03:33Z</time>
      </trkpt>
      <trkpt lat="43.53457" lon="1.49468">
        <ele>147</ele>
        <time>2023-03-22T17:03:34Z</time>
      </trkpt>
      <trkpt lat="43.53455" lon="1.49464">
        <ele>147</ele>
        <time>2023-03-22T17:03:35Z</time>
      </trkpt>
      <trkpt lat="43.53454" lon="1.4946">
        <ele>147</ele>
        <time>2023-03-22T17:03:36Z</time>
      </trkpt>
      <trkpt lat="43.53452" lon="1.49456">
        <ele>147</ele>
        <time>2023-03-22T17:03:37Z</time>
      </trkpt>
      <trkpt lat="43.53451" lon="1.49451">
        <ele>147</ele>
        <time>2023-03-22T17:03:38Z</time>
      </trkpt>
      <trkpt lat="43.53449" lon="1.49443">
        <ele>147</ele>
        <time>2023-03-22T17:03:39Z</time>
      </trkpt>
      <trkpt lat="43.53448" lon="1.4944">
        <ele>147</ele>
        <time>2023-03-22T17:03:40Z</time>
      </trkpt>
      <trkpt lat="43.53448" lon="1.4944">
        <ele>147</ele>
        <time>2023-03-22T17:03:41Z</time>
      </trkpt>
      <trkpt lat="43.53447" lon="1.49437">
        <ele>147</ele>
        <time>2023-03-22T17:03:42Z</time>
      </trkpt>
      <trkpt lat="43.53446" lon="1.49434">
        <ele>147</ele>
        <time>2023-03-22T17:03:43Z</time>
      </trkpt>
      <trkpt lat="43.53444" lon="1.49431">
        <ele>147</ele>
        <time>2023-03-22T17:03:44Z</time>
      </trkpt>
      <trkpt lat="43.53442" lon="1.49429">
        <ele>147</ele>
        <time>2023-03-22T17:03:45Z</time>
      </trkpt>
      <trkpt lat="43.53439" lon="1.49426">
        <ele>147</ele>
        <time>2023-03-22T17:03:46Z</time>
      </trkpt>
      <trkpt lat="43.53437" lon="1.49424">
        <ele>147</ele>
        <time>2023-03-22T17:03:47Z</time>
      </trkpt>
      <trkpt lat="43.53435" lon="1.49421">
        <ele>147</ele>
        <time>2023-03-22T17:03:48Z</time>
      </trkpt>
      <trkpt lat="43.53432" lon="1.4942">
        <ele>147</ele>
        <time>2023-03-22T17:03:49Z</time>
      </trkpt>
      <trkpt lat="43.53429" lon="1.49418">
        <ele>147</ele>
        <time>2023-03-22T17:03:50Z</time>
      </trkpt>
      <trkpt lat="43.53427" lon="1.49415">
        <ele>147</ele>
        <time>2023-03-22T17:03:51Z</time>
      </trkpt>
      <trkpt lat="43.53424" lon="1.49407">
        <ele>148</ele>
        <time>2023-03-22T17:03:52Z</time>
      </trkpt>
      <trkpt lat="43.53424" lon="1.49407">
        <ele>148</ele>
        <time>2023-03-22T17:03:53Z</time>
      </trkpt>
      <trkpt lat="43.53422" lon="1.49404">
        <ele>148</ele>
        <time>2023-03-22T17:03:54Z</time>
      </trkpt>
      <trkpt lat="43.53421" lon="1.494">
        <ele>148</ele>
        <time>2023-03-22T17:03:55Z</time>
      </trkpt>
      <trkpt lat="43.53419" lon="1.49396">
        <ele>148</ele>
        <time>2023-03-22T17:03:56Z</time>
      </trkpt>
      <trkpt lat="43.53418" lon="1.49392">
        <ele>148</ele>
        <time>2023-03-22T17:03:57Z</time>
      </trkpt>
      <trkpt lat="43.53415" lon="1.49384">
        <ele>148</ele>
        <time>2023-03-22T17:03:58Z</time>
      </trkpt>
      <trkpt lat="43.53415" lon="1.49384">
        <ele>148</ele>
        <time>2023-03-22T17:03:59Z</time>
      </trkpt>
      <trkpt lat="43.53413" lon="1.4938">
        <ele>148</ele>
        <time>2023-03-22T17:04:00Z</time>
      </trkpt>
      <trkpt lat="43.53412" lon="1.49376">
        <ele>148</ele>
        <time>2023-03-22T17:04:01Z</time>
      </trkpt>
      <trkpt lat="43.53411" lon="1.49372">
        <ele>148</ele>
        <time>2023-03-22T17:04:02Z</time>
      </trkpt>
      <trkpt lat="43.5341" lon="1.49367">
        <ele>148</ele>
        <time>2023-03-22T17:04:03Z</time>
      </trkpt>
      <trkpt lat="43.53409" lon="1.49363">
        <ele>148</ele>
        <time>2023-03-22T17:04:04Z</time>
      </trkpt>
      <trkpt lat="43.53409" lon="1.4936">
        <ele>148</ele>
        <time>2023-03-22T17:04:05Z</time>
      </trkpt>
      <trkpt lat="43.53408" lon="1.49356">
        <ele>148</ele>
        <time>2023-03-22T17:04:06Z</time>
      </trkpt>
      <trkpt lat="43.53406" lon="1.49353">
        <ele>148</ele>
        <time>2023-03-22T17:04:07Z</time>
      </trkpt>
      <trkpt lat="43.53404" lon="1.4935">
        <ele>148</ele>
        <time>2023-03-22T17:04:08Z</time>
      </trkpt>
      <trkpt lat="43.53402" lon="1.49348">
        <ele>148</ele>
        <time>2023-03-22T17:04:09Z</time>
      </trkpt>
      <trkpt lat="43.53399" lon="1.49346">
        <ele>148</ele>
        <time>2023-03-22T17:04:10Z</time>
      </trkpt>
      <trkpt lat="43.53396" lon="1.49344">
        <ele>148</ele>
        <time>2023-03-22T17:04:11Z</time>
      </trkpt>
      <trkpt lat="43.53393" lon="1.49343">
        <ele>148</ele>
        <time>2023-03-22T17:04:12Z</time>
      </trkpt>
      <trkpt lat="43.5339" lon="1.49342">
        <ele>148</ele>
        <time>2023-03-22T17:04:13Z</time>
      </trkpt>
      <trkpt lat="43.53387" lon="1.49342">
        <ele>148</ele>
        <time>2023-03-22T17:04:14Z</time>
      </trkpt>
      <trkpt lat="43.53384" lon="1.49342">
        <ele>148</ele>
        <time>2023-03-22T17:04:15Z</time>
      </trkpt>
      <trkpt lat="43.53381" lon="1.49342">
        <ele>148</ele>
        <time>2023-03-22T17:04:16Z</time>
      </trkpt>
      <trkpt lat="43.53375" lon="1.49342">
        <ele>148</ele>
        <time>2023-03-22T17:04:17Z</time>
      </trkpt>
      <trkpt lat="43.53375" lon="1.49342">
        <ele>148</ele>
        <time>2023-03-22T17:04:18Z</time>
      </trkpt>
      <trkpt lat="43.53373" lon="1.49341">
        <ele>148</ele>
        <time>2023-03-22T17:04:19Z</time>
      </trkpt>
      <trkpt lat="43.5337" lon="1.49339">
        <ele>148</ele>
        <time>2023-03-22T17:04:20Z</time>
      </trkpt>
      <trkpt lat="43.53367" lon="1.49337">
        <ele>148</ele>
        <time>2023-03-22T17:04:21Z</time>
      </trkpt>
      <trkpt lat="43.53364" lon="1.49334">
        <ele>149</ele>
        <time>2023-03-22T17:04:22Z</time>
      </trkpt>
      <trkpt lat="43.53362" lon="1.49331">
        <ele>149</ele>
        <time>2023-03-22T17:04:23Z</time>
      </trkpt>
      <trkpt lat="43.53359" lon="1.49328">
        <ele>149</ele>
        <time>2023-03-22T17:04:24Z</time>
      </trkpt>
      <trkpt lat="43.53354" lon="1.49322">
        <ele>149</ele>
        <time>2023-03-22T17:04:25Z</time>
      </trkpt>
      <trkpt lat="43.53354" lon="1.49322">
        <ele>149</ele>
        <time>2023-03-22T17:04:26Z</time>
      </trkpt>
      <trkpt lat="43.53352" lon="1.49319">
        <ele>149</ele>
        <time>2023-03-22T17:04:27Z</time>
      </trkpt>
      <trkpt lat="43.5335" lon="1.49316">
        <ele>149</ele>
        <time>2023-03-22T17:04:28Z</time>
      </trkpt>
      <trkpt lat="43.53347" lon="1.49314">
        <ele>149</ele>
        <time>2023-03-22T17:04:29Z</time>
      </trkpt>
      <trkpt lat="43.53345" lon="1.49311">
        <ele>149</ele>
        <time>2023-03-22T17:04:30Z</time>
      </trkpt>
      <trkpt lat="43.53343" lon="1.49309">
        <ele>149</ele>
        <time>2023-03-22T17:04:31Z</time>
      </trkpt>
      <trkpt lat="43.53341" lon="1.49306">
        <ele>149</ele>
        <time>2023-03-22T17:04:32Z</time>
      </trkpt>
      <trkpt lat="43.53339" lon="1.49303">
        <ele>150</ele>
        <time>2023-03-22T17:04:33Z</time>
      </trkpt>
      <trkpt lat="43.53338" lon="1.49301">
        <ele>150</ele>
        <time>2023-03-22T17:04:34Z</time>
      </trkpt>
      <trkpt lat="43.53336" lon="1.49299">
        <ele>151</ele>
        <time>2023-03-22T17:04:35Z</time>
      </trkpt>
      <trkpt lat="43.53335" lon="1.49298">
        <ele>151</ele>
        <time>2023-03-22T17:04:36Z</time>
      </trkpt>
      <trkpt lat="43.53333" lon="1.49297">
        <ele>152</ele>
        <time>2023-03-22T17:04:37Z</time>
      </trkpt>
      <trkpt lat="43.53332" lon="1.49295">
        <ele>152</ele>
        <time>2023-03-22T17:04:38Z</time>
      </trkpt>
      <trkpt lat="43.53326" lon="1.49289">
        <ele>152</ele>
        <time>2023-03-22T17:04:39Z</time>
      </trkpt>
      <trkpt lat="43.53325" lon="1.49287">
        <ele>152</ele>
        <time>2023-03-22T17:04:40Z</time>
      </trkpt>
      <trkpt lat="43.53324" lon="1.49284">
        <ele>152</ele>
        <time>2023-03-22T17:04:41Z</time>
      </trkpt>
      <trkpt lat="43.53322" lon="1.49282">
        <ele>152</ele>
        <time>2023-03-22T17:04:42Z</time>
      </trkpt>
      <trkpt lat="43.53321" lon="1.49279">
        <ele>152</ele>
        <time>2023-03-22T17:04:43Z</time>
      </trkpt>
      <trkpt lat="43.53319" lon="1.49277">
        <ele>152</ele>
        <time>2023-03-22T17:04:44Z</time>
      </trkpt>
      <trkpt lat="43.53317" lon="1.49275">
        <ele>152</ele>
        <time>2023-03-22T17:04:45Z</time>
      </trkpt>
      <trkpt lat="43.53316" lon="1.49272">
        <ele>153</ele>
        <time>2023-03-22T17:04:46Z</time>
      </trkpt>
      <trkpt lat="43.53313" lon="1.49269">
        <ele>153</ele>
        <time>2023-03-22T17:04:47Z</time>
      </trkpt>
      <trkpt lat="43.5331" lon="1.49266">
        <ele>154</ele>
        <time>2023-03-22T17:04:48Z</time>
      </trkpt>
      <trkpt lat="43.53307" lon="1.49263">
        <ele>154</ele>
        <time>2023-03-22T17:04:49Z</time>
      </trkpt>
      <trkpt lat="43.53307" lon="1.49263">
        <ele>154</ele>
        <time>2023-03-22T17:04:50Z</time>
      </trkpt>
      <trkpt lat="43.53306" lon="1.4926">
        <ele>154</ele>
        <time>2023-03-22T17:04:51Z</time>
      </trkpt>
      <trkpt lat="43.53304" lon="1.49259">
        <ele>154</ele>
        <time>2023-03-22T17:04:52Z</time>
      </trkpt>
      <trkpt lat="43.53301" lon="1.49256">
        <ele>154</ele>
        <time>2023-03-22T17:04:53Z</time>
      </trkpt>
      <trkpt lat="43.53299" lon="1.49253">
        <ele>154</ele>
        <time>2023-03-22T17:04:54Z</time>
      </trkpt>
      <trkpt lat="43.53297" lon="1.49251">
        <ele>154</ele>
        <time>2023-03-22T17:04:55Z</time>
      </trkpt>
      <trkpt lat="43.53294" lon="1.49248">
        <ele>154</ele>
        <time>2023-03-22T17:04:56Z</time>
      </trkpt>
      <trkpt lat="43.53292" lon="1.49245">
        <ele>154</ele>
        <time>2023-03-22T17:04:57Z</time>
      </trkpt>
      <trkpt lat="43.53289" lon="1.49243">
        <ele>155</ele>
        <time>2023-03-22T17:04:58Z</time>
      </trkpt>
      <trkpt lat="43.53287" lon="1.4924">
        <ele>155</ele>
        <time>2023-03-22T17:04:59Z</time>
      </trkpt>
      <trkpt lat="43.53285" lon="1.49237">
        <ele>155</ele>
        <time>2023-03-22T17:05:00Z</time>
      </trkpt>
      <trkpt lat="43.53283" lon="1.49235">
        <ele>155</ele>
        <time>2023-03-22T17:05:01Z</time>
      </trkpt>
      <trkpt lat="43.53281" lon="1.49233">
        <ele>156</ele>
        <time>2023-03-22T17:05:02Z</time>
      </trkpt>
      <trkpt lat="43.53279" lon="1.49231">
        <ele>156</ele>
        <time>2023-03-22T17:05:03Z</time>
      </trkpt>
      <trkpt lat="43.53277" lon="1.4923">
        <ele>156</ele>
        <time>2023-03-22T17:05:04Z</time>
      </trkpt>
      <trkpt lat="43.53275" lon="1.4923">
        <ele>156</ele>
        <time>2023-03-22T17:05:05Z</time>
      </trkpt>
      <trkpt lat="43.53273" lon="1.49231">
        <ele>157</ele>
        <time>2023-03-22T17:05:06Z</time>
      </trkpt>
      <trkpt lat="43.53271" lon="1.49232">
        <ele>157</ele>
        <time>2023-03-22T17:05:07Z</time>
      </trkpt>
      <trkpt lat="43.53269" lon="1.49234">
        <ele>157</ele>
        <time>2023-03-22T17:05:08Z</time>
      </trkpt>
      <trkpt lat="43.53267" lon="1.49235">
        <ele>157</ele>
        <time>2023-03-22T17:05:09Z</time>
      </trkpt>
      <trkpt lat="43.53265" lon="1.49237">
        <ele>157</ele>
        <time>2023-03-22T17:05:10Z</time>
      </trkpt>
      <trkpt lat="43.53263" lon="1.49239">
        <ele>157</ele>
        <time>2023-03-22T17:05:11Z</time>
      </trkpt>
      <trkpt lat="43.53261" lon="1.49241">
        <ele>157</ele>
        <time>2023-03-22T17:05:12Z</time>
      </trkpt>
      <trkpt lat="43.53258" lon="1.49242">
        <ele>157</ele>
        <time>2023-03-22T17:05:13Z</time>
      </trkpt>
      <trkpt lat="43.53253" lon="1.49246">
        <ele>157</ele>
        <time>2023-03-22T17:05:14Z</time>
      </trkpt>
      <trkpt lat="43.5325" lon="1.49248">
        <ele>157</ele>
        <time>2023-03-22T17:05:15Z</time>
      </trkpt>
      <trkpt lat="43.5325" lon="1.49248">
        <ele>157</ele>
        <time>2023-03-22T17:05:16Z</time>
      </trkpt>
      <trkpt lat="43.53247" lon="1.4925">
        <ele>157</ele>
        <time>2023-03-22T17:05:17Z</time>
      </trkpt>
      <trkpt lat="43.53241" lon="1.49254">
        <ele>157</ele>
        <time>2023-03-22T17:05:18Z</time>
      </trkpt>
      <trkpt lat="43.53241" lon="1.49254">
        <ele>158</ele>
        <time>2023-03-22T17:05:19Z</time>
      </trkpt>
      <trkpt lat="43.53238" lon="1.49255">
        <ele>158</ele>
        <time>2023-03-22T17:05:20Z</time>
      </trkpt>
      <trkpt lat="43.53235" lon="1.49256">
        <ele>157</ele>
        <time>2023-03-22T17:05:21Z</time>
      </trkpt>
      <trkpt lat="43.53233" lon="1.49256">
        <ele>157</ele>
        <time>2023-03-22T17:05:22Z</time>
      </trkpt>
      <trkpt lat="43.5323" lon="1.49256">
        <ele>157</ele>
        <time>2023-03-22T17:05:23Z</time>
      </trkpt>
      <trkpt lat="43.53228" lon="1.49256">
        <ele>157</ele>
        <time>2023-03-22T17:05:24Z</time>
      </trkpt>
      <trkpt lat="43.53224" lon="1.49256">
        <ele>157</ele>
        <time>2023-03-22T17:05:25Z</time>
      </trkpt>
      <trkpt lat="43.53221" lon="1.49255">
        <ele>157</ele>
        <time>2023-03-22T17:05:26Z</time>
      </trkpt>
      <trkpt lat="43.53218" lon="1.49253">
        <ele>157</ele>
        <time>2023-03-22T17:05:27Z</time>
      </trkpt>
      <trkpt lat="43.53215" lon="1.49251">
        <ele>157</ele>
        <time>2023-03-22T17:05:28Z</time>
      </trkpt>
      <trkpt lat="43.53211" lon="1.49249">
        <ele>157</ele>
        <time>2023-03-22T17:05:29Z</time>
      </trkpt>
      <trkpt lat="43.53209" lon="1.49245">
        <ele>157</ele>
        <time>2023-03-22T17:05:30Z</time>
      </trkpt>
      <trkpt lat="43.53207" lon="1.49242">
        <ele>157</ele>
        <time>2023-03-22T17:05:31Z</time>
      </trkpt>
      <trkpt lat="43.53202" lon="1.49238">
        <ele>157</ele>
        <time>2023-03-22T17:05:32Z</time>
      </trkpt>
      <trkpt lat="43.53199" lon="1.49237">
        <ele>157</ele>
        <time>2023-03-22T17:05:33Z</time>
      </trkpt>
      <trkpt lat="43.53196" lon="1.49237">
        <ele>157</ele>
        <time>2023-03-22T17:05:34Z</time>
      </trkpt>
      <trkpt lat="43.53196" lon="1.49237">
        <ele>157</ele>
        <time>2023-03-22T17:05:35Z</time>
      </trkpt>
      <trkpt lat="43.53192" lon="1.49236">
        <ele>157</ele>
        <time>2023-03-22T17:05:36Z</time>
      </trkpt>
      <trkpt lat="43.53189" lon="1.49235">
        <ele>157</ele>
        <time>2023-03-22T17:05:37Z</time>
      </trkpt>
      <trkpt lat="43.53186" lon="1.49234">
        <ele>157</ele>
        <time>2023-03-22T17:05:38Z</time>
      </trkpt>
      <trkpt lat="43.53184" lon="1.49232">
        <ele>157</ele>
        <time>2023-03-22T17:05:39Z</time>
      </trkpt>
      <trkpt lat="43.53181" lon="1.4923">
        <ele>157</ele>
        <time>2023-03-22T17:05:40Z</time>
      </trkpt>
      <trkpt lat="43.53179" lon="1.49229">
        <ele>157</ele>
        <time>2023-03-22T17:05:41Z</time>
      </trkpt>
      <trkpt lat="43.53176" lon="1.49227">
        <ele>157</ele>
        <time>2023-03-22T17:05:42Z</time>
      </trkpt>
      <trkpt lat="43.53174" lon="1.49224">
        <ele>157</ele>
        <time>2023-03-22T17:05:43Z</time>
      </trkpt>
      <trkpt lat="43.53171" lon="1.49223">
        <ele>157</ele>
        <time>2023-03-22T17:05:44Z</time>
      </trkpt>
      <trkpt lat="43.53168" lon="1.49221">
        <ele>156</ele>
        <time>2023-03-22T17:05:45Z</time>
      </trkpt>
      <trkpt lat="43.53165" lon="1.49219">
        <ele>156</ele>
        <time>2023-03-22T17:05:46Z</time>
      </trkpt>
      <trkpt lat="43.53162" lon="1.49218">
        <ele>156</ele>
        <time>2023-03-22T17:05:47Z</time>
      </trkpt>
      <trkpt lat="43.5316" lon="1.49217">
        <ele>156</ele>
        <time>2023-03-22T17:05:48Z</time>
      </trkpt>
      <trkpt lat="43.53157" lon="1.49215">
        <ele>156</ele>
        <time>2023-03-22T17:05:49Z</time>
      </trkpt>
      <trkpt lat="43.53154" lon="1.49214">
        <ele>156</ele>
        <time>2023-03-22T17:05:50Z</time>
      </trkpt>
      <trkpt lat="43.53152" lon="1.49212">
        <ele>156</ele>
        <time>2023-03-22T17:05:51Z</time>
      </trkpt>
      <trkpt lat="43.53144" lon="1.4921">
        <ele>156</ele>
        <time>2023-03-22T17:05:52Z</time>
      </trkpt>
      <trkpt lat="43.53139" lon="1.4921">
        <ele>156</ele>
        <time>2023-03-22T17:05:53Z</time>
      </trkpt>
      <trkpt lat="43.53139" lon="1.4921">
        <ele>156</ele>
        <time>2023-03-22T17:05:54Z</time>
      </trkpt>
      <trkpt lat="43.53136" lon="1.49209">
        <ele>156</ele>
        <time>2023-03-22T17:05:55Z</time>
      </trkpt>
      <trkpt lat="43.53133" lon="1.49208">
        <ele>156</ele>
        <time>2023-03-22T17:05:56Z</time>
      </trkpt>
      <trkpt lat="43.5313" lon="1.49207">
        <ele>156</ele>
        <time>2023-03-22T17:05:57Z</time>
      </trkpt>
      <trkpt lat="43.53127" lon="1.49205">
        <ele>156</ele>
        <time>2023-03-22T17:05:58Z</time>
      </trkpt>
      <trkpt lat="43.53125" lon="1.49204">
        <ele>156</ele>
        <time>2023-03-22T17:05:59Z</time>
      </trkpt>
      <trkpt lat="43.53122" lon="1.49203">
        <ele>156</ele>
        <time>2023-03-22T17:06:00Z</time>
      </trkpt>
      <trkpt lat="43.5312" lon="1.49202">
        <ele>156</ele>
        <time>2023-03-22T17:06:01Z</time>
      </trkpt>
      <trkpt lat="43.53117" lon="1.49201">
        <ele>156</ele>
        <time>2023-03-22T17:06:02Z</time>
      </trkpt>
      <trkpt lat="43.53113" lon="1.49198">
        <ele>156</ele>
        <time>2023-03-22T17:06:03Z</time>
      </trkpt>
      <trkpt lat="43.53109" lon="1.49196">
        <ele>156</ele>
        <time>2023-03-22T17:06:04Z</time>
      </trkpt>
      <trkpt lat="43.53109" lon="1.49196">
        <ele>156</ele>
        <time>2023-03-22T17:06:05Z</time>
      </trkpt>
      <trkpt lat="43.53106" lon="1.49194">
        <ele>156</ele>
        <time>2023-03-22T17:06:06Z</time>
      </trkpt>
      <trkpt lat="43.53102" lon="1.49193">
        <ele>156</ele>
        <time>2023-03-22T17:06:07Z</time>
      </trkpt>
      <trkpt lat="43.53099" lon="1.49191">
        <ele>156</ele>
        <time>2023-03-22T17:06:08Z</time>
      </trkpt>
      <trkpt lat="43.53096" lon="1.49189">
        <ele>156</ele>
        <time>2023-03-22T17:06:09Z</time>
      </trkpt>
      <trkpt lat="43.53093" lon="1.49188">
        <ele>156</ele>
        <time>2023-03-22T17:06:10Z</time>
      </trkpt>
      <trkpt lat="43.5309" lon="1.49189">
        <ele>156</ele>
        <time>2023-03-22T17:06:11Z</time>
      </trkpt>
      <trkpt lat="43.53088" lon="1.49189">
        <ele>156</ele>
        <time>2023-03-22T17:06:12Z</time>
      </trkpt>
      <trkpt lat="43.53086" lon="1.4919">
        <ele>156</ele>
        <time>2023-03-22T17:06:13Z</time>
      </trkpt>
      <trkpt lat="43.53083" lon="1.4919">
        <ele>156</ele>
        <time>2023-03-22T17:06:14Z</time>
      </trkpt>
      <trkpt lat="43.53083" lon="1.4919">
        <ele>156</ele>
        <time>2023-03-22T17:06:15Z</time>
      </trkpt>
      <trkpt lat="43.53082" lon="1.49195">
        <ele>156</ele>
        <time>2023-03-22T17:06:16Z</time>
      </trkpt>
      <trkpt lat="43.5308" lon="1.49198">
        <ele>156</ele>
        <time>2023-03-22T17:06:17Z</time>
      </trkpt>
      <trkpt lat="43.53078" lon="1.49202">
        <ele>156</ele>
        <time>2023-03-22T17:06:18Z</time>
      </trkpt>
      <trkpt lat="43.53076" lon="1.49205">
        <ele>156</ele>
        <time>2023-03-22T17:06:19Z</time>
      </trkpt>
      <trkpt lat="43.53074" lon="1.49209">
        <ele>156</ele>
        <time>2023-03-22T17:06:20Z</time>
      </trkpt>
      <trkpt lat="43.53073" lon="1.49211">
        <ele>156</ele>
        <time>2023-03-22T17:06:21Z</time>
      </trkpt>
      <trkpt lat="43.53071" lon="1.49218">
        <ele>156</ele>
        <time>2023-03-22T17:06:22Z</time>
      </trkpt>
      <trkpt lat="43.53071" lon="1.49218">
        <ele>156</ele>
        <time>2023-03-22T17:06:23Z</time>
      </trkpt>
      <trkpt lat="43.5307" lon="1.4922">
        <ele>156</ele>
        <time>2023-03-22T17:06:24Z</time>
      </trkpt>
      <trkpt lat="43.53069" lon="1.49223">
        <ele>156</ele>
        <time>2023-03-22T17:06:25Z</time>
      </trkpt>
      <trkpt lat="43.53068" lon="1.49227">
        <ele>156</ele>
        <time>2023-03-22T17:06:26Z</time>
      </trkpt>
      <trkpt lat="43.53067" lon="1.4923">
        <ele>156</ele>
        <time>2023-03-22T17:06:27Z</time>
      </trkpt>
      <trkpt lat="43.53065" lon="1.49235">
        <ele>156</ele>
        <time>2023-03-22T17:06:28Z</time>
      </trkpt>
      <trkpt lat="43.53063" lon="1.49239">
        <ele>157</ele>
        <time>2023-03-22T17:06:29Z</time>
      </trkpt>
      <trkpt lat="43.53059" lon="1.49248">
        <ele>157</ele>
        <time>2023-03-22T17:06:30Z</time>
      </trkpt>
      <trkpt lat="43.53059" lon="1.49248">
        <ele>157</ele>
        <time>2023-03-22T17:06:31Z</time>
      </trkpt>
      <trkpt lat="43.53056" lon="1.49252">
        <ele>157</ele>
        <time>2023-03-22T17:06:32Z</time>
      </trkpt>
      <trkpt lat="43.53054" lon="1.49256">
        <ele>156</ele>
        <time>2023-03-22T17:06:33Z</time>
      </trkpt>
      <trkpt lat="43.53052" lon="1.49258">
        <ele>156</ele>
        <time>2023-03-22T17:06:34Z</time>
      </trkpt>
      <trkpt lat="43.5305" lon="1.49262">
        <ele>156</ele>
        <time>2023-03-22T17:06:35Z</time>
      </trkpt>
      <trkpt lat="43.53047" lon="1.49265">
        <ele>156</ele>
        <time>2023-03-22T17:06:36Z</time>
      </trkpt>
      <trkpt lat="43.53043" lon="1.49269">
        <ele>156</ele>
        <time>2023-03-22T17:06:37Z</time>
      </trkpt>
      <trkpt lat="43.53039" lon="1.49272">
        <ele>156</ele>
        <time>2023-03-22T17:06:38Z</time>
      </trkpt>
      <trkpt lat="43.53034" lon="1.49272">
        <ele>156</ele>
        <time>2023-03-22T17:06:39Z</time>
      </trkpt>
      <trkpt lat="43.5303" lon="1.49271">
        <ele>156</ele>
        <time>2023-03-22T17:06:40Z</time>
      </trkpt>
      <trkpt lat="43.53023" lon="1.49266">
        <ele>157</ele>
        <time>2023-03-22T17:06:41Z</time>
      </trkpt>
      <trkpt lat="43.53023" lon="1.49266">
        <ele>157</ele>
        <time>2023-03-22T17:06:42Z</time>
      </trkpt>
      <trkpt lat="43.53021" lon="1.49264">
        <ele>157</ele>
        <time>2023-03-22T17:06:43Z</time>
      </trkpt>
      <trkpt lat="43.53018" lon="1.49261">
        <ele>157</ele>
        <time>2023-03-22T17:06:44Z</time>
      </trkpt>
      <trkpt lat="43.53016" lon="1.49259">
        <ele>157</ele>
        <time>2023-03-22T17:06:45Z</time>
      </trkpt>
      <trkpt lat="43.53013" lon="1.49256">
        <ele>157</ele>
        <time>2023-03-22T17:06:46Z</time>
      </trkpt>
      <trkpt lat="43.5301" lon="1.49253">
        <ele>157</ele>
        <time>2023-03-22T17:06:47Z</time>
      </trkpt>
      <trkpt lat="43.53008" lon="1.4925">
        <ele>157</ele>
        <time>2023-03-22T17:06:48Z</time>
      </trkpt>
      <trkpt lat="43.53003" lon="1.49244">
        <ele>157</ele>
        <time>2023-03-22T17:06:49Z</time>
      </trkpt>
      <trkpt lat="43.53003" lon="1.49244">
        <ele>157</ele>
        <time>2023-03-22T17:06:50Z</time>
      </trkpt>
      <trkpt lat="43.53" lon="1.4924">
        <ele>157</ele>
        <time>2023-03-22T17:06:51Z</time>
      </trkpt>
      <trkpt lat="43.52998" lon="1.49237">
        <ele>157</ele>
        <time>2023-03-22T17:06:52Z</time>
      </trkpt>
      <trkpt lat="43.52996" lon="1.49234">
        <ele>157</ele>
        <time>2023-03-22T17:06:53Z</time>
      </trkpt>
      <trkpt lat="43.52993" lon="1.49231">
        <ele>157</ele>
        <time>2023-03-22T17:06:54Z</time>
      </trkpt>
      <trkpt lat="43.52991" lon="1.49228">
        <ele>157</ele>
        <time>2023-03-22T17:06:55Z</time>
      </trkpt>
      <trkpt lat="43.52989" lon="1.49224">
        <ele>157</ele>
        <time>2023-03-22T17:06:56Z</time>
      </trkpt>
      <trkpt lat="43.52986" lon="1.49222">
        <ele>157</ele>
        <time>2023-03-22T17:06:57Z</time>
      </trkpt>
      <trkpt lat="43.52984" lon="1.4922">
        <ele>158</ele>
        <time>2023-03-22T17:06:58Z</time>
      </trkpt>
      <trkpt lat="43.52981" lon="1.49217">
        <ele>158</ele>
        <time>2023-03-22T17:06:59Z</time>
      </trkpt>
      <trkpt lat="43.52979" lon="1.49215">
        <ele>158</ele>
        <time>2023-03-22T17:07:00Z</time>
      </trkpt>
      <trkpt lat="43.52977" lon="1.49212">
        <ele>158</ele>
        <time>2023-03-22T17:07:01Z</time>
      </trkpt>
      <trkpt lat="43.52973" lon="1.49206">
        <ele>159</ele>
        <time>2023-03-22T17:07:02Z</time>
      </trkpt>
      <trkpt lat="43.52973" lon="1.49206">
        <ele>159</ele>
        <time>2023-03-22T17:07:03Z</time>
      </trkpt>
      <trkpt lat="43.52971" lon="1.49204">
        <ele>159</ele>
        <time>2023-03-22T17:07:04Z</time>
      </trkpt>
      <trkpt lat="43.52969" lon="1.49201">
        <ele>159</ele>
        <time>2023-03-22T17:07:05Z</time>
      </trkpt>
      <trkpt lat="43.52967" lon="1.49198">
        <ele>159</ele>
        <time>2023-03-22T17:07:06Z</time>
      </trkpt>
      <trkpt lat="43.52964" lon="1.49195">
        <ele>159</ele>
        <time>2023-03-22T17:07:07Z</time>
      </trkpt>
      <trkpt lat="43.52959" lon="1.49189">
        <ele>159</ele>
        <time>2023-03-22T17:07:08Z</time>
      </trkpt>
      <trkpt lat="43.52956" lon="1.49187">
        <ele>159</ele>
        <time>2023-03-22T17:07:09Z</time>
      </trkpt>
      <trkpt lat="43.52956" lon="1.49187">
        <ele>159</ele>
        <time>2023-03-22T17:07:10Z</time>
      </trkpt>
      <trkpt lat="43.52954" lon="1.49184">
        <ele>159</ele>
        <time>2023-03-22T17:07:11Z</time>
      </trkpt>
      <trkpt lat="43.52952" lon="1.49181">
        <ele>159</ele>
        <time>2023-03-22T17:07:12Z</time>
      </trkpt>
      <trkpt lat="43.5295" lon="1.49178">
        <ele>159</ele>
        <time>2023-03-22T17:07:13Z</time>
      </trkpt>
      <trkpt lat="43.52948" lon="1.49175">
        <ele>159</ele>
        <time>2023-03-22T17:07:14Z</time>
      </trkpt>
      <trkpt lat="43.52946" lon="1.49172">
        <ele>159</ele>
        <time>2023-03-22T17:07:15Z</time>
      </trkpt>
      <trkpt lat="43.52941" lon="1.49166">
        <ele>159</ele>
        <time>2023-03-22T17:07:16Z</time>
      </trkpt>
      <trkpt lat="43.52941" lon="1.49166">
        <ele>159</ele>
        <time>2023-03-22T17:07:17Z</time>
      </trkpt>
      <trkpt lat="43.52939" lon="1.49164">
        <ele>159</ele>
        <time>2023-03-22T17:07:18Z</time>
      </trkpt>
      <trkpt lat="43.52937" lon="1.49161">
        <ele>159</ele>
        <time>2023-03-22T17:07:19Z</time>
      </trkpt>
      <trkpt lat="43.52935" lon="1.49158">
        <ele>159</ele>
        <time>2023-03-22T17:07:20Z</time>
      </trkpt>
      <trkpt lat="43.52933" lon="1.49154">
        <ele>160</ele>
        <time>2023-03-22T17:07:21Z</time>
      </trkpt>
      <trkpt lat="43.52931" lon="1.49151">
        <ele>160</ele>
        <time>2023-03-22T17:07:22Z</time>
      </trkpt>
      <trkpt lat="43.52931" lon="1.4914">
        <ele>160</ele>
        <time>2023-03-22T17:07:23Z</time>
      </trkpt>
      <trkpt lat="43.52931" lon="1.4914">
        <ele>160</ele>
        <time>2023-03-22T17:07:24Z</time>
      </trkpt>
      <trkpt lat="43.52932" lon="1.49135">
        <ele>160</ele>
        <time>2023-03-22T17:07:25Z</time>
      </trkpt>
      <trkpt lat="43.52934" lon="1.49126">
        <ele>160</ele>
        <time>2023-03-22T17:07:26Z</time>
      </trkpt>
      <trkpt lat="43.52935" lon="1.49121">
        <ele>160</ele>
        <time>2023-03-22T17:07:27Z</time>
      </trkpt>
      <trkpt lat="43.52935" lon="1.49121">
        <ele>160</ele>
        <time>2023-03-22T17:07:28Z</time>
      </trkpt>
      <trkpt lat="43.52937" lon="1.49117">
        <ele>160</ele>
        <time>2023-03-22T17:07:29Z</time>
      </trkpt>
      <trkpt lat="43.52938" lon="1.49112">
        <ele>160</ele>
        <time>2023-03-22T17:07:30Z</time>
      </trkpt>
      <trkpt lat="43.52939" lon="1.49108">
        <ele>160</ele>
        <time>2023-03-22T17:07:31Z</time>
      </trkpt>
      <trkpt lat="43.52941" lon="1.49103">
        <ele>160</ele>
        <time>2023-03-22T17:07:32Z</time>
      </trkpt>
      <trkpt lat="43.52942" lon="1.491">
        <ele>160</ele>
        <time>2023-03-22T17:07:33Z</time>
      </trkpt>
      <trkpt lat="43.52943" lon="1.49096">
        <ele>161</ele>
        <time>2023-03-22T17:07:34Z</time>
      </trkpt>
      <trkpt lat="43.52943" lon="1.49092">
        <ele>161</ele>
        <time>2023-03-22T17:07:35Z</time>
      </trkpt>
      <trkpt lat="43.52945" lon="1.49088">
        <ele>161</ele>
        <time>2023-03-22T17:07:36Z</time>
      </trkpt>
      <trkpt lat="43.52946" lon="1.49084">
        <ele>161</ele>
        <time>2023-03-22T17:07:37Z</time>
      </trkpt>
      <trkpt lat="43.52949" lon="1.49076">
        <ele>160</ele>
        <time>2023-03-22T17:07:38Z</time>
      </trkpt>
      <trkpt lat="43.52949" lon="1.49076">
        <ele>160</ele>
        <time>2023-03-22T17:07:39Z</time>
      </trkpt>
      <trkpt lat="43.52951" lon="1.49068">
        <ele>160</ele>
        <time>2023-03-22T17:07:40Z</time>
      </trkpt>
      <trkpt lat="43.52953" lon="1.49065">
        <ele>160</ele>
        <time>2023-03-22T17:07:41Z</time>
      </trkpt>
      <trkpt lat="43.52953" lon="1.49065">
        <ele>160</ele>
        <time>2023-03-22T17:07:42Z</time>
      </trkpt>
      <trkpt lat="43.52954" lon="1.49062">
        <ele>160</ele>
        <time>2023-03-22T17:07:43Z</time>
      </trkpt>
      <trkpt lat="43.52956" lon="1.49058">
        <ele>160</ele>
        <time>2023-03-22T17:07:44Z</time>
      </trkpt>
      <trkpt lat="43.52957" lon="1.49055">
        <ele>161</ele>
        <time>2023-03-22T17:07:45Z</time>
      </trkpt>
      <trkpt lat="43.5296" lon="1.4905">
        <ele>161</ele>
        <time>2023-03-22T17:07:46Z</time>
      </trkpt>
      <trkpt lat="43.52961" lon="1.49047">
        <ele>161</ele>
        <time>2023-03-22T17:07:47Z</time>
      </trkpt>
      <trkpt lat="43.52961" lon="1.49047">
        <ele>161</ele>
        <time>2023-03-22T17:07:48Z</time>
      </trkpt>
      <trkpt lat="43.52962" lon="1.49043">
        <ele>161</ele>
        <time>2023-03-22T17:07:49Z</time>
      </trkpt>
      <trkpt lat="43.52964" lon="1.49041">
        <ele>161</ele>
        <time>2023-03-22T17:07:50Z</time>
      </trkpt>
      <trkpt lat="43.52967" lon="1.49039">
        <ele>161</ele>
        <time>2023-03-22T17:07:51Z</time>
      </trkpt>
      <trkpt lat="43.52969" lon="1.49036">
        <ele>161</ele>
        <time>2023-03-22T17:07:52Z</time>
      </trkpt>
      <trkpt lat="43.52971" lon="1.49033">
        <ele>161</ele>
        <time>2023-03-22T17:07:53Z</time>
      </trkpt>
      <trkpt lat="43.52974" lon="1.49024">
        <ele>161</ele>
        <time>2023-03-22T17:07:54Z</time>
      </trkpt>
      <trkpt lat="43.52974" lon="1.49024">
        <ele>161</ele>
        <time>2023-03-22T17:07:55Z</time>
      </trkpt>
      <trkpt lat="43.52975" lon="1.4902">
        <ele>162</ele>
        <time>2023-03-22T17:07:56Z</time>
      </trkpt>
      <trkpt lat="43.52976" lon="1.49016">
        <ele>162</ele>
        <time>2023-03-22T17:07:57Z</time>
      </trkpt>
      <trkpt lat="43.52978" lon="1.49012">
        <ele>162</ele>
        <time>2023-03-22T17:07:58Z</time>
      </trkpt>
      <trkpt lat="43.52979" lon="1.49009">
        <ele>162</ele>
        <time>2023-03-22T17:07:59Z</time>
      </trkpt>
      <trkpt lat="43.5298" lon="1.49005">
        <ele>162</ele>
        <time>2023-03-22T17:08:00Z</time>
      </trkpt>
      <trkpt lat="43.5298" lon="1.49">
        <ele>162</ele>
        <time>2023-03-22T17:08:01Z</time>
      </trkpt>
      <trkpt lat="43.52981" lon="1.48996">
        <ele>162</ele>
        <time>2023-03-22T17:08:02Z</time>
      </trkpt>
      <trkpt lat="43.52983" lon="1.48992">
        <ele>162</ele>
        <time>2023-03-22T17:08:03Z</time>
      </trkpt>
      <trkpt lat="43.52983" lon="1.48989">
        <ele>162</ele>
        <time>2023-03-22T17:08:04Z</time>
      </trkpt>
      <trkpt lat="43.52985" lon="1.48983">
        <ele>162</ele>
        <time>2023-03-22T17:08:05Z</time>
      </trkpt>
      <trkpt lat="43.52985" lon="1.48983">
        <ele>162</ele>
        <time>2023-03-22T17:08:06Z</time>
      </trkpt>
      <trkpt lat="43.52987" lon="1.4898">
        <ele>162</ele>
        <time>2023-03-22T17:08:07Z</time>
      </trkpt>
      <trkpt lat="43.52989" lon="1.48976">
        <ele>162</ele>
        <time>2023-03-22T17:08:08Z</time>
      </trkpt>
      <trkpt lat="43.5299" lon="1.48973">
        <ele>162</ele>
        <time>2023-03-22T17:08:09Z</time>
      </trkpt>
      <trkpt lat="43.52992" lon="1.4897">
        <ele>163</ele>
        <time>2023-03-22T17:08:10Z</time>
      </trkpt>
      <trkpt lat="43.52994" lon="1.48967">
        <ele>163</ele>
        <time>2023-03-22T17:08:11Z</time>
      </trkpt>
      <trkpt lat="43.52998" lon="1.48961">
        <ele>163</ele>
        <time>2023-03-22T17:08:12Z</time>
      </trkpt>
      <trkpt lat="43.52998" lon="1.48961">
        <ele>163</ele>
        <time>2023-03-22T17:08:13Z</time>
      </trkpt>
      <trkpt lat="43.53" lon="1.48958">
        <ele>163</ele>
        <time>2023-03-22T17:08:14Z</time>
      </trkpt>
      <trkpt lat="43.53001" lon="1.48956">
        <ele>163</ele>
        <time>2023-03-22T17:08:15Z</time>
      </trkpt>
    </trkseg>
  </trk>
</gpx>